<?xml version='1.0' encoding='UTF-8'?><gpx version="1.1" creator="JPX - https://github.com/jenetics/jpx" xmlns="http://www.topografix.com/GPX/1/1"><trk><trkseg><trkpt lat="35.9752596494648" lon="-107.03183551283905"><ele>2091.0</ele><time>2026-05-02T17:15:17Z</time></trkpt><trkpt lat="35.97519388179688" lon="-107.0318391890633"><ele>2091.0</ele><time>2026-05-02T17:16:31Z</time></trkpt><trkpt lat="35.975266957460676" lon="-107.03190097633518"><ele>2091.0</ele><time>2026-05-02T17:17:39Z</time></trkpt><trkpt lat="35.975381340785304" lon="-107.03194635973728"><ele>2091.0</ele><time>2026-05-02T17:17:41Z</time></trkpt><trkpt lat="35.975450173072666" lon="-107.03196696531792"><ele>2091.0</ele><time>2026-05-02T17:17:42Z</time></trkpt><trkpt lat="35.97540911743211" lon="-107.03206883990045"><ele>2091.0</ele><time>2026-05-02T17:17:45Z</time></trkpt><trkpt lat="35.975271680643885" lon="-107.03202834985456"><ele>2091.0</ele><time>2026-05-02T17:17:47Z</time></trkpt><trkpt lat="35.97515215730368" lon="-107.03198439188598"><ele>2091.0</ele><time>2026-05-02T17:17:49Z</time></trkpt><trkpt lat="35.97507317331249" lon="-107.03188114242245"><ele>2091.0</ele><time>2026-05-02T17:17:51Z</time></trkpt><trkpt lat="35.97502102393456" lon="-107.03181070746227"><ele>2091.0</ele><time>2026-05-02T17:17:54Z</time></trkpt><trkpt lat="35.97504571029898" lon="-107.03170993535822"><ele>2091.0</ele><time>2026-05-02T17:17:57Z</time></trkpt><trkpt lat="35.975101189727475" lon="-107.03158230621027"><ele>2091.0</ele><time>2026-05-02T17:17:59Z</time></trkpt><trkpt lat="35.97514200914922" lon="-107.03144818399754"><ele>2091.0</ele><time>2026-05-02T17:18:01Z</time></trkpt><trkpt lat="35.97515635610721" lon="-107.0313229369721"><ele>2091.0</ele><time>2026-05-02T17:18:03Z</time></trkpt><trkpt lat="35.97514764357296" lon="-107.03121280095357"><ele>2091.0</ele><time>2026-05-02T17:18:05Z</time></trkpt><trkpt lat="35.975069919891844" lon="-107.03112253345208"><ele>2091.0</ele><time>2026-05-02T17:18:07Z</time></trkpt><trkpt lat="35.97496072474772" lon="-107.03108639611622"><ele>2090.6</ele><time>2026-05-02T17:18:09Z</time></trkpt><trkpt lat="35.97488489094313" lon="-107.03106057132891"><ele>2090.2</ele><time>2026-05-02T17:18:11Z</time></trkpt><trkpt lat="35.974797077785894" lon="-107.03103098480032"><ele>2089.8</ele><time>2026-05-02T17:18:13Z</time></trkpt><trkpt lat="35.974657527314875" lon="-107.03099650134163"><ele>2089.4</ele><time>2026-05-02T17:18:15Z</time></trkpt><trkpt lat="35.97458675500681" lon="-107.03101174380558"><ele>2089.0</ele><time>2026-05-02T17:18:16Z</time></trkpt><trkpt lat="35.9745219597916" lon="-107.0310334393815"><ele>2089.0</ele><time>2026-05-02T17:18:17Z</time></trkpt><trkpt lat="35.97445706244352" lon="-107.03105793843653"><ele>2089.0</ele><time>2026-05-02T17:18:18Z</time></trkpt><trkpt lat="35.974368730242986" lon="-107.03109933547677"><ele>2089.0</ele><time>2026-05-02T17:18:20Z</time></trkpt><trkpt lat="35.9742752333734" lon="-107.03113707791192"><ele>2089.0</ele><time>2026-05-02T17:18:22Z</time></trkpt><trkpt lat="35.974199181001566" lon="-107.03113801293934"><ele>2089.0</ele><time>2026-05-02T17:18:24Z</time></trkpt><trkpt lat="35.97412427062347" lon="-107.03122267708501"><ele>2089.0</ele><time>2026-05-02T17:18:27Z</time></trkpt><trkpt lat="35.97409153846795" lon="-107.03138010049305"><ele>2089.166666666667</ele><time>2026-05-02T17:18:29Z</time></trkpt><trkpt lat="35.9740676657582" lon="-107.0314757867465"><ele>2089.3333333333335</ele><time>2026-05-02T17:18:30Z</time></trkpt><trkpt lat="35.97404017790613" lon="-107.03157529144359"><ele>2089.5</ele><time>2026-05-02T17:18:31Z</time></trkpt><trkpt lat="35.97400124998321" lon="-107.03169036652929"><ele>2089.6666666666665</ele><time>2026-05-02T17:18:32Z</time></trkpt><trkpt lat="35.973961296372266" lon="-107.03177386736297"><ele>2089.833333333333</ele><time>2026-05-02T17:18:33Z</time></trkpt><trkpt lat="35.973906883611406" lon="-107.03186347509676"><ele>2090.0</ele><time>2026-05-02T17:18:34Z</time></trkpt><trkpt lat="35.973867295780565" lon="-107.0319538201957"><ele>2090.0</ele><time>2026-05-02T17:18:35Z</time></trkpt><trkpt lat="35.97383949401816" lon="-107.03204951616414"><ele>2090.0</ele><time>2026-05-02T17:18:36Z</time></trkpt><trkpt lat="35.97379503123865" lon="-107.03215272514724"><ele>2090.0</ele><time>2026-05-02T17:18:37Z</time></trkpt><trkpt lat="35.9737442004741" lon="-107.03223790295125"><ele>2090.0</ele><time>2026-05-02T17:18:38Z</time></trkpt><trkpt lat="35.973671744354334" lon="-107.03231174504748"><ele>2090.0</ele><time>2026-05-02T17:18:39Z</time></trkpt><trkpt lat="35.97359519957535" lon="-107.03239304540311"><ele>2090.0</ele><time>2026-05-02T17:18:40Z</time></trkpt><trkpt lat="35.97353127361036" lon="-107.03245917996098"><ele>2090.0</ele><time>2026-05-02T17:18:41Z</time></trkpt><trkpt lat="35.97347235815367" lon="-107.03250069289689"><ele>2090.0</ele><time>2026-05-02T17:18:45Z</time></trkpt><trkpt lat="35.97337670214487" lon="-107.03251362798143"><ele>2090.0</ele><time>2026-05-02T17:18:59Z</time></trkpt><trkpt lat="35.97329593770756" lon="-107.03253100191561"><ele>2090.0</ele><time>2026-05-02T17:19:00Z</time></trkpt><trkpt lat="35.97320429616269" lon="-107.03250672001494"><ele>2090.0</ele><time>2026-05-02T17:19:01Z</time></trkpt><trkpt lat="35.973109800661454" lon="-107.03241720177866"><ele>2090.5</ele><time>2026-05-02T17:19:02Z</time></trkpt><trkpt lat="35.97300948834746" lon="-107.03230425540926"><ele>2091.0</ele><time>2026-05-02T17:19:03Z</time></trkpt><trkpt lat="35.972880448513564" lon="-107.03224311163488"><ele>2091.5</ele><time>2026-05-02T17:19:04Z</time></trkpt><trkpt lat="35.97274818437724" lon="-107.03222695391838"><ele>2092.0</ele><time>2026-05-02T17:19:05Z</time></trkpt><trkpt lat="35.972672410056944" lon="-107.0322514958836"><ele>2092.0</ele><time>2026-05-02T17:19:06Z</time></trkpt><trkpt lat="35.9725632750618" lon="-107.0322947124851"><ele>2092.0</ele><time>2026-05-02T17:19:08Z</time></trkpt><trkpt lat="35.97246627936703" lon="-107.03231814459015"><ele>2092.0</ele><time>2026-05-02T17:19:09Z</time></trkpt><trkpt lat="35.972350698883176" lon="-107.03230142595667"><ele>2092.0</ele><time>2026-05-02T17:19:10Z</time></trkpt><trkpt lat="35.97222965489961" lon="-107.03225766997335"><ele>2092.166666666667</ele><time>2026-05-02T17:19:11Z</time></trkpt><trkpt lat="35.972154061879614" lon="-107.03221803838403"><ele>2092.3333333333335</ele><time>2026-05-02T17:19:12Z</time></trkpt><trkpt lat="35.97211850753049" lon="-107.0321504642341"><ele>2092.5</ele><time>2026-05-02T17:19:13Z</time></trkpt><trkpt lat="35.97204798826889" lon="-107.03207704419222"><ele>2092.6666666666665</ele><time>2026-05-02T17:19:15Z</time></trkpt><trkpt lat="35.972002042581025" lon="-107.03215170970087"><ele>2092.833333333333</ele><time>2026-05-02T17:19:16Z</time></trkpt><trkpt lat="35.97191151847232" lon="-107.03226436637874"><ele>2093.0</ele><time>2026-05-02T17:19:17Z</time></trkpt><trkpt lat="35.97184139490693" lon="-107.03234835406305"><ele>2092.8</ele><time>2026-05-02T17:19:18Z</time></trkpt><trkpt lat="35.971743288689616" lon="-107.03247681669622"><ele>2092.6000000000004</ele><time>2026-05-02T17:19:20Z</time></trkpt><trkpt lat="35.971668603071734" lon="-107.03256114355334"><ele>2092.3999999999996</ele><time>2026-05-02T17:19:21Z</time></trkpt><trkpt lat="35.97159576541588" lon="-107.03262754708588"><ele>2092.2</ele><time>2026-05-02T17:19:22Z</time></trkpt><trkpt lat="35.97154273862167" lon="-107.03269975176498"><ele>2092.0</ele><time>2026-05-02T17:19:23Z</time></trkpt><trkpt lat="35.971499099914155" lon="-107.03279429317458"><ele>2092.0</ele><time>2026-05-02T17:19:24Z</time></trkpt><trkpt lat="35.97144473085338" lon="-107.0328949478609"><ele>2092.0</ele><time>2026-05-02T17:19:25Z</time></trkpt><trkpt lat="35.971394354372954" lon="-107.03300839775486"><ele>2092.0</ele><time>2026-05-02T17:19:26Z</time></trkpt><trkpt lat="35.97137158870363" lon="-107.03311063895065"><ele>2092.0</ele><time>2026-05-02T17:19:27Z</time></trkpt><trkpt lat="35.97133202754421" lon="-107.03324182404458"><ele>2092.0</ele><time>2026-05-02T17:19:28Z</time></trkpt><trkpt lat="35.97126714519774" lon="-107.0333973430149"><ele>2092.7999999999997</ele><time>2026-05-02T17:19:29Z</time></trkpt><trkpt lat="35.971226196190926" lon="-107.03350745280676"><ele>2093.6</ele><time>2026-05-02T17:19:30Z</time></trkpt><trkpt lat="35.97119057765158" lon="-107.03360083418741"><ele>2094.3999999999996</ele><time>2026-05-02T17:19:31Z</time></trkpt><trkpt lat="35.97117610379664" lon="-107.03370720933"><ele>2095.2</ele><time>2026-05-02T17:19:32Z</time></trkpt><trkpt lat="35.97117323847332" lon="-107.0337991609827"><ele>2096.0</ele><time>2026-05-02T17:19:33Z</time></trkpt><trkpt lat="35.97118268459056" lon="-107.0339344013742"><ele>2096.0</ele><time>2026-05-02T17:19:35Z</time></trkpt><trkpt lat="35.97109642576136" lon="-107.03402800132802"><ele>2096.0</ele><time>2026-05-02T17:19:37Z</time></trkpt><trkpt lat="35.97102325941082" lon="-107.0340779086618"><ele>2096.0</ele><time>2026-05-02T17:19:38Z</time></trkpt><trkpt lat="35.97098435206959" lon="-107.03415403157797"><ele>2096.0</ele><time>2026-05-02T17:19:39Z</time></trkpt><trkpt lat="35.970980793265674" lon="-107.03430087508838"><ele>2096.0</ele><time>2026-05-02T17:19:40Z</time></trkpt><trkpt lat="35.970937472134096" lon="-107.03444513474798"><ele>2095.5</ele><time>2026-05-02T17:19:41Z</time></trkpt><trkpt lat="35.97089339010353" lon="-107.0345618069589"><ele>2095.0</ele><time>2026-05-02T17:19:42Z</time></trkpt><trkpt lat="35.970806270621374" lon="-107.03468307089683"><ele>2094.5</ele><time>2026-05-02T17:19:43Z</time></trkpt><trkpt lat="35.97072593274997" lon="-107.03483404440307"><ele>2094.0</ele><time>2026-05-02T17:19:44Z</time></trkpt><trkpt lat="35.97066502352354" lon="-107.03495286828365"><ele>2092.0</ele><time>2026-05-02T17:19:45Z</time></trkpt><trkpt lat="35.97063446640186" lon="-107.03503955675075"><ele>2090.0</ele><time>2026-05-02T17:19:46Z</time></trkpt><trkpt lat="35.97062487434133" lon="-107.03514219564123"><ele>2088.0</ele><time>2026-05-02T17:19:47Z</time></trkpt><trkpt lat="35.97060011817505" lon="-107.0352825651635"><ele>2086.0</ele><time>2026-05-02T17:19:48Z</time></trkpt><trkpt lat="35.970559605870676" lon="-107.0354507676559"><ele>2084.0</ele><time>2026-05-02T17:19:49Z</time></trkpt><trkpt lat="35.970498238631" lon="-107.03562592780303"><ele>2083.5</ele><time>2026-05-02T17:19:50Z</time></trkpt><trkpt lat="35.9704506252267" lon="-107.03582437459595"><ele>2083.0</ele><time>2026-05-02T17:19:51Z</time></trkpt><trkpt lat="35.970429804199476" lon="-107.03598754055271"><ele>2082.5</ele><time>2026-05-02T17:19:52Z</time></trkpt><trkpt lat="35.97036089556344" lon="-107.03607281181999"><ele>2082.0</ele><time>2026-05-02T17:19:54Z</time></trkpt><trkpt lat="35.97030576867928" lon="-107.0362010892582"><ele>2082.0</ele><time>2026-05-02T17:19:56Z</time></trkpt><trkpt lat="35.9702908903511" lon="-107.03633379316288"><ele>2082.0</ele><time>2026-05-02T17:19:57Z</time></trkpt><trkpt lat="35.97026052956772" lon="-107.03643122318412"><ele>2082.0</ele><time>2026-05-02T17:19:58Z</time></trkpt><trkpt lat="35.97023089173094" lon="-107.0365153976463"><ele>2082.0</ele><time>2026-05-02T17:19:59Z</time></trkpt><trkpt lat="35.97020469663307" lon="-107.03662496494857"><ele>2082.0</ele><time>2026-05-02T17:20:00Z</time></trkpt><trkpt lat="35.97016818899601" lon="-107.03674910952908"><ele>2082.25</ele><time>2026-05-02T17:20:01Z</time></trkpt><trkpt lat="35.97014025562061" lon="-107.036882143955"><ele>2082.5</ele><time>2026-05-02T17:20:02Z</time></trkpt><trkpt lat="35.970123715476426" lon="-107.03701628307425"><ele>2082.75</ele><time>2026-05-02T17:20:03Z</time></trkpt><trkpt lat="35.97010832141256" lon="-107.03716165334515"><ele>2083.0</ele><time>2026-05-02T17:20:04Z</time></trkpt><trkpt lat="35.970070289491055" lon="-107.03729736094509"><ele>2083.0</ele><time>2026-05-02T17:20:05Z</time></trkpt><trkpt lat="35.97002878981638" lon="-107.03740351076783"><ele>2083.0</ele><time>2026-05-02T17:20:06Z</time></trkpt><trkpt lat="35.969983002860346" lon="-107.03752128266485"><ele>2083.0</ele><time>2026-05-02T17:20:07Z</time></trkpt><trkpt lat="35.96993523974236" lon="-107.03763589362704"><ele>2083.0</ele><time>2026-05-02T17:20:08Z</time></trkpt><trkpt lat="35.969881959071266" lon="-107.0377433990949"><ele>2083.0</ele><time>2026-05-02T17:20:09Z</time></trkpt><trkpt lat="35.96980778137306" lon="-107.03786318532097"><ele>2082.4</ele><time>2026-05-02T17:20:10Z</time></trkpt><trkpt lat="35.96975405210001" lon="-107.0380188115081"><ele>2081.8</ele><time>2026-05-02T17:20:11Z</time></trkpt><trkpt lat="35.96972650930372" lon="-107.0381261257836"><ele>2081.2</ele><time>2026-05-02T17:20:12Z</time></trkpt><trkpt lat="35.96970981648414" lon="-107.03822330957868"><ele>2080.6</ele><time>2026-05-02T17:20:13Z</time></trkpt><trkpt lat="35.969691310555675" lon="-107.0383668265934"><ele>2080.0</ele><time>2026-05-02T17:20:14Z</time></trkpt><trkpt lat="35.969656826393376" lon="-107.03856806924507"><ele>2080.0</ele><time>2026-05-02T17:20:15Z</time></trkpt><trkpt lat="35.96960382290782" lon="-107.03877056675019"><ele>2080.0</ele><time>2026-05-02T17:20:16Z</time></trkpt><trkpt lat="35.969563923238525" lon="-107.03893072266217"><ele>2080.0</ele><time>2026-05-02T17:20:17Z</time></trkpt><trkpt lat="35.96953598881749" lon="-107.0390459005795"><ele>2080.0</ele><time>2026-05-02T17:20:18Z</time></trkpt><trkpt lat="35.969511931577934" lon="-107.03916994940903"><ele>2079.8</ele><time>2026-05-02T17:20:19Z</time></trkpt><trkpt lat="35.9694756145131" lon="-107.0392683763177"><ele>2079.6</ele><time>2026-05-02T17:20:20Z</time></trkpt><trkpt lat="35.969561312057266" lon="-107.03932366311857"><ele>2079.4</ele><time>2026-05-02T17:20:23Z</time></trkpt><trkpt lat="35.969635789936206" lon="-107.03935350086059"><ele>2079.2</ele><time>2026-05-02T17:20:25Z</time></trkpt><trkpt lat="35.96967601411119" lon="-107.03944888901724"><ele>2079.0</ele><time>2026-05-02T17:20:28Z</time></trkpt><trkpt lat="35.96975291171272" lon="-107.0395310154639"><ele>2079.0</ele><time>2026-05-02T17:20:30Z</time></trkpt><trkpt lat="35.96985430074652" lon="-107.03957913823334"><ele>2079.0</ele><time>2026-05-02T17:20:31Z</time></trkpt><trkpt lat="35.9699611275664" lon="-107.03962216802509"><ele>2079.0</ele><time>2026-05-02T17:20:32Z</time></trkpt><trkpt lat="35.97005243966094" lon="-107.03968482771553"><ele>2079.0</ele><time>2026-05-02T17:20:33Z</time></trkpt><trkpt lat="35.97018988071935" lon="-107.03969723530774"><ele>2079.2</ele><time>2026-05-02T17:20:34Z</time></trkpt><trkpt lat="35.970337277567104" lon="-107.03971746484213"><ele>2079.4</ele><time>2026-05-02T17:20:35Z</time></trkpt><trkpt lat="35.970422068602645" lon="-107.03976549050611"><ele>2079.6</ele><time>2026-05-02T17:20:36Z</time></trkpt><trkpt lat="35.970483091741606" lon="-107.03979442134302"><ele>2079.8</ele><time>2026-05-02T17:20:37Z</time></trkpt><trkpt lat="35.97056570000854" lon="-107.03981802846059"><ele>2080.0</ele><time>2026-05-02T17:20:39Z</time></trkpt><trkpt lat="35.970669769000004" lon="-107.03978694395667"><ele>2080.0</ele><time>2026-05-02T17:20:41Z</time></trkpt><trkpt lat="35.97072632033095" lon="-107.03968662926862"><ele>2080.0</ele><time>2026-05-02T17:20:43Z</time></trkpt><trkpt lat="35.9707543245785" lon="-107.03960831674375"><ele>2080.0</ele><time>2026-05-02T17:20:44Z</time></trkpt><trkpt lat="35.97089917665776" lon="-107.03965855492805"><ele>2080.0</ele><time>2026-05-02T17:20:46Z</time></trkpt><trkpt lat="35.97100688060399" lon="-107.03974379826246"><ele>2080.0</ele><time>2026-05-02T17:20:47Z</time></trkpt><trkpt lat="35.9711437829085" lon="-107.03982871842858"><ele>2079.8333333333335</ele><time>2026-05-02T17:20:48Z</time></trkpt><trkpt lat="35.97125727029428" lon="-107.03990125633698"><ele>2079.666666666667</ele><time>2026-05-02T17:20:49Z</time></trkpt><trkpt lat="35.97133573007451" lon="-107.03993718597037"><ele>2079.5</ele><time>2026-05-02T17:20:50Z</time></trkpt><trkpt lat="35.97141447032771" lon="-107.03997708123036"><ele>2079.3333333333335</ele><time>2026-05-02T17:20:51Z</time></trkpt><trkpt lat="35.971475866466754" lon="-107.04003313123205"><ele>2079.1666666666665</ele><time>2026-05-02T17:20:52Z</time></trkpt><trkpt lat="35.971538956769415" lon="-107.04006509154758"><ele>2079.0</ele><time>2026-05-02T17:20:53Z</time></trkpt><trkpt lat="35.97162216780204" lon="-107.04004420782601"><ele>2079.2</ele><time>2026-05-02T17:20:54Z</time></trkpt><trkpt lat="35.97173237527854" lon="-107.04000659974716"><ele>2079.4</ele><time>2026-05-02T17:20:55Z</time></trkpt><trkpt lat="35.97182895723891" lon="-107.03994387109793"><ele>2079.6</ele><time>2026-05-02T17:20:56Z</time></trkpt><trkpt lat="35.9719096213852" lon="-107.03994484634906"><ele>2079.8</ele><time>2026-05-02T17:20:58Z</time></trkpt><trkpt lat="35.97197535167677" lon="-107.03992541323164"><ele>2080.0</ele><time>2026-05-02T17:20:59Z</time></trkpt><trkpt lat="35.97207317688251" lon="-107.03993540477646"><ele>2080.0</ele><time>2026-05-02T17:21:00Z</time></trkpt><trkpt lat="35.97219309003195" lon="-107.04001205214799"><ele>2080.0</ele><time>2026-05-02T17:21:01Z</time></trkpt><trkpt lat="35.97225556204827" lon="-107.04004134977238"><ele>2080.0</ele><time>2026-05-02T17:21:02Z</time></trkpt><trkpt lat="35.972388975574084" lon="-107.04003811857629"><ele>2080.0</ele><time>2026-05-02T17:21:04Z</time></trkpt><trkpt lat="35.97245983277367" lon="-107.04002957107545"><ele>2080.0</ele><time>2026-05-02T17:21:05Z</time></trkpt><trkpt lat="35.97253876102479" lon="-107.0399946393902"><ele>2080.75</ele><time>2026-05-02T17:21:06Z</time></trkpt><trkpt lat="35.97264400404829" lon="-107.0399439751863"><ele>2081.5</ele><time>2026-05-02T17:21:07Z</time></trkpt><trkpt lat="35.97274850433258" lon="-107.0398568704121"><ele>2082.25</ele><time>2026-05-02T17:21:08Z</time></trkpt><trkpt lat="35.97283957962272" lon="-107.03975338114321"><ele>2083.0</ele><time>2026-05-02T17:21:09Z</time></trkpt><trkpt lat="35.97291695754341" lon="-107.039656308936"><ele>2083.0</ele><time>2026-05-02T17:21:10Z</time></trkpt><trkpt lat="35.97301369747883" lon="-107.03958159703713"><ele>2083.0</ele><time>2026-05-02T17:21:11Z</time></trkpt><trkpt lat="35.973150431702855" lon="-107.03950703917029"><ele>2083.0</ele><time>2026-05-02T17:21:12Z</time></trkpt><trkpt lat="35.97328018760602" lon="-107.03938793010492"><ele>2083.0</ele><time>2026-05-02T17:21:13Z</time></trkpt><trkpt lat="35.97340645853137" lon="-107.03927144120654"><ele>2083.2000000000003</ele><time>2026-05-02T17:21:14Z</time></trkpt><trkpt lat="35.97352502469245" lon="-107.039188514628"><ele>2083.4</ele><time>2026-05-02T17:21:15Z</time></trkpt><trkpt lat="35.97362933612839" lon="-107.03911940834975"><ele>2083.6000000000004</ele><time>2026-05-02T17:21:16Z</time></trkpt><trkpt lat="35.97372192289767" lon="-107.03906786763994"><ele>2083.8</ele><time>2026-05-02T17:21:17Z</time></trkpt><trkpt lat="35.9738037070011" lon="-107.03903544479779"><ele>2084.0</ele><time>2026-05-02T17:21:18Z</time></trkpt><trkpt lat="35.97389041536708" lon="-107.0390241211214"><ele>2084.0</ele><time>2026-05-02T17:21:19Z</time></trkpt><trkpt lat="35.973982805724084" lon="-107.03906159725945"><ele>2084.0</ele><time>2026-05-02T17:21:20Z</time></trkpt><trkpt lat="35.97403569607114" lon="-107.0391550024052"><ele>2084.0</ele><time>2026-05-02T17:21:22Z</time></trkpt><trkpt lat="35.97406614967088" lon="-107.03927268616063"><ele>2084.0</ele><time>2026-05-02T17:21:23Z</time></trkpt><trkpt lat="35.9741631022447" lon="-107.03940808347548"><ele>2084.0</ele><time>2026-05-02T17:21:24Z</time></trkpt><trkpt lat="35.97427844047738" lon="-107.03956164422841"><ele>2083.5</ele><time>2026-05-02T17:21:25Z</time></trkpt><trkpt lat="35.974376258452445" lon="-107.03971821223483"><ele>2083.0</ele><time>2026-05-02T17:21:26Z</time></trkpt><trkpt lat="35.97446204354982" lon="-107.03984376818508"><ele>2082.5</ele><time>2026-05-02T17:21:27Z</time></trkpt><trkpt lat="35.974525720883605" lon="-107.03993827746852"><ele>2082.0</ele><time>2026-05-02T17:21:28Z</time></trkpt><trkpt lat="35.97458645109024" lon="-107.040049572995"><ele>2082.0</ele><time>2026-05-02T17:21:29Z</time></trkpt><trkpt lat="35.974625125548435" lon="-107.04015511353401"><ele>2082.0</ele><time>2026-05-02T17:21:30Z</time></trkpt><trkpt lat="35.97465599428267" lon="-107.04025758388929"><ele>2082.0</ele><time>2026-05-02T17:21:31Z</time></trkpt><trkpt lat="35.974684864957666" lon="-107.0403590932422"><ele>2082.0</ele><time>2026-05-02T17:21:32Z</time></trkpt><trkpt lat="35.974744773679014" lon="-107.04047348382439"><ele>2082.0</ele><time>2026-05-02T17:21:33Z</time></trkpt><trkpt lat="35.9748244294052" lon="-107.04056047629359"><ele>2082.0</ele><time>2026-05-02T17:21:34Z</time></trkpt><trkpt lat="35.97493024949191" lon="-107.04063871855489"><ele>2082.0</ele><time>2026-05-02T17:21:35Z</time></trkpt><trkpt lat="35.97502433103649" lon="-107.04073362461381"><ele>2082.0</ele><time>2026-05-02T17:21:36Z</time></trkpt><trkpt lat="35.97508636147444" lon="-107.04086590501267"><ele>2082.0</ele><time>2026-05-02T17:21:37Z</time></trkpt><trkpt lat="35.975163785812384" lon="-107.04102507085406"><ele>2082.0</ele><time>2026-05-02T17:21:38Z</time></trkpt><trkpt lat="35.97525160943103" lon="-107.041205889744"><ele>2082.0</ele><time>2026-05-02T17:21:39Z</time></trkpt><trkpt lat="35.975341856563716" lon="-107.04141355648018"><ele>2082.0</ele><time>2026-05-02T17:21:40Z</time></trkpt><trkpt lat="35.975425998523825" lon="-107.04161384484199"><ele>2081.3333333333335</ele><time>2026-05-02T17:21:41Z</time></trkpt><trkpt lat="35.97550524114013" lon="-107.04181626162034"><ele>2080.666666666667</ele><time>2026-05-02T17:21:42Z</time></trkpt><trkpt lat="35.97558651459756" lon="-107.04204283512054"><ele>2080.0</ele><time>2026-05-02T17:21:43Z</time></trkpt><trkpt lat="35.97565152500641" lon="-107.04223872352186"><ele>2080.0</ele><time>2026-05-02T17:21:44Z</time></trkpt><trkpt lat="35.97573384976163" lon="-107.04237920105835"><ele>2080.0</ele><time>2026-05-02T17:21:45Z</time></trkpt><trkpt lat="35.97576685588492" lon="-107.04246997626315"><ele>2080.0</ele><time>2026-05-02T17:21:46Z</time></trkpt><trkpt lat="35.9758418435139" lon="-107.04254469594309"><ele>2080.0</ele><time>2026-05-02T17:21:48Z</time></trkpt><trkpt lat="35.975893354420805" lon="-107.04262939374534"><ele>2080.0</ele><time>2026-05-02T17:21:49Z</time></trkpt><trkpt lat="35.97595754446161" lon="-107.04273562148593"><ele>2080.666666666667</ele><time>2026-05-02T17:21:50Z</time></trkpt><trkpt lat="35.97605901924197" lon="-107.0428716230029"><ele>2081.3333333333335</ele><time>2026-05-02T17:21:51Z</time></trkpt><trkpt lat="35.97615316580844" lon="-107.04302762356103"><ele>2082.0</ele><time>2026-05-02T17:21:52Z</time></trkpt><trkpt lat="35.97630299883398" lon="-107.04316347950525"><ele>2083.0</ele><time>2026-05-02T17:21:53Z</time></trkpt><trkpt lat="35.976646482217284" lon="-107.04349860558322"><ele>2084.0</ele><time>2026-05-02T17:21:55Z</time></trkpt><trkpt lat="35.97682453692247" lon="-107.04366802421232"><ele>2084.0</ele><time>2026-05-02T17:21:56Z</time></trkpt><trkpt lat="35.976965776064894" lon="-107.04381708177928"><ele>2084.0</ele><time>2026-05-02T17:21:57Z</time></trkpt><trkpt lat="35.97708219399481" lon="-107.04395812183118"><ele>2084.0</ele><time>2026-05-02T17:21:58Z</time></trkpt><trkpt lat="35.97716855035862" lon="-107.04410665706925"><ele>2083.75</ele><time>2026-05-02T17:21:59Z</time></trkpt><trkpt lat="35.97723101107696" lon="-107.04427118719926"><ele>2083.5</ele><time>2026-05-02T17:22:00Z</time></trkpt><trkpt lat="35.97728949132271" lon="-107.04442423028453"><ele>2083.25</ele><time>2026-05-02T17:22:01Z</time></trkpt><trkpt lat="35.97730544989253" lon="-107.04453162947475"><ele>2083.0</ele><time>2026-05-02T17:22:02Z</time></trkpt><trkpt lat="35.97729984436885" lon="-107.04468177201613"><ele>2083.0</ele><time>2026-05-02T17:22:03Z</time></trkpt><trkpt lat="35.97732064055526" lon="-107.04484641884169"><ele>2083.0</ele><time>2026-05-02T17:22:04Z</time></trkpt><trkpt lat="35.977418462721126" lon="-107.04500351257359"><ele>2083.0</ele><time>2026-05-02T17:22:05Z</time></trkpt><trkpt lat="35.97752161883631" lon="-107.04516699454184"><ele>2084.0</ele><time>2026-05-02T17:22:06Z</time></trkpt><trkpt lat="35.977562941450365" lon="-107.04533993722873"><ele>2085.0</ele><time>2026-05-02T17:22:07Z</time></trkpt><trkpt lat="35.97756269394649" lon="-107.0454872037061"><ele>2086.0</ele><time>2026-05-02T17:22:08Z</time></trkpt><trkpt lat="35.97754890534681" lon="-107.0456574407842"><ele>2087.0</ele><time>2026-05-02T17:22:09Z</time></trkpt><trkpt lat="35.97753016049435" lon="-107.04580731788243"><ele>2087.2</ele><time>2026-05-02T17:22:10Z</time></trkpt><trkpt lat="35.97753932655769" lon="-107.04594252826872"><ele>2087.3999999999996</ele><time>2026-05-02T17:22:11Z</time></trkpt><trkpt lat="35.97758081599191" lon="-107.04602813338302"><ele>2087.6000000000004</ele><time>2026-05-02T17:22:12Z</time></trkpt><trkpt lat="35.97766772426454" lon="-107.04608224082132"><ele>2087.8</ele><time>2026-05-02T17:22:13Z</time></trkpt><trkpt lat="35.97780779014954" lon="-107.04616022865196"><ele>2088.0</ele><time>2026-05-02T17:22:14Z</time></trkpt><trkpt lat="35.97793698434896" lon="-107.04629234593921"><ele>2088.0</ele><time>2026-05-02T17:22:15Z</time></trkpt><trkpt lat="35.97802742592659" lon="-107.04644702033664"><ele>2088.0</ele><time>2026-05-02T17:22:16Z</time></trkpt><trkpt lat="35.97810637900686" lon="-107.04660842729977"><ele>2088.0</ele><time>2026-05-02T17:22:17Z</time></trkpt><trkpt lat="35.9781619442709" lon="-107.046771866393"><ele>2088.0</ele><time>2026-05-02T17:22:18Z</time></trkpt><trkpt lat="35.97824891767467" lon="-107.0469912459622"><ele>2088.0</ele><time>2026-05-02T17:22:19Z</time></trkpt><trkpt lat="35.9783649205929" lon="-107.04719128965296"><ele>2088.0</ele><time>2026-05-02T17:22:20Z</time></trkpt><trkpt lat="35.97843355477793" lon="-107.047358023971"><ele>2087.5</ele><time>2026-05-02T17:22:21Z</time></trkpt><trkpt lat="35.97847630401738" lon="-107.04748801413658"><ele>2087.0</ele><time>2026-05-02T17:22:22Z</time></trkpt><trkpt lat="35.97852214484057" lon="-107.0476144894037"><ele>2086.5</ele><time>2026-05-02T17:22:23Z</time></trkpt><trkpt lat="35.97860132771138" lon="-107.04770738109386"><ele>2086.0</ele><time>2026-05-02T17:22:24Z</time></trkpt><trkpt lat="35.97872064431391" lon="-107.04776178084819"><ele>2086.0</ele><time>2026-05-02T17:22:25Z</time></trkpt><trkpt lat="35.978832392418475" lon="-107.04778127564558"><ele>2086.0</ele><time>2026-05-02T17:22:26Z</time></trkpt><trkpt lat="35.97896462462781" lon="-107.0477804862489"><ele>2086.0</ele><time>2026-05-02T17:22:27Z</time></trkpt><trkpt lat="35.97911561959918" lon="-107.04774058768183"><ele>2086.0</ele><time>2026-05-02T17:22:28Z</time></trkpt><trkpt lat="35.979281256416265" lon="-107.04769138296865"><ele>2086.666666666667</ele><time>2026-05-02T17:22:29Z</time></trkpt><trkpt lat="35.97943359975326" lon="-107.0476141381303"><ele>2087.3333333333335</ele><time>2026-05-02T17:22:30Z</time></trkpt><trkpt lat="35.979589030960405" lon="-107.04750035486808"><ele>2088.0</ele><time>2026-05-02T17:22:31Z</time></trkpt><trkpt lat="35.97975487048073" lon="-107.04736297567115"><ele>2088.0</ele><time>2026-05-02T17:22:32Z</time></trkpt><trkpt lat="35.97992863215645" lon="-107.04723545422769"><ele>2088.0</ele><time>2026-05-02T17:22:33Z</time></trkpt><trkpt lat="35.98011965822609" lon="-107.04712001320412"><ele>2088.0</ele><time>2026-05-02T17:22:34Z</time></trkpt><trkpt lat="35.98031764048766" lon="-107.0470056085764"><ele>2089.0</ele><time>2026-05-02T17:22:35Z</time></trkpt><trkpt lat="35.980532321679966" lon="-107.04690922250073"><ele>2090.0</ele><time>2026-05-02T17:22:36Z</time></trkpt><trkpt lat="35.98074814320625" lon="-107.04683034578038"><ele>2089.0</ele><time>2026-05-02T17:22:37Z</time></trkpt><trkpt lat="35.9809740281771" lon="-107.04677570069633"><ele>2088.0</ele><time>2026-05-02T17:22:38Z</time></trkpt><trkpt lat="35.981217915665866" lon="-107.04675829466046"><ele>2088.0</ele><time>2026-05-02T17:22:39Z</time></trkpt><trkpt lat="35.981441700724375" lon="-107.04677232338669"><ele>2088.0</ele><time>2026-05-02T17:22:40Z</time></trkpt><trkpt lat="35.981655282200315" lon="-107.04677234436764"><ele>2088.0</ele><time>2026-05-02T17:22:41Z</time></trkpt><trkpt lat="35.98189832510317" lon="-107.0467795366994"><ele>2088.0</ele><time>2026-05-02T17:22:42Z</time></trkpt><trkpt lat="35.98210652229024" lon="-107.04681071463624"><ele>2088.0</ele><time>2026-05-02T17:22:43Z</time></trkpt><trkpt lat="35.98228403645709" lon="-107.04686268639372"><ele>2088.0</ele><time>2026-05-02T17:22:44Z</time></trkpt><trkpt lat="35.982425457866846" lon="-107.04693421217107"><ele>2088.5</ele><time>2026-05-02T17:22:45Z</time></trkpt><trkpt lat="35.98256132388301" lon="-107.04703701341587"><ele>2089.0</ele><time>2026-05-02T17:22:46Z</time></trkpt><trkpt lat="35.982696712477946" lon="-107.04713864863258"><ele>2089.5</ele><time>2026-05-02T17:22:47Z</time></trkpt><trkpt lat="35.982785391974375" lon="-107.04721125446295"><ele>2090.0</ele><time>2026-05-02T17:22:48Z</time></trkpt><trkpt lat="35.98287529754937" lon="-107.04727755794418"><ele>2090.0</ele><time>2026-05-02T17:22:49Z</time></trkpt><trkpt lat="35.9829660148034" lon="-107.04735782980262"><ele>2090.0</ele><time>2026-05-02T17:22:50Z</time></trkpt><trkpt lat="35.983060410644505" lon="-107.04745056948391"><ele>2090.0</ele><time>2026-05-02T17:22:51Z</time></trkpt><trkpt lat="35.98316113182621" lon="-107.04756580149089"><ele>2090.0</ele><time>2026-05-02T17:22:52Z</time></trkpt><trkpt lat="35.98324780963552" lon="-107.04770202129097"><ele>2090.0</ele><time>2026-05-02T17:22:53Z</time></trkpt><trkpt lat="35.983327860338704" lon="-107.04788255466192"><ele>2090.0</ele><time>2026-05-02T17:22:54Z</time></trkpt><trkpt lat="35.98342815897765" lon="-107.04802985179391"><ele>2090.0</ele><time>2026-05-02T17:22:55Z</time></trkpt><trkpt lat="35.9835308781742" lon="-107.04818490391736"><ele>2089.6666666666665</ele><time>2026-05-02T17:22:56Z</time></trkpt><trkpt lat="35.98362063141571" lon="-107.04832321900047"><ele>2089.3333333333335</ele><time>2026-05-02T17:22:57Z</time></trkpt><trkpt lat="35.98370847226603" lon="-107.0484752169654"><ele>2089.0</ele><time>2026-05-02T17:22:58Z</time></trkpt><trkpt lat="35.983836774000316" lon="-107.04864727634808"><ele>2089.0</ele><time>2026-05-02T17:22:59Z</time></trkpt><trkpt lat="35.98393508383383" lon="-107.04879021507874"><ele>2089.0</ele><time>2026-05-02T17:23:00Z</time></trkpt><trkpt lat="35.98403114906399" lon="-107.04891979026159"><ele>2089.0</ele><time>2026-05-02T17:23:01Z</time></trkpt><trkpt lat="35.98413717752739" lon="-107.04910764045366"><ele>2090.3333333333335</ele><time>2026-05-02T17:23:02Z</time></trkpt><trkpt lat="35.984251240876326" lon="-107.04932588965572"><ele>2091.6666666666665</ele><time>2026-05-02T17:23:03Z</time></trkpt><trkpt lat="35.984390192053866" lon="-107.0495358643979"><ele>2093.0</ele><time>2026-05-02T17:23:04Z</time></trkpt><trkpt lat="35.9845005407967" lon="-107.0496960474448"><ele>2093.0</ele><time>2026-05-02T17:23:05Z</time></trkpt><trkpt lat="35.98459764126456" lon="-107.04985966149695"><ele>2093.0</ele><time>2026-05-02T17:23:06Z</time></trkpt><trkpt lat="35.9847151179978" lon="-107.05004948664892"><ele>2093.0</ele><time>2026-05-02T17:23:07Z</time></trkpt><trkpt lat="35.98484746430965" lon="-107.0502561468487"><ele>2092.6666666666665</ele><time>2026-05-02T17:23:08Z</time></trkpt><trkpt lat="35.98497895099565" lon="-107.05045162363915"><ele>2092.3333333333335</ele><time>2026-05-02T17:23:09Z</time></trkpt><trkpt lat="35.98510084460332" lon="-107.05064278521088"><ele>2092.0</ele><time>2026-05-02T17:23:10Z</time></trkpt><trkpt lat="35.985212655661904" lon="-107.05082569459732"><ele>2091.3333333333335</ele><time>2026-05-02T17:23:11Z</time></trkpt><trkpt lat="35.98529644708269" lon="-107.05099804654118"><ele>2090.6666666666665</ele><time>2026-05-02T17:23:12Z</time></trkpt><trkpt lat="35.98536502291152" lon="-107.05115723477672"><ele>2090.0</ele><time>2026-05-02T17:23:13Z</time></trkpt><trkpt lat="35.98540039414998" lon="-107.05132626996313"><ele>2090.0</ele><time>2026-05-02T17:23:14Z</time></trkpt><trkpt lat="35.9853867438016" lon="-107.05156488608333"><ele>2090.0</ele><time>2026-05-02T17:23:15Z</time></trkpt><trkpt lat="35.9853494804201" lon="-107.05180514901068"><ele>2090.0</ele><time>2026-05-02T17:23:16Z</time></trkpt><trkpt lat="35.985308169421195" lon="-107.05201015883424"><ele>2090.6666666666665</ele><time>2026-05-02T17:23:17Z</time></trkpt><trkpt lat="35.98526749972573" lon="-107.05221187402508"><ele>2091.3333333333335</ele><time>2026-05-02T17:23:18Z</time></trkpt><trkpt lat="35.985256166734956" lon="-107.0524148126194"><ele>2092.0</ele><time>2026-05-02T17:23:19Z</time></trkpt><trkpt lat="35.98526773796191" lon="-107.05262702327602"><ele>2092.5</ele><time>2026-05-02T17:23:20Z</time></trkpt><trkpt lat="35.98531678796781" lon="-107.05279184224473"><ele>2093.0</ele><time>2026-05-02T17:23:21Z</time></trkpt><trkpt lat="35.985370500282635" lon="-107.05290336949714"><ele>2093.5</ele><time>2026-05-02T17:23:22Z</time></trkpt><trkpt lat="35.98551097592525" lon="-107.05292944140724"><ele>2094.0</ele><time>2026-05-02T17:23:24Z</time></trkpt><trkpt lat="35.985613764313385" lon="-107.05286943820289"><ele>2094.0</ele><time>2026-05-02T17:23:25Z</time></trkpt><trkpt lat="35.985729685637345" lon="-107.05278676421914"><ele>2094.0</ele><time>2026-05-02T17:23:26Z</time></trkpt><trkpt lat="35.98585578944155" lon="-107.0526697981367"><ele>2094.0</ele><time>2026-05-02T17:23:27Z</time></trkpt><trkpt lat="35.986001434035906" lon="-107.05254070953204"><ele>2094.0</ele><time>2026-05-02T17:23:28Z</time></trkpt><trkpt lat="35.98617059498217" lon="-107.05242993860675"><ele>2094.0</ele><time>2026-05-02T17:23:29Z</time></trkpt><trkpt lat="35.986349869376966" lon="-107.05234416112697"><ele>2094.0</ele><time>2026-05-02T17:23:30Z</time></trkpt><trkpt lat="35.986496246995856" lon="-107.05225989123173"><ele>2094.0</ele><time>2026-05-02T17:23:31Z</time></trkpt><trkpt lat="35.98664749595987" lon="-107.05218100636982"><ele>2094.0</ele><time>2026-05-02T17:23:32Z</time></trkpt><trkpt lat="35.98681450044677" lon="-107.05211856801975"><ele>2094.0</ele><time>2026-05-02T17:23:33Z</time></trkpt><trkpt lat="35.98700590371231" lon="-107.05204659813229"><ele>2094.0</ele><time>2026-05-02T17:23:34Z</time></trkpt><trkpt lat="35.98719608059283" lon="-107.05198235772833"><ele>2094.0</ele><time>2026-05-02T17:23:35Z</time></trkpt><trkpt lat="35.98739457096627" lon="-107.05192128928779"><ele>2094.0</ele><time>2026-05-02T17:23:36Z</time></trkpt><trkpt lat="35.98756038175825" lon="-107.05186754056335"><ele>2094.0</ele><time>2026-05-02T17:23:37Z</time></trkpt><trkpt lat="35.98772333575708" lon="-107.0518216118906"><ele>2094.0</ele><time>2026-05-02T17:23:38Z</time></trkpt><trkpt lat="35.98788995600281" lon="-107.05180727397257"><ele>2094.0</ele><time>2026-05-02T17:23:39Z</time></trkpt><trkpt lat="35.988075319237076" lon="-107.05182502979729"><ele>2094.0</ele><time>2026-05-02T17:23:40Z</time></trkpt><trkpt lat="35.98821233416802" lon="-107.05188299162864"><ele>2094.0</ele><time>2026-05-02T17:23:41Z</time></trkpt><trkpt lat="35.9883122223836" lon="-107.05196717217386"><ele>2094.0</ele><time>2026-05-02T17:23:42Z</time></trkpt><trkpt lat="35.98840637871711" lon="-107.05208828238811"><ele>2094.0</ele><time>2026-05-02T17:23:43Z</time></trkpt><trkpt lat="35.98849280046038" lon="-107.05224763779354"><ele>2094.0</ele><time>2026-05-02T17:23:44Z</time></trkpt><trkpt lat="35.988593382659275" lon="-107.0524068700472"><ele>2094.0</ele><time>2026-05-02T17:23:45Z</time></trkpt><trkpt lat="35.988722451380106" lon="-107.0525434915321"><ele>2094.0</ele><time>2026-05-02T17:23:46Z</time></trkpt><trkpt lat="35.98885267834945" lon="-107.05264765756169"><ele>2094.0</ele><time>2026-05-02T17:23:47Z</time></trkpt><trkpt lat="35.98897681536737" lon="-107.05278611507451"><ele>2094.0</ele><time>2026-05-02T17:23:48Z</time></trkpt><trkpt lat="35.98903918574745" lon="-107.05295351523235"><ele>2094.0</ele><time>2026-05-02T17:23:49Z</time></trkpt><trkpt lat="35.989101342923995" lon="-107.05315111575337"><ele>2094.6666666666665</ele><time>2026-05-02T17:23:50Z</time></trkpt><trkpt lat="35.989201201848864" lon="-107.05335064932332"><ele>2095.333333333333</ele><time>2026-05-02T17:23:51Z</time></trkpt><trkpt lat="35.98927613931757" lon="-107.05354691809426"><ele>2096.0</ele><time>2026-05-02T17:23:52Z</time></trkpt><trkpt lat="35.98932315730156" lon="-107.05370461575092"><ele>2096.0</ele><time>2026-05-02T17:23:53Z</time></trkpt><trkpt lat="35.98936377184396" lon="-107.05382590719643"><ele>2096.0</ele><time>2026-05-02T17:23:54Z</time></trkpt><trkpt lat="35.98940846194263" lon="-107.05394721921365"><ele>2096.0</ele><time>2026-05-02T17:23:55Z</time></trkpt><trkpt lat="35.98942655265129" lon="-107.05404294993531"><ele>2096.0</ele><time>2026-05-02T17:23:56Z</time></trkpt><trkpt lat="35.98944652136584" lon="-107.05419104661746"><ele>2096.0</ele><time>2026-05-02T17:23:58Z</time></trkpt><trkpt lat="35.98949222119373" lon="-107.05435361021627"><ele>2096.25</ele><time>2026-05-02T17:24:00Z</time></trkpt><trkpt lat="35.989520683494526" lon="-107.05450946066934"><ele>2096.5</ele><time>2026-05-02T17:24:01Z</time></trkpt><trkpt lat="35.98955698169611" lon="-107.0546657434063"><ele>2096.75</ele><time>2026-05-02T17:24:02Z</time></trkpt><trkpt lat="35.98959240300344" lon="-107.05482318847339"><ele>2097.0</ele><time>2026-05-02T17:24:03Z</time></trkpt><trkpt lat="35.98963254899106" lon="-107.05499677616558"><ele>2098.0</ele><time>2026-05-02T17:24:04Z</time></trkpt><trkpt lat="35.98967698588807" lon="-107.05515119784219"><ele>2099.0</ele><time>2026-05-02T17:24:05Z</time></trkpt><trkpt lat="35.98973518678107" lon="-107.05532023157784"><ele>2100.0</ele><time>2026-05-02T17:24:06Z</time></trkpt><trkpt lat="35.989791426360675" lon="-107.05547735709365"><ele>2101.0</ele><time>2026-05-02T17:24:07Z</time></trkpt><trkpt lat="35.98983363548179" lon="-107.05559006596626"><ele>2101.0</ele><time>2026-05-02T17:24:08Z</time></trkpt><trkpt lat="35.9898379013827" lon="-107.05570199591686"><ele>2101.0</ele><time>2026-05-02T17:24:09Z</time></trkpt><trkpt lat="35.98980372377604" lon="-107.05584207554152"><ele>2101.0</ele><time>2026-05-02T17:24:10Z</time></trkpt><trkpt lat="35.98975716736937" lon="-107.05599356141221"><ele>2101.0</ele><time>2026-05-02T17:24:11Z</time></trkpt><trkpt lat="35.989704571810975" lon="-107.05611576173787"><ele>2101.6</ele><time>2026-05-02T17:24:12Z</time></trkpt><trkpt lat="35.98964145278982" lon="-107.05621063908166"><ele>2102.2</ele><time>2026-05-02T17:24:13Z</time></trkpt><trkpt lat="35.98958107911572" lon="-107.05625883194521"><ele>2102.8</ele><time>2026-05-02T17:24:14Z</time></trkpt><trkpt lat="35.98949974627032" lon="-107.05625810020616"><ele>2103.4</ele><time>2026-05-02T17:24:15Z</time></trkpt><trkpt lat="35.98941555534868" lon="-107.05630855727131"><ele>2104.0</ele><time>2026-05-02T17:24:16Z</time></trkpt><trkpt lat="35.989321396346746" lon="-107.05637789553633"><ele>2104.0</ele><time>2026-05-02T17:24:17Z</time></trkpt><trkpt lat="35.989221749653524" lon="-107.05640180782363"><ele>2104.0</ele><time>2026-05-02T17:24:18Z</time></trkpt><trkpt lat="35.98909088368842" lon="-107.0564132516659"><ele>2104.0</ele><time>2026-05-02T17:24:19Z</time></trkpt><trkpt lat="35.989001871605836" lon="-107.0564519497108"><ele>2104.0</ele><time>2026-05-02T17:24:20Z</time></trkpt><trkpt lat="35.988927483711" lon="-107.05653889238414"><ele>2104.0</ele><time>2026-05-02T17:24:21Z</time></trkpt><trkpt lat="35.98885260304422" lon="-107.05661005006593"><ele>2106.0</ele><time>2026-05-02T17:24:22Z</time></trkpt><trkpt lat="35.98873800885528" lon="-107.05664249009646"><ele>2108.0</ele><time>2026-05-02T17:24:23Z</time></trkpt><trkpt lat="35.988624064177294" lon="-107.0567009111854"><ele>2110.0</ele><time>2026-05-02T17:24:24Z</time></trkpt><trkpt lat="35.98854353057178" lon="-107.05681117248729"><ele>2112.0</ele><time>2026-05-02T17:24:25Z</time></trkpt><trkpt lat="35.98844131315175" lon="-107.05693800015328"><ele>2112.75</ele><time>2026-05-02T17:24:26Z</time></trkpt><trkpt lat="35.98833360173444" lon="-107.05702691117675"><ele>2113.5</ele><time>2026-05-02T17:24:27Z</time></trkpt><trkpt lat="35.988227290851476" lon="-107.05710994350845"><ele>2114.25</ele><time>2026-05-02T17:24:28Z</time></trkpt><trkpt lat="35.98813539363776" lon="-107.05720902632922"><ele>2115.0</ele><time>2026-05-02T17:24:29Z</time></trkpt><trkpt lat="35.9880571757031" lon="-107.05726264986201"><ele>2115.0</ele><time>2026-05-02T17:24:30Z</time></trkpt><trkpt lat="35.987964799295284" lon="-107.05727643857874"><ele>2115.0</ele><time>2026-05-02T17:24:31Z</time></trkpt><trkpt lat="35.98781573132754" lon="-107.05725223879749"><ele>2115.0</ele><time>2026-05-02T17:24:32Z</time></trkpt><trkpt lat="35.98766473483301" lon="-107.05727267471389"><ele>2115.0</ele><time>2026-05-02T17:24:33Z</time></trkpt><trkpt lat="35.987512830839684" lon="-107.05734318783715"><ele>2114.25</ele><time>2026-05-02T17:24:34Z</time></trkpt><trkpt lat="35.987380679748746" lon="-107.05738074102334"><ele>2113.5</ele><time>2026-05-02T17:24:35Z</time></trkpt><trkpt lat="35.98728966180286" lon="-107.05745770200555"><ele>2112.75</ele><time>2026-05-02T17:24:36Z</time></trkpt><trkpt lat="35.987174907252" lon="-107.0576195952213"><ele>2112.0</ele><time>2026-05-02T17:24:37Z</time></trkpt><trkpt lat="35.987072910967925" lon="-107.05780526838247"><ele>2114.0</ele><time>2026-05-02T17:24:38Z</time></trkpt><trkpt lat="35.98698507433996" lon="-107.05798931921561"><ele>2116.0</ele><time>2026-05-02T17:24:39Z</time></trkpt><trkpt lat="35.986897939268246" lon="-107.05814894129352"><ele>2118.0</ele><time>2026-05-02T17:24:40Z</time></trkpt><trkpt lat="35.986804894097595" lon="-107.05829311225592"><ele>2118.0</ele><time>2026-05-02T17:24:41Z</time></trkpt><trkpt lat="35.98672612895229" lon="-107.05841308207727"><ele>2118.0</ele><time>2026-05-02T17:24:42Z</time></trkpt><trkpt lat="35.98661510581615" lon="-107.05852255658604"><ele>2118.0</ele><time>2026-05-02T17:24:43Z</time></trkpt><trkpt lat="35.98648619760579" lon="-107.058609941547"><ele>2118.0</ele><time>2026-05-02T17:24:44Z</time></trkpt><trkpt lat="35.98634543464309" lon="-107.0587027686723"><ele>2119.75</ele><time>2026-05-02T17:24:45Z</time></trkpt><trkpt lat="35.98623985408358" lon="-107.0588213730799"><ele>2121.5</ele><time>2026-05-02T17:24:46Z</time></trkpt><trkpt lat="35.986155177669566" lon="-107.05893536356962"><ele>2123.25</ele><time>2026-05-02T17:24:47Z</time></trkpt><trkpt lat="35.9860621177969" lon="-107.05904182149126"><ele>2125.0</ele><time>2026-05-02T17:24:48Z</time></trkpt><trkpt lat="35.98593745370772" lon="-107.05909672918158"><ele>2125.5</ele><time>2026-05-02T17:24:49Z</time></trkpt><trkpt lat="35.98577035243459" lon="-107.05912310035029"><ele>2126.0</ele><time>2026-05-02T17:24:50Z</time></trkpt><trkpt lat="35.98563150270754" lon="-107.05918262787318"><ele>2126.5</ele><time>2026-05-02T17:24:51Z</time></trkpt><trkpt lat="35.985535113694766" lon="-107.05926269226177"><ele>2127.0</ele><time>2026-05-02T17:24:52Z</time></trkpt><trkpt lat="35.985466995970825" lon="-107.05935778414022"><ele>2127.0</ele><time>2026-05-02T17:24:53Z</time></trkpt><trkpt lat="35.98535745196181" lon="-107.05944293023694"><ele>2127.0</ele><time>2026-05-02T17:24:54Z</time></trkpt><trkpt lat="35.98522116292653" lon="-107.0594778240091"><ele>2127.0</ele><time>2026-05-02T17:24:55Z</time></trkpt><trkpt lat="35.985088564593916" lon="-107.05951715709033"><ele>2127.0</ele><time>2026-05-02T17:24:56Z</time></trkpt><trkpt lat="35.98498066381803" lon="-107.05960770241055"><ele>2127.75</ele><time>2026-05-02T17:24:57Z</time></trkpt><trkpt lat="35.98487441849737" lon="-107.0596863277887"><ele>2128.5</ele><time>2026-05-02T17:24:58Z</time></trkpt><trkpt lat="35.98473558604206" lon="-107.05971108549332"><ele>2129.25</ele><time>2026-05-02T17:24:59Z</time></trkpt><trkpt lat="35.98458103666142" lon="-107.05972138028216"><ele>2130.0</ele><time>2026-05-02T17:25:00Z</time></trkpt><trkpt lat="35.98445989411314" lon="-107.05978727335243"><ele>2130.0</ele><time>2026-05-02T17:25:01Z</time></trkpt><trkpt lat="35.98438110407308" lon="-107.0598825872501"><ele>2130.0</ele><time>2026-05-02T17:25:02Z</time></trkpt><trkpt lat="35.98432765822969" lon="-107.0600850268394"><ele>2130.0</ele><time>2026-05-02T17:25:03Z</time></trkpt><trkpt lat="35.9843075850935" lon="-107.0603054147422"><ele>2130.0</ele><time>2026-05-02T17:25:04Z</time></trkpt><trkpt lat="35.984353912520604" lon="-107.06051634409849"><ele>2130.0</ele><time>2026-05-02T17:25:05Z</time></trkpt><trkpt lat="35.98437105646037" lon="-107.06074800504864"><ele>2130.0</ele><time>2026-05-02T17:25:06Z</time></trkpt><trkpt lat="35.98436589023737" lon="-107.06099108841414"><ele>2129.3333333333335</ele><time>2026-05-02T17:25:07Z</time></trkpt><trkpt lat="35.9843866535646" lon="-107.06119737132899"><ele>2128.666666666667</ele><time>2026-05-02T17:25:08Z</time></trkpt><trkpt lat="35.984408844625605" lon="-107.06138731345334"><ele>2128.0</ele><time>2026-05-02T17:25:09Z</time></trkpt><trkpt lat="35.984410162836696" lon="-107.06158485310695"><ele>2127.3333333333335</ele><time>2026-05-02T17:25:10Z</time></trkpt><trkpt lat="35.98441743165539" lon="-107.06179793888616"><ele>2126.6666666666665</ele><time>2026-05-02T17:25:11Z</time></trkpt><trkpt lat="35.98442566525958" lon="-107.06196871697806"><ele>2126.0</ele><time>2026-05-02T17:25:12Z</time></trkpt><trkpt lat="35.984433056352586" lon="-107.06216671418031"><ele>2126.0</ele><time>2026-05-02T17:25:13Z</time></trkpt><trkpt lat="35.98444200539966" lon="-107.06235359675729"><ele>2126.0</ele><time>2026-05-02T17:25:14Z</time></trkpt><trkpt lat="35.98444486683062" lon="-107.06249357550467"><ele>2126.0</ele><time>2026-05-02T17:25:15Z</time></trkpt><trkpt lat="35.984459957626875" lon="-107.06263005149393"><ele>2126.0</ele><time>2026-05-02T17:25:16Z</time></trkpt><trkpt lat="35.98446240707783" lon="-107.06274814632074"><ele>2125.25</ele><time>2026-05-02T17:25:17Z</time></trkpt><trkpt lat="35.984467916216246" lon="-107.0628716749182"><ele>2124.5</ele><time>2026-05-02T17:25:18Z</time></trkpt><trkpt lat="35.98447865574874" lon="-107.06300249577357"><ele>2123.75</ele><time>2026-05-02T17:25:19Z</time></trkpt><trkpt lat="35.98449836422894" lon="-107.06318776326411"><ele>2123.0</ele><time>2026-05-02T17:25:20Z</time></trkpt><trkpt lat="35.98451912825978" lon="-107.06336910835046"><ele>2123.0</ele><time>2026-05-02T17:25:21Z</time></trkpt><trkpt lat="35.98452791152497" lon="-107.0635739031237"><ele>2123.0</ele><time>2026-05-02T17:25:22Z</time></trkpt><trkpt lat="35.9845292876738" lon="-107.06381763756825"><ele>2123.0</ele><time>2026-05-02T17:25:23Z</time></trkpt><trkpt lat="35.98454177414088" lon="-107.06403495516558"><ele>2123.333333333333</ele><time>2026-05-02T17:25:24Z</time></trkpt><trkpt lat="35.98455119241671" lon="-107.0642361379182"><ele>2123.6666666666665</ele><time>2026-05-02T17:25:25Z</time></trkpt><trkpt lat="35.98456449245564" lon="-107.06449658302675"><ele>2124.0</ele><time>2026-05-02T17:25:26Z</time></trkpt><trkpt lat="35.98457812660998" lon="-107.06477034652785"><ele>2123.6666666666665</ele><time>2026-05-02T17:25:27Z</time></trkpt><trkpt lat="35.984596309719365" lon="-107.06500205745893"><ele>2123.333333333333</ele><time>2026-05-02T17:25:28Z</time></trkpt><trkpt lat="35.98459059705657" lon="-107.06522216011345"><ele>2123.0</ele><time>2026-05-02T17:25:29Z</time></trkpt><trkpt lat="35.98458677181834" lon="-107.06539856815984"><ele>2123.0</ele><time>2026-05-02T17:25:30Z</time></trkpt><trkpt lat="35.98459155364671" lon="-107.06555938693472"><ele>2123.0</ele><time>2026-05-02T17:25:31Z</time></trkpt><trkpt lat="35.9845971376919" lon="-107.06576573872493"><ele>2123.0</ele><time>2026-05-02T17:25:32Z</time></trkpt><trkpt lat="35.984605024995965" lon="-107.0660256658181"><ele>2123.333333333333</ele><time>2026-05-02T17:25:33Z</time></trkpt><trkpt lat="35.984611655941286" lon="-107.06627569385812"><ele>2123.6666666666665</ele><time>2026-05-02T17:25:34Z</time></trkpt><trkpt lat="35.98459712329931" lon="-107.06646762535024"><ele>2124.0</ele><time>2026-05-02T17:25:35Z</time></trkpt><trkpt lat="35.984603859361094" lon="-107.06661512067008"><ele>2124.5</ele><time>2026-05-02T17:25:36Z</time></trkpt><trkpt lat="35.98461697667342" lon="-107.0667487246403"><ele>2125.0</ele><time>2026-05-02T17:25:37Z</time></trkpt><trkpt lat="35.984643527379895" lon="-107.0668986119214"><ele>2125.5</ele><time>2026-05-02T17:25:38Z</time></trkpt><trkpt lat="35.98465223747641" lon="-107.06705884659169"><ele>2126.0</ele><time>2026-05-02T17:25:39Z</time></trkpt><trkpt lat="35.98463700079191" lon="-107.06727688649994"><ele>2126.25</ele><time>2026-05-02T17:25:40Z</time></trkpt><trkpt lat="35.98464040485226" lon="-107.06748067091792"><ele>2126.5</ele><time>2026-05-02T17:25:41Z</time></trkpt><trkpt lat="35.984651702050144" lon="-107.06761721054114"><ele>2126.75</ele><time>2026-05-02T17:25:42Z</time></trkpt><trkpt lat="35.98465792774835" lon="-107.06778480923977"><ele>2127.0</ele><time>2026-05-02T17:25:44Z</time></trkpt><trkpt lat="35.98466323590213" lon="-107.0679130543804"><ele>2127.0</ele><time>2026-05-02T17:25:45Z</time></trkpt><trkpt lat="35.98468278416337" lon="-107.06807478191753"><ele>2127.0</ele><time>2026-05-02T17:25:46Z</time></trkpt><trkpt lat="35.984682129894715" lon="-107.06826847661563"><ele>2127.0</ele><time>2026-05-02T17:25:47Z</time></trkpt><trkpt lat="35.98469486282925" lon="-107.06845965072412"><ele>2127.0</ele><time>2026-05-02T17:25:48Z</time></trkpt><trkpt lat="35.98470351758718" lon="-107.06862793201589"><ele>2127.5</ele><time>2026-05-02T17:25:49Z</time></trkpt><trkpt lat="35.984718792146936" lon="-107.06870787732727"><ele>2128.0</ele><time>2026-05-02T17:25:50Z</time></trkpt><trkpt lat="35.98487557752848" lon="-107.06876138347508"><ele>2128.5</ele><time>2026-05-02T17:25:52Z</time></trkpt><trkpt lat="35.985023261586036" lon="-107.06877674801096"><ele>2129.0</ele><time>2026-05-02T17:25:53Z</time></trkpt><trkpt lat="35.985170555249404" lon="-107.06883357663224"><ele>2129.2</ele><time>2026-05-02T17:25:54Z</time></trkpt><trkpt lat="35.98529415169941" lon="-107.0689008316599"><ele>2129.4</ele><time>2026-05-02T17:25:55Z</time></trkpt><trkpt lat="35.98535442731973" lon="-107.06899317538854"><ele>2129.6</ele><time>2026-05-02T17:25:56Z</time></trkpt><trkpt lat="35.985359625075205" lon="-107.06910989662808"><ele>2129.8</ele><time>2026-05-02T17:25:57Z</time></trkpt><trkpt lat="35.9853751651126" lon="-107.06925842828743"><ele>2130.0</ele><time>2026-05-02T17:25:58Z</time></trkpt><trkpt lat="35.9854420447796" lon="-107.06935156873881"><ele>2130.4</ele><time>2026-05-02T17:25:59Z</time></trkpt><trkpt lat="35.98554218370487" lon="-107.06940618975267"><ele>2130.8</ele><time>2026-05-02T17:26:00Z</time></trkpt><trkpt lat="35.98556959019724" lon="-107.06950342663505"><ele>2131.2</ele><time>2026-05-02T17:26:01Z</time></trkpt><trkpt lat="35.98554719320217" lon="-107.06964540121709"><ele>2131.6</ele><time>2026-05-02T17:26:02Z</time></trkpt><trkpt lat="35.98559307665666" lon="-107.06973112282586"><ele>2132.0</ele><time>2026-05-02T17:26:03Z</time></trkpt><trkpt lat="35.9857059334705" lon="-107.06973313564832"><ele>2131.2</ele><time>2026-05-02T17:26:04Z</time></trkpt><trkpt lat="35.98584550944989" lon="-107.06975552830944"><ele>2130.3999999999996</ele><time>2026-05-02T17:26:05Z</time></trkpt><trkpt lat="35.98594482574127" lon="-107.06984369181606"><ele>2129.6000000000004</ele><time>2026-05-02T17:26:06Z</time></trkpt><trkpt lat="35.98602507206474" lon="-107.06990176486526"><ele>2128.8</ele><time>2026-05-02T17:26:07Z</time></trkpt><trkpt lat="35.98611221791617" lon="-107.06994151607249"><ele>2128.0</ele><time>2026-05-02T17:26:08Z</time></trkpt><trkpt lat="35.986159293773746" lon="-107.07000677349292"><ele>2128.0</ele><time>2026-05-02T17:26:09Z</time></trkpt><trkpt lat="35.98614703505538" lon="-107.07012946243755"><ele>2128.0</ele><time>2026-05-02T17:26:10Z</time></trkpt><trkpt lat="35.98614936316895" lon="-107.07028834695144"><ele>2128.0</ele><time>2026-05-02T17:26:11Z</time></trkpt><trkpt lat="35.986201732865446" lon="-107.07040871906055"><ele>2128.0</ele><time>2026-05-02T17:26:12Z</time></trkpt><trkpt lat="35.98632159468402" lon="-107.07046016453822"><ele>2128.0</ele><time>2026-05-02T17:26:13Z</time></trkpt><trkpt lat="35.98646168211886" lon="-107.07048194101978"><ele>2128.0</ele><time>2026-05-02T17:26:14Z</time></trkpt><trkpt lat="35.9866153586741" lon="-107.07048620622226"><ele>2128.0</ele><time>2026-05-02T17:26:15Z</time></trkpt><trkpt lat="35.986714791131774" lon="-107.07050573435738"><ele>2128.0</ele><time>2026-05-02T17:26:16Z</time></trkpt><trkpt lat="35.986805016131974" lon="-107.07053234180448"><ele>2127.2000000000003</ele><time>2026-05-02T17:26:17Z</time></trkpt><trkpt lat="35.98691339071314" lon="-107.07054564365754"><ele>2126.4</ele><time>2026-05-02T17:26:18Z</time></trkpt><trkpt lat="35.98698478497655" lon="-107.07058790060917"><ele>2125.6000000000004</ele><time>2026-05-02T17:26:19Z</time></trkpt><trkpt lat="35.98707290682581" lon="-107.07060416305221"><ele>2124.8</ele><time>2026-05-02T17:26:21Z</time></trkpt><trkpt lat="35.987139668814706" lon="-107.0704866583123"><ele>2124.0</ele><time>2026-05-02T17:26:22Z</time></trkpt><trkpt lat="35.98721399852425" lon="-107.07045065304919"><ele>2124.0</ele><time>2026-05-02T17:26:23Z</time></trkpt><trkpt lat="35.98727458188767" lon="-107.07051874208013"><ele>2124.0</ele><time>2026-05-02T17:26:25Z</time></trkpt><trkpt lat="35.987395937854274" lon="-107.07063022806679"><ele>2124.0</ele><time>2026-05-02T17:26:27Z</time></trkpt><trkpt lat="35.98747428850777" lon="-107.07070895202318"><ele>2124.0</ele><time>2026-05-02T17:26:28Z</time></trkpt><trkpt lat="35.98753119711169" lon="-107.07075614059801"><ele>2124.0</ele><time>2026-05-02T17:26:29Z</time></trkpt><trkpt lat="35.98760448680894" lon="-107.07064834784121"><ele>2123.0</ele><time>2026-05-02T17:26:31Z</time></trkpt><trkpt lat="35.987657064556934" lon="-107.07054549985939"><ele>2122.0</ele><time>2026-05-02T17:26:32Z</time></trkpt><trkpt lat="35.987813496433716" lon="-107.07054629710821"><ele>2121.0</ele><time>2026-05-02T17:26:33Z</time></trkpt><trkpt lat="35.98793275559784" lon="-107.07057957104628"><ele>2120.0</ele><time>2026-05-02T17:26:34Z</time></trkpt><trkpt lat="35.988026562020835" lon="-107.07067324519168"><ele>2121.0</ele><time>2026-05-02T17:26:36Z</time></trkpt><trkpt lat="35.98808199864062" lon="-107.0708224034975"><ele>2122.0</ele><time>2026-05-02T17:26:37Z</time></trkpt><trkpt lat="35.98815424088892" lon="-107.07096881611135"><ele>2123.0</ele><time>2026-05-02T17:26:38Z</time></trkpt><trkpt lat="35.98822714283271" lon="-107.07105567062986"><ele>2124.0</ele><time>2026-05-02T17:26:39Z</time></trkpt><trkpt lat="35.98821618529261" lon="-107.07120874439178"><ele>2124.0</ele><time>2026-05-02T17:26:41Z</time></trkpt><trkpt lat="35.98813358515351" lon="-107.07132114243637"><ele>2124.0</ele><time>2026-05-02T17:26:42Z</time></trkpt><trkpt lat="35.988057325412264" lon="-107.0714747940597"><ele>2124.0</ele><time>2026-05-02T17:26:43Z</time></trkpt><trkpt lat="35.98798938053063" lon="-107.07163229848402"><ele>2124.0</ele><time>2026-05-02T17:26:44Z</time></trkpt><trkpt lat="35.98795677433473" lon="-107.07172561159653"><ele>2123.75</ele><time>2026-05-02T17:26:45Z</time></trkpt><trkpt lat="35.988043697665404" lon="-107.0718253696331"><ele>2123.5</ele><time>2026-05-02T17:26:47Z</time></trkpt><trkpt lat="35.98817202250359" lon="-107.0719024578202"><ele>2123.25</ele><time>2026-05-02T17:26:48Z</time></trkpt><trkpt lat="35.98831535537275" lon="-107.07196117299793"><ele>2123.0</ele><time>2026-05-02T17:26:49Z</time></trkpt><trkpt lat="35.988434594231784" lon="-107.07202315547042"><ele>2123.0</ele><time>2026-05-02T17:26:50Z</time></trkpt><trkpt lat="35.988551060019496" lon="-107.07210227655312"><ele>2123.0</ele><time>2026-05-02T17:26:51Z</time></trkpt><trkpt lat="35.988655874202856" lon="-107.0721657319455"><ele>2123.0</ele><time>2026-05-02T17:26:52Z</time></trkpt><trkpt lat="35.98873554453945" lon="-107.07220968058301"><ele>2123.0</ele><time>2026-05-02T17:26:53Z</time></trkpt><trkpt lat="35.98880286149949" lon="-107.07223450744107"><ele>2123.0</ele><time>2026-05-02T17:26:54Z</time></trkpt><trkpt lat="35.98889594700339" lon="-107.07223810532751"><ele>2123.0</ele><time>2026-05-02T17:26:57Z</time></trkpt><trkpt lat="35.988993994627755" lon="-107.07231068248066"><ele>2123.0</ele><time>2026-05-02T17:28:54Z</time></trkpt><trkpt lat="35.98904814328493" lon="-107.07239728509761"><ele>2123.0</ele><time>2026-05-02T17:28:55Z</time></trkpt><trkpt lat="35.98911747308968" lon="-107.0724631672273"><ele>2123.0</ele><time>2026-05-02T17:28:56Z</time></trkpt><trkpt lat="35.98921431168341" lon="-107.07249750774183"><ele>2123.0</ele><time>2026-05-02T17:28:57Z</time></trkpt><trkpt lat="35.98934586874904" lon="-107.07255948465634"><ele>2123.25</ele><time>2026-05-02T17:28:58Z</time></trkpt><trkpt lat="35.98944648197463" lon="-107.07261076002675"><ele>2123.5</ele><time>2026-05-02T17:28:59Z</time></trkpt><trkpt lat="35.98954220692448" lon="-107.07264699934811"><ele>2123.75</ele><time>2026-05-02T17:29:00Z</time></trkpt><trkpt lat="35.98965655414433" lon="-107.07269806158281"><ele>2124.0</ele><time>2026-05-02T17:29:01Z</time></trkpt><trkpt lat="35.98980383629148" lon="-107.07278028913011"><ele>2124.0</ele><time>2026-05-02T17:29:02Z</time></trkpt><trkpt lat="35.98996406041152" lon="-107.07286662501114"><ele>2124.0</ele><time>2026-05-02T17:29:03Z</time></trkpt><trkpt lat="35.99009216718119" lon="-107.07293734645415"><ele>2124.0</ele><time>2026-05-02T17:29:04Z</time></trkpt><trkpt lat="35.99021637850428" lon="-107.07302314610052"><ele>2124.25</ele><time>2026-05-02T17:29:05Z</time></trkpt><trkpt lat="35.99034138467137" lon="-107.07311516475329"><ele>2124.5</ele><time>2026-05-02T17:29:06Z</time></trkpt><trkpt lat="35.99045113501523" lon="-107.07319025244959"><ele>2124.75</ele><time>2026-05-02T17:29:07Z</time></trkpt><trkpt lat="35.99056265016654" lon="-107.07325380059021"><ele>2125.0</ele><time>2026-05-02T17:29:08Z</time></trkpt><trkpt lat="35.990685618514405" lon="-107.07331526484032"><ele>2126.0</ele><time>2026-05-02T17:29:09Z</time></trkpt><trkpt lat="35.990769254935195" lon="-107.07337219411524"><ele>2127.0</ele><time>2026-05-02T17:29:10Z</time></trkpt><trkpt lat="35.99085835906249" lon="-107.07343358564985"><ele>2128.0</ele><time>2026-05-02T17:29:11Z</time></trkpt><trkpt lat="35.9909829730271" lon="-107.07348622191392"><ele>2129.0</ele><time>2026-05-02T17:29:12Z</time></trkpt><trkpt lat="35.99112564656822" lon="-107.07354284752202"><ele>2131.6666666666665</ele><time>2026-05-02T17:29:13Z</time></trkpt><trkpt lat="35.99128745359626" lon="-107.07362098736293"><ele>2134.3333333333335</ele><time>2026-05-02T17:29:14Z</time></trkpt><trkpt lat="35.99144800395067" lon="-107.07370317350077"><ele>2137.0</ele><time>2026-05-02T17:29:15Z</time></trkpt><trkpt lat="35.991587242348274" lon="-107.07379585891125"><ele>2137.0</ele><time>2026-05-02T17:29:16Z</time></trkpt><trkpt lat="35.99163882432286" lon="-107.0738854618559"><ele>2137.0</ele><time>2026-05-02T17:29:17Z</time></trkpt><trkpt lat="35.991675443544416" lon="-107.07401027163985"><ele>2137.0</ele><time>2026-05-02T17:29:18Z</time></trkpt><trkpt lat="35.99168763492086" lon="-107.07417084512008"><ele>2137.0</ele><time>2026-05-02T17:29:19Z</time></trkpt><trkpt lat="35.991694704910216" lon="-107.07436964079926"><ele>2136.0</ele><time>2026-05-02T17:29:20Z</time></trkpt><trkpt lat="35.991728354255635" lon="-107.07457310725123"><ele>2135.0</ele><time>2026-05-02T17:29:21Z</time></trkpt><trkpt lat="35.991790815656415" lon="-107.07475336177346"><ele>2134.0</ele><time>2026-05-02T17:29:22Z</time></trkpt><trkpt lat="35.99189322379966" lon="-107.07491210932545"><ele>2133.0</ele><time>2026-05-02T17:29:23Z</time></trkpt><trkpt lat="35.991958614894884" lon="-107.07503014613486"><ele>2132.0</ele><time>2026-05-02T17:29:24Z</time></trkpt><trkpt lat="35.992061384202394" lon="-107.07515799410982"><ele>2131.0</ele><time>2026-05-02T17:29:25Z</time></trkpt><trkpt lat="35.99218720646268" lon="-107.07527878075008"><ele>2130.0</ele><time>2026-05-02T17:29:26Z</time></trkpt><trkpt lat="35.99232864263764" lon="-107.07542351173434"><ele>2130.0</ele><time>2026-05-02T17:29:27Z</time></trkpt><trkpt lat="35.99244754852924" lon="-107.07554862541497"><ele>2130.0</ele><time>2026-05-02T17:29:28Z</time></trkpt><trkpt lat="35.99253542458452" lon="-107.07566044033243"><ele>2130.0</ele><time>2026-05-02T17:29:29Z</time></trkpt><trkpt lat="35.99261304303098" lon="-107.07575740886647"><ele>2130.0</ele><time>2026-05-02T17:29:30Z</time></trkpt><trkpt lat="35.99268699411635" lon="-107.07584521775475"><ele>2128.8</ele><time>2026-05-02T17:29:31Z</time></trkpt><trkpt lat="35.99273142642088" lon="-107.07590922711579"><ele>2127.6</ele><time>2026-05-02T17:29:32Z</time></trkpt><trkpt lat="35.992771979224976" lon="-107.07597801530204"><ele>2126.4</ele><time>2026-05-02T17:29:33Z</time></trkpt><trkpt lat="35.99277653334713" lon="-107.07607476987364"><ele>2125.2</ele><time>2026-05-02T17:29:35Z</time></trkpt><trkpt lat="35.99266024868044" lon="-107.07605943246429"><ele>2124.0</ele><time>2026-05-02T17:29:37Z</time></trkpt><trkpt lat="35.992572544862874" lon="-107.07596163054095"><ele>2125.0</ele><time>2026-05-02T17:29:38Z</time></trkpt><trkpt lat="35.99246983947768" lon="-107.07583843166857"><ele>2126.0</ele><time>2026-05-02T17:29:39Z</time></trkpt><trkpt lat="35.99234824067602" lon="-107.07572240990966"><ele>2127.0</ele><time>2026-05-02T17:29:40Z</time></trkpt><trkpt lat="35.99224315190647" lon="-107.07557228513852"><ele>2127.6</ele><time>2026-05-02T17:29:41Z</time></trkpt><trkpt lat="35.99214526139298" lon="-107.0754763122505"><ele>2128.2</ele><time>2026-05-02T17:29:42Z</time></trkpt><trkpt lat="35.992070139670126" lon="-107.07541170050644"><ele>2128.8</ele><time>2026-05-02T17:29:43Z</time></trkpt><trkpt lat="35.99199561456782" lon="-107.07531058990658"><ele>2129.4</ele><time>2026-05-02T17:29:44Z</time></trkpt><trkpt lat="35.99192166604986" lon="-107.07520453821331"><ele>2130.0</ele><time>2026-05-02T17:29:45Z</time></trkpt><trkpt lat="35.99188002896304" lon="-107.0751450480187"><ele>2130.0</ele><time>2026-05-02T17:29:46Z</time></trkpt><trkpt lat="35.99183012520021" lon="-107.07507951907027"><ele>2130.0</ele><time>2026-05-02T17:29:47Z</time></trkpt><trkpt lat="35.99174620095877" lon="-107.07501241656281"><ele>2130.0</ele><time>2026-05-02T17:29:48Z</time></trkpt><trkpt lat="35.99164576793169" lon="-107.07500125971383"><ele>2130.0</ele><time>2026-05-02T17:29:49Z</time></trkpt><trkpt lat="35.99157171302559" lon="-107.07498592425846"><ele>2130.0</ele><time>2026-05-02T17:29:50Z</time></trkpt><trkpt lat="35.99151168875981" lon="-107.07493307430452"><ele>2130.0</ele><time>2026-05-02T17:29:51Z</time></trkpt><trkpt lat="35.99143925640061" lon="-107.07485545513947"><ele>2130.714285714286</ele><time>2026-05-02T17:29:52Z</time></trkpt><trkpt lat="35.991373343897926" lon="-107.07482185958845"><ele>2131.4285714285716</ele><time>2026-05-02T17:29:53Z</time></trkpt><trkpt lat="35.991309864975165" lon="-107.07479190888165"><ele>2132.142857142857</ele><time>2026-05-02T17:29:54Z</time></trkpt><trkpt lat="35.99125343039232" lon="-107.07475029177951"><ele>2132.857142857143</ele><time>2026-05-02T17:29:55Z</time></trkpt><trkpt lat="35.99119166960731" lon="-107.0747302320644"><ele>2133.5714285714284</ele><time>2026-05-02T17:29:56Z</time></trkpt><trkpt lat="35.99112780921006" lon="-107.07482122098546"><ele>2134.285714285714</ele><time>2026-05-02T17:29:58Z</time></trkpt><trkpt lat="35.99113746125208" lon="-107.07491925327139"><ele>2135.0</ele><time>2026-05-02T17:29:59Z</time></trkpt><trkpt lat="35.99114654775923" lon="-107.07505766861617"><ele>2135.0</ele><time>2026-05-02T17:30:00Z</time></trkpt><trkpt lat="35.99113097964067" lon="-107.07518568422756"><ele>2135.0</ele><time>2026-05-02T17:30:01Z</time></trkpt><trkpt lat="35.99107098508001" lon="-107.07527764016636"><ele>2135.0</ele><time>2026-05-02T17:30:02Z</time></trkpt><trkpt lat="35.990987956595696" lon="-107.07537195827081"><ele>2135.0</ele><time>2026-05-02T17:30:03Z</time></trkpt><trkpt lat="35.990881229705046" lon="-107.07543925199762"><ele>2135.0</ele><time>2026-05-02T17:30:04Z</time></trkpt><trkpt lat="35.99077876271163" lon="-107.0754966719406"><ele>2135.4</ele><time>2026-05-02T17:30:05Z</time></trkpt><trkpt lat="35.99070892445336" lon="-107.07552527490544"><ele>2135.8</ele><time>2026-05-02T17:30:06Z</time></trkpt><trkpt lat="35.99059255770048" lon="-107.07556141043605"><ele>2136.2</ele><time>2026-05-02T17:30:07Z</time></trkpt><trkpt lat="35.99052422783644" lon="-107.07561042135887"><ele>2136.6</ele><time>2026-05-02T17:30:08Z</time></trkpt><trkpt lat="35.990458588382616" lon="-107.07569366995462"><ele>2137.0</ele><time>2026-05-02T17:30:09Z</time></trkpt><trkpt lat="35.990386824894955" lon="-107.07580181972554"><ele>2138.7999999999997</ele><time>2026-05-02T17:30:10Z</time></trkpt><trkpt lat="35.99031525613154" lon="-107.07590306948687"><ele>2140.6</ele><time>2026-05-02T17:30:11Z</time></trkpt><trkpt lat="35.990253933709695" lon="-107.07599023066214"><ele>2142.3999999999996</ele><time>2026-05-02T17:30:12Z</time></trkpt><trkpt lat="35.990182504181696" lon="-107.07609616348857"><ele>2144.2</ele><time>2026-05-02T17:30:13Z</time></trkpt><trkpt lat="35.990119578306825" lon="-107.07620199997116"><ele>2146.0</ele><time>2026-05-02T17:30:14Z</time></trkpt><trkpt lat="35.99005573277471" lon="-107.07630638772154"><ele>2146.2</ele><time>2026-05-02T17:30:15Z</time></trkpt><trkpt lat="35.990004924032206" lon="-107.07642343049108"><ele>2146.3999999999996</ele><time>2026-05-02T17:30:16Z</time></trkpt><trkpt lat="35.98996358071562" lon="-107.07654114877865"><ele>2146.6</ele><time>2026-05-02T17:30:17Z</time></trkpt><trkpt lat="35.98990816134697" lon="-107.07664596554716"><ele>2146.7999999999997</ele><time>2026-05-02T17:30:18Z</time></trkpt><trkpt lat="35.98981666487366" lon="-107.07671874218913"><ele>2147.0</ele><time>2026-05-02T17:30:19Z</time></trkpt><trkpt lat="35.9897136235814" lon="-107.0767719269132"><ele>2147.833333333333</ele><time>2026-05-02T17:30:20Z</time></trkpt><trkpt lat="35.98964586964783" lon="-107.07682622959784"><ele>2148.6666666666665</ele><time>2026-05-02T17:30:21Z</time></trkpt><trkpt lat="35.989594159471345" lon="-107.07690135290335"><ele>2149.5</ele><time>2026-05-02T17:30:22Z</time></trkpt><trkpt lat="35.98956148072186" lon="-107.07697440207251"><ele>2150.3333333333335</ele><time>2026-05-02T17:30:23Z</time></trkpt><trkpt lat="35.98951140570645" lon="-107.07704193715821"><ele>2151.166666666667</ele><time>2026-05-02T17:30:24Z</time></trkpt><trkpt lat="35.98945460524511" lon="-107.07711221370418"><ele>2152.0</ele><time>2026-05-02T17:30:25Z</time></trkpt><trkpt lat="35.989332744993355" lon="-107.07712970977283"><ele>2152.0</ele><time>2026-05-02T17:30:27Z</time></trkpt><trkpt lat="35.98922617671538" lon="-107.07711577896123"><ele>2152.0</ele><time>2026-05-02T17:30:28Z</time></trkpt><trkpt lat="35.98913264377454" lon="-107.0771471783312"><ele>2152.0</ele><time>2026-05-02T17:30:29Z</time></trkpt><trkpt lat="35.98906055121138" lon="-107.07718708877437"><ele>2152.0</ele><time>2026-05-02T17:30:30Z</time></trkpt><trkpt lat="35.98899772730794" lon="-107.07717874914955"><ele>2152.0</ele><time>2026-05-02T17:30:31Z</time></trkpt><trkpt lat="35.988935750061316" lon="-107.07711830203142"><ele>2152.0</ele><time>2026-05-02T17:30:32Z</time></trkpt><trkpt lat="35.98885445091631" lon="-107.0770468879248"><ele>2152.0</ele><time>2026-05-02T17:30:33Z</time></trkpt><trkpt lat="35.98876952118049" lon="-107.07698403302285"><ele>2152.0</ele><time>2026-05-02T17:30:34Z</time></trkpt><trkpt lat="35.98868932953096" lon="-107.07694407703474"><ele>2152.0</ele><time>2026-05-02T17:30:35Z</time></trkpt><trkpt lat="35.98860169973843" lon="-107.07694464922196"><ele>2152.0</ele><time>2026-05-02T17:30:36Z</time></trkpt><trkpt lat="35.98850592773665" lon="-107.0769598883549"><ele>2152.0</ele><time>2026-05-02T17:30:37Z</time></trkpt><trkpt lat="35.98841754897392" lon="-107.07692919633747"><ele>2151.5</ele><time>2026-05-02T17:30:38Z</time></trkpt><trkpt lat="35.98833876821564" lon="-107.07685915367105"><ele>2151.0</ele><time>2026-05-02T17:30:39Z</time></trkpt><trkpt lat="35.98824029090398" lon="-107.07678588851334"><ele>2150.5</ele><time>2026-05-02T17:30:40Z</time></trkpt><trkpt lat="35.98812332406417" lon="-107.07668241127958"><ele>2150.0</ele><time>2026-05-02T17:30:41Z</time></trkpt><trkpt lat="35.98800286145129" lon="-107.07657822000354"><ele>2150.0</ele><time>2026-05-02T17:30:42Z</time></trkpt><trkpt lat="35.98790387295579" lon="-107.07651845081146"><ele>2150.0</ele><time>2026-05-02T17:30:43Z</time></trkpt><trkpt lat="35.98780514853822" lon="-107.07649448820474"><ele>2150.0</ele><time>2026-05-02T17:30:44Z</time></trkpt><trkpt lat="35.98771769983188" lon="-107.0764465512259"><ele>2150.0</ele><time>2026-05-02T17:30:45Z</time></trkpt><trkpt lat="35.9876299754968" lon="-107.07637418102209"><ele>2150.0</ele><time>2026-05-02T17:30:46Z</time></trkpt><trkpt lat="35.987529753892964" lon="-107.07630694108951"><ele>2152.6</ele><time>2026-05-02T17:30:47Z</time></trkpt><trkpt lat="35.987416464317484" lon="-107.07623997425401"><ele>2155.2</ele><time>2026-05-02T17:30:48Z</time></trkpt><trkpt lat="35.98729375446522" lon="-107.07614828933977"><ele>2157.8</ele><time>2026-05-02T17:30:49Z</time></trkpt><trkpt lat="35.9872284876438" lon="-107.07604786729331"><ele>2160.4</ele><time>2026-05-02T17:30:50Z</time></trkpt><trkpt lat="35.98720031897474" lon="-107.07596157432953"><ele>2163.0</ele><time>2026-05-02T17:30:51Z</time></trkpt><trkpt lat="35.9871156116047" lon="-107.0759017482682"><ele>2163.0</ele><time>2026-05-02T17:30:52Z</time></trkpt><trkpt lat="35.986984366289285" lon="-107.07584398714282"><ele>2163.0</ele><time>2026-05-02T17:30:53Z</time></trkpt><trkpt lat="35.98679400649732" lon="-107.07576696944325"><ele>2163.0</ele><time>2026-05-02T17:30:54Z</time></trkpt><trkpt lat="35.98664917129732" lon="-107.0756757526881"><ele>2162.3333333333335</ele><time>2026-05-02T17:30:55Z</time></trkpt><trkpt lat="35.986500385596116" lon="-107.07558094310316"><ele>2161.666666666667</ele><time>2026-05-02T17:30:56Z</time></trkpt><trkpt lat="35.98632940980621" lon="-107.07548640224994"><ele>2161.0</ele><time>2026-05-02T17:30:57Z</time></trkpt><trkpt lat="35.986161431126455" lon="-107.07537537264984"><ele>2161.0</ele><time>2026-05-02T17:30:58Z</time></trkpt><trkpt lat="35.98599624610233" lon="-107.07524324912102"><ele>2161.0</ele><time>2026-05-02T17:30:59Z</time></trkpt><trkpt lat="35.985854076556464" lon="-107.07515992893813"><ele>2161.0</ele><time>2026-05-02T17:31:00Z</time></trkpt><trkpt lat="35.98573471037104" lon="-107.07508116948675"><ele>2160.75</ele><time>2026-05-02T17:31:01Z</time></trkpt><trkpt lat="35.98561960849148" lon="-107.07502150342921"><ele>2160.5</ele><time>2026-05-02T17:31:02Z</time></trkpt><trkpt lat="35.98550274200358" lon="-107.07498177615741"><ele>2160.25</ele><time>2026-05-02T17:31:03Z</time></trkpt><trkpt lat="35.9854036313967" lon="-107.07496011843882"><ele>2160.0</ele><time>2026-05-02T17:31:04Z</time></trkpt><trkpt lat="35.98529192210196" lon="-107.0749649302234"><ele>2160.0</ele><time>2026-05-02T17:31:05Z</time></trkpt><trkpt lat="35.98514947963142" lon="-107.07499782862328"><ele>2160.0</ele><time>2026-05-02T17:31:06Z</time></trkpt><trkpt lat="35.98503723395792" lon="-107.07498281486093"><ele>2160.0</ele><time>2026-05-02T17:31:07Z</time></trkpt><trkpt lat="35.98497042807301" lon="-107.07495864675839"><ele>2160.0</ele><time>2026-05-02T17:31:08Z</time></trkpt><trkpt lat="35.98499959341647" lon="-107.07505250626578"><ele>2160.0</ele><time>2026-05-02T17:31:09Z</time></trkpt><trkpt lat="35.98503303757969" lon="-107.07519744946627"><ele>2160.0</ele><time>2026-05-02T17:31:10Z</time></trkpt><trkpt lat="35.98508775985043" lon="-107.07536823330196"><ele>2160.0</ele><time>2026-05-02T17:31:11Z</time></trkpt><trkpt lat="35.98511167386982" lon="-107.07553289496427"><ele>2160.0</ele><time>2026-05-02T17:31:12Z</time></trkpt><trkpt lat="35.985121508231074" lon="-107.07568510616838"><ele>2160.0</ele><time>2026-05-02T17:31:13Z</time></trkpt><trkpt lat="35.98513895099689" lon="-107.0758417515104"><ele>2159.75</ele><time>2026-05-02T17:31:14Z</time></trkpt><trkpt lat="35.985171413523574" lon="-107.07601056386638"><ele>2159.5</ele><time>2026-05-02T17:31:15Z</time></trkpt><trkpt lat="35.985183999243574" lon="-107.07619348921261"><ele>2159.25</ele><time>2026-05-02T17:31:16Z</time></trkpt><trkpt lat="35.98517524983562" lon="-107.07637604600347"><ele>2159.0</ele><time>2026-05-02T17:31:17Z</time></trkpt><trkpt lat="35.985164186789056" lon="-107.07653865666363"><ele>2158.25</ele><time>2026-05-02T17:31:18Z</time></trkpt><trkpt lat="35.98517279578421" lon="-107.07670302111323"><ele>2157.5</ele><time>2026-05-02T17:31:19Z</time></trkpt><trkpt lat="35.985202238617205" lon="-107.07687092945197"><ele>2156.75</ele><time>2026-05-02T17:31:20Z</time></trkpt><trkpt lat="35.985229503747505" lon="-107.07707561982045"><ele>2156.0</ele><time>2026-05-02T17:31:21Z</time></trkpt><trkpt lat="35.9852303818661" lon="-107.07728829009183"><ele>2156.0</ele><time>2026-05-02T17:31:22Z</time></trkpt><trkpt lat="35.98524090081727" lon="-107.07749883265015"><ele>2156.0</ele><time>2026-05-02T17:31:23Z</time></trkpt><trkpt lat="35.9852599244419" lon="-107.07771188621425"><ele>2156.0</ele><time>2026-05-02T17:31:24Z</time></trkpt><trkpt lat="35.985273965695384" lon="-107.07790903748925"><ele>2156.0</ele><time>2026-05-02T17:31:25Z</time></trkpt><trkpt lat="35.98528733252469" lon="-107.07810005177984"><ele>2156.0</ele><time>2026-05-02T17:31:26Z</time></trkpt><trkpt lat="35.98529997108294" lon="-107.07827935004025"><ele>2156.0</ele><time>2026-05-02T17:31:27Z</time></trkpt><trkpt lat="35.98531002113433" lon="-107.0784564794301"><ele>2156.0</ele><time>2026-05-02T17:31:28Z</time></trkpt><trkpt lat="35.98532061851338" lon="-107.07864903009411"><ele>2156.333333333333</ele><time>2026-05-02T17:31:29Z</time></trkpt><trkpt lat="35.98532171125711" lon="-107.0788407067903"><ele>2156.6666666666665</ele><time>2026-05-02T17:31:30Z</time></trkpt><trkpt lat="35.98532649606462" lon="-107.07902634267502"><ele>2157.0</ele><time>2026-05-02T17:31:31Z</time></trkpt><trkpt lat="35.98533585667718" lon="-107.07922037424349"><ele>2156.3333333333335</ele><time>2026-05-02T17:31:32Z</time></trkpt><trkpt lat="35.985350373710816" lon="-107.07943450119788"><ele>2155.666666666667</ele><time>2026-05-02T17:31:33Z</time></trkpt><trkpt lat="35.98536687345398" lon="-107.07965034547503"><ele>2155.0</ele><time>2026-05-02T17:31:34Z</time></trkpt><trkpt lat="35.985381524134915" lon="-107.0798628373677"><ele>2155.0</ele><time>2026-05-02T17:31:35Z</time></trkpt><trkpt lat="35.98538768649898" lon="-107.08000342295367"><ele>2155.0</ele><time>2026-05-02T17:31:36Z</time></trkpt><trkpt lat="35.98539048965619" lon="-107.0801067069183"><ele>2155.0</ele><time>2026-05-02T17:31:37Z</time></trkpt><trkpt lat="35.985467379719864" lon="-107.08017878963335"><ele>2155.0</ele><time>2026-05-02T17:31:39Z</time></trkpt><trkpt lat="35.98554344769067" lon="-107.08018665951606"><ele>2155.0</ele><time>2026-05-02T17:31:40Z</time></trkpt><trkpt lat="35.98563370863651" lon="-107.08017312392943"><ele>2155.0</ele><time>2026-05-02T17:31:41Z</time></trkpt><trkpt lat="35.98569824548667" lon="-107.08017266710827"><ele>2155.0</ele><time>2026-05-02T17:31:42Z</time></trkpt><trkpt lat="35.985820730341615" lon="-107.0801825230473"><ele>2155.0</ele><time>2026-05-02T17:31:43Z</time></trkpt><trkpt lat="35.98596316898148" lon="-107.08015973560927"><ele>2155.0</ele><time>2026-05-02T17:31:44Z</time></trkpt><trkpt lat="35.986113680193554" lon="-107.08016537485473"><ele>2156.25</ele><time>2026-05-02T17:31:45Z</time></trkpt><trkpt lat="35.986233702322124" lon="-107.08020460105617"><ele>2157.5</ele><time>2026-05-02T17:31:46Z</time></trkpt><trkpt lat="35.98633976978652" lon="-107.08026979920865"><ele>2158.75</ele><time>2026-05-02T17:31:47Z</time></trkpt><trkpt lat="35.9864628368773" lon="-107.08032931175092"><ele>2160.0</ele><time>2026-05-02T17:31:48Z</time></trkpt><trkpt lat="35.986611750991706" lon="-107.08036127480348"><ele>2160.0</ele><time>2026-05-02T17:31:49Z</time></trkpt><trkpt lat="35.986755449515606" lon="-107.08043628565703"><ele>2160.0</ele><time>2026-05-02T17:31:50Z</time></trkpt><trkpt lat="35.98686053288925" lon="-107.080464274549"><ele>2160.0</ele><time>2026-05-02T17:31:51Z</time></trkpt><trkpt lat="35.98694540313459" lon="-107.08044697337768"><ele>2160.0</ele><time>2026-05-02T17:31:52Z</time></trkpt><trkpt lat="35.987017376313126" lon="-107.08048703227166"><ele>2160.0</ele><time>2026-05-02T17:31:53Z</time></trkpt><trkpt lat="35.98703486980962" lon="-107.0805927964298"><ele>2159.25</ele><time>2026-05-02T17:31:54Z</time></trkpt><trkpt lat="35.987065074951566" lon="-107.08077060713376"><ele>2158.5</ele><time>2026-05-02T17:31:55Z</time></trkpt><trkpt lat="35.987158541881655" lon="-107.08090844769664"><ele>2157.75</ele><time>2026-05-02T17:31:56Z</time></trkpt><trkpt lat="35.98725196476556" lon="-107.08099608372206"><ele>2157.0</ele><time>2026-05-02T17:31:57Z</time></trkpt><trkpt lat="35.98730975321053" lon="-107.08109072123736"><ele>2157.0</ele><time>2026-05-02T17:31:58Z</time></trkpt><trkpt lat="35.98735662736362" lon="-107.081198950174"><ele>2157.0</ele><time>2026-05-02T17:31:59Z</time></trkpt><trkpt lat="35.987374236190846" lon="-107.08128713531761"><ele>2157.0</ele><time>2026-05-02T17:32:00Z</time></trkpt><trkpt lat="35.98733012014463" lon="-107.0813930456415"><ele>2157.0</ele><time>2026-05-02T17:32:01Z</time></trkpt><trkpt lat="35.98725788024505" lon="-107.08154599518342"><ele>2157.0</ele><time>2026-05-02T17:32:02Z</time></trkpt><trkpt lat="35.987223754161896" lon="-107.08171218665436"><ele>2156.7999999999997</ele><time>2026-05-02T17:32:03Z</time></trkpt><trkpt lat="35.98722029738828" lon="-107.0818837874046"><ele>2156.6</ele><time>2026-05-02T17:32:04Z</time></trkpt><trkpt lat="35.98719969573031" lon="-107.08202208167705"><ele>2156.3999999999996</ele><time>2026-05-02T17:32:05Z</time></trkpt><trkpt lat="35.98718561606932" lon="-107.0821262805261"><ele>2156.2</ele><time>2026-05-02T17:32:06Z</time></trkpt><trkpt lat="35.98720967788425" lon="-107.08225754911207"><ele>2156.0</ele><time>2026-05-02T17:32:07Z</time></trkpt><trkpt lat="35.98724049527023" lon="-107.08235879153403"><ele>2156.0</ele><time>2026-05-02T17:32:08Z</time></trkpt><trkpt lat="35.98728044801576" lon="-107.08243039811828"><ele>2156.0</ele><time>2026-05-02T17:32:09Z</time></trkpt><trkpt lat="35.987283191673605" lon="-107.08234855264544"><ele>2156.0</ele><time>2026-05-02T17:32:37Z</time></trkpt><trkpt lat="35.98734779468826" lon="-107.08241935483099"><ele>2156.0</ele><time>2026-05-02T17:32:39Z</time></trkpt><trkpt lat="35.98742367005736" lon="-107.08254679251415"><ele>2156.0</ele><time>2026-05-02T17:32:41Z</time></trkpt><trkpt lat="35.987473558864764" lon="-107.08265654592655"><ele>2155.2</ele><time>2026-05-02T17:32:42Z</time></trkpt><trkpt lat="35.98750066260245" lon="-107.08276489369855"><ele>2154.3999999999996</ele><time>2026-05-02T17:32:43Z</time></trkpt><trkpt lat="35.987540494127416" lon="-107.08287007413706"><ele>2153.6</ele><time>2026-05-02T17:32:44Z</time></trkpt><trkpt lat="35.98754041667573" lon="-107.0829819341703"><ele>2152.7999999999997</ele><time>2026-05-02T17:32:46Z</time></trkpt><trkpt lat="35.98765209104744" lon="-107.08307137142728"><ele>2152.0</ele><time>2026-05-02T17:32:49Z</time></trkpt><trkpt lat="35.98774940965591" lon="-107.08305891313987"><ele>2151.3333333333335</ele><time>2026-05-02T17:32:50Z</time></trkpt><trkpt lat="35.98781403516814" lon="-107.08305979281316"><ele>2150.666666666667</ele><time>2026-05-02T17:32:51Z</time></trkpt><trkpt lat="35.98782233286601" lon="-107.08321843674803"><ele>2150.0</ele><time>2026-05-02T17:32:53Z</time></trkpt><trkpt lat="35.98786338821663" lon="-107.08330440040834"><ele>2149.3333333333335</ele><time>2026-05-02T17:32:54Z</time></trkpt><trkpt lat="35.987910378078" lon="-107.0834104799137"><ele>2148.6666666666665</ele><time>2026-05-02T17:32:56Z</time></trkpt><trkpt lat="35.98796938868743" lon="-107.08344067889556"><ele>2148.0</ele><time>2026-05-02T17:32:57Z</time></trkpt><trkpt lat="35.9880570635822" lon="-107.08338331652195"><ele>2147.2000000000003</ele><time>2026-05-02T17:32:59Z</time></trkpt><trkpt lat="35.98820512036314" lon="-107.0833504158"><ele>2146.4</ele><time>2026-05-02T17:33:01Z</time></trkpt><trkpt lat="35.98829066991676" lon="-107.08337132016241"><ele>2145.6000000000004</ele><time>2026-05-02T17:33:02Z</time></trkpt><trkpt lat="35.9883604037444" lon="-107.08343434834055"><ele>2144.8</ele><time>2026-05-02T17:33:03Z</time></trkpt><trkpt lat="35.98840699019954" lon="-107.08351622322402"><ele>2144.0</ele><time>2026-05-02T17:33:04Z</time></trkpt><trkpt lat="35.98840553350842" lon="-107.08361221798485"><ele>2144.0</ele><time>2026-05-02T17:33:05Z</time></trkpt><trkpt lat="35.98847115656616" lon="-107.0836465874029"><ele>2144.0</ele><time>2026-05-02T17:33:07Z</time></trkpt><trkpt lat="35.988537737217605" lon="-107.08362626018184"><ele>2144.0</ele><time>2026-05-02T17:33:15Z</time></trkpt><trkpt lat="35.98860889966931" lon="-107.08363014890188"><ele>2144.0</ele><time>2026-05-02T17:33:16Z</time></trkpt><trkpt lat="35.988684047434504" lon="-107.08366019600784"><ele>2144.0</ele><time>2026-05-02T17:33:17Z</time></trkpt><trkpt lat="35.98875761477653" lon="-107.08374470752825"><ele>2144.0</ele><time>2026-05-02T17:33:18Z</time></trkpt><trkpt lat="35.988816832895175" lon="-107.08383544534918"><ele>2144.0</ele><time>2026-05-02T17:33:19Z</time></trkpt><trkpt lat="35.988885268358175" lon="-107.08390900259154"><ele>2144.0</ele><time>2026-05-02T17:33:20Z</time></trkpt><trkpt lat="35.9889549770456" lon="-107.08391297085507"><ele>2144.0</ele><time>2026-05-02T17:33:21Z</time></trkpt><trkpt lat="35.98903698517236" lon="-107.08400940306896"><ele>2144.0</ele><time>2026-05-02T17:33:23Z</time></trkpt><trkpt lat="35.98902516918848" lon="-107.08412542948231"><ele>2144.0</ele><time>2026-05-02T17:33:24Z</time></trkpt><trkpt lat="35.989072351635464" lon="-107.08424011277133"><ele>2144.2</ele><time>2026-05-02T17:33:26Z</time></trkpt><trkpt lat="35.98914713086475" lon="-107.08431834955339"><ele>2144.4</ele><time>2026-05-02T17:33:27Z</time></trkpt><trkpt lat="35.98919351587555" lon="-107.08444773346807"><ele>2144.6</ele><time>2026-05-02T17:33:28Z</time></trkpt><trkpt lat="35.98921505420024" lon="-107.0845882650433"><ele>2144.8</ele><time>2026-05-02T17:33:29Z</time></trkpt><trkpt lat="35.98925955688854" lon="-107.08466201624722"><ele>2145.0</ele><time>2026-05-02T17:33:30Z</time></trkpt><trkpt lat="35.989330818675974" lon="-107.08472425997995"><ele>2145.0</ele><time>2026-05-02T17:33:31Z</time></trkpt><trkpt lat="35.98937688203234" lon="-107.08479317788489"><ele>2145.0</ele><time>2026-05-02T17:33:32Z</time></trkpt><trkpt lat="35.98930892951264" lon="-107.08494042909001"><ele>2145.0</ele><time>2026-05-02T17:33:34Z</time></trkpt><trkpt lat="35.989224567063395" lon="-107.08503962744881"><ele>2145.0</ele><time>2026-05-02T17:33:35Z</time></trkpt><trkpt lat="35.98918893843705" lon="-107.08516402162154"><ele>2145.0</ele><time>2026-05-02T17:33:36Z</time></trkpt><trkpt lat="35.989130792486456" lon="-107.08524826833215"><ele>2145.0</ele><time>2026-05-02T17:33:37Z</time></trkpt><trkpt lat="35.98907702268207" lon="-107.08532812955887"><ele>2145.0</ele><time>2026-05-02T17:33:39Z</time></trkpt><trkpt lat="35.98908215757937" lon="-107.08541087524233"><ele>2145.0</ele><time>2026-05-02T17:33:40Z</time></trkpt><trkpt lat="35.98902461938255" lon="-107.08550122509402"><ele>2145.0</ele><time>2026-05-02T17:33:41Z</time></trkpt><trkpt lat="35.988948664129566" lon="-107.08557982093923"><ele>2145.0</ele><time>2026-05-02T17:33:42Z</time></trkpt><trkpt lat="35.98885204492082" lon="-107.08567769097074"><ele>2145.0</ele><time>2026-05-02T17:33:43Z</time></trkpt><trkpt lat="35.98876072680188" lon="-107.08575543827423"><ele>2145.0</ele><time>2026-05-02T17:33:44Z</time></trkpt><trkpt lat="35.988695870415064" lon="-107.08582610961413"><ele>2145.0</ele><time>2026-05-02T17:33:45Z</time></trkpt><trkpt lat="35.98862280950547" lon="-107.08589687592759"><ele>2145.0</ele><time>2026-05-02T17:33:46Z</time></trkpt><trkpt lat="35.98854999908991" lon="-107.08599054594053"><ele>2145.0</ele><time>2026-05-02T17:33:47Z</time></trkpt><trkpt lat="35.98851034327305" lon="-107.08607305809652"><ele>2145.3333333333335</ele><time>2026-05-02T17:33:48Z</time></trkpt><trkpt lat="35.988498979986396" lon="-107.086149860008"><ele>2145.6666666666665</ele><time>2026-05-02T17:33:49Z</time></trkpt><trkpt lat="35.9884739411188" lon="-107.08622996754598"><ele>2146.0</ele><time>2026-05-02T17:33:50Z</time></trkpt><trkpt lat="35.9884023417991" lon="-107.08634103779158"><ele>2146.333333333333</ele><time>2026-05-02T17:33:51Z</time></trkpt><trkpt lat="35.98834142199288" lon="-107.08643040506878"><ele>2146.6666666666665</ele><time>2026-05-02T17:33:52Z</time></trkpt><trkpt lat="35.988303878241545" lon="-107.08650751445424"><ele>2147.0</ele><time>2026-05-02T17:33:53Z</time></trkpt><trkpt lat="35.988245834243706" lon="-107.08655273542887"><ele>2146.6</ele><time>2026-05-02T17:33:54Z</time></trkpt><trkpt lat="35.98820864429067" lon="-107.08663262590204"><ele>2146.2</ele><time>2026-05-02T17:33:56Z</time></trkpt><trkpt lat="35.988248478480294" lon="-107.08673373041294"><ele>2145.8</ele><time>2026-05-02T17:33:57Z</time></trkpt><trkpt lat="35.98831890344782" lon="-107.08677687392407"><ele>2145.4</ele><time>2026-05-02T17:33:58Z</time></trkpt><trkpt lat="35.98834746557771" lon="-107.08691336145658"><ele>2145.0</ele><time>2026-05-02T17:34:00Z</time></trkpt><trkpt lat="35.98829449951479" lon="-107.08704517014158"><ele>2146.0</ele><time>2026-05-02T17:34:01Z</time></trkpt><trkpt lat="35.98825789444058" lon="-107.0871420199478"><ele>2147.0</ele><time>2026-05-02T17:34:02Z</time></trkpt><trkpt lat="35.98820883160498" lon="-107.08725437292634"><ele>2148.0</ele><time>2026-05-02T17:34:04Z</time></trkpt><trkpt lat="35.98826576235008" lon="-107.0873855131929"><ele>2149.0</ele><time>2026-05-02T17:34:06Z</time></trkpt><trkpt lat="35.98829375081581" lon="-107.08747476887108"><ele>2150.0</ele><time>2026-05-02T17:34:07Z</time></trkpt><trkpt lat="35.988229793080436" lon="-107.08754964555703"><ele>2150.0</ele><time>2026-05-02T17:34:08Z</time></trkpt><trkpt lat="35.988167620512776" lon="-107.08767375168493"><ele>2150.0</ele><time>2026-05-02T17:34:09Z</time></trkpt><trkpt lat="35.98814031995486" lon="-107.0877881471848"><ele>2150.0</ele><time>2026-05-02T17:34:10Z</time></trkpt><trkpt lat="35.98816422634359" lon="-107.08786824714926"><ele>2150.0</ele><time>2026-05-02T17:34:11Z</time></trkpt><trkpt lat="35.98818531351075" lon="-107.08795596783223"><ele>2150.0</ele><time>2026-05-02T17:34:12Z</time></trkpt><trkpt lat="35.98818867763044" lon="-107.08805752001294"><ele>2150.0</ele><time>2026-05-02T17:34:13Z</time></trkpt><trkpt lat="35.98819357444631" lon="-107.08818225775832"><ele>2149.833333333333</ele><time>2026-05-02T17:34:14Z</time></trkpt><trkpt lat="35.988206908194634" lon="-107.08828258411275"><ele>2149.6666666666665</ele><time>2026-05-02T17:34:15Z</time></trkpt><trkpt lat="35.988173012961475" lon="-107.0883526689564"><ele>2149.5</ele><time>2026-05-02T17:34:16Z</time></trkpt><trkpt lat="35.98813834351322" lon="-107.08847082527768"><ele>2149.3333333333335</ele><time>2026-05-02T17:34:17Z</time></trkpt><trkpt lat="35.98813354950129" lon="-107.08859669961865"><ele>2149.166666666667</ele><time>2026-05-02T17:34:18Z</time></trkpt><trkpt lat="35.988155693094875" lon="-107.08870525430359"><ele>2149.0</ele><time>2026-05-02T17:34:19Z</time></trkpt><trkpt lat="35.98813370099131" lon="-107.08879076362973"><ele>2149.0</ele><time>2026-05-02T17:34:20Z</time></trkpt><trkpt lat="35.988077228944455" lon="-107.08888456525071"><ele>2149.0</ele><time>2026-05-02T17:34:21Z</time></trkpt><trkpt lat="35.98802314376328" lon="-107.08896852799863"><ele>2149.0</ele><time>2026-05-02T17:34:22Z</time></trkpt><trkpt lat="35.98797393588019" lon="-107.08904913832335"><ele>2149.0</ele><time>2026-05-02T17:34:23Z</time></trkpt><trkpt lat="35.98788653893506" lon="-107.0890956723591"><ele>2149.0</ele><time>2026-05-02T17:34:24Z</time></trkpt><trkpt lat="35.98788365229499" lon="-107.08924391616874"><ele>2148.25</ele><time>2026-05-02T17:34:26Z</time></trkpt><trkpt lat="35.98791219030665" lon="-107.08941870866734"><ele>2147.5</ele><time>2026-05-02T17:34:27Z</time></trkpt><trkpt lat="35.98792349648644" lon="-107.08955843753857"><ele>2146.75</ele><time>2026-05-02T17:34:28Z</time></trkpt><trkpt lat="35.98810950430562" lon="-107.08951071027101"><ele>2146.0</ele><time>2026-05-02T17:34:32Z</time></trkpt><trkpt lat="35.98821012036193" lon="-107.08943345912701"><ele>2146.0</ele><time>2026-05-02T17:34:33Z</time></trkpt><trkpt lat="35.9883355361318" lon="-107.08934510146463"><ele>2146.0</ele><time>2026-05-02T17:34:34Z</time></trkpt><trkpt lat="35.98846847592283" lon="-107.08927428101103"><ele>2146.0</ele><time>2026-05-02T17:34:35Z</time></trkpt><trkpt lat="35.9886045043278" lon="-107.089211488984"><ele>2146.0</ele><time>2026-05-02T17:34:36Z</time></trkpt><trkpt lat="35.988715497653665" lon="-107.08915825988927"><ele>2145.25</ele><time>2026-05-02T17:34:37Z</time></trkpt><trkpt lat="35.988832967537505" lon="-107.0890904681584"><ele>2144.5</ele><time>2026-05-02T17:34:38Z</time></trkpt><trkpt lat="35.988962836952375" lon="-107.08901253922122"><ele>2143.75</ele><time>2026-05-02T17:34:39Z</time></trkpt><trkpt lat="35.98909783973808" lon="-107.08893207650847"><ele>2143.0</ele><time>2026-05-02T17:34:40Z</time></trkpt><trkpt lat="35.98925030143207" lon="-107.0888407839702"><ele>2141.0</ele><time>2026-05-02T17:34:41Z</time></trkpt><trkpt lat="35.98941513757427" lon="-107.08873971623728"><ele>2139.0</ele><time>2026-05-02T17:34:42Z</time></trkpt><trkpt lat="35.989593807659986" lon="-107.08863345344011"><ele>2137.0</ele><time>2026-05-02T17:34:43Z</time></trkpt><trkpt lat="35.98977447622225" lon="-107.08852356824487"><ele>2137.0</ele><time>2026-05-02T17:34:44Z</time></trkpt><trkpt lat="35.98992868670353" lon="-107.08842966922649"><ele>2137.0</ele><time>2026-05-02T17:34:45Z</time></trkpt><trkpt lat="35.99008354598909" lon="-107.08833961502886"><ele>2137.0</ele><time>2026-05-02T17:34:46Z</time></trkpt><trkpt lat="35.99025743670833" lon="-107.08823856406488"><ele>2138.3333333333335</ele><time>2026-05-02T17:34:47Z</time></trkpt><trkpt lat="35.99042867401602" lon="-107.08810690605509"><ele>2139.6666666666665</ele><time>2026-05-02T17:34:48Z</time></trkpt><trkpt lat="35.990586289320255" lon="-107.08801158993164"><ele>2141.0</ele><time>2026-05-02T17:34:49Z</time></trkpt><trkpt lat="35.990711271223084" lon="-107.08793169055402"><ele>2141.0</ele><time>2026-05-02T17:34:50Z</time></trkpt><trkpt lat="35.99080784486007" lon="-107.08786483701866"><ele>2141.0</ele><time>2026-05-02T17:34:51Z</time></trkpt><trkpt lat="35.990880268682524" lon="-107.08781314613731"><ele>2141.0</ele><time>2026-05-02T17:34:52Z</time></trkpt><trkpt lat="35.99094237239175" lon="-107.0877688758336"><ele>2141.0</ele><time>2026-05-02T17:34:53Z</time></trkpt><trkpt lat="35.990999729549664" lon="-107.08772566378286"><ele>2141.0</ele><time>2026-05-02T17:34:54Z</time></trkpt><trkpt lat="35.99106535701696" lon="-107.0876859407753"><ele>2141.0</ele><time>2026-05-02T17:34:55Z</time></trkpt><trkpt lat="35.991346330957896" lon="-107.08807232757293"><ele>2141.2</ele><time>2026-05-02T17:34:56Z</time></trkpt><trkpt lat="35.99147365708779" lon="-107.08816059175359"><ele>2141.3999999999996</ele><time>2026-05-02T17:34:57Z</time></trkpt><trkpt lat="35.99153934944964" lon="-107.08825638856845"><ele>2141.6</ele><time>2026-05-02T17:34:58Z</time></trkpt><trkpt lat="35.99152674047455" lon="-107.08834650043235"><ele>2141.7999999999997</ele><time>2026-05-02T17:35:00Z</time></trkpt><trkpt lat="35.99149789957555" lon="-107.08842865791034"><ele>2142.0</ele><time>2026-05-02T17:35:02Z</time></trkpt><trkpt lat="35.991476332837166" lon="-107.08861713008427"><ele>2141.5</ele><time>2026-05-02T17:35:04Z</time></trkpt><trkpt lat="35.99148029623147" lon="-107.08874981741688"><ele>2141.0</ele><time>2026-05-02T17:35:05Z</time></trkpt><trkpt lat="35.99147262237626" lon="-107.08886279626208"><ele>2140.5</ele><time>2026-05-02T17:35:06Z</time></trkpt><trkpt lat="35.99144123556078" lon="-107.08902324851034"><ele>2140.0</ele><time>2026-05-02T17:35:07Z</time></trkpt><trkpt lat="35.991412892866926" lon="-107.08919714889865"><ele>2141.0</ele><time>2026-05-02T17:35:08Z</time></trkpt><trkpt lat="35.991399808130765" lon="-107.08936430934047"><ele>2142.0</ele><time>2026-05-02T17:35:09Z</time></trkpt><trkpt lat="35.9913726851521" lon="-107.08954673090551"><ele>2143.0</ele><time>2026-05-02T17:35:10Z</time></trkpt><trkpt lat="35.99138209274722" lon="-107.08974459246691"><ele>2144.0</ele><time>2026-05-02T17:35:11Z</time></trkpt><trkpt lat="35.99139078068702" lon="-107.08995644684205"><ele>2145.6666666666665</ele><time>2026-05-02T17:35:12Z</time></trkpt><trkpt lat="35.991359567279964" lon="-107.090166378869"><ele>2147.3333333333335</ele><time>2026-05-02T17:35:13Z</time></trkpt><trkpt lat="35.99132762882755" lon="-107.09039958965033"><ele>2149.0</ele><time>2026-05-02T17:35:14Z</time></trkpt><trkpt lat="35.991358085582014" lon="-107.09062702900593"><ele>2148.4</ele><time>2026-05-02T17:35:15Z</time></trkpt><trkpt lat="35.99137740441003" lon="-107.0907926100981"><ele>2147.8</ele><time>2026-05-02T17:35:16Z</time></trkpt><trkpt lat="35.991369792530016" lon="-107.09091439135099"><ele>2147.2</ele><time>2026-05-02T17:35:17Z</time></trkpt><trkpt lat="35.99135645675319" lon="-107.09101707273634"><ele>2146.6</ele><time>2026-05-02T17:35:18Z</time></trkpt><trkpt lat="35.99139738985057" lon="-107.09112650056413"><ele>2146.0</ele><time>2026-05-02T17:35:19Z</time></trkpt><trkpt lat="35.99151080872635" lon="-107.09122745950957"><ele>2146.0</ele><time>2026-05-02T17:35:20Z</time></trkpt><trkpt lat="35.99158997502761" lon="-107.09132894825073"><ele>2146.0</ele><time>2026-05-02T17:35:21Z</time></trkpt><trkpt lat="35.99163908427604" lon="-107.09141312080739"><ele>2146.0</ele><time>2026-05-02T17:35:22Z</time></trkpt><trkpt lat="35.991627598369654" lon="-107.09153826938652"><ele>2146.0</ele><time>2026-05-02T17:35:24Z</time></trkpt><trkpt lat="35.991541626400554" lon="-107.09151452902881"><ele>2146.0</ele><time>2026-05-02T17:35:25Z</time></trkpt><trkpt lat="35.99143028276618" lon="-107.09152897663664"><ele>2146.2</ele><time>2026-05-02T17:35:26Z</time></trkpt><trkpt lat="35.99139517424159" lon="-107.09160309446995"><ele>2146.3999999999996</ele><time>2026-05-02T17:35:28Z</time></trkpt><trkpt lat="35.99142496830799" lon="-107.09168146293048"><ele>2146.6</ele><time>2026-05-02T17:35:29Z</time></trkpt><trkpt lat="35.99144694327997" lon="-107.09179027937945"><ele>2146.7999999999997</ele><time>2026-05-02T17:35:30Z</time></trkpt><trkpt lat="35.991515254526625" lon="-107.09189888453405"><ele>2147.0</ele><time>2026-05-02T17:35:31Z</time></trkpt><trkpt lat="35.99157280686798" lon="-107.09202765456506"><ele>2147.0</ele><time>2026-05-02T17:35:32Z</time></trkpt><trkpt lat="35.99163969037155" lon="-107.0921404617186"><ele>2147.0</ele><time>2026-05-02T17:35:33Z</time></trkpt><trkpt lat="35.99175256435935" lon="-107.09224576535385"><ele>2147.0</ele><time>2026-05-02T17:35:34Z</time></trkpt><trkpt lat="35.99186156617216" lon="-107.09234838645523"><ele>2147.0</ele><time>2026-05-02T17:35:35Z</time></trkpt><trkpt lat="35.99195232890996" lon="-107.09244296799517"><ele>2147.75</ele><time>2026-05-02T17:35:36Z</time></trkpt><trkpt lat="35.992017989829705" lon="-107.09255743001172"><ele>2148.5</ele><time>2026-05-02T17:35:37Z</time></trkpt><trkpt lat="35.99209257539367" lon="-107.09269322175805"><ele>2149.25</ele><time>2026-05-02T17:35:38Z</time></trkpt><trkpt lat="35.992174225688515" lon="-107.09278163828014"><ele>2150.0</ele><time>2026-05-02T17:35:39Z</time></trkpt><trkpt lat="35.992298824517164" lon="-107.09282526604667"><ele>2150.0</ele><time>2026-05-02T17:35:40Z</time></trkpt><trkpt lat="35.99243692661216" lon="-107.09288767642765"><ele>2150.0</ele><time>2026-05-02T17:35:41Z</time></trkpt><trkpt lat="35.99254082372331" lon="-107.0929631872898"><ele>2150.0</ele><time>2026-05-02T17:35:42Z</time></trkpt><trkpt lat="35.99263208261721" lon="-107.09303962518244"><ele>2150.0</ele><time>2026-05-02T17:35:43Z</time></trkpt><trkpt lat="35.9927277846795" lon="-107.09307231391789"><ele>2150.75</ele><time>2026-05-02T17:35:44Z</time></trkpt><trkpt lat="35.99287167558027" lon="-107.09308230265043"><ele>2151.5</ele><time>2026-05-02T17:35:45Z</time></trkpt><trkpt lat="35.9930099288584" lon="-107.09309058205761"><ele>2152.25</ele><time>2026-05-02T17:35:46Z</time></trkpt><trkpt lat="35.99311369427631" lon="-107.09304707782525"><ele>2153.0</ele><time>2026-05-02T17:35:47Z</time></trkpt><trkpt lat="35.9932461859531" lon="-107.09299617179774"><ele>2154.25</ele><time>2026-05-02T17:35:48Z</time></trkpt><trkpt lat="35.993384878959056" lon="-107.09293026349721"><ele>2155.5</ele><time>2026-05-02T17:35:49Z</time></trkpt><trkpt lat="35.99350015169489" lon="-107.09283723114922"><ele>2156.75</ele><time>2026-05-02T17:35:50Z</time></trkpt><trkpt lat="35.99362070354404" lon="-107.09277246954353"><ele>2158.0</ele><time>2026-05-02T17:35:51Z</time></trkpt><trkpt lat="35.993726104268504" lon="-107.09269076847413"><ele>2158.0</ele><time>2026-05-02T17:35:52Z</time></trkpt><trkpt lat="35.99382914006354" lon="-107.09267078258016"><ele>2158.0</ele><time>2026-05-02T17:35:54Z</time></trkpt><trkpt lat="35.99383880531071" lon="-107.0927641034024"><ele>2158.0</ele><time>2026-05-02T17:35:55Z</time></trkpt><trkpt lat="35.99382680869199" lon="-107.09290623080423"><ele>2158.0</ele><time>2026-05-02T17:35:56Z</time></trkpt><trkpt lat="35.99383537861328" lon="-107.09306137440024"><ele>2158.0</ele><time>2026-05-02T17:35:57Z</time></trkpt><trkpt lat="35.99387841741381" lon="-107.09318797966138"><ele>2158.0</ele><time>2026-05-02T17:35:58Z</time></trkpt><trkpt lat="35.99398581834418" lon="-107.09318294317562"><ele>2158.0</ele><time>2026-05-02T17:36:00Z</time></trkpt><trkpt lat="35.99407608145619" lon="-107.09314050321966"><ele>2158.0</ele><time>2026-05-02T17:36:01Z</time></trkpt><trkpt lat="35.994189994773656" lon="-107.09309834335946"><ele>2158.0</ele><time>2026-05-02T17:36:02Z</time></trkpt><trkpt lat="35.99431483962562" lon="-107.09305122870339"><ele>2157.5</ele><time>2026-05-02T17:36:03Z</time></trkpt><trkpt lat="35.99443528664373" lon="-107.09295797681821"><ele>2157.0</ele><time>2026-05-02T17:36:04Z</time></trkpt><trkpt lat="35.994561440333996" lon="-107.09289362317915"><ele>2156.5</ele><time>2026-05-02T17:36:05Z</time></trkpt><trkpt lat="35.994682845290676" lon="-107.09287014221084"><ele>2156.0</ele><time>2026-05-02T17:36:06Z</time></trkpt><trkpt lat="35.99476934363167" lon="-107.09286368431182"><ele>2156.0</ele><time>2026-05-02T17:36:07Z</time></trkpt><trkpt lat="35.99485526981109" lon="-107.09277451802488"><ele>2156.0</ele><time>2026-05-02T17:36:08Z</time></trkpt><trkpt lat="35.99490086000015" lon="-107.09267011245554"><ele>2156.0</ele><time>2026-05-02T17:36:09Z</time></trkpt><trkpt lat="35.99493630596648" lon="-107.09253132825013"><ele>2156.0</ele><time>2026-05-02T17:36:10Z</time></trkpt><trkpt lat="35.99497191721851" lon="-107.09240833991706"><ele>2156.0</ele><time>2026-05-02T17:36:11Z</time></trkpt><trkpt lat="35.99506597715879" lon="-107.09234001559246"><ele>2156.0</ele><time>2026-05-02T17:36:12Z</time></trkpt><trkpt lat="35.99517945320152" lon="-107.09231262371203"><ele>2156.0</ele><time>2026-05-02T17:36:13Z</time></trkpt><trkpt lat="35.9952454586254" lon="-107.0922565386201"><ele>2156.0</ele><time>2026-05-02T17:36:14Z</time></trkpt><trkpt lat="35.99517625113424" lon="-107.09207453440983"><ele>2156.0</ele><time>2026-05-02T17:36:16Z</time></trkpt><trkpt lat="35.99514872094456" lon="-107.0919386045723"><ele>2156.0</ele><time>2026-05-02T17:36:17Z</time></trkpt><trkpt lat="35.995178015610676" lon="-107.09181801494502"><ele>2156.0</ele><time>2026-05-02T17:36:18Z</time></trkpt><trkpt lat="35.99523920827583" lon="-107.09168775229857"><ele>2156.0</ele><time>2026-05-02T17:36:19Z</time></trkpt><trkpt lat="35.995260314425586" lon="-107.09157741329147"><ele>2156.0</ele><time>2026-05-02T17:36:20Z</time></trkpt><trkpt lat="35.99528697403163" lon="-107.09139784351707"><ele>2156.8</ele><time>2026-05-02T17:36:22Z</time></trkpt><trkpt lat="35.99520477550564" lon="-107.09131201068007"><ele>2157.6</ele><time>2026-05-02T17:36:23Z</time></trkpt><trkpt lat="35.995130308302976" lon="-107.0911946777999"><ele>2158.4</ele><time>2026-05-02T17:36:24Z</time></trkpt><trkpt lat="35.99510287197027" lon="-107.09111096189949"><ele>2159.2</ele><time>2026-05-02T17:36:25Z</time></trkpt><trkpt lat="35.99501906911366" lon="-107.0911137441475"><ele>2160.0</ele><time>2026-05-02T17:36:27Z</time></trkpt><trkpt lat="35.99498329799061" lon="-107.091017476255"><ele>2160.0</ele><time>2026-05-02T17:36:29Z</time></trkpt><trkpt lat="35.995041896791896" lon="-107.09093882663801"><ele>2160.0</ele><time>2026-05-02T17:36:30Z</time></trkpt><trkpt lat="35.99510354733863" lon="-107.09084849656104"><ele>2160.0</ele><time>2026-05-02T17:36:31Z</time></trkpt><trkpt lat="35.995043708372776" lon="-107.09070877097558"><ele>2160.0</ele><time>2026-05-02T17:36:33Z</time></trkpt><trkpt lat="35.994972288566906" lon="-107.09061906565157"><ele>2160.0</ele><time>2026-05-02T17:36:34Z</time></trkpt><trkpt lat="35.994924176337825" lon="-107.09051129396778"><ele>2161.2</ele><time>2026-05-02T17:36:35Z</time></trkpt><trkpt lat="35.99488420377322" lon="-107.09040026163078"><ele>2162.4</ele><time>2026-05-02T17:36:36Z</time></trkpt><trkpt lat="35.99486940576337" lon="-107.09030860785033"><ele>2163.6</ele><time>2026-05-02T17:36:37Z</time></trkpt><trkpt lat="35.99488956189587" lon="-107.0902159581186"><ele>2164.8</ele><time>2026-05-02T17:36:38Z</time></trkpt><trkpt lat="35.99488621455531" lon="-107.09009996770527"><ele>2166.0</ele><time>2026-05-02T17:36:39Z</time></trkpt><trkpt lat="35.994834540916194" lon="-107.08996825246425"><ele>2166.0</ele><time>2026-05-02T17:36:40Z</time></trkpt><trkpt lat="35.994820575373886" lon="-107.08988692297036"><ele>2166.0</ele><time>2026-05-02T17:36:41Z</time></trkpt><trkpt lat="35.9947509455511" lon="-107.08983750612896"><ele>2166.0</ele><time>2026-05-02T17:36:42Z</time></trkpt><trkpt lat="35.99466000870569" lon="-107.08984031999675"><ele>2166.0</ele><time>2026-05-02T17:36:43Z</time></trkpt><trkpt lat="35.99457768148729" lon="-107.08989488269867"><ele>2166.0</ele><time>2026-05-02T17:36:44Z</time></trkpt><trkpt lat="35.99452276056025" lon="-107.08996253324678"><ele>2166.0</ele><time>2026-05-02T17:36:45Z</time></trkpt><trkpt lat="35.994430839916454" lon="-107.08980713468567"><ele>2166.3333333333335</ele><time>2026-05-02T17:36:47Z</time></trkpt><trkpt lat="35.99435835358516" lon="-107.089730483962"><ele>2166.6666666666665</ele><time>2026-05-02T17:36:48Z</time></trkpt><trkpt lat="35.994258731463404" lon="-107.08970884212825"><ele>2167.0</ele><time>2026-05-02T17:36:49Z</time></trkpt><trkpt lat="35.99418701093675" lon="-107.08971645246187"><ele>2167.333333333333</ele><time>2026-05-02T17:36:50Z</time></trkpt><trkpt lat="35.9941085609775" lon="-107.08974873866265"><ele>2167.6666666666665</ele><time>2026-05-02T17:36:51Z</time></trkpt><trkpt lat="35.99405370395038" lon="-107.08968017381876"><ele>2168.0</ele><time>2026-05-02T17:36:53Z</time></trkpt><trkpt lat="35.99404624034039" lon="-107.0895772742099"><ele>2168.5</ele><time>2026-05-02T17:36:54Z</time></trkpt><trkpt lat="35.994064534764576" lon="-107.08946539518176"><ele>2169.0</ele><time>2026-05-02T17:36:55Z</time></trkpt><trkpt lat="35.994106501258564" lon="-107.08939240677977"><ele>2169.5</ele><time>2026-05-02T17:36:56Z</time></trkpt><trkpt lat="35.99411633850676" lon="-107.08931122041857"><ele>2170.0</ele><time>2026-05-02T17:36:57Z</time></trkpt><trkpt lat="35.99406131144264" lon="-107.0892482266843"><ele>2170.5</ele><time>2026-05-02T17:36:59Z</time></trkpt><trkpt lat="35.99398108097729" lon="-107.08922496909562"><ele>2171.0</ele><time>2026-05-02T17:37:00Z</time></trkpt><trkpt lat="35.993962285106825" lon="-107.08909243785678"><ele>2171.0</ele><time>2026-05-02T17:37:02Z</time></trkpt><trkpt lat="35.993981997637285" lon="-107.08899673080035"><ele>2171.0</ele><time>2026-05-02T17:37:03Z</time></trkpt><trkpt lat="35.993986026594534" lon="-107.08889789286525"><ele>2171.0</ele><time>2026-05-02T17:37:04Z</time></trkpt><trkpt lat="35.994024416109596" lon="-107.08881944972138"><ele>2171.0</ele><time>2026-05-02T17:37:06Z</time></trkpt><trkpt lat="35.99405958277518" lon="-107.08873347165697"><ele>2171.0</ele><time>2026-05-02T17:37:08Z</time></trkpt><trkpt lat="35.994118613784295" lon="-107.08865265947688"><ele>2171.0</ele><time>2026-05-02T17:37:09Z</time></trkpt><trkpt lat="35.99420803758173" lon="-107.08861343780205"><ele>2170.6</ele><time>2026-05-02T17:37:10Z</time></trkpt><trkpt lat="35.99428036166997" lon="-107.088580782198"><ele>2170.2</ele><time>2026-05-02T17:37:11Z</time></trkpt><trkpt lat="35.99438151682455" lon="-107.08846848465788"><ele>2169.8</ele><time>2026-05-02T17:37:13Z</time></trkpt><trkpt lat="35.99442670762718" lon="-107.08839605098972"><ele>2169.4</ele><time>2026-05-02T17:37:14Z</time></trkpt><trkpt lat="35.9945290364731" lon="-107.08837447495496"><ele>2169.0</ele><time>2026-05-02T17:37:16Z</time></trkpt><trkpt lat="35.99463896656615" lon="-107.08837504423568"><ele>2169.0</ele><time>2026-05-02T17:37:18Z</time></trkpt><trkpt lat="35.99474501203223" lon="-107.0883954538126"><ele>2169.0</ele><time>2026-05-02T17:37:19Z</time></trkpt><trkpt lat="35.99485484136262" lon="-107.08838840706608"><ele>2169.0</ele><time>2026-05-02T17:37:20Z</time></trkpt><trkpt lat="35.99494661327072" lon="-107.08840538740229"><ele>2169.0</ele><time>2026-05-02T17:37:21Z</time></trkpt><trkpt lat="35.995036784283286" lon="-107.08833547283824"><ele>2169.0</ele><time>2026-05-02T17:37:24Z</time></trkpt><trkpt lat="35.99512789942408" lon="-107.08829330102233"><ele>2168.6</ele><time>2026-05-02T17:37:25Z</time></trkpt><trkpt lat="35.99521820742416" lon="-107.08824273998641"><ele>2168.2</ele><time>2026-05-02T17:37:26Z</time></trkpt><trkpt lat="35.995276258850126" lon="-107.08813880299583"><ele>2167.7999999999997</ele><time>2026-05-02T17:37:27Z</time></trkpt><trkpt lat="35.995314278142374" lon="-107.08803420555361"><ele>2167.4</ele><time>2026-05-02T17:37:28Z</time></trkpt><trkpt lat="35.99531240360804" lon="-107.0879198445052"><ele>2167.0</ele><time>2026-05-02T17:37:29Z</time></trkpt><trkpt lat="35.995306922445884" lon="-107.08778115663351"><ele>2167.0</ele><time>2026-05-02T17:37:30Z</time></trkpt><trkpt lat="35.99532222585555" lon="-107.08763074959823"><ele>2167.0</ele><time>2026-05-02T17:37:31Z</time></trkpt><trkpt lat="35.995337985918134" lon="-107.08752690096522"><ele>2167.0</ele><time>2026-05-02T17:37:32Z</time></trkpt><trkpt lat="35.99533436293765" lon="-107.08741648942565"><ele>2167.0</ele><time>2026-05-02T17:37:33Z</time></trkpt><trkpt lat="35.99532464667669" lon="-107.08731765475618"><ele>2167.0</ele><time>2026-05-02T17:37:34Z</time></trkpt><trkpt lat="35.99531432477019" lon="-107.08721257656244"><ele>2167.0</ele><time>2026-05-02T17:37:35Z</time></trkpt><trkpt lat="35.99534621797153" lon="-107.087141133277"><ele>2167.0</ele><time>2026-05-02T17:37:36Z</time></trkpt><trkpt lat="35.99534345714248" lon="-107.08706292354707"><ele>2167.0</ele><time>2026-05-02T17:37:37Z</time></trkpt><trkpt lat="35.99529759048454" lon="-107.08698491379101"><ele>2167.0</ele><time>2026-05-02T17:37:39Z</time></trkpt><trkpt lat="35.99530625564861" lon="-107.08690739162674"><ele>2167.0</ele><time>2026-05-02T17:37:40Z</time></trkpt><trkpt lat="35.995319746350035" lon="-107.08676077183223"><ele>2167.0</ele><time>2026-05-02T17:37:41Z</time></trkpt><trkpt lat="35.99535267063114" lon="-107.08666223789363"><ele>2167.166666666667</ele><time>2026-05-02T17:37:42Z</time></trkpt><trkpt lat="35.995357442103554" lon="-107.08656257055573"><ele>2167.3333333333335</ele><time>2026-05-02T17:37:43Z</time></trkpt><trkpt lat="35.99534687100009" lon="-107.0864760984704"><ele>2167.5</ele><time>2026-05-02T17:37:44Z</time></trkpt><trkpt lat="35.99540956492752" lon="-107.08636336615513"><ele>2167.6666666666665</ele><time>2026-05-02T17:37:46Z</time></trkpt><trkpt lat="35.99546750626776" lon="-107.0863074468641"><ele>2167.833333333333</ele><time>2026-05-02T17:37:47Z</time></trkpt><trkpt lat="35.99553523859865" lon="-107.08624355642671"><ele>2168.0</ele><time>2026-05-02T17:37:48Z</time></trkpt><trkpt lat="35.995521892818466" lon="-107.08609985771476"><ele>2168.0</ele><time>2026-05-02T17:37:50Z</time></trkpt><trkpt lat="35.99552556597355" lon="-107.08598846252433"><ele>2168.0</ele><time>2026-05-02T17:37:51Z</time></trkpt><trkpt lat="35.99557614221782" lon="-107.08591073784798"><ele>2168.0</ele><time>2026-05-02T17:37:52Z</time></trkpt><trkpt lat="35.99566522710306" lon="-107.08581959291138"><ele>2168.0</ele><time>2026-05-02T17:37:53Z</time></trkpt><trkpt lat="35.99567475243043" lon="-107.08570250206947"><ele>2168.0</ele><time>2026-05-02T17:37:54Z</time></trkpt><trkpt lat="35.9956791716245" lon="-107.08561279449637"><ele>2166.333333333333</ele><time>2026-05-02T17:37:55Z</time></trkpt><trkpt lat="35.995742890057194" lon="-107.08553815994057"><ele>2164.6666666666665</ele><time>2026-05-02T17:37:56Z</time></trkpt><trkpt lat="35.9958161312624" lon="-107.08546111479309"><ele>2163.0</ele><time>2026-05-02T17:37:57Z</time></trkpt><trkpt lat="35.995865582288516" lon="-107.08533343282161"><ele>2161.3333333333335</ele><time>2026-05-02T17:37:59Z</time></trkpt><trkpt lat="35.99587548057872" lon="-107.08524117402064"><ele>2159.666666666667</ele><time>2026-05-02T17:38:00Z</time></trkpt><trkpt lat="35.99594158277146" lon="-107.08520843539688"><ele>2158.0</ele><time>2026-05-02T17:38:01Z</time></trkpt><trkpt lat="35.99600913817498" lon="-107.0851898939625"><ele>2158.0</ele><time>2026-05-02T17:38:02Z</time></trkpt><trkpt lat="35.996084651670905" lon="-107.08514464061882"><ele>2158.0</ele><time>2026-05-02T17:38:04Z</time></trkpt><trkpt lat="35.99609568320179" lon="-107.08506689921535"><ele>2158.0</ele><time>2026-05-02T17:38:05Z</time></trkpt><trkpt lat="35.99618212647989" lon="-107.08501174646786"><ele>2158.0</ele><time>2026-05-02T17:38:07Z</time></trkpt><trkpt lat="35.99626266912714" lon="-107.08499645210983"><ele>2158.0</ele><time>2026-05-02T17:38:10Z</time></trkpt><trkpt lat="35.99632063149375" lon="-107.08496429343846"><ele>2158.0</ele><time>2026-05-02T17:38:12Z</time></trkpt><trkpt lat="35.996517195988346" lon="-107.08476833175976"><ele>2158.0</ele><time>2026-05-02T17:38:15Z</time></trkpt><trkpt lat="35.996571247052096" lon="-107.08472193722682"><ele>2158.0</ele><time>2026-05-02T17:38:17Z</time></trkpt><trkpt lat="35.99661124307574" lon="-107.0847946774821"><ele>2158.0</ele><time>2026-05-02T17:38:20Z</time></trkpt><trkpt lat="35.996586914583304" lon="-107.08490969704681"><ele>2158.0</ele><time>2026-05-02T17:38:31Z</time></trkpt><trkpt lat="35.99660677837858" lon="-107.08511697377983"><ele>2158.0</ele><time>2026-05-02T17:38:32Z</time></trkpt><trkpt lat="35.99664037665271" lon="-107.08518893918375"><ele>2158.0</ele><time>2026-05-02T17:38:34Z</time></trkpt><trkpt lat="35.996665269431254" lon="-107.0852890266979"><ele>2158.0</ele><time>2026-05-02T17:38:35Z</time></trkpt><trkpt lat="35.996696923287594" lon="-107.08536898179594"><ele>2158.0</ele><time>2026-05-02T17:38:36Z</time></trkpt><trkpt lat="35.996744441166165" lon="-107.08542803128856"><ele>2158.0</ele><time>2026-05-02T17:38:37Z</time></trkpt><trkpt lat="35.99678370862374" lon="-107.08549817622648"><ele>2158.0</ele><time>2026-05-02T17:38:38Z</time></trkpt><trkpt lat="35.996817353951855" lon="-107.08558753575863"><ele>2158.0</ele><time>2026-05-02T17:38:39Z</time></trkpt><trkpt lat="35.996852082775995" lon="-107.08571401974886"><ele>2162.0</ele><time>2026-05-02T17:38:40Z</time></trkpt><trkpt lat="35.996852702762446" lon="-107.08585094661119"><ele>2166.0</ele><time>2026-05-02T17:38:41Z</time></trkpt><trkpt lat="35.99687241770889" lon="-107.08603368353569"><ele>2170.0</ele><time>2026-05-02T17:38:42Z</time></trkpt><trkpt lat="35.996805193179696" lon="-107.0863307035484"><ele>2170.0</ele><time>2026-05-02T17:38:43Z</time></trkpt><trkpt lat="35.99682392733788" lon="-107.08647807545891"><ele>2170.0</ele><time>2026-05-02T17:38:44Z</time></trkpt><trkpt lat="35.99688277858831" lon="-107.0865485107033"><ele>2170.0</ele><time>2026-05-02T17:38:46Z</time></trkpt><trkpt lat="35.99685749918826" lon="-107.08670003062237"><ele>2170.0</ele><time>2026-05-02T17:38:49Z</time></trkpt><trkpt lat="35.99679972936555" lon="-107.08677153360145"><ele>2170.0</ele><time>2026-05-02T17:38:50Z</time></trkpt><trkpt lat="35.996836091404994" lon="-107.08688681257449"><ele>2171.3333333333335</ele><time>2026-05-02T17:38:52Z</time></trkpt><trkpt lat="35.99692078253412" lon="-107.08693530286159"><ele>2172.666666666667</ele><time>2026-05-02T17:38:53Z</time></trkpt><trkpt lat="35.99699304253901" lon="-107.08700497833642"><ele>2174.0</ele><time>2026-05-02T17:38:54Z</time></trkpt><trkpt lat="35.99701243034492" lon="-107.08709523794036"><ele>2175.3333333333335</ele><time>2026-05-02T17:38:55Z</time></trkpt><trkpt lat="35.99700369929534" lon="-107.0871749349996"><ele>2176.6666666666665</ele><time>2026-05-02T17:38:56Z</time></trkpt><trkpt lat="35.997090474711065" lon="-107.08727063589461"><ele>2178.0</ele><time>2026-05-02T17:38:58Z</time></trkpt><trkpt lat="35.99704946354177" lon="-107.08740015657057"><ele>2178.8333333333335</ele><time>2026-05-02T17:39:00Z</time></trkpt><trkpt lat="35.99705873421512" lon="-107.08748242105399"><ele>2179.6666666666665</ele><time>2026-05-02T17:41:50Z</time></trkpt><trkpt lat="35.997101937679545" lon="-107.08760537771842"><ele>2180.5</ele><time>2026-05-02T17:41:52Z</time></trkpt><trkpt lat="35.997144694865526" lon="-107.08768632195296"><ele>2181.333333333333</ele><time>2026-05-02T17:41:53Z</time></trkpt><trkpt lat="35.99718481888159" lon="-107.0877824752173"><ele>2182.1666666666665</ele><time>2026-05-02T17:41:54Z</time></trkpt><trkpt lat="35.99722334637738" lon="-107.08790122544505"><ele>2183.0</ele><time>2026-05-02T17:41:55Z</time></trkpt><trkpt lat="35.99727437615789" lon="-107.08803092951538"><ele>2183.0</ele><time>2026-05-02T17:41:56Z</time></trkpt><trkpt lat="35.997304881534376" lon="-107.08813163469381"><ele>2183.0</ele><time>2026-05-02T17:41:57Z</time></trkpt><trkpt lat="35.99732282758859" lon="-107.08822505891325"><ele>2183.0</ele><time>2026-05-02T17:41:58Z</time></trkpt><trkpt lat="35.997277990003724" lon="-107.08843038169249"><ele>2183.0</ele><time>2026-05-02T17:42:00Z</time></trkpt><trkpt lat="35.9972154151992" lon="-107.08856093774627"><ele>2180.75</ele><time>2026-05-02T17:42:01Z</time></trkpt><trkpt lat="35.997194356030626" lon="-107.08869645621888"><ele>2178.5</ele><time>2026-05-02T17:42:02Z</time></trkpt><trkpt lat="35.99719876366056" lon="-107.08887599578857"><ele>2176.25</ele><time>2026-05-02T17:42:03Z</time></trkpt><trkpt lat="35.99719957431606" lon="-107.08903280183031"><ele>2174.0</ele><time>2026-05-02T17:42:04Z</time></trkpt><trkpt lat="35.997213995139894" lon="-107.08919290949217"><ele>2172.6</ele><time>2026-05-02T17:42:06Z</time></trkpt><trkpt lat="35.997206174149454" lon="-107.08928845425017"><ele>2171.2</ele><time>2026-05-02T17:42:07Z</time></trkpt><trkpt lat="35.99721577559771" lon="-107.08941855592997"><ele>2169.7999999999997</ele><time>2026-05-02T17:42:08Z</time></trkpt><trkpt lat="35.99720004676823" lon="-107.08957145670753"><ele>2168.4</ele><time>2026-05-02T17:42:09Z</time></trkpt><trkpt lat="35.99713731894787" lon="-107.08972625726042"><ele>2167.0</ele><time>2026-05-02T17:42:10Z</time></trkpt><trkpt lat="35.997116802193354" lon="-107.08988493912491"><ele>2166.5</ele><time>2026-05-02T17:42:11Z</time></trkpt><trkpt lat="35.99713612057458" lon="-107.08998877858079"><ele>2166.0</ele><time>2026-05-02T17:42:12Z</time></trkpt><trkpt lat="35.99719046967035" lon="-107.0901220177377"><ele>2165.5</ele><time>2026-05-02T17:42:13Z</time></trkpt><trkpt lat="35.99726137802257" lon="-107.09028308666988"><ele>2165.0</ele><time>2026-05-02T17:42:14Z</time></trkpt><trkpt lat="35.99733060228437" lon="-107.09047336457884"><ele>2165.0</ele><time>2026-05-02T17:42:15Z</time></trkpt><trkpt lat="35.99737160091816" lon="-107.09062278654879"><ele>2165.0</ele><time>2026-05-02T17:42:16Z</time></trkpt><trkpt lat="35.997387401897264" lon="-107.09070089277027"><ele>2165.0</ele><time>2026-05-02T17:42:17Z</time></trkpt><trkpt lat="35.99744583233623" lon="-107.0908074801791"><ele>2165.0</ele><time>2026-05-02T17:42:18Z</time></trkpt><trkpt lat="35.997516190318954" lon="-107.0908702210948"><ele>2165.0</ele><time>2026-05-02T17:42:19Z</time></trkpt><trkpt lat="35.997590541430306" lon="-107.0909185522149"><ele>2164.5</ele><time>2026-05-02T17:42:20Z</time></trkpt><trkpt lat="35.9976662569979" lon="-107.09096230271409"><ele>2164.0</ele><time>2026-05-02T17:42:21Z</time></trkpt><trkpt lat="35.9977034039625" lon="-107.09102853305386"><ele>2163.5</ele><time>2026-05-02T17:42:22Z</time></trkpt><trkpt lat="35.997684002991825" lon="-107.09112154379167"><ele>2163.0</ele><time>2026-05-02T17:42:23Z</time></trkpt><trkpt lat="35.99762867931489" lon="-107.0912052605131"><ele>2162.5</ele><time>2026-05-02T17:42:24Z</time></trkpt><trkpt lat="35.997552874887816" lon="-107.0912672719828"><ele>2162.0</ele><time>2026-05-02T17:42:25Z</time></trkpt><trkpt lat="35.99745876093003" lon="-107.09137949411614"><ele>2161.7999999999997</ele><time>2026-05-02T17:42:26Z</time></trkpt><trkpt lat="35.99737233349275" lon="-107.0915072567877"><ele>2161.6</ele><time>2026-05-02T17:42:27Z</time></trkpt><trkpt lat="35.997296682204045" lon="-107.0916097226225"><ele>2161.3999999999996</ele><time>2026-05-02T17:42:28Z</time></trkpt><trkpt lat="35.99726520590125" lon="-107.09172573463724"><ele>2161.2</ele><time>2026-05-02T17:42:29Z</time></trkpt><trkpt lat="35.99723063781329" lon="-107.09184299300901"><ele>2161.0</ele><time>2026-05-02T17:42:30Z</time></trkpt><trkpt lat="35.99713240898865" lon="-107.09188547825809"><ele>2161.0</ele><time>2026-05-02T17:42:32Z</time></trkpt><trkpt lat="35.99701975656438" lon="-107.09186930696923"><ele>2161.0</ele><time>2026-05-02T17:42:33Z</time></trkpt><trkpt lat="35.99693560749865" lon="-107.09182867659084"><ele>2161.0</ele><time>2026-05-02T17:42:34Z</time></trkpt><trkpt lat="35.99688871214136" lon="-107.09174588873944"><ele>2161.0</ele><time>2026-05-02T17:42:35Z</time></trkpt><trkpt lat="35.996835531395874" lon="-107.09165252997617"><ele>2161.0</ele><time>2026-05-02T17:42:36Z</time></trkpt><trkpt lat="35.99676690815831" lon="-107.09157059483216"><ele>2161.0</ele><time>2026-05-02T17:42:37Z</time></trkpt><trkpt lat="35.99670276676804" lon="-107.09155118800375"><ele>2161.0</ele><time>2026-05-02T17:42:38Z</time></trkpt><trkpt lat="35.99661223751235" lon="-107.09159456627046"><ele>2161.0</ele><time>2026-05-02T17:42:39Z</time></trkpt><trkpt lat="35.996508202591244" lon="-107.09162915579705"><ele>2161.0</ele><time>2026-05-02T17:42:40Z</time></trkpt><trkpt lat="35.99640288132838" lon="-107.09159837735668"><ele>2161.0</ele><time>2026-05-02T17:42:41Z</time></trkpt><trkpt lat="35.99629581858091" lon="-107.09154369113932"><ele>2160.4</ele><time>2026-05-02T17:42:42Z</time></trkpt><trkpt lat="35.99621967264379" lon="-107.09154954113752"><ele>2159.8</ele><time>2026-05-02T17:42:43Z</time></trkpt><trkpt lat="35.99617283904201" lon="-107.09164503047407"><ele>2159.2000000000003</ele><time>2026-05-02T17:42:44Z</time></trkpt><trkpt lat="35.99611678384273" lon="-107.09176728645593"><ele>2158.6</ele><time>2026-05-02T17:42:45Z</time></trkpt><trkpt lat="35.99604420216559" lon="-107.09189157178014"><ele>2158.0</ele><time>2026-05-02T17:42:46Z</time></trkpt><trkpt lat="35.99598839916864" lon="-107.09194807886553"><ele>2157.8</ele><time>2026-05-02T17:42:47Z</time></trkpt><trkpt lat="35.995939570410826" lon="-107.09204927926302"><ele>2157.6000000000004</ele><time>2026-05-02T17:42:50Z</time></trkpt><trkpt lat="35.99594059296361" lon="-107.09215206561836"><ele>2157.3999999999996</ele><time>2026-05-02T17:42:51Z</time></trkpt><trkpt lat="35.99594033423052" lon="-107.09230235149383"><ele>2157.2</ele><time>2026-05-02T17:42:52Z</time></trkpt><trkpt lat="35.99591634652687" lon="-107.09246277113965"><ele>2157.0</ele><time>2026-05-02T17:42:53Z</time></trkpt><trkpt lat="35.99590237767232" lon="-107.09261756428843"><ele>2156.6</ele><time>2026-05-02T17:42:54Z</time></trkpt><trkpt lat="35.995932210595114" lon="-107.09275314806922"><ele>2156.2</ele><time>2026-05-02T17:42:55Z</time></trkpt><trkpt lat="35.99595854224214" lon="-107.09286116081265"><ele>2155.8</ele><time>2026-05-02T17:42:56Z</time></trkpt><trkpt lat="35.995869847909816" lon="-107.09295928596445"><ele>2155.4</ele><time>2026-05-02T17:42:58Z</time></trkpt><trkpt lat="35.99580744553689" lon="-107.0930474906242"><ele>2155.0</ele><time>2026-05-02T17:42:59Z</time></trkpt><trkpt lat="35.99579741231165" lon="-107.09317260698415"><ele>2154.2</ele><time>2026-05-02T17:43:00Z</time></trkpt><trkpt lat="35.99578098658717" lon="-107.09332141182828"><ele>2153.4</ele><time>2026-05-02T17:43:01Z</time></trkpt><trkpt lat="35.995719995525036" lon="-107.0934299617153"><ele>2152.6</ele><time>2026-05-02T17:43:02Z</time></trkpt><trkpt lat="35.995670739696216" lon="-107.09348171258318"><ele>2151.8</ele><time>2026-05-02T17:43:03Z</time></trkpt><trkpt lat="35.995581153151406" lon="-107.09356520876457"><ele>2151.0</ele><time>2026-05-02T17:43:04Z</time></trkpt><trkpt lat="35.99550538701345" lon="-107.09366853354152"><ele>2151.0</ele><time>2026-05-02T17:43:05Z</time></trkpt><trkpt lat="35.99547009735316" lon="-107.09380597480784"><ele>2151.0</ele><time>2026-05-02T17:43:06Z</time></trkpt><trkpt lat="35.99540438575213" lon="-107.09395530725831"><ele>2151.0</ele><time>2026-05-02T17:43:07Z</time></trkpt><trkpt lat="35.99532714355265" lon="-107.09408589335884"><ele>2151.0</ele><time>2026-05-02T17:43:08Z</time></trkpt><trkpt lat="35.99523111594764" lon="-107.09418288664165"><ele>2150.5</ele><time>2026-05-02T17:43:09Z</time></trkpt><trkpt lat="35.995145727191506" lon="-107.09429120028939"><ele>2150.0</ele><time>2026-05-02T17:43:10Z</time></trkpt><trkpt lat="35.9950836703488" lon="-107.09443919506124"><ele>2149.5</ele><time>2026-05-02T17:43:11Z</time></trkpt><trkpt lat="35.99501493651642" lon="-107.09461686174295"><ele>2149.0</ele><time>2026-05-02T17:43:12Z</time></trkpt><trkpt lat="35.99492789738528" lon="-107.0947223814101"><ele>2148.75</ele><time>2026-05-02T17:43:13Z</time></trkpt><trkpt lat="35.99486379538058" lon="-107.0948168406494"><ele>2148.5</ele><time>2026-05-02T17:43:14Z</time></trkpt><trkpt lat="35.994833110281654" lon="-107.09495466688257"><ele>2148.25</ele><time>2026-05-02T17:43:15Z</time></trkpt><trkpt lat="35.994816391217775" lon="-107.09513119714073"><ele>2148.0</ele><time>2026-05-02T17:43:16Z</time></trkpt><trkpt lat="35.99481554871229" lon="-107.09529218688945"><ele>2148.0</ele><time>2026-05-02T17:43:17Z</time></trkpt><trkpt lat="35.99482083025127" lon="-107.09543921872815"><ele>2148.0</ele><time>2026-05-02T17:43:18Z</time></trkpt><trkpt lat="35.99481653948037" lon="-107.09554701045286"><ele>2148.0</ele><time>2026-05-02T17:43:19Z</time></trkpt><trkpt lat="35.99481527372901" lon="-107.09563607680113"><ele>2148.0</ele><time>2026-05-02T17:43:20Z</time></trkpt><trkpt lat="35.994802208077935" lon="-107.09572063642797"><ele>2148.0</ele><time>2026-05-02T17:43:21Z</time></trkpt><trkpt lat="35.99478468881818" lon="-107.0958461727622"><ele>2148.0</ele><time>2026-05-02T17:43:22Z</time></trkpt><trkpt lat="35.994810339154185" lon="-107.09597088728981"><ele>2148.0</ele><time>2026-05-02T17:43:23Z</time></trkpt><trkpt lat="35.994864290350655" lon="-107.09613190129882"><ele>2148.0</ele><time>2026-05-02T17:43:24Z</time></trkpt><trkpt lat="35.9948897988162" lon="-107.0962919638573"><ele>2148.0</ele><time>2026-05-02T17:43:25Z</time></trkpt><trkpt lat="35.9948972251584" lon="-107.09641238516298"><ele>2148.0</ele><time>2026-05-02T17:43:26Z</time></trkpt><trkpt lat="35.99485374053336" lon="-107.09651349790241"><ele>2148.0</ele><time>2026-05-02T17:43:27Z</time></trkpt><trkpt lat="35.99478125026925" lon="-107.09661649821928"><ele>2148.0</ele><time>2026-05-02T17:43:28Z</time></trkpt><trkpt lat="35.99469200153075" lon="-107.09666835923083"><ele>2148.0</ele><time>2026-05-02T17:43:29Z</time></trkpt><trkpt lat="35.99458319417273" lon="-107.09667269350871"><ele>2148.0</ele><time>2026-05-02T17:43:30Z</time></trkpt><trkpt lat="35.99443898098142" lon="-107.09668246642701"><ele>2147.0</ele><time>2026-05-02T17:43:31Z</time></trkpt><trkpt lat="35.994288158478454" lon="-107.09674502042118"><ele>2146.0</ele><time>2026-05-02T17:43:32Z</time></trkpt><trkpt lat="35.994169722290394" lon="-107.09680773402182"><ele>2145.0</ele><time>2026-05-02T17:43:33Z</time></trkpt><trkpt lat="35.99406857765068" lon="-107.096846349204"><ele>2144.0</ele><time>2026-05-02T17:43:34Z</time></trkpt><trkpt lat="35.99395934953143" lon="-107.09692392177432"><ele>2144.0</ele><time>2026-05-02T17:43:35Z</time></trkpt><trkpt lat="35.993826601507884" lon="-107.09701673271691"><ele>2144.0</ele><time>2026-05-02T17:43:36Z</time></trkpt><trkpt lat="35.993729914773" lon="-107.0970543532674"><ele>2144.0</ele><time>2026-05-02T17:43:37Z</time></trkpt><trkpt lat="35.99366499346595" lon="-107.09711732644354"><ele>2144.0</ele><time>2026-05-02T17:43:38Z</time></trkpt><trkpt lat="35.99360113563906" lon="-107.09720223729029"><ele>2144.0</ele><time>2026-05-02T17:43:39Z</time></trkpt><trkpt lat="35.993608410282334" lon="-107.09735326936121"><ele>2143.25</ele><time>2026-05-02T17:43:41Z</time></trkpt><trkpt lat="35.993620226050545" lon="-107.09752449096412"><ele>2142.5</ele><time>2026-05-02T17:43:42Z</time></trkpt><trkpt lat="35.993607884439996" lon="-107.09769550926374"><ele>2141.75</ele><time>2026-05-02T17:43:43Z</time></trkpt><trkpt lat="35.99355226871746" lon="-107.0978462466694"><ele>2141.0</ele><time>2026-05-02T17:43:44Z</time></trkpt><trkpt lat="35.99346435980749" lon="-107.09798612606474"><ele>2141.0</ele><time>2026-05-02T17:43:45Z</time></trkpt><trkpt lat="35.99335096685726" lon="-107.0981180430013"><ele>2141.0</ele><time>2026-05-02T17:43:46Z</time></trkpt><trkpt lat="35.993200531168235" lon="-107.09825299067755"><ele>2141.0</ele><time>2026-05-02T17:43:47Z</time></trkpt><trkpt lat="35.993102478144436" lon="-107.09836540165736"><ele>2140.6</ele><time>2026-05-02T17:43:48Z</time></trkpt><trkpt lat="35.993027382871404" lon="-107.09843871290293"><ele>2140.2</ele><time>2026-05-02T17:43:49Z</time></trkpt><trkpt lat="35.992965261886816" lon="-107.09849289860429"><ele>2139.8</ele><time>2026-05-02T17:43:50Z</time></trkpt><trkpt lat="35.99291594781693" lon="-107.09858423511926"><ele>2139.4</ele><time>2026-05-02T17:43:51Z</time></trkpt><trkpt lat="35.99288997831426" lon="-107.09871081323426"><ele>2139.0</ele><time>2026-05-02T17:43:52Z</time></trkpt><trkpt lat="35.99286251899068" lon="-107.09884689072024"><ele>2139.0</ele><time>2026-05-02T17:43:53Z</time></trkpt><trkpt lat="35.99282681280633" lon="-107.0990028459148"><ele>2139.0</ele><time>2026-05-02T17:43:54Z</time></trkpt><trkpt lat="35.99280964531704" lon="-107.09916931316646"><ele>2139.0</ele><time>2026-05-02T17:43:55Z</time></trkpt><trkpt lat="35.99279595416504" lon="-107.0993089662825"><ele>2139.0</ele><time>2026-05-02T17:43:56Z</time></trkpt><trkpt lat="35.99273957716214" lon="-107.09946967407568"><ele>2138.3333333333335</ele><time>2026-05-02T17:43:57Z</time></trkpt><trkpt lat="35.9926782443045" lon="-107.09965692913694"><ele>2137.666666666667</ele><time>2026-05-02T17:43:58Z</time></trkpt><trkpt lat="35.992603576301114" lon="-107.09983144634933"><ele>2137.0</ele><time>2026-05-02T17:43:59Z</time></trkpt><trkpt lat="35.992521352901065" lon="-107.10001886206466"><ele>2136.5</ele><time>2026-05-02T17:44:00Z</time></trkpt><trkpt lat="35.99244021183015" lon="-107.10014942065187"><ele>2136.0</ele><time>2026-05-02T17:44:01Z</time></trkpt><trkpt lat="35.99235482051914" lon="-107.10022836310807"><ele>2135.5</ele><time>2026-05-02T17:44:02Z</time></trkpt><trkpt lat="35.992248580033326" lon="-107.10029454246508"><ele>2135.0</ele><time>2026-05-02T17:44:03Z</time></trkpt><trkpt lat="35.992129618342936" lon="-107.10032737643984"><ele>2135.0</ele><time>2026-05-02T17:44:04Z</time></trkpt><trkpt lat="35.9920083618244" lon="-107.10032801908933"><ele>2135.0</ele><time>2026-05-02T17:44:05Z</time></trkpt><trkpt lat="35.99188803057364" lon="-107.10028415652178"><ele>2135.0</ele><time>2026-05-02T17:44:06Z</time></trkpt><trkpt lat="35.991731244632966" lon="-107.10024252511755"><ele>2135.0</ele><time>2026-05-02T17:44:07Z</time></trkpt><trkpt lat="35.9915719767171" lon="-107.10023181182257"><ele>2133.75</ele><time>2026-05-02T17:44:08Z</time></trkpt><trkpt lat="35.991435465096195" lon="-107.100216710864"><ele>2132.5</ele><time>2026-05-02T17:44:09Z</time></trkpt><trkpt lat="35.99132298759124" lon="-107.10019120507152"><ele>2131.25</ele><time>2026-05-02T17:44:10Z</time></trkpt><trkpt lat="35.991221788700834" lon="-107.10013561485052"><ele>2130.0</ele><time>2026-05-02T17:44:11Z</time></trkpt><trkpt lat="35.99109598766665" lon="-107.10006857030837"><ele>2130.0</ele><time>2026-05-02T17:44:12Z</time></trkpt><trkpt lat="35.99094449854307" lon="-107.10004173086647"><ele>2130.0</ele><time>2026-05-02T17:44:13Z</time></trkpt><trkpt lat="35.990808968699646" lon="-107.10005446618392"><ele>2130.0</ele><time>2026-05-02T17:44:14Z</time></trkpt><trkpt lat="35.9906565905483" lon="-107.10008048740859"><ele>2130.0</ele><time>2026-05-02T17:44:15Z</time></trkpt><trkpt lat="35.99048114098141" lon="-107.10010301461992"><ele>2129.6666666666665</ele><time>2026-05-02T17:44:16Z</time></trkpt><trkpt lat="35.990314036343726" lon="-107.10010449546999"><ele>2129.333333333333</ele><time>2026-05-02T17:44:17Z</time></trkpt><trkpt lat="35.99015901012556" lon="-107.1000940695271"><ele>2129.0</ele><time>2026-05-02T17:44:18Z</time></trkpt><trkpt lat="35.98998843311267" lon="-107.10009419236032"><ele>2128.6666666666665</ele><time>2026-05-02T17:44:19Z</time></trkpt><trkpt lat="35.98979042285238" lon="-107.10010293776226"><ele>2128.3333333333335</ele><time>2026-05-02T17:44:20Z</time></trkpt><trkpt lat="35.9895713032896" lon="-107.1001102102485"><ele>2128.0</ele><time>2026-05-02T17:44:21Z</time></trkpt><trkpt lat="35.989386756401245" lon="-107.10011613172267"><ele>2128.0</ele><time>2026-05-02T17:44:22Z</time></trkpt><trkpt lat="35.98921167627871" lon="-107.1001186091915"><ele>2128.0</ele><time>2026-05-02T17:44:23Z</time></trkpt><trkpt lat="35.98902160334923" lon="-107.10012080156832"><ele>2128.0</ele><time>2026-05-02T17:44:24Z</time></trkpt><trkpt lat="35.98884941685478" lon="-107.10010314072959"><ele>2127.666666666667</ele><time>2026-05-02T17:44:25Z</time></trkpt><trkpt lat="35.98867874808897" lon="-107.10005885276661"><ele>2127.3333333333335</ele><time>2026-05-02T17:44:26Z</time></trkpt><trkpt lat="35.988515368692205" lon="-107.10000898122756"><ele>2127.0</ele><time>2026-05-02T17:44:27Z</time></trkpt><trkpt lat="35.988361685734155" lon="-107.09998892166637"><ele>2126.3333333333335</ele><time>2026-05-02T17:44:28Z</time></trkpt><trkpt lat="35.98819284966578" lon="-107.09999529532371"><ele>2125.666666666667</ele><time>2026-05-02T17:44:29Z</time></trkpt><trkpt lat="35.98802198760876" lon="-107.10000011063153"><ele>2125.0</ele><time>2026-05-02T17:44:30Z</time></trkpt><trkpt lat="35.98788392875947" lon="-107.09998890500569"><ele>2125.0</ele><time>2026-05-02T17:44:31Z</time></trkpt><trkpt lat="35.98777054830212" lon="-107.09998881001208"><ele>2125.0</ele><time>2026-05-02T17:44:32Z</time></trkpt><trkpt lat="35.98767799051381" lon="-107.10004309110803"><ele>2125.0</ele><time>2026-05-02T17:44:33Z</time></trkpt><trkpt lat="35.98755438211474" lon="-107.10013656911691"><ele>2125.0</ele><time>2026-05-02T17:44:34Z</time></trkpt><trkpt lat="35.98743941697626" lon="-107.10022025371767"><ele>2125.25</ele><time>2026-05-02T17:44:35Z</time></trkpt><trkpt lat="35.98732487543125" lon="-107.1002797398354"><ele>2125.5</ele><time>2026-05-02T17:44:36Z</time></trkpt><trkpt lat="35.987217684346405" lon="-107.10033674573307"><ele>2125.75</ele><time>2026-05-02T17:44:37Z</time></trkpt><trkpt lat="35.987114387696884" lon="-107.10041981453568"><ele>2126.0</ele><time>2026-05-02T17:44:38Z</time></trkpt><trkpt lat="35.98699314807601" lon="-107.10048779422317"><ele>2126.0</ele><time>2026-05-02T17:44:39Z</time></trkpt><trkpt lat="35.98687978313097" lon="-107.10056058256505"><ele>2126.0</ele><time>2026-05-02T17:44:40Z</time></trkpt><trkpt lat="35.98677157663748" lon="-107.10061985613645"><ele>2126.0</ele><time>2026-05-02T17:44:41Z</time></trkpt><trkpt lat="35.986672894747336" lon="-107.10066753293702"><ele>2126.0</ele><time>2026-05-02T17:44:42Z</time></trkpt><trkpt lat="35.986581476029365" lon="-107.10070451897596"><ele>2126.0</ele><time>2026-05-02T17:44:43Z</time></trkpt><trkpt lat="35.9864985585427" lon="-107.10073107645967"><ele>2125.6666666666665</ele><time>2026-05-02T17:44:44Z</time></trkpt><trkpt lat="35.98642126152985" lon="-107.10075546227907"><ele>2125.333333333333</ele><time>2026-05-02T17:44:45Z</time></trkpt><trkpt lat="35.9863371603525" lon="-107.10077203779126"><ele>2125.0</ele><time>2026-05-02T17:44:46Z</time></trkpt><trkpt lat="35.98624956128425" lon="-107.10077463452986"><ele>2124.6666666666665</ele><time>2026-05-02T17:44:47Z</time></trkpt><trkpt lat="35.98617957104716" lon="-107.10077268902175"><ele>2124.3333333333335</ele><time>2026-05-02T17:44:48Z</time></trkpt><trkpt lat="35.98611356267035" lon="-107.1007762171107"><ele>2124.0</ele><time>2026-05-02T17:44:49Z</time></trkpt><trkpt lat="35.986048772670664" lon="-107.10076669136943"><ele>2124.0</ele><time>2026-05-02T17:44:50Z</time></trkpt><trkpt lat="35.98596283422277" lon="-107.1007665475096"><ele>2124.0</ele><time>2026-05-02T17:44:51Z</time></trkpt><trkpt lat="35.9858722816054" lon="-107.1007741316644"><ele>2124.0</ele><time>2026-05-02T17:44:52Z</time></trkpt><trkpt lat="35.98579036411127" lon="-107.10077136665561"><ele>2124.0</ele><time>2026-05-02T17:44:53Z</time></trkpt><trkpt lat="35.98572051835218" lon="-107.10078288418104"><ele>2124.0</ele><time>2026-05-02T17:44:54Z</time></trkpt><trkpt lat="35.985635708133486" lon="-107.10080897434185"><ele>2124.0</ele><time>2026-05-02T17:44:55Z</time></trkpt><trkpt lat="35.98556135382743" lon="-107.10085421962046"><ele>2123.8333333333335</ele><time>2026-05-02T17:44:56Z</time></trkpt><trkpt lat="35.98548897749125" lon="-107.10088695371775"><ele>2123.6666666666665</ele><time>2026-05-02T17:44:57Z</time></trkpt><trkpt lat="35.98541618081689" lon="-107.10092339405354"><ele>2123.5</ele><time>2026-05-02T17:44:58Z</time></trkpt><trkpt lat="35.98535313018538" lon="-107.10095516392472"><ele>2123.333333333333</ele><time>2026-05-02T17:44:59Z</time></trkpt><trkpt lat="35.98529476553266" lon="-107.1009848356716"><ele>2123.1666666666665</ele><time>2026-05-02T17:45:00Z</time></trkpt><trkpt lat="35.9852469600997" lon="-107.10108622917011"><ele>2123.0</ele><time>2026-05-02T17:45:02Z</time></trkpt><trkpt lat="35.98517812496959" lon="-107.10115038658692"><ele>2123.0</ele><time>2026-05-02T17:45:03Z</time></trkpt><trkpt lat="35.985114066558246" lon="-107.10122034608997"><ele>2123.0</ele><time>2026-05-02T17:45:04Z</time></trkpt><trkpt lat="35.985045416264754" lon="-107.10130396610795"><ele>2123.0</ele><time>2026-05-02T17:45:05Z</time></trkpt><trkpt lat="35.984974592472334" lon="-107.1013778750764"><ele>2123.0</ele><time>2026-05-02T17:45:06Z</time></trkpt><trkpt lat="35.984919775345766" lon="-107.10144264563928"><ele>2123.0</ele><time>2026-05-02T17:45:07Z</time></trkpt><trkpt lat="35.984870661323185" lon="-107.10151167648682"><ele>2123.0</ele><time>2026-05-02T17:45:08Z</time></trkpt><trkpt lat="35.984827688293656" lon="-107.10160156351897"><ele>2122.8</ele><time>2026-05-02T17:45:09Z</time></trkpt><trkpt lat="35.984761813694135" lon="-107.1016810428366"><ele>2122.6000000000004</ele><time>2026-05-02T17:45:10Z</time></trkpt><trkpt lat="35.98468433669787" lon="-107.10175435214612"><ele>2122.3999999999996</ele><time>2026-05-02T17:45:11Z</time></trkpt><trkpt lat="35.98461945217672" lon="-107.10181983491158"><ele>2122.2</ele><time>2026-05-02T17:45:12Z</time></trkpt><trkpt lat="35.98454535561028" lon="-107.10191705949234"><ele>2122.0</ele><time>2026-05-02T17:45:13Z</time></trkpt><trkpt lat="35.984485749288254" lon="-107.10203673108137"><ele>2122.0</ele><time>2026-05-02T17:45:14Z</time></trkpt><trkpt lat="35.98442431903187" lon="-107.10215184678887"><ele>2122.0</ele><time>2026-05-02T17:45:15Z</time></trkpt><trkpt lat="35.98434684916685" lon="-107.10224717392867"><ele>2122.0</ele><time>2026-05-02T17:45:16Z</time></trkpt><trkpt lat="35.98430382016101" lon="-107.10230921212448"><ele>2122.0</ele><time>2026-05-02T17:45:17Z</time></trkpt><trkpt lat="35.9842703060161" lon="-107.10238294934274"><ele>2122.0</ele><time>2026-05-02T17:45:19Z</time></trkpt><trkpt lat="35.98438025884212" lon="-107.10247546234547"><ele>2122.0</ele><time>2026-05-02T17:45:20.999Z</time></trkpt><trkpt lat="35.98447985245797" lon="-107.10254374478497"><ele>2122.0</ele><time>2026-05-02T17:45:21.999Z</time></trkpt><trkpt lat="35.984594598461975" lon="-107.10262431365538"><ele>2122.0</ele><time>2026-05-02T17:45:22.999Z</time></trkpt><trkpt lat="35.98473297528244" lon="-107.10270610093984"><ele>2122.0</ele><time>2026-05-02T17:45:23.999Z</time></trkpt><trkpt lat="35.98484641398081" lon="-107.10278302168798"><ele>2122.0</ele><time>2026-05-02T17:45:24.999Z</time></trkpt><trkpt lat="35.98491342652509" lon="-107.10286862743655"><ele>2122.0</ele><time>2026-05-02T17:45:25.999Z</time></trkpt><trkpt lat="35.98494345375842" lon="-107.10295300466281"><ele>2122.0</ele><time>2026-05-02T17:45:26.999Z</time></trkpt><trkpt lat="35.98492195928729" lon="-107.10306661254062"><ele>2122.0</ele><time>2026-05-02T17:45:27.999Z</time></trkpt><trkpt lat="35.98489822880825" lon="-107.10316266964308"><ele>2122.0</ele><time>2026-05-02T17:45:28.999Z</time></trkpt><trkpt lat="35.98495360161344" lon="-107.10324742475395"><ele>2122.0</ele><time>2026-05-02T17:45:30.999Z</time></trkpt><trkpt lat="35.98508824214864" lon="-107.1032824019209"><ele>2121.8333333333335</ele><time>2026-05-02T17:45:32.999Z</time></trkpt><trkpt lat="35.98517657775357" lon="-107.10325924683275"><ele>2121.666666666667</ele><time>2026-05-02T17:45:33.999Z</time></trkpt><trkpt lat="35.985267240058235" lon="-107.10321736623159"><ele>2121.5</ele><time>2026-05-02T17:45:34.999Z</time></trkpt><trkpt lat="35.98534265896884" lon="-107.10317573806178"><ele>2121.3333333333335</ele><time>2026-05-02T17:45:35.999Z</time></trkpt><trkpt lat="35.985413552873" lon="-107.10320762528853"><ele>2121.1666666666665</ele><time>2026-05-02T17:45:36.999Z</time></trkpt><trkpt lat="35.985497076180614" lon="-107.10324011625242"><ele>2121.0</ele><time>2026-05-02T17:45:37.999Z</time></trkpt><trkpt lat="35.98558367262264" lon="-107.10326365480844"><ele>2121.0</ele><time>2026-05-02T17:45:38.999Z</time></trkpt><trkpt lat="35.98565433533755" lon="-107.1032637599463"><ele>2121.0</ele><time>2026-05-02T17:45:39.999Z</time></trkpt><trkpt lat="35.985731664276685" lon="-107.10322449777172"><ele>2121.0</ele><time>2026-05-02T17:45:41Z</time></trkpt><trkpt lat="35.9858270168008" lon="-107.1031521904146"><ele>2121.0</ele><time>2026-05-02T17:45:42Z</time></trkpt><trkpt lat="35.985928226490266" lon="-107.1030907865524"><ele>2121.0</ele><time>2026-05-02T17:45:43Z</time></trkpt><trkpt lat="35.98603495368942" lon="-107.10308916859252"><ele>2121.1666666666665</ele><time>2026-05-02T17:45:44Z</time></trkpt><trkpt lat="35.986118255081564" lon="-107.10307968262633"><ele>2121.3333333333335</ele><time>2026-05-02T17:45:45Z</time></trkpt><trkpt lat="35.98618473865542" lon="-107.10299336099135"><ele>2121.5</ele><time>2026-05-02T17:45:47Z</time></trkpt><trkpt lat="35.98623919724991" lon="-107.10293322285108"><ele>2121.666666666667</ele><time>2026-05-02T17:45:48Z</time></trkpt><trkpt lat="35.98627235420149" lon="-107.10286504977333"><ele>2121.8333333333335</ele><time>2026-05-02T17:45:49Z</time></trkpt><trkpt lat="35.98628960206921" lon="-107.10278619236138"><ele>2122.0</ele><time>2026-05-02T17:45:50Z</time></trkpt><trkpt lat="35.98627347798422" lon="-107.10270428977088"><ele>2122.0</ele><time>2026-05-02T17:45:52Z</time></trkpt><trkpt lat="35.986291780939034" lon="-107.1026115041547"><ele>2122.0</ele><time>2026-05-02T17:45:54Z</time></trkpt><trkpt lat="35.98635866182015" lon="-107.10258278051147"><ele>2122.0</ele><time>2026-05-02T17:46:00.999Z</time></trkpt><trkpt lat="35.986479889529626" lon="-107.10245841918648"><ele>2122.0</ele><time>2026-05-02T17:46:02.999Z</time></trkpt><trkpt lat="35.986558932654454" lon="-107.10236800002359"><ele>2122.0</ele><time>2026-05-02T17:46:03.999Z</time></trkpt><trkpt lat="35.98663984321771" lon="-107.10228743245656"><ele>2122.2</ele><time>2026-05-02T17:46:04.999Z</time></trkpt><trkpt lat="35.986744591829655" lon="-107.10219662431257"><ele>2122.3999999999996</ele><time>2026-05-02T17:46:05.999Z</time></trkpt><trkpt lat="35.98685285994749" lon="-107.1021304225347"><ele>2122.6000000000004</ele><time>2026-05-02T17:46:06.999Z</time></trkpt><trkpt lat="35.98695313477396" lon="-107.10210499886654"><ele>2122.8</ele><time>2026-05-02T17:46:07.999Z</time></trkpt><trkpt lat="35.987035338950825" lon="-107.10206493261387"><ele>2123.0</ele><time>2026-05-02T17:46:08.999Z</time></trkpt><trkpt lat="35.98712420390478" lon="-107.10198528645947"><ele>2123.0</ele><time>2026-05-02T17:46:09.999Z</time></trkpt><trkpt lat="35.98722584107468" lon="-107.10186024204764"><ele>2123.0</ele><time>2026-05-02T17:46:10.999Z</time></trkpt><trkpt lat="35.98732103484939" lon="-107.10175547165227"><ele>2123.0</ele><time>2026-05-02T17:46:11.999Z</time></trkpt><trkpt lat="35.987442443238194" lon="-107.10174018654142"><ele>2123.0</ele><time>2026-05-02T17:46:12.999Z</time></trkpt><trkpt lat="35.98759373093064" lon="-107.10174668966968"><ele>2123.2000000000003</ele><time>2026-05-02T17:46:13.999Z</time></trkpt><trkpt lat="35.98772569399894" lon="-107.10175104205885"><ele>2123.4</ele><time>2026-05-02T17:46:14.999Z</time></trkpt><trkpt lat="35.987804849457" lon="-107.10173479272409"><ele>2123.6000000000004</ele><time>2026-05-02T17:46:15.999Z</time></trkpt><trkpt lat="35.987885291020255" lon="-107.10173697058146"><ele>2123.8</ele><time>2026-05-02T17:46:16.999Z</time></trkpt><trkpt lat="35.98797138658353" lon="-107.10177072661907"><ele>2124.0</ele><time>2026-05-02T17:46:17.999Z</time></trkpt><trkpt lat="35.98805341701384" lon="-107.10180897073302"><ele>2124.0</ele><time>2026-05-02T17:46:18.999Z</time></trkpt><trkpt lat="35.9881864939468" lon="-107.1018506745622"><ele>2124.0</ele><time>2026-05-02T17:46:19.999Z</time></trkpt><trkpt lat="35.9883295881929" lon="-107.10189647930734"><ele>2124.0</ele><time>2026-05-02T17:46:20.999Z</time></trkpt><trkpt lat="35.98846705112307" lon="-107.10188539195349"><ele>2124.0</ele><time>2026-05-02T17:46:21.999Z</time></trkpt><trkpt lat="35.9885930796535" lon="-107.10189139852103"><ele>2124.6</ele><time>2026-05-02T17:46:22.999Z</time></trkpt><trkpt lat="35.988679291605074" lon="-107.1019544267394"><ele>2125.2</ele><time>2026-05-02T17:46:23.999Z</time></trkpt><trkpt lat="35.988749767619865" lon="-107.10208311247057"><ele>2125.7999999999997</ele><time>2026-05-02T17:46:24.999Z</time></trkpt><trkpt lat="35.98881753010307" lon="-107.10217209542313"><ele>2126.4</ele><time>2026-05-02T17:46:25.999Z</time></trkpt><trkpt lat="35.98888208093841" lon="-107.10221445190777"><ele>2127.0</ele><time>2026-05-02T17:46:26.999Z</time></trkpt><trkpt lat="35.98898760956754" lon="-107.10218537018055"><ele>2127.0</ele><time>2026-05-02T17:46:28.999Z</time></trkpt><trkpt lat="35.98905785499873" lon="-107.10212287133925"><ele>2127.0</ele><time>2026-05-02T17:46:29.999Z</time></trkpt><trkpt lat="35.989128056255325" lon="-107.1020342201742"><ele>2127.0</ele><time>2026-05-02T17:46:30.999Z</time></trkpt><trkpt lat="35.98920221158909" lon="-107.10198688874398"><ele>2127.0</ele><time>2026-05-02T17:46:31.999Z</time></trkpt><trkpt lat="35.98935308389622" lon="-107.1020026028623"><ele>2127.0</ele><time>2026-05-02T17:46:33.999Z</time></trkpt><trkpt lat="35.98941880709943" lon="-107.10208361713299"><ele>2127.0</ele><time>2026-05-02T17:46:34.999Z</time></trkpt><trkpt lat="35.98947734180673" lon="-107.10218120739046"><ele>2127.0</ele><time>2026-05-02T17:46:35.999Z</time></trkpt><trkpt lat="35.98952544403911" lon="-107.10224945934313"><ele>2127.0</ele><time>2026-05-02T17:46:36.999Z</time></trkpt><trkpt lat="35.98954482323388" lon="-107.10233886458892"><ele>2127.0</ele><time>2026-05-02T17:46:37.999Z</time></trkpt><trkpt lat="35.9895606033567" lon="-107.10243946985254"><ele>2127.0</ele><time>2026-05-02T17:46:38.999Z</time></trkpt><trkpt lat="35.989629793232275" lon="-107.10250846751975"><ele>2127.0</ele><time>2026-05-02T17:46:40.999Z</time></trkpt><trkpt lat="35.98971599721043" lon="-107.10256762112859"><ele>2126.7999999999997</ele><time>2026-05-02T17:46:42.999Z</time></trkpt><trkpt lat="35.989865261752065" lon="-107.10252630699057"><ele>2126.6</ele><time>2026-05-02T17:46:44.999Z</time></trkpt><trkpt lat="35.98995388430381" lon="-107.10250760832771"><ele>2126.3999999999996</ele><time>2026-05-02T17:46:45.999Z</time></trkpt><trkpt lat="35.99004695155985" lon="-107.10247794137477"><ele>2126.2</ele><time>2026-05-02T17:46:46.999Z</time></trkpt><trkpt lat="35.99012047659478" lon="-107.10247131748532"><ele>2126.0</ele><time>2026-05-02T17:46:47.999Z</time></trkpt><trkpt lat="35.99019488264475" lon="-107.1024996683811"><ele>2126.6</ele><time>2026-05-02T17:46:48.999Z</time></trkpt><trkpt lat="35.990265244525965" lon="-107.10256921987974"><ele>2127.2</ele><time>2026-05-02T17:46:49.999Z</time></trkpt><trkpt lat="35.990361628297045" lon="-107.10263176001989"><ele>2127.8</ele><time>2026-05-02T17:46:50.999Z</time></trkpt><trkpt lat="35.99047377707836" lon="-107.10270240915158"><ele>2128.4</ele><time>2026-05-02T17:46:51.999Z</time></trkpt><trkpt lat="35.99056748953873" lon="-107.10276624016447"><ele>2129.0</ele><time>2026-05-02T17:46:52.999Z</time></trkpt><trkpt lat="35.9906463905305" lon="-107.1028192481774"><ele>2129.0</ele><time>2026-05-02T17:46:53.999Z</time></trkpt><trkpt lat="35.99074271486088" lon="-107.10288987550824"><ele>2129.0</ele><time>2026-05-02T17:46:54.999Z</time></trkpt><trkpt lat="35.99086119187244" lon="-107.10294072098262"><ele>2129.0</ele><time>2026-05-02T17:46:55.999Z</time></trkpt><trkpt lat="35.99100189722628" lon="-107.10294766472578"><ele>2129.0</ele><time>2026-05-02T17:46:56.999Z</time></trkpt><trkpt lat="35.99116515413001" lon="-107.10296178727735"><ele>2129.5</ele><time>2026-05-02T17:46:57.999Z</time></trkpt><trkpt lat="35.99130807066388" lon="-107.10301940115026"><ele>2130.0</ele><time>2026-05-02T17:46:58.999Z</time></trkpt><trkpt lat="35.99138466897675" lon="-107.10307859381736"><ele>2130.5</ele><time>2026-05-02T17:46:59.999Z</time></trkpt><trkpt lat="35.991468426074654" lon="-107.10314082793286"><ele>2131.0</ele><time>2026-05-02T17:47:00.999Z</time></trkpt><trkpt lat="35.99156012063131" lon="-107.10323760972398"><ele>2130.8</ele><time>2026-05-02T17:47:01.999Z</time></trkpt><trkpt lat="35.991625046252885" lon="-107.10333416823255"><ele>2130.6</ele><time>2026-05-02T17:47:02.999Z</time></trkpt><trkpt lat="35.99167261012873" lon="-107.10339184446832"><ele>2130.4</ele><time>2026-05-02T17:47:03.999Z</time></trkpt><trkpt lat="35.99181031772227" lon="-107.10340350096094"><ele>2130.2</ele><time>2026-05-02T17:47:05.999Z</time></trkpt><trkpt lat="35.991898824949224" lon="-107.10334307401347"><ele>2130.0</ele><time>2026-05-02T17:47:06.999Z</time></trkpt><trkpt lat="35.99198023222997" lon="-107.10325326578212"><ele>2130.4</ele><time>2026-05-02T17:47:07.999Z</time></trkpt><trkpt lat="35.99204703137844" lon="-107.10318831561322"><ele>2130.8</ele><time>2026-05-02T17:47:08.999Z</time></trkpt><trkpt lat="35.9921511830527" lon="-107.1031559059937"><ele>2131.2</ele><time>2026-05-02T17:47:09.999Z</time></trkpt><trkpt lat="35.992274386183624" lon="-107.10315668203802"><ele>2131.6</ele><time>2026-05-02T17:47:10.999Z</time></trkpt><trkpt lat="35.9924004299958" lon="-107.10319577473841"><ele>2132.0</ele><time>2026-05-02T17:47:11.999Z</time></trkpt><trkpt lat="35.99253830717807" lon="-107.1032449596188"><ele>2132.0</ele><time>2026-05-02T17:47:12.999Z</time></trkpt><trkpt lat="35.99268516130267" lon="-107.10326731725483"><ele>2132.0</ele><time>2026-05-02T17:47:13.999Z</time></trkpt><trkpt lat="35.99283232445217" lon="-107.10326461610802"><ele>2132.0</ele><time>2026-05-02T17:47:14.999Z</time></trkpt><trkpt lat="35.99293805556364" lon="-107.10325138525818"><ele>2132.0</ele><time>2026-05-02T17:47:15.999Z</time></trkpt><trkpt lat="35.99303164365207" lon="-107.10323002409285"><ele>2132.0</ele><time>2026-05-02T17:47:16.999Z</time></trkpt><trkpt lat="35.99310351970048" lon="-107.10322383959635"><ele>2132.0</ele><time>2026-05-02T17:47:17.999Z</time></trkpt><trkpt lat="35.99317974538347" lon="-107.1032574227696"><ele>2132.0</ele><time>2026-05-02T17:47:19.999Z</time></trkpt><trkpt lat="35.99321240574698" lon="-107.10335308931033"><ele>2132.0</ele><time>2026-05-02T17:47:21.999Z</time></trkpt><trkpt lat="35.9931651756917" lon="-107.10343658937823"><ele>2132.0</ele><time>2026-05-02T17:47:23.999Z</time></trkpt><trkpt lat="35.99345978417532" lon="-107.10337719263629"><ele>2132.0</ele><time>2026-05-02T17:47:25.999Z</time></trkpt><trkpt lat="35.99341841336906" lon="-107.10347829015633"><ele>2132.0</ele><time>2026-05-02T17:47:26.999Z</time></trkpt><trkpt lat="35.99336303774106" lon="-107.10365696031947"><ele>2132.0</ele><time>2026-05-02T17:47:27.999Z</time></trkpt><trkpt lat="35.99331108511987" lon="-107.10379568479577"><ele>2132.0</ele><time>2026-05-02T17:47:28.999Z</time></trkpt><trkpt lat="35.993310646254095" lon="-107.10388658545754"><ele>2132.0</ele><time>2026-05-02T17:47:29.999Z</time></trkpt><trkpt lat="35.99333593859861" lon="-107.1039591901769"><ele>2132.4</ele><time>2026-05-02T17:47:30.999Z</time></trkpt><trkpt lat="35.993341852610406" lon="-107.10408254257207"><ele>2132.7999999999997</ele><time>2026-05-02T17:47:31.999Z</time></trkpt><trkpt lat="35.99339493466295" lon="-107.10416939742305"><ele>2133.2</ele><time>2026-05-02T17:47:32.999Z</time></trkpt><trkpt lat="35.99343844051236" lon="-107.10425283064471"><ele>2133.6</ele><time>2026-05-02T17:47:33.999Z</time></trkpt><trkpt lat="35.993539008116684" lon="-107.10430698406466"><ele>2134.0</ele><time>2026-05-02T17:47:34.999Z</time></trkpt><trkpt lat="35.993623104231254" lon="-107.10438503581341"><ele>2134.0</ele><time>2026-05-02T17:47:35.999Z</time></trkpt><trkpt lat="35.993720156237295" lon="-107.10446717610694"><ele>2134.0</ele><time>2026-05-02T17:47:36.999Z</time></trkpt><trkpt lat="35.99387430693671" lon="-107.10456012168146"><ele>2134.0</ele><time>2026-05-02T17:47:37.999Z</time></trkpt><trkpt lat="35.994001908880165" lon="-107.10466949314025"><ele>2134.0</ele><time>2026-05-02T17:47:38.999Z</time></trkpt><trkpt lat="35.9941881607578" lon="-107.10477783002757"><ele>2134.3333333333335</ele><time>2026-05-02T17:47:39.999Z</time></trkpt><trkpt lat="35.99435048975335" lon="-107.1048737904563"><ele>2134.6666666666665</ele><time>2026-05-02T17:47:40.999Z</time></trkpt><trkpt lat="35.99452779165639" lon="-107.10492142722858"><ele>2135.0</ele><time>2026-05-02T17:47:41.999Z</time></trkpt><trkpt lat="35.994696115823395" lon="-107.10494632718576"><ele>2136.0</ele><time>2026-05-02T17:47:42.999Z</time></trkpt><trkpt lat="35.99505987730218" lon="-107.104918176012"><ele>2137.0</ele><time>2026-05-02T17:47:43.999Z</time></trkpt><trkpt lat="35.9952114916317" lon="-107.10490397061805"><ele>2137.4</ele><time>2026-05-02T17:47:44.999Z</time></trkpt><trkpt lat="35.99529876822339" lon="-107.10494429597694"><ele>2137.7999999999997</ele><time>2026-05-02T17:47:45.999Z</time></trkpt><trkpt lat="35.995396608076284" lon="-107.10505705209596"><ele>2138.2</ele><time>2026-05-02T17:47:47Z</time></trkpt><trkpt lat="35.99546040716206" lon="-107.10518080709286"><ele>2138.6</ele><time>2026-05-02T17:47:48Z</time></trkpt><trkpt lat="35.99549488947488" lon="-107.10529153439313"><ele>2139.0</ele><time>2026-05-02T17:47:49Z</time></trkpt><trkpt lat="35.99550560575351" lon="-107.10542260563119"><ele>2139.0</ele><time>2026-05-02T17:47:50Z</time></trkpt><trkpt lat="35.99550441642857" lon="-107.1055042704604"><ele>2139.0</ele><time>2026-05-02T17:47:51Z</time></trkpt><trkpt lat="35.99551935867642" lon="-107.10558626873352"><ele>2139.0</ele><time>2026-05-02T17:47:52Z</time></trkpt><trkpt lat="35.99555557825701" lon="-107.10570810623878"><ele>2139.0</ele><time>2026-05-02T17:47:53Z</time></trkpt><trkpt lat="35.99563073701848" lon="-107.10582893128642"><ele>2139.0</ele><time>2026-05-02T17:47:54Z</time></trkpt><trkpt lat="35.99573957826955" lon="-107.10594966052638"><ele>2140.0</ele><time>2026-05-02T17:47:55Z</time></trkpt><trkpt lat="35.99585942415267" lon="-107.1060692734559"><ele>2141.0</ele><time>2026-05-02T17:47:56Z</time></trkpt><trkpt lat="35.995976518705504" lon="-107.1062057179953"><ele>2142.0</ele><time>2026-05-02T17:47:57Z</time></trkpt><trkpt lat="35.99608381459408" lon="-107.106338762607"><ele>2142.0</ele><time>2026-05-02T17:47:58Z</time></trkpt><trkpt lat="35.996172430957806" lon="-107.1064577928295"><ele>2142.0</ele><time>2026-05-02T17:47:59Z</time></trkpt><trkpt lat="35.99624922897233" lon="-107.10657900250649"><ele>2142.0</ele><time>2026-05-02T17:48:00Z</time></trkpt><trkpt lat="35.99632411679423" lon="-107.10672216645933"><ele>2142.0</ele><time>2026-05-02T17:48:01Z</time></trkpt><trkpt lat="35.99638655878199" lon="-107.10687680821638"><ele>2142.25</ele><time>2026-05-02T17:48:02Z</time></trkpt><trkpt lat="35.99644168569857" lon="-107.10703978674817"><ele>2142.5</ele><time>2026-05-02T17:48:03Z</time></trkpt><trkpt lat="35.99649182024438" lon="-107.1072028285892"><ele>2142.75</ele><time>2026-05-02T17:48:04Z</time></trkpt><trkpt lat="35.99652045791894" lon="-107.107294743911"><ele>2143.0</ele><time>2026-05-02T17:48:05Z</time></trkpt><trkpt lat="35.996589928157505" lon="-107.10737289464801"><ele>2144.4</ele><time>2026-05-02T17:48:06Z</time></trkpt><trkpt lat="35.996696075575805" lon="-107.10746386039557"><ele>2145.8</ele><time>2026-05-02T17:48:07Z</time></trkpt><trkpt lat="35.996765577822515" lon="-107.10751987490654"><ele>2147.2</ele><time>2026-05-02T17:48:08Z</time></trkpt><trkpt lat="35.99685045851904" lon="-107.1075300100091"><ele>2148.6</ele><time>2026-05-02T17:48:09Z</time></trkpt><trkpt lat="35.99696888256413" lon="-107.10749118327493"><ele>2150.0</ele><time>2026-05-02T17:48:10Z</time></trkpt><trkpt lat="35.9971026850988" lon="-107.10745241830898"><ele>2150.0</ele><time>2026-05-02T17:48:11Z</time></trkpt><trkpt lat="35.99724582178178" lon="-107.10741415979136"><ele>2150.0</ele><time>2026-05-02T17:48:12Z</time></trkpt><trkpt lat="35.99741900359316" lon="-107.10739254117928"><ele>2150.0</ele><time>2026-05-02T17:48:13Z</time></trkpt><trkpt lat="35.997577894433675" lon="-107.10735974921309"><ele>2150.333333333333</ele><time>2026-05-02T17:48:14Z</time></trkpt><trkpt lat="35.9977416781876" lon="-107.10730177945463"><ele>2150.6666666666665</ele><time>2026-05-02T17:48:15Z</time></trkpt><trkpt lat="35.99788831795771" lon="-107.1072473566533"><ele>2151.0</ele><time>2026-05-02T17:48:16Z</time></trkpt><trkpt lat="35.99801282977726" lon="-107.10717386318069"><ele>2151.0</ele><time>2026-05-02T17:48:17Z</time></trkpt><trkpt lat="35.99813098787593" lon="-107.10707179860603"><ele>2151.0</ele><time>2026-05-02T17:48:18Z</time></trkpt><trkpt lat="35.99827359325752" lon="-107.10691836802265"><ele>2151.0</ele><time>2026-05-02T17:48:19Z</time></trkpt><trkpt lat="35.99842094008153" lon="-107.10674328733167"><ele>2150.3333333333335</ele><time>2026-05-02T17:48:20Z</time></trkpt><trkpt lat="35.998561213752396" lon="-107.10659817770515"><ele>2149.666666666667</ele><time>2026-05-02T17:48:21Z</time></trkpt><trkpt lat="35.99869691150163" lon="-107.10648223825834"><ele>2149.0</ele><time>2026-05-02T17:48:22Z</time></trkpt><trkpt lat="35.998836093533725" lon="-107.10635215287923"><ele>2149.0</ele><time>2026-05-02T17:48:23Z</time></trkpt><trkpt lat="35.99901226111791" lon="-107.10620441167387"><ele>2149.0</ele><time>2026-05-02T17:48:24Z</time></trkpt><trkpt lat="35.99919414600275" lon="-107.106091262664"><ele>2149.0</ele><time>2026-05-02T17:48:25Z</time></trkpt><trkpt lat="35.99938182248599" lon="-107.10597915715863"><ele>2149.0</ele><time>2026-05-02T17:48:26Z</time></trkpt><trkpt lat="35.99955237032752" lon="-107.10586369742421"><ele>2149.0</ele><time>2026-05-02T17:48:27Z</time></trkpt><trkpt lat="35.99968893676556" lon="-107.1057654684108"><ele>2149.0</ele><time>2026-05-02T17:48:28Z</time></trkpt><trkpt lat="35.99981614282912" lon="-107.10569288866508"><ele>2149.0</ele><time>2026-05-02T17:48:29Z</time></trkpt><trkpt lat="35.99995198956671" lon="-107.10566008528197"><ele>2149.0</ele><time>2026-05-02T17:48:30Z</time></trkpt><trkpt lat="36.00011591076479" lon="-107.10567535721188"><ele>2149.0</ele><time>2026-05-02T17:48:31Z</time></trkpt><trkpt lat="36.000272249553454" lon="-107.10571083747335"><ele>2149.75</ele><time>2026-05-02T17:48:32Z</time></trkpt><trkpt lat="36.00041276588957" lon="-107.10574571413828"><ele>2150.5</ele><time>2026-05-02T17:48:33Z</time></trkpt><trkpt lat="36.000535838414365" lon="-107.10578659962691"><ele>2151.25</ele><time>2026-05-02T17:48:34Z</time></trkpt><trkpt lat="36.000673087746456" lon="-107.10583223983251"><ele>2152.0</ele><time>2026-05-02T17:48:35Z</time></trkpt><trkpt lat="36.000854450434616" lon="-107.10587856682902"><ele>2152.0</ele><time>2026-05-02T17:48:36Z</time></trkpt><trkpt lat="36.00102443589255" lon="-107.10591585601895"><ele>2152.0</ele><time>2026-05-02T17:48:37Z</time></trkpt><trkpt lat="36.00120028614642" lon="-107.10594383509643"><ele>2152.0</ele><time>2026-05-02T17:48:38Z</time></trkpt><trkpt lat="36.001325681803074" lon="-107.10594808383256"><ele>2152.0</ele><time>2026-05-02T17:48:39Z</time></trkpt><trkpt lat="36.001485187753076" lon="-107.10593036257518"><ele>2152.0</ele><time>2026-05-02T17:48:39.999Z</time></trkpt><trkpt lat="36.00166456294" lon="-107.10585900832382"><ele>2152.0</ele><time>2026-05-02T17:48:40.999Z</time></trkpt><trkpt lat="36.00181220281056" lon="-107.10577252462976"><ele>2152.666666666667</ele><time>2026-05-02T17:48:41.999Z</time></trkpt><trkpt lat="36.00191572456126" lon="-107.10563896507924"><ele>2153.3333333333335</ele><time>2026-05-02T17:48:42.999Z</time></trkpt><trkpt lat="36.00205494909773" lon="-107.10549043244274"><ele>2154.0</ele><time>2026-05-02T17:48:43.999Z</time></trkpt><trkpt lat="36.0021662729065" lon="-107.10542597379104"><ele>2154.0</ele><time>2026-05-02T17:48:44.999Z</time></trkpt><trkpt lat="36.002282312935996" lon="-107.10547341082972"><ele>2154.0</ele><time>2026-05-02T17:48:45.999Z</time></trkpt><trkpt lat="36.002424865952406" lon="-107.10552649291243"><ele>2154.0</ele><time>2026-05-02T17:48:46.999Z</time></trkpt><trkpt lat="36.002574841879365" lon="-107.10553010083146"><ele>2154.0</ele><time>2026-05-02T17:48:47.999Z</time></trkpt><trkpt lat="36.00274274762518" lon="-107.10543766650466"><ele>2154.0</ele><time>2026-05-02T17:48:48.999Z</time></trkpt><trkpt lat="36.00292100382591" lon="-107.1053556561002"><ele>2154.0</ele><time>2026-05-02T17:48:49.999Z</time></trkpt><trkpt lat="36.00307803881456" lon="-107.10529631504511"><ele>2154.0</ele><time>2026-05-02T17:48:50.999Z</time></trkpt><trkpt lat="36.00319029416142" lon="-107.10527055058652"><ele>2154.0</ele><time>2026-05-02T17:48:51.999Z</time></trkpt><trkpt lat="36.003305008049196" lon="-107.1052466890314"><ele>2154.0</ele><time>2026-05-02T17:48:52.999Z</time></trkpt><trkpt lat="36.003450410042426" lon="-107.10517992386498"><ele>2154.0</ele><time>2026-05-02T17:48:53.999Z</time></trkpt><trkpt lat="36.00362473807804" lon="-107.10511928174651"><ele>2155.0</ele><time>2026-05-02T17:48:54.999Z</time></trkpt><trkpt lat="36.003820339493" lon="-107.10505901788189"><ele>2156.0</ele><time>2026-05-02T17:48:55.999Z</time></trkpt><trkpt lat="36.00402883135017" lon="-107.10497666450755"><ele>2157.0</ele><time>2026-05-02T17:48:56.999Z</time></trkpt><trkpt lat="36.004243818912805" lon="-107.10488816227485"><ele>2157.3333333333335</ele><time>2026-05-02T17:48:57.999Z</time></trkpt><trkpt lat="36.00444715049539" lon="-107.10480776310963"><ele>2157.666666666667</ele><time>2026-05-02T17:48:58.999Z</time></trkpt><trkpt lat="36.0046246923925" lon="-107.10473586910356"><ele>2158.0</ele><time>2026-05-02T17:48:59.999Z</time></trkpt><trkpt lat="36.004785718853064" lon="-107.10467414940868"><ele>2158.0</ele><time>2026-05-02T17:49:00.999Z</time></trkpt><trkpt lat="36.004943079702294" lon="-107.10461368717378"><ele>2158.0</ele><time>2026-05-02T17:49:01.999Z</time></trkpt><trkpt lat="36.0050935797902" lon="-107.10455276519785"><ele>2158.0</ele><time>2026-05-02T17:49:02.999Z</time></trkpt><trkpt lat="36.005241422980035" lon="-107.10449883475187"><ele>2158.75</ele><time>2026-05-02T17:49:03.999Z</time></trkpt><trkpt lat="36.00536982276208" lon="-107.10445055666142"><ele>2159.5</ele><time>2026-05-02T17:49:04.999Z</time></trkpt><trkpt lat="36.00547887274811" lon="-107.10440637519457"><ele>2160.25</ele><time>2026-05-02T17:49:05.999Z</time></trkpt><trkpt lat="36.00556524763781" lon="-107.10437328635972"><ele>2161.0</ele><time>2026-05-02T17:49:06.999Z</time></trkpt><trkpt lat="36.00571047458914" lon="-107.10435785060014"><ele>2161.5</ele><time>2026-05-02T17:49:07.999Z</time></trkpt><trkpt lat="36.00586301025658" lon="-107.10434814097407"><ele>2162.0</ele><time>2026-05-02T17:49:08.999Z</time></trkpt><trkpt lat="36.005972045517986" lon="-107.10432196021698"><ele>2162.5</ele><time>2026-05-02T17:49:09.999Z</time></trkpt><trkpt lat="36.00604235027382" lon="-107.10429046640276"><ele>2163.0</ele><time>2026-05-02T17:49:11.999Z</time></trkpt><trkpt lat="36.00619152354128" lon="-107.10425950893868"><ele>2163.0</ele><time>2026-05-02T17:49:13.999Z</time></trkpt><trkpt lat="36.0062708194416" lon="-107.10427499436553"><ele>2163.0</ele><time>2026-05-02T17:49:14.999Z</time></trkpt><trkpt lat="36.00633685833929" lon="-107.1042947972274"><ele>2163.0</ele><time>2026-05-02T17:49:16.999Z</time></trkpt><trkpt lat="36.00642074448394" lon="-107.10426575027422"><ele>2163.0</ele><time>2026-05-02T17:49:19.999Z</time></trkpt><trkpt lat="36.00650388510905" lon="-107.10415031213388"><ele>2163.0</ele><time>2026-05-02T17:49:21.999Z</time></trkpt><trkpt lat="36.00656449891879" lon="-107.10409000756242"><ele>2163.0</ele><time>2026-05-02T17:49:22.999Z</time></trkpt><trkpt lat="36.00663401652612" lon="-107.10404535976883"><ele>2163.8333333333335</ele><time>2026-05-02T17:49:23.999Z</time></trkpt><trkpt lat="36.00669547504898" lon="-107.1040226467513"><ele>2164.6666666666665</ele><time>2026-05-02T17:49:24.999Z</time></trkpt><trkpt lat="36.00675863451207" lon="-107.10401315741673"><ele>2165.5</ele><time>2026-05-02T17:49:25.999Z</time></trkpt><trkpt lat="36.00682583095429" lon="-107.10401399255333"><ele>2166.333333333333</ele><time>2026-05-02T17:49:26.999Z</time></trkpt><trkpt lat="36.006918372203586" lon="-107.10401104993127"><ele>2167.1666666666665</ele><time>2026-05-02T17:49:27.999Z</time></trkpt><trkpt lat="36.007019240128436" lon="-107.10400247273196"><ele>2168.0</ele><time>2026-05-02T17:49:28.999Z</time></trkpt><trkpt lat="36.00707822481922" lon="-107.10396685770662"><ele>2168.0</ele><time>2026-05-02T17:49:29.999Z</time></trkpt><trkpt lat="36.00714036813769" lon="-107.10393752952544"><ele>2168.0</ele><time>2026-05-02T17:49:30.999Z</time></trkpt><trkpt lat="36.00724943833556" lon="-107.1039564287917"><ele>2168.0</ele><time>2026-05-02T17:49:32.999Z</time></trkpt><trkpt lat="36.00731394860228" lon="-107.1040065256552"><ele>2168.0</ele><time>2026-05-02T17:49:33.999Z</time></trkpt><trkpt lat="36.007387467793954" lon="-107.10396773096191"><ele>2168.0</ele><time>2026-05-02T17:49:35.999Z</time></trkpt><trkpt lat="36.00743959954381" lon="-107.103852608383"><ele>2168.0</ele><time>2026-05-02T17:49:37.999Z</time></trkpt><trkpt lat="36.0075023169324" lon="-107.10380675567787"><ele>2168.2000000000003</ele><time>2026-05-02T17:49:38.999Z</time></trkpt><trkpt lat="36.0075663323573" lon="-107.10372969320548"><ele>2168.4</ele><time>2026-05-02T17:49:39.999Z</time></trkpt><trkpt lat="36.007583583076574" lon="-107.10361976405167"><ele>2168.6000000000004</ele><time>2026-05-02T17:49:41.999Z</time></trkpt><trkpt lat="36.00771565673985" lon="-107.10359645306619"><ele>2168.8</ele><time>2026-05-02T17:49:43.999Z</time></trkpt><trkpt lat="36.00779448565827" lon="-107.10359437666425"><ele>2169.0</ele><time>2026-05-02T17:49:44.999Z</time></trkpt><trkpt lat="36.0079268279754" lon="-107.10359830193458"><ele>2169.0</ele><time>2026-05-02T17:49:46.999Z</time></trkpt><trkpt lat="36.00804560212735" lon="-107.10359349781743"><ele>2169.0</ele><time>2026-05-02T17:49:48.999Z</time></trkpt><trkpt lat="36.00810000851505" lon="-107.10354691598312"><ele>2169.0</ele><time>2026-05-02T17:49:49.999Z</time></trkpt><trkpt lat="36.008185202211244" lon="-107.10346724988766"><ele>2169.0</ele><time>2026-05-02T17:49:50.999Z</time></trkpt><trkpt lat="36.00826468939208" lon="-107.10341791528634"><ele>2169.0</ele><time>2026-05-02T17:49:51.999Z</time></trkpt><trkpt lat="36.00831926374588" lon="-107.10337893709286"><ele>2169.0</ele><time>2026-05-02T17:49:53Z</time></trkpt><trkpt lat="36.0084056198489" lon="-107.10330141246268"><ele>2169.8</ele><time>2026-05-02T17:49:55Z</time></trkpt><trkpt lat="36.008481953135245" lon="-107.10337037606543"><ele>2170.6000000000004</ele><time>2026-05-02T17:49:57Z</time></trkpt><trkpt lat="36.00858924456288" lon="-107.10326406338318"><ele>2171.4</ele><time>2026-05-02T17:49:59Z</time></trkpt><trkpt lat="36.00866332102751" lon="-107.10324361270756"><ele>2172.2000000000003</ele><time>2026-05-02T17:50:00Z</time></trkpt><trkpt lat="36.00871416921686" lon="-107.10319427160991"><ele>2173.0</ele><time>2026-05-02T17:50:01Z</time></trkpt><trkpt lat="36.00876875828725" lon="-107.10312235178573"><ele>2173.0</ele><time>2026-05-02T17:50:03Z</time></trkpt><trkpt lat="36.00883844565577" lon="-107.10316806414785"><ele>2173.0</ele><time>2026-05-02T17:50:10Z</time></trkpt><trkpt lat="36.00888513792644" lon="-107.10326928538448"><ele>2173.0</ele><time>2026-05-02T17:50:12Z</time></trkpt><trkpt lat="36.00896763474981" lon="-107.10332642103802"><ele>2173.0</ele><time>2026-05-02T17:50:14Z</time></trkpt><trkpt lat="36.00905936182225" lon="-107.10325163309173"><ele>2173.0</ele><time>2026-05-02T17:50:16Z</time></trkpt><trkpt lat="36.00910945395313" lon="-107.10314449308565"><ele>2173.5</ele><time>2026-05-02T17:50:18Z</time></trkpt><trkpt lat="36.009127776286206" lon="-107.10305065839131"><ele>2174.0</ele><time>2026-05-02T17:50:19Z</time></trkpt><trkpt lat="36.00921185006955" lon="-107.10300994025836"><ele>2174.5</ele><time>2026-05-02T17:50:20Z</time></trkpt><trkpt lat="36.009224343392425" lon="-107.10292846348709"><ele>2175.0</ele><time>2026-05-02T17:50:22Z</time></trkpt><trkpt lat="36.00930099215927" lon="-107.10288113237584"><ele>2175.5</ele><time>2026-05-02T17:50:24Z</time></trkpt><trkpt lat="36.00938277218985" lon="-107.10287172474418"><ele>2176.0</ele><time>2026-05-02T17:50:25Z</time></trkpt><trkpt lat="36.00946994957196" lon="-107.10288163906736"><ele>2176.166666666667</ele><time>2026-05-02T17:50:26Z</time></trkpt><trkpt lat="36.00954332887958" lon="-107.10284642816497"><ele>2176.3333333333335</ele><time>2026-05-02T17:50:28Z</time></trkpt><trkpt lat="36.0096031094644" lon="-107.10277133125147"><ele>2176.5</ele><time>2026-05-02T17:50:29Z</time></trkpt><trkpt lat="36.00965920958152" lon="-107.1026547909324"><ele>2176.6666666666665</ele><time>2026-05-02T17:50:30Z</time></trkpt><trkpt lat="36.00967340888809" lon="-107.10256733434235"><ele>2176.833333333333</ele><time>2026-05-02T17:50:31Z</time></trkpt><trkpt lat="36.009728109435976" lon="-107.10249271595262"><ele>2177.0</ele><time>2026-05-02T17:50:33Z</time></trkpt><trkpt lat="36.00986503380076" lon="-107.102454793993"><ele>2177.0</ele><time>2026-05-02T17:50:35Z</time></trkpt><trkpt lat="36.00993884732041" lon="-107.1024340961518"><ele>2177.0</ele><time>2026-05-02T17:50:36Z</time></trkpt><trkpt lat="36.01003081685266" lon="-107.10245457131734"><ele>2177.0</ele><time>2026-05-02T17:50:37Z</time></trkpt><trkpt lat="36.01010811388092" lon="-107.10247182434976"><ele>2177.0</ele><time>2026-05-02T17:50:38Z</time></trkpt><trkpt lat="36.01020574469372" lon="-107.10243804500976"><ele>2177.0</ele><time>2026-05-02T17:50:40Z</time></trkpt><trkpt lat="36.0102810046841" lon="-107.102287514937"><ele>2177.333333333333</ele><time>2026-05-02T17:50:42Z</time></trkpt><trkpt lat="36.010346648344154" lon="-107.10217792440707"><ele>2177.6666666666665</ele><time>2026-05-02T17:50:43Z</time></trkpt><trkpt lat="36.01040288771235" lon="-107.10213786770588"><ele>2178.0</ele><time>2026-05-02T17:50:44Z</time></trkpt><trkpt lat="36.01047215591117" lon="-107.10210663204431"><ele>2178.3333333333335</ele><time>2026-05-02T17:50:45Z</time></trkpt><trkpt lat="36.01052557512767" lon="-107.10202873655003"><ele>2178.666666666667</ele><time>2026-05-02T17:50:46Z</time></trkpt><trkpt lat="36.01057038266151" lon="-107.10189667918185"><ele>2179.0</ele><time>2026-05-02T17:50:47Z</time></trkpt><trkpt lat="36.010603904676195" lon="-107.10182411413923"><ele>2179.0</ele><time>2026-05-02T17:50:48Z</time></trkpt><trkpt lat="36.01072435476238" lon="-107.10175781241695"><ele>2179.0</ele><time>2026-05-02T17:50:50Z</time></trkpt><trkpt lat="36.01085096468171" lon="-107.10179764486683"><ele>2179.0</ele><time>2026-05-02T17:50:51Z</time></trkpt><trkpt lat="36.01096110020378" lon="-107.1017860278587"><ele>2179.0</ele><time>2026-05-02T17:50:52Z</time></trkpt><trkpt lat="36.011061007892714" lon="-107.10172728588928"><ele>2179.4</ele><time>2026-05-02T17:50:53Z</time></trkpt><trkpt lat="36.01113605286575" lon="-107.1017115659331"><ele>2179.8</ele><time>2026-05-02T17:50:54Z</time></trkpt><trkpt lat="36.01120836378805" lon="-107.10172739036706"><ele>2180.2</ele><time>2026-05-02T17:50:55Z</time></trkpt><trkpt lat="36.01123575133341" lon="-107.10184508779554"><ele>2180.6</ele><time>2026-05-02T17:50:57Z</time></trkpt><trkpt lat="36.01122573472799" lon="-107.1019953478359"><ele>2181.0</ele><time>2026-05-02T17:50:59Z</time></trkpt><trkpt lat="36.01124013198792" lon="-107.10211242269745"><ele>2181.0</ele><time>2026-05-02T17:51:01Z</time></trkpt><trkpt lat="36.01122716237734" lon="-107.10221654239488"><ele>2181.0</ele><time>2026-05-02T17:51:02Z</time></trkpt><trkpt lat="36.011193018771486" lon="-107.10235162595588"><ele>2181.0</ele><time>2026-05-02T17:51:03Z</time></trkpt><trkpt lat="36.01121268343831" lon="-107.10244086278233"><ele>2181.0</ele><time>2026-05-02T17:51:04Z</time></trkpt><trkpt lat="36.01130006563169" lon="-107.10246898537719"><ele>2181.0</ele><time>2026-05-02T17:51:06Z</time></trkpt><trkpt lat="36.01137678527655" lon="-107.10247048054056"><ele>2181.0</ele><time>2026-05-02T17:51:07Z</time></trkpt><trkpt lat="36.01146988000562" lon="-107.10248571970037"><ele>2180.8</ele><time>2026-05-02T17:51:08Z</time></trkpt><trkpt lat="36.01153615793536" lon="-107.10248375888686"><ele>2180.6</ele><time>2026-05-02T17:51:09Z</time></trkpt><trkpt lat="36.01167193790676" lon="-107.1024536317915"><ele>2180.4</ele><time>2026-05-02T17:51:11Z</time></trkpt><trkpt lat="36.01175296407462" lon="-107.1024469127217"><ele>2180.2</ele><time>2026-05-02T17:51:12Z</time></trkpt><trkpt lat="36.01186585996781" lon="-107.10244841350347"><ele>2180.0</ele><time>2026-05-02T17:51:14Z</time></trkpt><trkpt lat="36.01193992284865" lon="-107.10236776133002"><ele>2180.6</ele><time>2026-05-02T17:51:15Z</time></trkpt><trkpt lat="36.012040725961185" lon="-107.10229919670637"><ele>2181.2</ele><time>2026-05-02T17:51:16Z</time></trkpt><trkpt lat="36.01214647582304" lon="-107.10222774020522"><ele>2181.8</ele><time>2026-05-02T17:51:17Z</time></trkpt><trkpt lat="36.01224042072566" lon="-107.10217870434951"><ele>2182.4</ele><time>2026-05-02T17:51:18Z</time></trkpt><trkpt lat="36.01233284627046" lon="-107.10215850490248"><ele>2183.0</ele><time>2026-05-02T17:51:19Z</time></trkpt><trkpt lat="36.012419653020565" lon="-107.10212693939901"><ele>2183.4</ele><time>2026-05-02T17:51:20Z</time></trkpt><trkpt lat="36.012513392870865" lon="-107.10206172964148"><ele>2183.8</ele><time>2026-05-02T17:51:21Z</time></trkpt><trkpt lat="36.0126218771209" lon="-107.10200176610222"><ele>2184.2</ele><time>2026-05-02T17:51:21.999Z</time></trkpt><trkpt lat="36.012715058781616" lon="-107.10195980408558"><ele>2184.6</ele><time>2026-05-02T17:51:22.999Z</time></trkpt><trkpt lat="36.01280240897841" lon="-107.1019452827527"><ele>2185.0</ele><time>2026-05-02T17:51:23.999Z</time></trkpt><trkpt lat="36.0128810307869" lon="-107.10194555800568"><ele>2185.0</ele><time>2026-05-02T17:51:24.999Z</time></trkpt><trkpt lat="36.01298618476518" lon="-107.10194855841527"><ele>2185.0</ele><time>2026-05-02T17:51:25.999Z</time></trkpt><trkpt lat="36.01307217011532" lon="-107.10194820387308"><ele>2185.0</ele><time>2026-05-02T17:51:26.999Z</time></trkpt><trkpt lat="36.0131590340721" lon="-107.10194869063177"><ele>2185.0</ele><time>2026-05-02T17:51:27.999Z</time></trkpt><trkpt lat="36.01325051785383" lon="-107.10192012984527"><ele>2185.0</ele><time>2026-05-02T17:51:28.999Z</time></trkpt><trkpt lat="36.01336746789027" lon="-107.10186331933684"><ele>2186.5</ele><time>2026-05-02T17:51:29.999Z</time></trkpt><trkpt lat="36.013492018150735" lon="-107.10184783937056"><ele>2188.0</ele><time>2026-05-02T17:51:30.999Z</time></trkpt><trkpt lat="36.01360311485201" lon="-107.10186624858667"><ele>2189.5</ele><time>2026-05-02T17:51:31.999Z</time></trkpt><trkpt lat="36.013717188788355" lon="-107.10189867771263"><ele>2191.0</ele><time>2026-05-02T17:51:32.999Z</time></trkpt><trkpt lat="36.01385151161946" lon="-107.10188952594235"><ele>2191.0</ele><time>2026-05-02T17:51:33.999Z</time></trkpt><trkpt lat="36.013982089395235" lon="-107.10185607477317"><ele>2191.0</ele><time>2026-05-02T17:51:34.999Z</time></trkpt><trkpt lat="36.01409440046662" lon="-107.10184729162"><ele>2191.0</ele><time>2026-05-02T17:51:35.999Z</time></trkpt><trkpt lat="36.01418616198964" lon="-107.10184796426148"><ele>2191.0</ele><time>2026-05-02T17:51:36.999Z</time></trkpt><trkpt lat="36.01426389269508" lon="-107.1018214842166"><ele>2191.0</ele><time>2026-05-02T17:51:37.999Z</time></trkpt><trkpt lat="36.014356911008775" lon="-107.10178082619392"><ele>2191.8</ele><time>2026-05-02T17:51:38.999Z</time></trkpt><trkpt lat="36.014439658972016" lon="-107.1017383984182"><ele>2192.6</ele><time>2026-05-02T17:51:39.999Z</time></trkpt><trkpt lat="36.01451605801376" lon="-107.10166776366847"><ele>2193.4</ele><time>2026-05-02T17:51:40.999Z</time></trkpt><trkpt lat="36.014623541586886" lon="-107.1016160792606"><ele>2194.2</ele><time>2026-05-02T17:51:41.999Z</time></trkpt><trkpt lat="36.014705316950916" lon="-107.1015604852664"><ele>2195.0</ele><time>2026-05-02T17:51:42.999Z</time></trkpt><trkpt lat="36.01475718551784" lon="-107.10146602401439"><ele>2195.6666666666665</ele><time>2026-05-02T17:51:43.999Z</time></trkpt><trkpt lat="36.01480715284533" lon="-107.10133849491004"><ele>2196.333333333333</ele><time>2026-05-02T17:51:44.999Z</time></trkpt><trkpt lat="36.014874944011176" lon="-107.1012778804755"><ele>2197.0</ele><time>2026-05-02T17:51:45.999Z</time></trkpt><trkpt lat="36.01494360550784" lon="-107.10126060912854"><ele>2197.6666666666665</ele><time>2026-05-02T17:51:46.999Z</time></trkpt><trkpt lat="36.01501620810591" lon="-107.10122304280121"><ele>2198.3333333333335</ele><time>2026-05-02T17:51:47.999Z</time></trkpt><trkpt lat="36.01509006304442" lon="-107.1011539800284"><ele>2199.0</ele><time>2026-05-02T17:51:48.999Z</time></trkpt><trkpt lat="36.01516494243683" lon="-107.10106188299531"><ele>2199.4</ele><time>2026-05-02T17:51:49.999Z</time></trkpt><trkpt lat="36.01525143090342" lon="-107.10095879637483"><ele>2199.8</ele><time>2026-05-02T17:51:50.999Z</time></trkpt><trkpt lat="36.015331077905536" lon="-107.1008902760205"><ele>2200.2</ele><time>2026-05-02T17:51:51.999Z</time></trkpt><trkpt lat="36.01541228848343" lon="-107.10084381678823"><ele>2200.6</ele><time>2026-05-02T17:51:52.999Z</time></trkpt><trkpt lat="36.01551085061384" lon="-107.10080278612837"><ele>2201.0</ele><time>2026-05-02T17:51:53.999Z</time></trkpt><trkpt lat="36.01561364812513" lon="-107.10077584010538"><ele>2202.4</ele><time>2026-05-02T17:51:54.999Z</time></trkpt><trkpt lat="36.01571539718847" lon="-107.10071587600522"><ele>2203.8</ele><time>2026-05-02T17:51:55.999Z</time></trkpt><trkpt lat="36.01580235040887" lon="-107.10063914907461"><ele>2205.2000000000003</ele><time>2026-05-02T17:51:56.999Z</time></trkpt><trkpt lat="36.01588744947412" lon="-107.10057008035292"><ele>2206.6</ele><time>2026-05-02T17:51:57.999Z</time></trkpt><trkpt lat="36.015955959985526" lon="-107.10051751167012"><ele>2208.0</ele><time>2026-05-02T17:51:59Z</time></trkpt><trkpt lat="36.01602752710588" lon="-107.10047852893415"><ele>2208.0</ele><time>2026-05-02T17:52:00Z</time></trkpt><trkpt lat="36.0161071985452" lon="-107.10045294324881"><ele>2208.0</ele><time>2026-05-02T17:52:01Z</time></trkpt><trkpt lat="36.01619755560331" lon="-107.10041158035347"><ele>2208.0</ele><time>2026-05-02T17:52:02Z</time></trkpt><trkpt lat="36.016282884079295" lon="-107.10033652589786"><ele>2208.0</ele><time>2026-05-02T17:52:03Z</time></trkpt><trkpt lat="36.016353755771064" lon="-107.10025520989915"><ele>2208.0</ele><time>2026-05-02T17:52:04Z</time></trkpt><trkpt lat="36.016399897282874" lon="-107.1001655442187"><ele>2208.0</ele><time>2026-05-02T17:52:05Z</time></trkpt><trkpt lat="36.01642431018519" lon="-107.10009187438165"><ele>2208.0</ele><time>2026-05-02T17:52:06Z</time></trkpt><trkpt lat="36.016457852403654" lon="-107.10000749026766"><ele>2208.0</ele><time>2026-05-02T17:52:07Z</time></trkpt><trkpt lat="36.01653676802959" lon="-107.09994969436428"><ele>2208.0</ele><time>2026-05-02T17:52:08Z</time></trkpt><trkpt lat="36.01664594887718" lon="-107.09990623699387"><ele>2208.0</ele><time>2026-05-02T17:52:09Z</time></trkpt><trkpt lat="36.01671827195429" lon="-107.09987657454396"><ele>2208.0</ele><time>2026-05-02T17:52:10Z</time></trkpt><trkpt lat="36.01678195775627" lon="-107.09982767300605"><ele>2208.4</ele><time>2026-05-02T17:52:12Z</time></trkpt><trkpt lat="36.016898552617896" lon="-107.09982631657435"><ele>2208.8</ele><time>2026-05-02T17:52:14Z</time></trkpt><trkpt lat="36.01697468311819" lon="-107.099857801949"><ele>2209.2</ele><time>2026-05-02T17:52:17Z</time></trkpt><trkpt lat="36.01703506438435" lon="-107.09983517676382"><ele>2209.6</ele><time>2026-05-02T17:52:18Z</time></trkpt><trkpt lat="36.01710582281517" lon="-107.09977115287572"><ele>2210.0</ele><time>2026-05-02T17:52:19Z</time></trkpt><trkpt lat="36.01718061834049" lon="-107.09965930980455"><ele>2210.0</ele><time>2026-05-02T17:52:20Z</time></trkpt><trkpt lat="36.01725200766903" lon="-107.09955276000538"><ele>2210.0</ele><time>2026-05-02T17:52:21Z</time></trkpt><trkpt lat="36.01728603870047" lon="-107.09947210901382"><ele>2210.0</ele><time>2026-05-02T17:52:22Z</time></trkpt><trkpt lat="36.017321964226475" lon="-107.09937670014692"><ele>2210.0</ele><time>2026-05-02T17:52:24Z</time></trkpt><trkpt lat="36.01739018932652" lon="-107.09938566106403"><ele>2210.0</ele><time>2026-05-02T17:52:27Z</time></trkpt><trkpt lat="36.017509216205575" lon="-107.0994395971981"><ele>2210.0</ele><time>2026-05-02T17:52:29Z</time></trkpt><trkpt lat="36.017577904243716" lon="-107.0994177262873"><ele>2210.0</ele><time>2026-05-02T17:52:31Z</time></trkpt><trkpt lat="36.01766025384163" lon="-107.0993813093136"><ele>2210.0</ele><time>2026-05-02T17:52:33Z</time></trkpt><trkpt lat="36.01788654292188" lon="-107.0991901147954"><ele>2210.0</ele><time>2026-05-02T17:52:35Z</time></trkpt><trkpt lat="36.01793062067881" lon="-107.09912459705605"><ele>2210.4</ele><time>2026-05-02T17:52:36Z</time></trkpt><trkpt lat="36.01798003202732" lon="-107.09900572324226"><ele>2210.8</ele><time>2026-05-02T17:52:38Z</time></trkpt><trkpt lat="36.018068744816325" lon="-107.09894871495808"><ele>2211.2</ele><time>2026-05-02T17:52:40Z</time></trkpt><trkpt lat="36.018178521119225" lon="-107.09897818315261"><ele>2211.6</ele><time>2026-05-02T17:52:42Z</time></trkpt><trkpt lat="36.01827470620304" lon="-107.09904210130503"><ele>2212.0</ele><time>2026-05-02T17:52:44Z</time></trkpt><trkpt lat="36.018345387412296" lon="-107.09908085973915"><ele>2212.7999999999997</ele><time>2026-05-02T17:52:45Z</time></trkpt><trkpt lat="36.01841336901294" lon="-107.09909665638087"><ele>2213.6</ele><time>2026-05-02T17:52:46Z</time></trkpt><trkpt lat="36.018532656063584" lon="-107.09908715165088"><ele>2214.3999999999996</ele><time>2026-05-02T17:52:48Z</time></trkpt><trkpt lat="36.01858469927056" lon="-107.09899628715127"><ele>2215.2</ele><time>2026-05-02T17:52:50Z</time></trkpt><trkpt lat="36.018646994786494" lon="-107.09890664684991"><ele>2216.0</ele><time>2026-05-02T17:52:52Z</time></trkpt><trkpt lat="36.018650135728215" lon="-107.09861313435616"><ele>2216.4</ele><time>2026-05-02T17:52:53Z</time></trkpt><trkpt lat="36.01867757798526" lon="-107.09853835202905"><ele>2216.8</ele><time>2026-05-02T17:52:54Z</time></trkpt><trkpt lat="36.01861026464828" lon="-107.09841003903908"><ele>2217.2000000000003</ele><time>2026-05-02T17:52:56Z</time></trkpt><trkpt lat="36.018609334508135" lon="-107.09828801359123"><ele>2217.6</ele><time>2026-05-02T17:52:59Z</time></trkpt><trkpt lat="36.0186700642875" lon="-107.09821919678703"><ele>2218.0</ele><time>2026-05-02T17:53:06Z</time></trkpt><trkpt lat="36.018737325315925" lon="-107.0981339177845"><ele>2218.2000000000003</ele><time>2026-05-02T17:53:08Z</time></trkpt><trkpt lat="36.0188249111562" lon="-107.09807503934229"><ele>2218.4</ele><time>2026-05-02T17:53:10Z</time></trkpt><trkpt lat="36.018923003275646" lon="-107.09799910023392"><ele>2218.6000000000004</ele><time>2026-05-02T17:53:12Z</time></trkpt><trkpt lat="36.019028473479665" lon="-107.0979247053646"><ele>2218.8</ele><time>2026-05-02T17:53:14Z</time></trkpt><trkpt lat="36.019077845225524" lon="-107.09787309990067"><ele>2219.0</ele><time>2026-05-02T17:53:15Z</time></trkpt><trkpt lat="36.019133122230016" lon="-107.09781036038794"><ele>2221.4</ele><time>2026-05-02T17:53:16Z</time></trkpt><trkpt lat="36.01919243843364" lon="-107.09775193372418"><ele>2223.8</ele><time>2026-05-02T17:53:17Z</time></trkpt><trkpt lat="36.01929564082948" lon="-107.0976731650823"><ele>2226.2</ele><time>2026-05-02T17:53:19Z</time></trkpt><trkpt lat="36.01935839283623" lon="-107.09761544671656"><ele>2228.6</ele><time>2026-05-02T17:53:20Z</time></trkpt><trkpt lat="36.0194189957086" lon="-107.09751547150276"><ele>2231.0</ele><time>2026-05-02T17:53:21Z</time></trkpt><trkpt lat="36.019488219476145" lon="-107.09748549649859"><ele>2231.0</ele><time>2026-05-02T17:53:22Z</time></trkpt><trkpt lat="36.01955753985" lon="-107.09751170390383"><ele>2231.0</ele><time>2026-05-02T17:53:23Z</time></trkpt><trkpt lat="36.01962783316545" lon="-107.09754042686865"><ele>2231.0</ele><time>2026-05-02T17:53:24Z</time></trkpt><trkpt lat="36.01969067611553" lon="-107.09751097899944"><ele>2231.0</ele><time>2026-05-02T17:53:25Z</time></trkpt><trkpt lat="36.01975045636994" lon="-107.09743131894692"><ele>2231.0</ele><time>2026-05-02T17:53:26Z</time></trkpt><trkpt lat="36.01985633099614" lon="-107.09736284517214"><ele>2231.0</ele><time>2026-05-02T17:53:27Z</time></trkpt><trkpt lat="36.019978889552775" lon="-107.09730510632195"><ele>2235.0</ele><time>2026-05-02T17:53:28Z</time></trkpt><trkpt lat="36.02008506129988" lon="-107.0972334985755"><ele>2239.0</ele><time>2026-05-02T17:53:29Z</time></trkpt><trkpt lat="36.02017907879314" lon="-107.09715614010501"><ele>2243.0</ele><time>2026-05-02T17:53:30Z</time></trkpt><trkpt lat="36.02026649968123" lon="-107.09706178877508"><ele>2247.0</ele><time>2026-05-02T17:53:31Z</time></trkpt><trkpt lat="36.02035795855571" lon="-107.09699350624875"><ele>2247.0</ele><time>2026-05-02T17:53:32Z</time></trkpt><trkpt lat="36.02045510804447" lon="-107.09692252290438"><ele>2247.0</ele><time>2026-05-02T17:53:33Z</time></trkpt><trkpt lat="36.02056586571437" lon="-107.09687922278961"><ele>2247.0</ele><time>2026-05-02T17:53:34Z</time></trkpt><trkpt lat="36.02066166483924" lon="-107.0968173181614"><ele>2247.0</ele><time>2026-05-02T17:53:35Z</time></trkpt><trkpt lat="36.020741139548356" lon="-107.096732144704"><ele>2247.0</ele><time>2026-05-02T17:53:36Z</time></trkpt><trkpt lat="36.02085955663756" lon="-107.09664146740454"><ele>2246.4</ele><time>2026-05-02T17:53:37Z</time></trkpt><trkpt lat="36.020974287137385" lon="-107.09659397416644"><ele>2245.7999999999997</ele><time>2026-05-02T17:53:38Z</time></trkpt><trkpt lat="36.02105638889739" lon="-107.0965337807565"><ele>2245.2</ele><time>2026-05-02T17:53:39Z</time></trkpt><trkpt lat="36.02117842883637" lon="-107.09651614470235"><ele>2244.6</ele><time>2026-05-02T17:53:41Z</time></trkpt><trkpt lat="36.02126545301072" lon="-107.09657850988226"><ele>2244.0</ele><time>2026-05-02T17:53:41.999Z</time></trkpt><trkpt lat="36.021328881672495" lon="-107.09666404664577"><ele>2244.0</ele><time>2026-05-02T17:53:42.999Z</time></trkpt><trkpt lat="36.02138683673274" lon="-107.09675107512848"><ele>2244.0</ele><time>2026-05-02T17:53:43.999Z</time></trkpt><trkpt lat="36.021483163212004" lon="-107.09682441392721"><ele>2244.0</ele><time>2026-05-02T17:53:44.999Z</time></trkpt><trkpt lat="36.02154808708307" lon="-107.0968656920822"><ele>2244.0</ele><time>2026-05-02T17:53:45.999Z</time></trkpt><trkpt lat="36.021599501322555" lon="-107.09693128533578"><ele>2244.0</ele><time>2026-05-02T17:53:46.999Z</time></trkpt><trkpt lat="36.021677816329856" lon="-107.09701765652646"><ele>2243.6</ele><time>2026-05-02T17:53:47.999Z</time></trkpt><trkpt lat="36.02177304865609" lon="-107.09709169559089"><ele>2243.2</ele><time>2026-05-02T17:53:48.999Z</time></trkpt><trkpt lat="36.02184568836501" lon="-107.09715963766814"><ele>2242.7999999999997</ele><time>2026-05-02T17:53:49.999Z</time></trkpt><trkpt lat="36.0219310441653" lon="-107.09720983373278"><ele>2242.4</ele><time>2026-05-02T17:53:50.999Z</time></trkpt><trkpt lat="36.02201929988971" lon="-107.09724555427218"><ele>2242.0</ele><time>2026-05-02T17:53:51.999Z</time></trkpt><trkpt lat="36.02209564170875" lon="-107.09727910110593"><ele>2242.0</ele><time>2026-05-02T17:53:52.999Z</time></trkpt><trkpt lat="36.02215869820708" lon="-107.09726992063966"><ele>2242.0</ele><time>2026-05-02T17:53:53.999Z</time></trkpt><trkpt lat="36.02226750781212" lon="-107.09723187406973"><ele>2242.0</ele><time>2026-05-02T17:53:54.999Z</time></trkpt><trkpt lat="36.02235927529583" lon="-107.09717713331844"><ele>2242.0</ele><time>2026-05-02T17:53:55.999Z</time></trkpt><trkpt lat="36.022415848818476" lon="-107.0971177748465"><ele>2242.0</ele><time>2026-05-02T17:53:56.999Z</time></trkpt><trkpt lat="36.02245880768256" lon="-107.0970606977779"><ele>2242.0</ele><time>2026-05-02T17:53:59.999Z</time></trkpt><trkpt lat="36.02257844636408" lon="-107.09702550861903"><ele>2240.25</ele><time>2026-05-02T17:58:53Z</time></trkpt><trkpt lat="36.02268253927499" lon="-107.09701859176471"><ele>2238.5</ele><time>2026-05-02T17:58:54Z</time></trkpt><trkpt lat="36.02280355075802" lon="-107.09701041571437"><ele>2236.75</ele><time>2026-05-02T17:58:55Z</time></trkpt><trkpt lat="36.022954271135056" lon="-107.09696883696512"><ele>2235.0</ele><time>2026-05-02T17:58:56Z</time></trkpt><trkpt lat="36.02313196685285" lon="-107.09690562688387"><ele>2232.6666666666665</ele><time>2026-05-02T17:58:57Z</time></trkpt><trkpt lat="36.023329107108694" lon="-107.09685194327287"><ele>2230.333333333333</ele><time>2026-05-02T17:58:58Z</time></trkpt><trkpt lat="36.02354183900565" lon="-107.0967927907801"><ele>2228.0</ele><time>2026-05-02T17:58:59Z</time></trkpt><trkpt lat="36.02373938611954" lon="-107.09670335447638"><ele>2228.0</ele><time>2026-05-02T17:59:00Z</time></trkpt><trkpt lat="36.023898415257996" lon="-107.09664147387147"><ele>2228.0</ele><time>2026-05-02T17:59:01Z</time></trkpt><trkpt lat="36.02403514556134" lon="-107.0966092533563"><ele>2228.0</ele><time>2026-05-02T17:59:02Z</time></trkpt><trkpt lat="36.024168403183005" lon="-107.09656184904011"><ele>2228.0</ele><time>2026-05-02T17:59:03Z</time></trkpt><trkpt lat="36.02426920988606" lon="-107.09653290133666"><ele>2227.0</ele><time>2026-05-02T17:59:04Z</time></trkpt><trkpt lat="36.024363040646044" lon="-107.09653710396029"><ele>2226.0</ele><time>2026-05-02T17:59:05Z</time></trkpt><trkpt lat="36.024437122587685" lon="-107.09667412929247"><ele>2225.0</ele><time>2026-05-02T17:59:07Z</time></trkpt><trkpt lat="36.02442715587817" lon="-107.09678536188126"><ele>2224.0</ele><time>2026-05-02T17:59:08Z</time></trkpt><trkpt lat="36.02441512692727" lon="-107.0969227649332"><ele>2223.0</ele><time>2026-05-02T17:59:09Z</time></trkpt><trkpt lat="36.02444286185098" lon="-107.09706342634614"><ele>2223.0</ele><time>2026-05-02T17:59:10Z</time></trkpt><trkpt lat="36.024513311831996" lon="-107.09717688302644"><ele>2223.0</ele><time>2026-05-02T17:59:11Z</time></trkpt><trkpt lat="36.02460810762345" lon="-107.09733639724335"><ele>2223.0</ele><time>2026-05-02T17:59:12Z</time></trkpt><trkpt lat="36.02467598837635" lon="-107.09744631558745"><ele>2223.0</ele><time>2026-05-02T17:59:13Z</time></trkpt><trkpt lat="36.024758032956946" lon="-107.09752600148218"><ele>2223.25</ele><time>2026-05-02T17:59:14Z</time></trkpt><trkpt lat="36.02487649410013" lon="-107.09755475532917"><ele>2223.5</ele><time>2026-05-02T17:59:15Z</time></trkpt><trkpt lat="36.02502777658715" lon="-107.09758780344518"><ele>2223.75</ele><time>2026-05-02T17:59:16Z</time></trkpt><trkpt lat="36.025148579907416" lon="-107.0976035764498"><ele>2224.0</ele><time>2026-05-02T17:59:17Z</time></trkpt><trkpt lat="36.025250623738664" lon="-107.09765455822122"><ele>2223.5</ele><time>2026-05-02T17:59:18Z</time></trkpt><trkpt lat="36.025364218275755" lon="-107.09770926125164"><ele>2223.0</ele><time>2026-05-02T17:59:19Z</time></trkpt><trkpt lat="36.025485120538" lon="-107.0977987712555"><ele>2222.5</ele><time>2026-05-02T17:59:20Z</time></trkpt><trkpt lat="36.02558022578912" lon="-107.09789637557977"><ele>2222.0</ele><time>2026-05-02T17:59:21Z</time></trkpt><trkpt lat="36.02567200496842" lon="-107.09796547910761"><ele>2222.0</ele><time>2026-05-02T17:59:22Z</time></trkpt><trkpt lat="36.02576877044071" lon="-107.09798975106901"><ele>2222.0</ele><time>2026-05-02T17:59:23Z</time></trkpt><trkpt lat="36.025873415407304" lon="-107.09797727951054"><ele>2222.0</ele><time>2026-05-02T17:59:24Z</time></trkpt><trkpt lat="36.02597453788776" lon="-107.09793719618524"><ele>2222.0</ele><time>2026-05-02T17:59:25Z</time></trkpt><trkpt lat="36.026077246646835" lon="-107.09784393219604"><ele>2222.0</ele><time>2026-05-02T17:59:26Z</time></trkpt><trkpt lat="36.02620817012171" lon="-107.09779433688425"><ele>2222.0</ele><time>2026-05-02T17:59:27Z</time></trkpt><trkpt lat="36.026390117772614" lon="-107.0977665109452"><ele>2222.0</ele><time>2026-05-02T17:59:28Z</time></trkpt><trkpt lat="36.02655525628496" lon="-107.09772896445658"><ele>2222.0</ele><time>2026-05-02T17:59:29Z</time></trkpt><trkpt lat="36.026762311695414" lon="-107.0977635172915"><ele>2222.0</ele><time>2026-05-02T17:59:30Z</time></trkpt><trkpt lat="36.02695077243954" lon="-107.09780678407543"><ele>2222.0</ele><time>2026-05-02T17:59:31Z</time></trkpt><trkpt lat="36.027131782605665" lon="-107.0978171706544"><ele>2222.0</ele><time>2026-05-02T17:59:32Z</time></trkpt><trkpt lat="36.027315728514345" lon="-107.09784409478561"><ele>2222.0</ele><time>2026-05-02T17:59:33Z</time></trkpt><trkpt lat="36.02744968469281" lon="-107.0978946516327"><ele>2222.0</ele><time>2026-05-02T17:59:34Z</time></trkpt><trkpt lat="36.02758886930546" lon="-107.09790374872375"><ele>2222.0</ele><time>2026-05-02T17:59:35Z</time></trkpt><trkpt lat="36.027725221780464" lon="-107.0979252348634"><ele>2222.0</ele><time>2026-05-02T17:59:36Z</time></trkpt><trkpt lat="36.02782604286718" lon="-107.09801682815144"><ele>2222.0</ele><time>2026-05-02T17:59:37Z</time></trkpt><trkpt lat="36.02791884676271" lon="-107.09811895473709"><ele>2222.0</ele><time>2026-05-02T17:59:38Z</time></trkpt><trkpt lat="36.028018524320395" lon="-107.09819817750598"><ele>2222.0</ele><time>2026-05-02T17:59:39Z</time></trkpt><trkpt lat="36.02815566112609" lon="-107.09827409850301"><ele>2222.0</ele><time>2026-05-02T17:59:40Z</time></trkpt><trkpt lat="36.028275533831916" lon="-107.09838283749272"><ele>2223.0</ele><time>2026-05-02T17:59:41Z</time></trkpt><trkpt lat="36.02841356677179" lon="-107.09852546502927"><ele>2224.0</ele><time>2026-05-02T17:59:42Z</time></trkpt><trkpt lat="36.028531042900596" lon="-107.09866384272755"><ele>2225.0</ele><time>2026-05-02T17:59:43Z</time></trkpt><trkpt lat="36.02863030436455" lon="-107.09873224548302"><ele>2225.0</ele><time>2026-05-02T17:59:44Z</time></trkpt><trkpt lat="36.02877978175665" lon="-107.09883072192311"><ele>2225.0</ele><time>2026-05-02T17:59:45Z</time></trkpt><trkpt lat="36.02891071545074" lon="-107.09892978302706"><ele>2225.0</ele><time>2026-05-02T17:59:46Z</time></trkpt><trkpt lat="36.02904100622402" lon="-107.09906458386679"><ele>2225.0</ele><time>2026-05-02T17:59:47Z</time></trkpt><trkpt lat="36.02915995512836" lon="-107.09917071483996"><ele>2225.0</ele><time>2026-05-02T17:59:48Z</time></trkpt><trkpt lat="36.02926524275264" lon="-107.09920426781284"><ele>2225.0</ele><time>2026-05-02T17:59:49Z</time></trkpt><trkpt lat="36.02938707823511" lon="-107.09919002173172"><ele>2225.0</ele><time>2026-05-02T17:59:50Z</time></trkpt><trkpt lat="36.02953749640892" lon="-107.09922271402561"><ele>2225.0</ele><time>2026-05-02T17:59:51Z</time></trkpt><trkpt lat="36.02970786571205" lon="-107.0992653888963"><ele>2225.0</ele><time>2026-05-02T17:59:52Z</time></trkpt><trkpt lat="36.02987851804615" lon="-107.09930130513742"><ele>2225.0</ele><time>2026-05-02T17:59:53Z</time></trkpt><trkpt lat="36.030042439357715" lon="-107.0993595590958"><ele>2225.5</ele><time>2026-05-02T17:59:54Z</time></trkpt><trkpt lat="36.03018807184541" lon="-107.09939215318362"><ele>2226.0</ele><time>2026-05-02T17:59:55Z</time></trkpt><trkpt lat="36.03034005661856" lon="-107.09940776651352"><ele>2226.5</ele><time>2026-05-02T17:59:56Z</time></trkpt><trkpt lat="36.030481487600646" lon="-107.09941479473923"><ele>2227.0</ele><time>2026-05-02T17:59:57Z</time></trkpt><trkpt lat="36.03060350320517" lon="-107.0993859124839"><ele>2227.0</ele><time>2026-05-02T17:59:58Z</time></trkpt><trkpt lat="36.030707948557904" lon="-107.09936297297135"><ele>2227.0</ele><time>2026-05-02T17:59:59Z</time></trkpt><trkpt lat="36.03086265951337" lon="-107.09945797550931"><ele>2227.0</ele><time>2026-05-02T18:00:01Z</time></trkpt><trkpt lat="36.0310055140662" lon="-107.0994824781378"><ele>2227.0</ele><time>2026-05-02T18:00:02Z</time></trkpt><trkpt lat="36.03115876533593" lon="-107.09949149583997"><ele>2226.3333333333335</ele><time>2026-05-02T18:00:03Z</time></trkpt><trkpt lat="36.0313270241389" lon="-107.0995117014302"><ele>2225.6666666666665</ele><time>2026-05-02T18:00:04Z</time></trkpt><trkpt lat="36.03150153347471" lon="-107.0994885589815"><ele>2225.0</ele><time>2026-05-02T18:00:05Z</time></trkpt><trkpt lat="36.031661010828685" lon="-107.09946128357602"><ele>2224.333333333333</ele><time>2026-05-02T18:00:06Z</time></trkpt><trkpt lat="36.03181008589548" lon="-107.09945709401137"><ele>2223.6666666666665</ele><time>2026-05-02T18:00:07Z</time></trkpt><trkpt lat="36.031969939890104" lon="-107.09945772698896"><ele>2223.0</ele><time>2026-05-02T18:00:08Z</time></trkpt><trkpt lat="36.032128178218805" lon="-107.09945287679402"><ele>2223.0</ele><time>2026-05-02T18:00:09Z</time></trkpt><trkpt lat="36.032264863213555" lon="-107.09944584625191"><ele>2223.0</ele><time>2026-05-02T18:00:10Z</time></trkpt><trkpt lat="36.032447141089804" lon="-107.0994755363914"><ele>2223.0</ele><time>2026-05-02T18:00:11Z</time></trkpt><trkpt lat="36.03261113892438" lon="-107.09947570501525"><ele>2222.6666666666665</ele><time>2026-05-02T18:00:12Z</time></trkpt><trkpt lat="36.0327628525657" lon="-107.09948143517428"><ele>2222.333333333333</ele><time>2026-05-02T18:00:13Z</time></trkpt><trkpt lat="36.0329252558526" lon="-107.09946475891562"><ele>2222.0</ele><time>2026-05-02T18:00:14Z</time></trkpt><trkpt lat="36.033115350835565" lon="-107.09945255495889"><ele>2222.0</ele><time>2026-05-02T18:00:15Z</time></trkpt><trkpt lat="36.033271161664864" lon="-107.09942205629358"><ele>2222.0</ele><time>2026-05-02T18:00:16Z</time></trkpt><trkpt lat="36.03339813637065" lon="-107.0993894280447"><ele>2222.0</ele><time>2026-05-02T18:00:17Z</time></trkpt><trkpt lat="36.03349017549974" lon="-107.09935807566674"><ele>2222.0</ele><time>2026-05-02T18:00:18Z</time></trkpt><trkpt lat="36.03356028296707" lon="-107.09936057381329"><ele>2221.75</ele><time>2026-05-02T18:00:19Z</time></trkpt><trkpt lat="36.033624107397" lon="-107.09943679334226"><ele>2221.5</ele><time>2026-05-02T18:00:20Z</time></trkpt><trkpt lat="36.03375125126065" lon="-107.09947793064056"><ele>2221.25</ele><time>2026-05-02T18:00:21Z</time></trkpt><trkpt lat="36.0338928594494" lon="-107.09947037285141"><ele>2221.0</ele><time>2026-05-02T18:00:22Z</time></trkpt><trkpt lat="36.03403955206935" lon="-107.09943556515579"><ele>2220.25</ele><time>2026-05-02T18:00:23Z</time></trkpt><trkpt lat="36.03420050515258" lon="-107.09943355751084"><ele>2219.5</ele><time>2026-05-02T18:00:24Z</time></trkpt><trkpt lat="36.03434917926887" lon="-107.09944162503812"><ele>2218.75</ele><time>2026-05-02T18:00:25Z</time></trkpt><trkpt lat="36.03446109120992" lon="-107.09943177022733"><ele>2218.0</ele><time>2026-05-02T18:00:26Z</time></trkpt><trkpt lat="36.03451871809365" lon="-107.09936686941893"><ele>2218.0</ele><time>2026-05-02T18:00:27Z</time></trkpt><trkpt lat="36.034557011780684" lon="-107.09926132077376"><ele>2218.0</ele><time>2026-05-02T18:00:28Z</time></trkpt><trkpt lat="36.03462040357093" lon="-107.0991327321468"><ele>2218.0</ele><time>2026-05-02T18:00:29Z</time></trkpt><trkpt lat="36.03469117127915" lon="-107.0990462217656"><ele>2218.0</ele><time>2026-05-02T18:00:30Z</time></trkpt><trkpt lat="36.03479121200386" lon="-107.09907524652446"><ele>2218.0</ele><time>2026-05-02T18:00:31Z</time></trkpt><trkpt lat="36.034921613159476" lon="-107.09913482707582"><ele>2217.75</ele><time>2026-05-02T18:00:32Z</time></trkpt><trkpt lat="36.035057527637505" lon="-107.09922706360918"><ele>2217.5</ele><time>2026-05-02T18:00:33Z</time></trkpt><trkpt lat="36.035162946302385" lon="-107.09930869919442"><ele>2217.25</ele><time>2026-05-02T18:00:34Z</time></trkpt><trkpt lat="36.035250729610794" lon="-107.09932156746115"><ele>2217.0</ele><time>2026-05-02T18:00:35Z</time></trkpt><trkpt lat="36.03538306688999" lon="-107.09930495785345"><ele>2217.0</ele><time>2026-05-02T18:00:36Z</time></trkpt><trkpt lat="36.0355060543235" lon="-107.09931392687264"><ele>2217.0</ele><time>2026-05-02T18:00:37Z</time></trkpt><trkpt lat="36.03559170459475" lon="-107.09930941230222"><ele>2217.0</ele><time>2026-05-02T18:00:38Z</time></trkpt><trkpt lat="36.035682834916855" lon="-107.09926035429028"><ele>2217.0</ele><time>2026-05-02T18:00:39Z</time></trkpt><trkpt lat="36.03575161647083" lon="-107.09913057303594"><ele>2217.0</ele><time>2026-05-02T18:00:40Z</time></trkpt><trkpt lat="36.03579468009398" lon="-107.09894083745907"><ele>2217.5</ele><time>2026-05-02T18:00:41Z</time></trkpt><trkpt lat="36.03581243602983" lon="-107.09875560295619"><ele>2218.0</ele><time>2026-05-02T18:00:42Z</time></trkpt><trkpt lat="36.035826380940705" lon="-107.09858479557077"><ele>2218.5</ele><time>2026-05-02T18:00:43Z</time></trkpt><trkpt lat="36.03580332363456" lon="-107.09846126552645"><ele>2219.0</ele><time>2026-05-02T18:00:44Z</time></trkpt><trkpt lat="36.03578684548435" lon="-107.09826260888961"><ele>2218.25</ele><time>2026-05-02T18:00:45Z</time></trkpt><trkpt lat="36.03577236329242" lon="-107.09805619481486"><ele>2217.5</ele><time>2026-05-02T18:00:46Z</time></trkpt><trkpt lat="36.03578597542691" lon="-107.09790306468331"><ele>2216.75</ele><time>2026-05-02T18:00:47Z</time></trkpt><trkpt lat="36.0358023593068" lon="-107.0977523019942"><ele>2216.0</ele><time>2026-05-02T18:00:48Z</time></trkpt><trkpt lat="36.03582560523733" lon="-107.09759628380016"><ele>2216.0</ele><time>2026-05-02T18:00:49Z</time></trkpt><trkpt lat="36.03584971741854" lon="-107.09744230339827"><ele>2216.0</ele><time>2026-05-02T18:00:50Z</time></trkpt><trkpt lat="36.03585266242512" lon="-107.09730497279337"><ele>2216.0</ele><time>2026-05-02T18:00:51Z</time></trkpt><trkpt lat="36.03584087189641" lon="-107.09713514208354"><ele>2216.0</ele><time>2026-05-02T18:00:52Z</time></trkpt><trkpt lat="36.0358365486751" lon="-107.09696758114214"><ele>2215.25</ele><time>2026-05-02T18:00:53Z</time></trkpt><trkpt lat="36.035850586815734" lon="-107.09678138463424"><ele>2214.5</ele><time>2026-05-02T18:00:54Z</time></trkpt><trkpt lat="36.03587258021452" lon="-107.09659635490237"><ele>2213.75</ele><time>2026-05-02T18:00:55Z</time></trkpt><trkpt lat="36.03588994606309" lon="-107.09644312828021"><ele>2213.0</ele><time>2026-05-02T18:00:56Z</time></trkpt><trkpt lat="36.03592382528821" lon="-107.09629399610105"><ele>2212.833333333333</ele><time>2026-05-02T18:00:57Z</time></trkpt><trkpt lat="36.03594407583335" lon="-107.09616171992587"><ele>2212.6666666666665</ele><time>2026-05-02T18:00:58Z</time></trkpt><trkpt lat="36.03594897283411" lon="-107.09605524413531"><ele>2212.5</ele><time>2026-05-02T18:00:59Z</time></trkpt><trkpt lat="36.035959500120924" lon="-107.09596093206416"><ele>2212.3333333333335</ele><time>2026-05-02T18:01:00Z</time></trkpt><trkpt lat="36.03597075582902" lon="-107.09587920617328"><ele>2212.166666666667</ele><time>2026-05-02T18:01:01Z</time></trkpt><trkpt lat="36.03597836587691" lon="-107.09578188058285"><ele>2212.0</ele><time>2026-05-02T18:01:02Z</time></trkpt><trkpt lat="36.035943966524634" lon="-107.09564137968736"><ele>2210.75</ele><time>2026-05-02T18:01:03Z</time></trkpt><trkpt lat="36.03593110792818" lon="-107.09552094603698"><ele>2209.5</ele><time>2026-05-02T18:01:04Z</time></trkpt><trkpt lat="36.035927099149674" lon="-107.09536826380241"><ele>2208.25</ele><time>2026-05-02T18:01:05Z</time></trkpt><trkpt lat="36.03591819257347" lon="-107.09522304476432"><ele>2207.0</ele><time>2026-05-02T18:01:06Z</time></trkpt><trkpt lat="36.035924280737625" lon="-107.09508652422205"><ele>2206.75</ele><time>2026-05-02T18:01:07Z</time></trkpt><trkpt lat="36.0359126699213" lon="-107.09490912328607"><ele>2206.5</ele><time>2026-05-02T18:01:08Z</time></trkpt><trkpt lat="36.035879237319996" lon="-107.0947206422683"><ele>2206.25</ele><time>2026-05-02T18:01:09Z</time></trkpt><trkpt lat="36.03587270202949" lon="-107.09458356889827"><ele>2206.0</ele><time>2026-05-02T18:01:10Z</time></trkpt><trkpt lat="36.03585178942663" lon="-107.0944606680172"><ele>2206.0</ele><time>2026-05-02T18:01:11Z</time></trkpt><trkpt lat="36.035839975303695" lon="-107.09435417906182"><ele>2206.0</ele><time>2026-05-02T18:01:12Z</time></trkpt><trkpt lat="36.035835376365256" lon="-107.09425226699864"><ele>2206.0</ele><time>2026-05-02T18:01:13Z</time></trkpt><trkpt lat="36.03585863846469" lon="-107.09415322535595"><ele>2206.0</ele><time>2026-05-02T18:01:14Z</time></trkpt><trkpt lat="36.0358944259554" lon="-107.0940541365099"><ele>2206.0</ele><time>2026-05-02T18:01:15Z</time></trkpt><trkpt lat="36.03593743079993" lon="-107.09398223353311"><ele>2206.0</ele><time>2026-05-02T18:01:16Z</time></trkpt><trkpt lat="36.0359444281361" lon="-107.09389564391824"><ele>2207.0</ele><time>2026-05-02T18:01:18Z</time></trkpt><trkpt lat="36.03588621156289" lon="-107.09378776441356"><ele>2208.0</ele><time>2026-05-02T18:01:19Z</time></trkpt><trkpt lat="36.03581503137438" lon="-107.09367785879732"><ele>2209.0</ele><time>2026-05-02T18:01:20Z</time></trkpt><trkpt lat="36.035735043751984" lon="-107.0936073194911"><ele>2210.0</ele><time>2026-05-02T18:01:21Z</time></trkpt><trkpt lat="36.03564856716249" lon="-107.0935419823503"><ele>2211.0</ele><time>2026-05-02T18:01:22Z</time></trkpt><trkpt lat="36.03559958717854" lon="-107.09345790027926"><ele>2211.2</ele><time>2026-05-02T18:01:23Z</time></trkpt><trkpt lat="36.03558223704836" lon="-107.09335641919179"><ele>2211.3999999999996</ele><time>2026-05-02T18:01:24Z</time></trkpt><trkpt lat="36.03555990696731" lon="-107.09326611644913"><ele>2211.6</ele><time>2026-05-02T18:01:25Z</time></trkpt><trkpt lat="36.03554583633613" lon="-107.09314373864851"><ele>2211.7999999999997</ele><time>2026-05-02T18:01:26Z</time></trkpt><trkpt lat="36.0355722477426" lon="-107.0930003812341"><ele>2212.0</ele><time>2026-05-02T18:01:27Z</time></trkpt><trkpt lat="36.03561762018431" lon="-107.09285285459057"><ele>2212.0</ele><time>2026-05-02T18:01:28Z</time></trkpt><trkpt lat="36.035611734329024" lon="-107.09276453888867"><ele>2212.0</ele><time>2026-05-02T18:01:29Z</time></trkpt><trkpt lat="36.0355489620359" lon="-107.09268893458547"><ele>2212.0</ele><time>2026-05-02T18:01:30Z</time></trkpt><trkpt lat="36.03549036225911" lon="-107.09258355074029"><ele>2212.0</ele><time>2026-05-02T18:01:31Z</time></trkpt><trkpt lat="36.03551803146044" lon="-107.09249636666887"><ele>2212.0</ele><time>2026-05-02T18:01:32Z</time></trkpt><trkpt lat="36.03554735286816" lon="-107.09236775916298"><ele>2212.0</ele><time>2026-05-02T18:01:33Z</time></trkpt><trkpt lat="36.03557664144523" lon="-107.09223715780301"><ele>2211.6</ele><time>2026-05-02T18:01:34Z</time></trkpt><trkpt lat="36.03559328474306" lon="-107.09211325823436"><ele>2211.2</ele><time>2026-05-02T18:01:35Z</time></trkpt><trkpt lat="36.03559967627207" lon="-107.0919712943746"><ele>2210.8</ele><time>2026-05-02T18:01:36Z</time></trkpt><trkpt lat="36.035591264871655" lon="-107.09182705770576"><ele>2210.4</ele><time>2026-05-02T18:01:37Z</time></trkpt><trkpt lat="36.0356187834987" lon="-107.09169719639347"><ele>2210.0</ele><time>2026-05-02T18:01:38Z</time></trkpt><trkpt lat="36.035677945104545" lon="-107.09160043279279"><ele>2209.8</ele><time>2026-05-02T18:01:39Z</time></trkpt><trkpt lat="36.03568007583055" lon="-107.09151373369322"><ele>2209.6</ele><time>2026-05-02T18:01:41Z</time></trkpt><trkpt lat="36.03560025628539" lon="-107.0914655100934"><ele>2209.4</ele><time>2026-05-02T18:01:42Z</time></trkpt><trkpt lat="36.03551695787708" lon="-107.09141340613657"><ele>2209.2</ele><time>2026-05-02T18:01:43Z</time></trkpt><trkpt lat="36.03543447042935" lon="-107.09135405337999"><ele>2209.0</ele><time>2026-05-02T18:01:44Z</time></trkpt><trkpt lat="36.035346317079224" lon="-107.09126876044333"><ele>2209.0</ele><time>2026-05-02T18:01:45Z</time></trkpt><trkpt lat="36.03522923837148" lon="-107.09121088523113"><ele>2209.0</ele><time>2026-05-02T18:01:46Z</time></trkpt><trkpt lat="36.03512146422839" lon="-107.09116602359917"><ele>2209.0</ele><time>2026-05-02T18:01:47Z</time></trkpt><trkpt lat="36.035040939217474" lon="-107.09110700898869"><ele>2209.0</ele><time>2026-05-02T18:01:48Z</time></trkpt><trkpt lat="36.034960009887605" lon="-107.0910343370716"><ele>2209.0</ele><time>2026-05-02T18:01:49Z</time></trkpt><trkpt lat="36.03486643550077" lon="-107.09096932453319"><ele>2207.25</ele><time>2026-05-02T18:01:50Z</time></trkpt><trkpt lat="36.03475497786559" lon="-107.09088420401878"><ele>2205.5</ele><time>2026-05-02T18:01:51Z</time></trkpt><trkpt lat="36.03465774436046" lon="-107.0907966813885"><ele>2203.75</ele><time>2026-05-02T18:01:52Z</time></trkpt><trkpt lat="36.03455937813489" lon="-107.09075543851091"><ele>2202.0</ele><time>2026-05-02T18:01:53Z</time></trkpt><trkpt lat="36.03445384543684" lon="-107.09068254491433"><ele>2201.0</ele><time>2026-05-02T18:01:54Z</time></trkpt><trkpt lat="36.03442540851663" lon="-107.09054539742874"><ele>2200.0</ele><time>2026-05-02T18:01:55Z</time></trkpt><trkpt lat="36.03444630758538" lon="-107.09044294716011"><ele>2199.0</ele><time>2026-05-02T18:01:56Z</time></trkpt><trkpt lat="36.03449054207162" lon="-107.09034249291987"><ele>2198.0</ele><time>2026-05-02T18:01:57Z</time></trkpt><trkpt lat="36.03457616948533" lon="-107.09024348558786"><ele>2197.0</ele><time>2026-05-02T18:01:58Z</time></trkpt><trkpt lat="36.0346617767665" lon="-107.0901801807542"><ele>2197.0</ele><time>2026-05-02T18:01:59Z</time></trkpt><trkpt lat="36.034743537476785" lon="-107.09010590036499"><ele>2197.0</ele><time>2026-05-02T18:02:00Z</time></trkpt><trkpt lat="36.03485356511208" lon="-107.09001437433864"><ele>2197.0</ele><time>2026-05-02T18:02:01Z</time></trkpt><trkpt lat="36.0349576723402" lon="-107.08992091102876"><ele>2197.0</ele><time>2026-05-02T18:02:02Z</time></trkpt><trkpt lat="36.0350625793822" lon="-107.08980674575409"><ele>2197.75</ele><time>2026-05-02T18:02:03Z</time></trkpt><trkpt lat="36.03518495162275" lon="-107.08972836205483"><ele>2198.5</ele><time>2026-05-02T18:02:04Z</time></trkpt><trkpt lat="36.03524854167757" lon="-107.08964483362105"><ele>2199.25</ele><time>2026-05-02T18:02:05Z</time></trkpt><trkpt lat="36.03528257380885" lon="-107.08951793239149"><ele>2200.0</ele><time>2026-05-02T18:02:06Z</time></trkpt><trkpt lat="36.03532542204993" lon="-107.08934059906079"><ele>2200.0</ele><time>2026-05-02T18:02:07Z</time></trkpt><trkpt lat="36.03535849642427" lon="-107.08918576696156"><ele>2200.0</ele><time>2026-05-02T18:02:08Z</time></trkpt><trkpt lat="36.035381303934464" lon="-107.08907420547713"><ele>2200.0</ele><time>2026-05-02T18:02:09Z</time></trkpt><trkpt lat="36.03537600288308" lon="-107.0889299463704"><ele>2200.0</ele><time>2026-05-02T18:02:10Z</time></trkpt><trkpt lat="36.0353287999511" lon="-107.08875019915912"><ele>2199.666666666667</ele><time>2026-05-02T18:02:11Z</time></trkpt><trkpt lat="36.03530353000342" lon="-107.0885403272392"><ele>2199.3333333333335</ele><time>2026-05-02T18:02:12Z</time></trkpt><trkpt lat="36.03528559796937" lon="-107.08836263131622"><ele>2199.0</ele><time>2026-05-02T18:02:13Z</time></trkpt><trkpt lat="36.03524386563087" lon="-107.08813651702788"><ele>2198.3333333333335</ele><time>2026-05-02T18:02:14Z</time></trkpt><trkpt lat="36.03519574631242" lon="-107.08792696670012"><ele>2197.666666666667</ele><time>2026-05-02T18:02:15Z</time></trkpt><trkpt lat="36.03515746954697" lon="-107.08776038193606"><ele>2197.0</ele><time>2026-05-02T18:02:16Z</time></trkpt><trkpt lat="36.035127750732116" lon="-107.08759485063959"><ele>2197.0</ele><time>2026-05-02T18:02:17Z</time></trkpt><trkpt lat="36.03509850125836" lon="-107.08744971890822"><ele>2197.0</ele><time>2026-05-02T18:02:18Z</time></trkpt><trkpt lat="36.03510303880814" lon="-107.08730050323452"><ele>2197.0</ele><time>2026-05-02T18:02:19Z</time></trkpt><trkpt lat="36.035125713711565" lon="-107.08716210013164"><ele>2197.0</ele><time>2026-05-02T18:02:20Z</time></trkpt><trkpt lat="36.03513510015319" lon="-107.08703079852668"><ele>2196.5</ele><time>2026-05-02T18:02:21Z</time></trkpt><trkpt lat="36.03509551143549" lon="-107.08688042120727"><ele>2196.0</ele><time>2026-05-02T18:02:22Z</time></trkpt><trkpt lat="36.035085996280614" lon="-107.08674788610772"><ele>2195.5</ele><time>2026-05-02T18:02:23Z</time></trkpt><trkpt lat="36.035105420769426" lon="-107.08663667918928"><ele>2195.0</ele><time>2026-05-02T18:02:24Z</time></trkpt><trkpt lat="36.035119890956466" lon="-107.0864856067513"><ele>2194.75</ele><time>2026-05-02T18:02:25Z</time></trkpt><trkpt lat="36.03512359654782" lon="-107.08632358759569"><ele>2194.5</ele><time>2026-05-02T18:02:26Z</time></trkpt><trkpt lat="36.035129394213826" lon="-107.08617152581313"><ele>2194.25</ele><time>2026-05-02T18:02:27Z</time></trkpt><trkpt lat="36.03514509737547" lon="-107.08600536317304"><ele>2194.0</ele><time>2026-05-02T18:02:28Z</time></trkpt><trkpt lat="36.03515227176343" lon="-107.08584267118943"><ele>2193.5</ele><time>2026-05-02T18:02:29Z</time></trkpt><trkpt lat="36.035154667804385" lon="-107.08568406511858"><ele>2193.0</ele><time>2026-05-02T18:02:30Z</time></trkpt><trkpt lat="36.03516061505142" lon="-107.08552349548042"><ele>2192.5</ele><time>2026-05-02T18:02:31Z</time></trkpt><trkpt lat="36.03515236728342" lon="-107.08536797735884"><ele>2192.0</ele><time>2026-05-02T18:02:32Z</time></trkpt><trkpt lat="36.035149414324856" lon="-107.08519131750509"><ele>2192.0</ele><time>2026-05-02T18:02:33Z</time></trkpt><trkpt lat="36.03517591990333" lon="-107.08499182097654"><ele>2192.0</ele><time>2026-05-02T18:02:34Z</time></trkpt><trkpt lat="36.035201704862224" lon="-107.08484756082088"><ele>2192.0</ele><time>2026-05-02T18:02:35Z</time></trkpt><trkpt lat="36.03521560548669" lon="-107.0847033722424"><ele>2192.0</ele><time>2026-05-02T18:02:36Z</time></trkpt><trkpt lat="36.03521314985114" lon="-107.08454678004561"><ele>2190.75</ele><time>2026-05-02T18:02:37Z</time></trkpt><trkpt lat="36.03520781957239" lon="-107.08438832342351"><ele>2189.5</ele><time>2026-05-02T18:02:38Z</time></trkpt><trkpt lat="36.035202447344005" lon="-107.08422359633069"><ele>2188.25</ele><time>2026-05-02T18:02:39Z</time></trkpt><trkpt lat="36.035187102644635" lon="-107.08403487601015"><ele>2187.0</ele><time>2026-05-02T18:02:40Z</time></trkpt><trkpt lat="36.03519120306934" lon="-107.08382238165109"><ele>2186.0</ele><time>2026-05-02T18:02:41Z</time></trkpt><trkpt lat="36.03520027770776" lon="-107.0836242215516"><ele>2185.0</ele><time>2026-05-02T18:02:42Z</time></trkpt><trkpt lat="36.035204225421474" lon="-107.08347702332686"><ele>2184.0</ele><time>2026-05-02T18:02:43Z</time></trkpt><trkpt lat="36.03520285734058" lon="-107.08335074268635"><ele>2183.0</ele><time>2026-05-02T18:02:44Z</time></trkpt><trkpt lat="36.035195287040096" lon="-107.08321716897571"><ele>2181.75</ele><time>2026-05-02T18:02:45Z</time></trkpt><trkpt lat="36.03518231289164" lon="-107.08306657129543"><ele>2180.5</ele><time>2026-05-02T18:02:46Z</time></trkpt><trkpt lat="36.035160807039425" lon="-107.08288610009804"><ele>2179.25</ele><time>2026-05-02T18:02:47Z</time></trkpt><trkpt lat="36.03513634086957" lon="-107.08272244896008"><ele>2178.0</ele><time>2026-05-02T18:02:48Z</time></trkpt><trkpt lat="36.035156189496945" lon="-107.08260764712949"><ele>2178.0</ele><time>2026-05-02T18:02:49Z</time></trkpt><trkpt lat="36.03517335292804" lon="-107.0825276468159"><ele>2178.0</ele><time>2026-05-02T18:02:50Z</time></trkpt><trkpt lat="36.035162041382044" lon="-107.08237735665251"><ele>2178.0</ele><time>2026-05-02T18:02:52Z</time></trkpt><trkpt lat="36.03509193916117" lon="-107.0824026256266"><ele>2178.0</ele><time>2026-05-02T18:02:53Z</time></trkpt><trkpt lat="36.03502922730083" lon="-107.08242228958186"><ele>2178.0</ele><time>2026-05-02T18:02:54Z</time></trkpt><trkpt lat="36.03493136700605" lon="-107.0824481754409"><ele>2178.0</ele><time>2026-05-02T18:02:55Z</time></trkpt><trkpt lat="36.03481376989553" lon="-107.08243661210254"><ele>2177.4</ele><time>2026-05-02T18:02:56Z</time></trkpt><trkpt lat="36.03468653959089" lon="-107.08239295997332"><ele>2176.8</ele><time>2026-05-02T18:02:57Z</time></trkpt><trkpt lat="36.03457001085672" lon="-107.08235233279211"><ele>2176.2</ele><time>2026-05-02T18:02:58Z</time></trkpt><trkpt lat="36.03448733284148" lon="-107.08237560895297"><ele>2175.6</ele><time>2026-05-02T18:02:59Z</time></trkpt><trkpt lat="36.03440121626389" lon="-107.08241451559637"><ele>2175.0</ele><time>2026-05-02T18:03:00Z</time></trkpt><trkpt lat="36.03433704357418" lon="-107.08245383092066"><ele>2175.0</ele><time>2026-05-02T18:03:01Z</time></trkpt><trkpt lat="36.0342711263329" lon="-107.08249592157301"><ele>2175.0</ele><time>2026-05-02T18:03:02Z</time></trkpt><trkpt lat="36.03418498267768" lon="-107.08256464589017"><ele>2175.0</ele><time>2026-05-02T18:03:03Z</time></trkpt><trkpt lat="36.03406339788757" lon="-107.0825722817492"><ele>2175.0</ele><time>2026-05-02T18:03:04Z</time></trkpt><trkpt lat="36.03393459707896" lon="-107.08253656331057"><ele>2175.0</ele><time>2026-05-02T18:03:05Z</time></trkpt><trkpt lat="36.033800198893914" lon="-107.08250581917406"><ele>2174.5</ele><time>2026-05-02T18:03:06Z</time></trkpt><trkpt lat="36.033664200340205" lon="-107.08246208275169"><ele>2174.0</ele><time>2026-05-02T18:03:07Z</time></trkpt><trkpt lat="36.03354143367411" lon="-107.08242173089484"><ele>2173.5</ele><time>2026-05-02T18:03:08Z</time></trkpt><trkpt lat="36.033408129394644" lon="-107.08242045245227"><ele>2173.0</ele><time>2026-05-02T18:03:09Z</time></trkpt><trkpt lat="36.03326035295665" lon="-107.08245691266397"><ele>2171.666666666667</ele><time>2026-05-02T18:03:10Z</time></trkpt><trkpt lat="36.033087357489315" lon="-107.08249084396057"><ele>2170.3333333333335</ele><time>2026-05-02T18:03:11Z</time></trkpt><trkpt lat="36.032942624672145" lon="-107.08247927756315"><ele>2169.0</ele><time>2026-05-02T18:03:12Z</time></trkpt><trkpt lat="36.03281295244338" lon="-107.0824638265543"><ele>2169.0</ele><time>2026-05-02T18:03:13Z</time></trkpt><trkpt lat="36.03266958615743" lon="-107.08248484052181"><ele>2169.0</ele><time>2026-05-02T18:03:14Z</time></trkpt><trkpt lat="36.03254334470701" lon="-107.08249667436064"><ele>2169.0</ele><time>2026-05-02T18:03:15Z</time></trkpt><trkpt lat="36.0324346115639" lon="-107.08250426103078"><ele>2169.0</ele><time>2026-05-02T18:03:16Z</time></trkpt><trkpt lat="36.03230041495547" lon="-107.08250898017033"><ele>2168.25</ele><time>2026-05-02T18:03:17Z</time></trkpt><trkpt lat="36.03217728250108" lon="-107.08247169917625"><ele>2167.5</ele><time>2026-05-02T18:03:18Z</time></trkpt><trkpt lat="36.03206547133973" lon="-107.082418163072"><ele>2166.75</ele><time>2026-05-02T18:03:19Z</time></trkpt><trkpt lat="36.0319679366428" lon="-107.08239294292048"><ele>2166.0</ele><time>2026-05-02T18:03:20Z</time></trkpt><trkpt lat="36.03184723597878" lon="-107.08237651776857"><ele>2165.75</ele><time>2026-05-02T18:03:21Z</time></trkpt><trkpt lat="36.03171016514914" lon="-107.08237128888233"><ele>2165.5</ele><time>2026-05-02T18:03:22Z</time></trkpt><trkpt lat="36.031601528879264" lon="-107.08232124856033"><ele>2165.25</ele><time>2026-05-02T18:03:23Z</time></trkpt><trkpt lat="36.03146323994127" lon="-107.08231508833552"><ele>2165.0</ele><time>2026-05-02T18:03:24Z</time></trkpt><trkpt lat="36.0313116754078" lon="-107.08230475685322"><ele>2165.5</ele><time>2026-05-02T18:03:25Z</time></trkpt><trkpt lat="36.031176041770784" lon="-107.08227960173126"><ele>2166.0</ele><time>2026-05-02T18:03:26Z</time></trkpt><trkpt lat="36.03106470129733" lon="-107.08225202043904"><ele>2166.5</ele><time>2026-05-02T18:03:27Z</time></trkpt><trkpt lat="36.030955832760334" lon="-107.08223727559415"><ele>2167.0</ele><time>2026-05-02T18:03:28Z</time></trkpt><trkpt lat="36.03083906575086" lon="-107.08224930922707"><ele>2167.0</ele><time>2026-05-02T18:03:29Z</time></trkpt><trkpt lat="36.03071098618044" lon="-107.08225905599731"><ele>2167.0</ele><time>2026-05-02T18:03:30Z</time></trkpt><trkpt lat="36.03061480923614" lon="-107.08224876414702"><ele>2167.0</ele><time>2026-05-02T18:03:31Z</time></trkpt><trkpt lat="36.03054929955467" lon="-107.0821862138476"><ele>2167.0</ele><time>2026-05-02T18:03:32Z</time></trkpt><trkpt lat="36.03050878023163" lon="-107.08208223353316"><ele>2167.0</ele><time>2026-05-02T18:03:33Z</time></trkpt><trkpt lat="36.030488320565105" lon="-107.08197998893966"><ele>2167.0</ele><time>2026-05-02T18:03:34Z</time></trkpt><trkpt lat="36.03038176796012" lon="-107.08195199571372"><ele>2167.0</ele><time>2026-05-02T18:03:36Z</time></trkpt><trkpt lat="36.030265217114774" lon="-107.0819569472971"><ele>2167.0</ele><time>2026-05-02T18:03:37Z</time></trkpt><trkpt lat="36.03018204637814" lon="-107.08193944068354"><ele>2167.0</ele><time>2026-05-02T18:03:38Z</time></trkpt><trkpt lat="36.03005656490955" lon="-107.08188561724006"><ele>2167.0</ele><time>2026-05-02T18:03:40Z</time></trkpt><trkpt lat="36.0299748379485" lon="-107.08186760054053"><ele>2168.0</ele><time>2026-05-02T18:03:41Z</time></trkpt><trkpt lat="36.029847740253516" lon="-107.08186818198448"><ele>2169.0</ele><time>2026-05-02T18:03:42Z</time></trkpt><trkpt lat="36.02968074388195" lon="-107.081884469645"><ele>2170.0</ele><time>2026-05-02T18:03:43Z</time></trkpt><trkpt lat="36.02950336139528" lon="-107.08190048030723"><ele>2170.0</ele><time>2026-05-02T18:03:44Z</time></trkpt><trkpt lat="36.02931057020874" lon="-107.08189715741801"><ele>2170.0</ele><time>2026-05-02T18:03:45Z</time></trkpt><trkpt lat="36.02911988909548" lon="-107.0818785816382"><ele>2170.0</ele><time>2026-05-02T18:03:46Z</time></trkpt><trkpt lat="36.02894559516592" lon="-107.08185545686977"><ele>2170.0</ele><time>2026-05-02T18:03:47Z</time></trkpt><trkpt lat="36.02878346967417" lon="-107.0818226884605"><ele>2170.0</ele><time>2026-05-02T18:03:48Z</time></trkpt><trkpt lat="36.02861032040804" lon="-107.08176873251107"><ele>2170.0</ele><time>2026-05-02T18:03:49Z</time></trkpt><trkpt lat="36.02843361086544" lon="-107.08172633646771"><ele>2171.0</ele><time>2026-05-02T18:03:50Z</time></trkpt><trkpt lat="36.028266176956556" lon="-107.08171220874901"><ele>2172.0</ele><time>2026-05-02T18:03:51Z</time></trkpt><trkpt lat="36.02811864860446" lon="-107.0817271250073"><ele>2173.0</ele><time>2026-05-02T18:03:52Z</time></trkpt><trkpt lat="36.02797848888495" lon="-107.08171537939272"><ele>2173.0</ele><time>2026-05-02T18:03:53Z</time></trkpt><trkpt lat="36.02786004185088" lon="-107.08166623124256"><ele>2173.0</ele><time>2026-05-02T18:03:54Z</time></trkpt><trkpt lat="36.027766249281385" lon="-107.08160697089757"><ele>2173.0</ele><time>2026-05-02T18:03:55Z</time></trkpt><trkpt lat="36.027660368899625" lon="-107.08154755896952"><ele>2173.0</ele><time>2026-05-02T18:03:56Z</time></trkpt><trkpt lat="36.02755425160166" lon="-107.0814474505025"><ele>2172.666666666667</ele><time>2026-05-02T18:03:57Z</time></trkpt><trkpt lat="36.02743217751882" lon="-107.08131860583022"><ele>2172.3333333333335</ele><time>2026-05-02T18:03:58Z</time></trkpt><trkpt lat="36.027273795495255" lon="-107.08120505573517"><ele>2172.0</ele><time>2026-05-02T18:03:59Z</time></trkpt><trkpt lat="36.02709209986316" lon="-107.08111392095947"><ele>2172.0</ele><time>2026-05-02T18:04:00Z</time></trkpt><trkpt lat="36.026922073606514" lon="-107.08105058451629"><ele>2172.0</ele><time>2026-05-02T18:04:01Z</time></trkpt><trkpt lat="36.0267627879167" lon="-107.0810159219268"><ele>2172.0</ele><time>2026-05-02T18:04:02Z</time></trkpt><trkpt lat="36.02663321854672" lon="-107.0810013492368"><ele>2171.7999999999997</ele><time>2026-05-02T18:04:03Z</time></trkpt><trkpt lat="36.02653849940749" lon="-107.08099511788012"><ele>2171.6</ele><time>2026-05-02T18:04:04Z</time></trkpt><trkpt lat="36.02646439899846" lon="-107.08098023997782"><ele>2171.3999999999996</ele><time>2026-05-02T18:04:05Z</time></trkpt><trkpt lat="36.02636966943916" lon="-107.08093306341566"><ele>2171.2</ele><time>2026-05-02T18:04:06Z</time></trkpt><trkpt lat="36.02625399957691" lon="-107.08087534312763"><ele>2171.0</ele><time>2026-05-02T18:04:07Z</time></trkpt><trkpt lat="36.026144173080304" lon="-107.08085056879747"><ele>2171.0</ele><time>2026-05-02T18:04:08Z</time></trkpt><trkpt lat="36.02601700537793" lon="-107.08089946793554"><ele>2171.0</ele><time>2026-05-02T18:04:09Z</time></trkpt><trkpt lat="36.02589742636554" lon="-107.0809005636942"><ele>2171.0</ele><time>2026-05-02T18:04:10Z</time></trkpt><trkpt lat="36.02578670200424" lon="-107.08085384818644"><ele>2171.0</ele><time>2026-05-02T18:04:11Z</time></trkpt><trkpt lat="36.02566026318206" lon="-107.08083101705668"><ele>2171.333333333333</ele><time>2026-05-02T18:04:12Z</time></trkpt><trkpt lat="36.025502480643894" lon="-107.08085118812878"><ele>2171.6666666666665</ele><time>2026-05-02T18:04:13Z</time></trkpt><trkpt lat="36.025326207446604" lon="-107.08082827774213"><ele>2172.0</ele><time>2026-05-02T18:04:14Z</time></trkpt><trkpt lat="36.02515081839189" lon="-107.08075733936354"><ele>2171.6666666666665</ele><time>2026-05-02T18:04:15Z</time></trkpt><trkpt lat="36.024974802150496" lon="-107.08074227457655"><ele>2171.333333333333</ele><time>2026-05-02T18:04:16Z</time></trkpt><trkpt lat="36.02483391003023" lon="-107.08075865985245"><ele>2171.0</ele><time>2026-05-02T18:04:17Z</time></trkpt><trkpt lat="36.02466188311709" lon="-107.08072648941703"><ele>2171.0</ele><time>2026-05-02T18:04:18Z</time></trkpt><trkpt lat="36.02444598424606" lon="-107.0806899960574"><ele>2171.0</ele><time>2026-05-02T18:04:19Z</time></trkpt><trkpt lat="36.024238022667696" lon="-107.08070188531471"><ele>2171.0</ele><time>2026-05-02T18:04:20Z</time></trkpt><trkpt lat="36.0240911747179" lon="-107.08070911811471"><ele>2169.0</ele><time>2026-05-02T18:04:21Z</time></trkpt><trkpt lat="36.02397273628942" lon="-107.08069857615256"><ele>2167.0</ele><time>2026-05-02T18:04:22Z</time></trkpt><trkpt lat="36.0238216381129" lon="-107.08066606662302"><ele>2165.0</ele><time>2026-05-02T18:04:23Z</time></trkpt><trkpt lat="36.02366343012665" lon="-107.08060155576766"><ele>2163.0</ele><time>2026-05-02T18:04:24Z</time></trkpt><trkpt lat="36.023506463359254" lon="-107.08056855252538"><ele>2163.0</ele><time>2026-05-02T18:04:25Z</time></trkpt><trkpt lat="36.0233711785375" lon="-107.08062144290693"><ele>2163.0</ele><time>2026-05-02T18:04:26Z</time></trkpt><trkpt lat="36.023236825877184" lon="-107.08068079091595"><ele>2163.0</ele><time>2026-05-02T18:04:27Z</time></trkpt><trkpt lat="36.02310088356282" lon="-107.08077754388447"><ele>2163.0</ele><time>2026-05-02T18:04:28Z</time></trkpt><trkpt lat="36.02294236222074" lon="-107.08082488051858"><ele>2161.5</ele><time>2026-05-02T18:04:29Z</time></trkpt><trkpt lat="36.022793898100645" lon="-107.08084045626399"><ele>2160.0</ele><time>2026-05-02T18:04:30Z</time></trkpt><trkpt lat="36.02267227533903" lon="-107.08088882450733"><ele>2158.5</ele><time>2026-05-02T18:04:31Z</time></trkpt><trkpt lat="36.0225242924627" lon="-107.08095997063597"><ele>2157.0</ele><time>2026-05-02T18:04:32Z</time></trkpt><trkpt lat="36.022360481489294" lon="-107.0809841537424"><ele>2156.75</ele><time>2026-05-02T18:04:33Z</time></trkpt><trkpt lat="36.02219779424552" lon="-107.08101534369096"><ele>2156.5</ele><time>2026-05-02T18:04:34Z</time></trkpt><trkpt lat="36.02205942575939" lon="-107.08107799554578"><ele>2156.25</ele><time>2026-05-02T18:04:35Z</time></trkpt><trkpt lat="36.02193080135175" lon="-107.08110517339207"><ele>2156.0</ele><time>2026-05-02T18:04:36Z</time></trkpt><trkpt lat="36.021810554859684" lon="-107.08104811525575"><ele>2156.0</ele><time>2026-05-02T18:04:37Z</time></trkpt><trkpt lat="36.02168001435783" lon="-107.08094040282586"><ele>2156.0</ele><time>2026-05-02T18:04:38Z</time></trkpt><trkpt lat="36.02154736439293" lon="-107.0808750532922"><ele>2156.0</ele><time>2026-05-02T18:04:39Z</time></trkpt><trkpt lat="36.021389970500344" lon="-107.08090188836447"><ele>2156.333333333333</ele><time>2026-05-02T18:04:40Z</time></trkpt><trkpt lat="36.0212700002059" lon="-107.08096508757858"><ele>2156.6666666666665</ele><time>2026-05-02T18:04:41Z</time></trkpt><trkpt lat="36.02105494908735" lon="-107.08103442734034"><ele>2157.0</ele><time>2026-05-02T18:04:42Z</time></trkpt><trkpt lat="36.020842759656595" lon="-107.08109855734706"><ele>2158.0</ele><time>2026-05-02T18:04:43Z</time></trkpt><trkpt lat="36.02061508197232" lon="-107.08116497371795"><ele>2159.0</ele><time>2026-05-02T18:04:44Z</time></trkpt><trkpt lat="36.020399759357566" lon="-107.08123773327587"><ele>2159.0</ele><time>2026-05-02T18:04:45Z</time></trkpt><trkpt lat="36.020182599730674" lon="-107.08129053315197"><ele>2159.0</ele><time>2026-05-02T18:04:46Z</time></trkpt><trkpt lat="36.01997976373031" lon="-107.0813683973302"><ele>2159.0</ele><time>2026-05-02T18:04:47Z</time></trkpt><trkpt lat="36.01977419183635" lon="-107.08143608344727"><ele>2158.6666666666665</ele><time>2026-05-02T18:04:48Z</time></trkpt><trkpt lat="36.01959826307323" lon="-107.08148497813666"><ele>2158.3333333333335</ele><time>2026-05-02T18:04:49Z</time></trkpt><trkpt lat="36.01945095275704" lon="-107.08152561790344"><ele>2158.0</ele><time>2026-05-02T18:04:50Z</time></trkpt><trkpt lat="36.01929589961917" lon="-107.08154831091885"><ele>2158.666666666667</ele><time>2026-05-02T18:04:51Z</time></trkpt><trkpt lat="36.019129875229964" lon="-107.08151871321178"><ele>2159.3333333333335</ele><time>2026-05-02T18:04:52Z</time></trkpt><trkpt lat="36.018950043438736" lon="-107.08150745179655"><ele>2160.0</ele><time>2026-05-02T18:04:53Z</time></trkpt><trkpt lat="36.018761632978276" lon="-107.08154122079206"><ele>2160.0</ele><time>2026-05-02T18:04:54Z</time></trkpt><trkpt lat="36.01854861537166" lon="-107.0815880967214"><ele>2160.0</ele><time>2026-05-02T18:04:55Z</time></trkpt><trkpt lat="36.01832924589129" lon="-107.0816107375479"><ele>2160.0</ele><time>2026-05-02T18:04:56Z</time></trkpt><trkpt lat="36.018147811674886" lon="-107.08161319167876"><ele>2161.0</ele><time>2026-05-02T18:04:57Z</time></trkpt><trkpt lat="36.01802223258215" lon="-107.08159858906875"><ele>2162.0</ele><time>2026-05-02T18:04:58Z</time></trkpt><trkpt lat="36.017936799340625" lon="-107.08158553495558"><ele>2163.0</ele><time>2026-05-02T18:04:59Z</time></trkpt><trkpt lat="36.017858541095286" lon="-107.08154002619162"><ele>2164.0</ele><time>2026-05-02T18:05:00Z</time></trkpt><trkpt lat="36.017837313536184" lon="-107.08143479562789"><ele>2165.0</ele><time>2026-05-02T18:05:01Z</time></trkpt><trkpt lat="36.01783324009798" lon="-107.08130029471111"><ele>2165.0</ele><time>2026-05-02T18:05:02Z</time></trkpt><trkpt lat="36.01787483672695" lon="-107.08114537327545"><ele>2165.0</ele><time>2026-05-02T18:05:03Z</time></trkpt><trkpt lat="36.01795385017175" lon="-107.08096346424436"><ele>2165.0</ele><time>2026-05-02T18:05:04Z</time></trkpt><trkpt lat="36.01801892584973" lon="-107.08078171595525"><ele>2166.6666666666665</ele><time>2026-05-02T18:05:05Z</time></trkpt><trkpt lat="36.018056846314636" lon="-107.08058709650385"><ele>2168.3333333333335</ele><time>2026-05-02T18:05:06Z</time></trkpt><trkpt lat="36.01807381562418" lon="-107.0803972259167"><ele>2170.0</ele><time>2026-05-02T18:05:07Z</time></trkpt><trkpt lat="36.01812581292033" lon="-107.08020687542898"><ele>2170.0</ele><time>2026-05-02T18:05:08Z</time></trkpt><trkpt lat="36.018188730913664" lon="-107.08003829502834"><ele>2170.0</ele><time>2026-05-02T18:05:09Z</time></trkpt><trkpt lat="36.01820621658952" lon="-107.07993042029986"><ele>2170.0</ele><time>2026-05-02T18:05:10Z</time></trkpt><trkpt lat="36.018208036191055" lon="-107.07985247033423"><ele>2170.0</ele><time>2026-05-02T18:05:11Z</time></trkpt><trkpt lat="36.018167805184945" lon="-107.0797348136946"><ele>2170.0</ele><time>2026-05-02T18:05:13Z</time></trkpt><trkpt lat="36.01809265376378" lon="-107.07967450989416"><ele>2170.25</ele><time>2026-05-02T18:05:14Z</time></trkpt><trkpt lat="36.01797013597087" lon="-107.07963888876054"><ele>2170.5</ele><time>2026-05-02T18:05:15Z</time></trkpt><trkpt lat="36.01785133183977" lon="-107.07957739497809"><ele>2170.75</ele><time>2026-05-02T18:05:16Z</time></trkpt><trkpt lat="36.01772208690631" lon="-107.07953012613055"><ele>2171.0</ele><time>2026-05-02T18:05:17Z</time></trkpt><trkpt lat="36.01759280247081" lon="-107.07948127113725"><ele>2171.0</ele><time>2026-05-02T18:05:18Z</time></trkpt><trkpt lat="36.01749679644522" lon="-107.07942658454611"><ele>2171.0</ele><time>2026-05-02T18:05:19Z</time></trkpt><trkpt lat="36.017416993498145" lon="-107.07937577129954"><ele>2171.0</ele><time>2026-05-02T18:05:20Z</time></trkpt><trkpt lat="36.01729035406594" lon="-107.07935637036802"><ele>2171.0</ele><time>2026-05-02T18:05:22Z</time></trkpt><trkpt lat="36.01722833416698" lon="-107.07927845632727"><ele>2171.0</ele><time>2026-05-02T18:05:23Z</time></trkpt><trkpt lat="36.01717616772277" lon="-107.07916519070218"><ele>2172.6</ele><time>2026-05-02T18:05:24Z</time></trkpt><trkpt lat="36.01709485796456" lon="-107.07908486096872"><ele>2174.2</ele><time>2026-05-02T18:05:25Z</time></trkpt><trkpt lat="36.01698399310126" lon="-107.07903465782553"><ele>2175.8</ele><time>2026-05-02T18:05:26Z</time></trkpt><trkpt lat="36.016884570640364" lon="-107.07902543373193"><ele>2177.4</ele><time>2026-05-02T18:05:27Z</time></trkpt><trkpt lat="36.016822328354294" lon="-107.07908629681052"><ele>2179.0</ele><time>2026-05-02T18:05:28Z</time></trkpt><trkpt lat="36.016789054871666" lon="-107.07916916667534"><ele>2179.0</ele><time>2026-05-02T18:05:29Z</time></trkpt><trkpt lat="36.01671598626538" lon="-107.07927399393829"><ele>2179.0</ele><time>2026-05-02T18:05:30Z</time></trkpt><trkpt lat="36.0166312327021" lon="-107.07938690127952"><ele>2179.0</ele><time>2026-05-02T18:05:31Z</time></trkpt><trkpt lat="36.016519659159805" lon="-107.0794036754788"><ele>2179.0</ele><time>2026-05-02T18:05:32Z</time></trkpt><trkpt lat="36.01640603526602" lon="-107.07942829969028"><ele>2180.25</ele><time>2026-05-02T18:05:33Z</time></trkpt><trkpt lat="36.01627063919348" lon="-107.07947818957288"><ele>2181.5</ele><time>2026-05-02T18:05:34Z</time></trkpt><trkpt lat="36.016150102495395" lon="-107.07952385199988"><ele>2182.75</ele><time>2026-05-02T18:05:35Z</time></trkpt><trkpt lat="36.01605584914921" lon="-107.07954663869926"><ele>2184.0</ele><time>2026-05-02T18:05:36Z</time></trkpt><trkpt lat="36.015936107483135" lon="-107.0796217430101"><ele>2183.25</ele><time>2026-05-02T18:05:37Z</time></trkpt><trkpt lat="36.01579413983695" lon="-107.0796659671725"><ele>2182.5</ele><time>2026-05-02T18:05:38Z</time></trkpt><trkpt lat="36.01564409375919" lon="-107.07962907284374"><ele>2181.75</ele><time>2026-05-02T18:05:39Z</time></trkpt><trkpt lat="36.01552663622824" lon="-107.07958607384742"><ele>2181.0</ele><time>2026-05-02T18:05:40Z</time></trkpt><trkpt lat="36.01546390252268" lon="-107.07951669209817"><ele>2181.0</ele><time>2026-05-02T18:05:41Z</time></trkpt><trkpt lat="36.01541294182481" lon="-107.07938806469626"><ele>2181.0</ele><time>2026-05-02T18:05:42Z</time></trkpt><trkpt lat="36.015372851691" lon="-107.07921053842378"><ele>2181.0</ele><time>2026-05-02T18:05:43Z</time></trkpt><trkpt lat="36.01535180964139" lon="-107.07904738425188"><ele>2181.0</ele><time>2026-05-02T18:05:44Z</time></trkpt><trkpt lat="36.01530599039447" lon="-107.07892465560003"><ele>2182.4</ele><time>2026-05-02T18:05:45Z</time></trkpt><trkpt lat="36.0152608412954" lon="-107.07884341893708"><ele>2183.8</ele><time>2026-05-02T18:05:46Z</time></trkpt><trkpt lat="36.01532722541225" lon="-107.07868732409541"><ele>2185.2000000000003</ele><time>2026-05-02T18:05:48Z</time></trkpt><trkpt lat="36.01537531967636" lon="-107.07858722293612"><ele>2186.6</ele><time>2026-05-02T18:05:49Z</time></trkpt><trkpt lat="36.015380683493575" lon="-107.07846394553569"><ele>2188.0</ele><time>2026-05-02T18:05:50Z</time></trkpt><trkpt lat="36.01539199302312" lon="-107.07837049274133"><ele>2188.0</ele><time>2026-05-02T18:05:51Z</time></trkpt><trkpt lat="36.01547652094141" lon="-107.07830092696446"><ele>2188.0</ele><time>2026-05-02T18:05:52Z</time></trkpt><trkpt lat="36.01552580849232" lon="-107.0781701460634"><ele>2188.0</ele><time>2026-05-02T18:05:53Z</time></trkpt><trkpt lat="36.01549625868891" lon="-107.07801134401049"><ele>2188.0</ele><time>2026-05-02T18:05:54Z</time></trkpt><trkpt lat="36.01544552377194" lon="-107.07789186416794"><ele>2189.2000000000003</ele><time>2026-05-02T18:05:55Z</time></trkpt><trkpt lat="36.01539098857522" lon="-107.07777813491826"><ele>2190.4</ele><time>2026-05-02T18:05:56Z</time></trkpt><trkpt lat="36.01539634180954" lon="-107.07768862107568"><ele>2191.6000000000004</ele><time>2026-05-02T18:05:57Z</time></trkpt><trkpt lat="36.0154631523883" lon="-107.0776211103616"><ele>2192.8</ele><time>2026-05-02T18:05:58Z</time></trkpt><trkpt lat="36.015560388210325" lon="-107.07752977460996"><ele>2194.0</ele><time>2026-05-02T18:05:59Z</time></trkpt><trkpt lat="36.01564328845833" lon="-107.07749805345617"><ele>2194.0</ele><time>2026-05-02T18:06:00Z</time></trkpt><trkpt lat="36.015728209041704" lon="-107.07755909321848"><ele>2194.0</ele><time>2026-05-02T18:06:01Z</time></trkpt><trkpt lat="36.0158061203109" lon="-107.07758493398335"><ele>2194.0</ele><time>2026-05-02T18:06:02Z</time></trkpt><trkpt lat="36.015869897218614" lon="-107.07752031773896"><ele>2194.0</ele><time>2026-05-02T18:06:03Z</time></trkpt><trkpt lat="36.01595300671138" lon="-107.0773604474502"><ele>2194.0</ele><time>2026-05-02T18:06:04Z</time></trkpt><trkpt lat="36.016057364463" lon="-107.07724118981339"><ele>2195.0</ele><time>2026-05-02T18:06:05Z</time></trkpt><trkpt lat="36.016111214796425" lon="-107.07710781208803"><ele>2196.0</ele><time>2026-05-02T18:06:06Z</time></trkpt><trkpt lat="36.01613972273846" lon="-107.07696401378378"><ele>2197.0</ele><time>2026-05-02T18:06:07Z</time></trkpt><trkpt lat="36.01617892974047" lon="-107.0768620459829"><ele>2198.0</ele><time>2026-05-02T18:06:08Z</time></trkpt><trkpt lat="36.01613164588553" lon="-107.07676758490133"><ele>2199.0</ele><time>2026-05-02T18:06:10Z</time></trkpt><trkpt lat="36.015998985094356" lon="-107.07669622957086"><ele>2199.0</ele><time>2026-05-02T18:06:11Z</time></trkpt><trkpt lat="36.015862710263505" lon="-107.07660652972358"><ele>2199.0</ele><time>2026-05-02T18:06:12Z</time></trkpt><trkpt lat="36.01573633755324" lon="-107.07650000227933"><ele>2199.0</ele><time>2026-05-02T18:06:13Z</time></trkpt><trkpt lat="36.0155871270904" lon="-107.07641845563307"><ele>2199.0</ele><time>2026-05-02T18:06:14Z</time></trkpt><trkpt lat="36.0154228344706" lon="-107.07636070376356"><ele>2199.0</ele><time>2026-05-02T18:06:15Z</time></trkpt><trkpt lat="36.01528488301695" lon="-107.07630870075722"><ele>2199.0</ele><time>2026-05-02T18:06:16Z</time></trkpt><trkpt lat="36.01512941206147" lon="-107.07626957177207"><ele>2199.0</ele><time>2026-05-02T18:06:17Z</time></trkpt><trkpt lat="36.01497732975595" lon="-107.07622463214933"><ele>2199.0</ele><time>2026-05-02T18:06:18Z</time></trkpt><trkpt lat="36.014860935761604" lon="-107.07619446548783"><ele>2199.0</ele><time>2026-05-02T18:06:19Z</time></trkpt><trkpt lat="36.01477875696438" lon="-107.0761467953267"><ele>2199.0</ele><time>2026-05-02T18:06:20Z</time></trkpt><trkpt lat="36.01472350447883" lon="-107.076011754181"><ele>2199.0</ele><time>2026-05-02T18:06:21Z</time></trkpt><trkpt lat="36.01467826427808" lon="-107.07584476382803"><ele>2199.0</ele><time>2026-05-02T18:06:22Z</time></trkpt><trkpt lat="36.0146520999516" lon="-107.07574677403443"><ele>2199.0</ele><time>2026-05-02T18:06:23Z</time></trkpt><trkpt lat="36.01475608182105" lon="-107.07559715419883"><ele>2199.0</ele><time>2026-05-02T18:06:25Z</time></trkpt><trkpt lat="36.0148115947615" lon="-107.07550895543115"><ele>2198.3333333333335</ele><time>2026-05-02T18:06:26Z</time></trkpt><trkpt lat="36.01494808116149" lon="-107.07538004834016"><ele>2197.666666666667</ele><time>2026-05-02T18:06:27Z</time></trkpt><trkpt lat="36.01505844038537" lon="-107.07520512465402"><ele>2197.0</ele><time>2026-05-02T18:06:28Z</time></trkpt><trkpt lat="36.01516046827791" lon="-107.0750615665178"><ele>2196.0</ele><time>2026-05-02T18:06:29Z</time></trkpt><trkpt lat="36.015247553889274" lon="-107.07491420957066"><ele>2195.0</ele><time>2026-05-02T18:06:30Z</time></trkpt><trkpt lat="36.01533544513613" lon="-107.07475848020566"><ele>2194.0</ele><time>2026-05-02T18:06:31Z</time></trkpt><trkpt lat="36.01545063240986" lon="-107.07461936469834"><ele>2194.0</ele><time>2026-05-02T18:06:32Z</time></trkpt><trkpt lat="36.01554173476299" lon="-107.07451717460454"><ele>2194.0</ele><time>2026-05-02T18:06:33Z</time></trkpt><trkpt lat="36.01564235681784" lon="-107.07434328808193"><ele>2194.0</ele><time>2026-05-02T18:06:34Z</time></trkpt><trkpt lat="36.015786603003264" lon="-107.07414357206416"><ele>2194.0</ele><time>2026-05-02T18:06:35Z</time></trkpt><trkpt lat="36.01591511702762" lon="-107.07393817129471"><ele>2194.0</ele><time>2026-05-02T18:06:36Z</time></trkpt><trkpt lat="36.01604122619743" lon="-107.0737511671869"><ele>2194.0</ele><time>2026-05-02T18:06:37Z</time></trkpt><trkpt lat="36.016156815064946" lon="-107.07358814953282"><ele>2194.0</ele><time>2026-05-02T18:06:38Z</time></trkpt><trkpt lat="36.01626481332378" lon="-107.07344681242121"><ele>2194.0</ele><time>2026-05-02T18:06:39Z</time></trkpt><trkpt lat="36.01635562356308" lon="-107.07329379724018"><ele>2194.0</ele><time>2026-05-02T18:06:40Z</time></trkpt><trkpt lat="36.01645536088916" lon="-107.07312078734026"><ele>2195.0</ele><time>2026-05-02T18:06:41Z</time></trkpt><trkpt lat="36.016584722285685" lon="-107.07292800424531"><ele>2196.0</ele><time>2026-05-02T18:06:42Z</time></trkpt><trkpt lat="36.0166858150009" lon="-107.07277868856805"><ele>2197.0</ele><time>2026-05-02T18:06:43Z</time></trkpt><trkpt lat="36.016757831694406" lon="-107.07264510147587"><ele>2195.3333333333335</ele><time>2026-05-02T18:06:44Z</time></trkpt><trkpt lat="36.01685048298283" lon="-107.07249919698944"><ele>2193.6666666666665</ele><time>2026-05-02T18:06:45Z</time></trkpt><trkpt lat="36.016965531880366" lon="-107.07232814940099"><ele>2192.0</ele><time>2026-05-02T18:06:46Z</time></trkpt><trkpt lat="36.01706710490799" lon="-107.07219876030638"><ele>2192.0</ele><time>2026-05-02T18:06:47Z</time></trkpt><trkpt lat="36.017164980098286" lon="-107.07206935506201"><ele>2192.0</ele><time>2026-05-02T18:06:48Z</time></trkpt><trkpt lat="36.017245272449294" lon="-107.07194351085951"><ele>2192.0</ele><time>2026-05-02T18:06:49Z</time></trkpt><trkpt lat="36.01732004118583" lon="-107.07181555821433"><ele>2192.0</ele><time>2026-05-02T18:06:50Z</time></trkpt><trkpt lat="36.017410099950986" lon="-107.0716746402093"><ele>2189.6666666666665</ele><time>2026-05-02T18:06:51Z</time></trkpt><trkpt lat="36.017525813906076" lon="-107.07151650685998"><ele>2187.3333333333335</ele><time>2026-05-02T18:06:52Z</time></trkpt><trkpt lat="36.017626500079245" lon="-107.07135688414809"><ele>2185.0</ele><time>2026-05-02T18:06:53Z</time></trkpt><trkpt lat="36.01769674171115" lon="-107.07123515574686"><ele>2185.0</ele><time>2026-05-02T18:06:54Z</time></trkpt><trkpt lat="36.017767647663234" lon="-107.07114810943307"><ele>2185.0</ele><time>2026-05-02T18:06:55Z</time></trkpt><trkpt lat="36.017829389549796" lon="-107.07108134436162"><ele>2185.0</ele><time>2026-05-02T18:06:56Z</time></trkpt><trkpt lat="36.01787152054206" lon="-107.07101543554225"><ele>2185.0</ele><time>2026-05-02T18:06:57Z</time></trkpt><trkpt lat="36.01791984404675" lon="-107.07093157923838"><ele>2185.0</ele><time>2026-05-02T18:06:58Z</time></trkpt><trkpt lat="36.0179930538154" lon="-107.07082881154842"><ele>2185.0</ele><time>2026-05-02T18:06:59Z</time></trkpt><trkpt lat="36.018066019997946" lon="-107.0706990778277"><ele>2184.0</ele><time>2026-05-02T18:07:00Z</time></trkpt><trkpt lat="36.01815984848495" lon="-107.07054433891592"><ele>2183.0</ele><time>2026-05-02T18:07:01Z</time></trkpt><trkpt lat="36.01826550774869" lon="-107.0703964125786"><ele>2182.0</ele><time>2026-05-02T18:07:02Z</time></trkpt><trkpt lat="36.01836258924948" lon="-107.07025190538397"><ele>2181.75</ele><time>2026-05-02T18:07:03Z</time></trkpt><trkpt lat="36.01845631899604" lon="-107.07010139316412"><ele>2181.5</ele><time>2026-05-02T18:07:04Z</time></trkpt><trkpt lat="36.018531111442975" lon="-107.06997098158693"><ele>2181.25</ele><time>2026-05-02T18:07:05Z</time></trkpt><trkpt lat="36.018605165132854" lon="-107.06985589282355"><ele>2181.0</ele><time>2026-05-02T18:07:06Z</time></trkpt><trkpt lat="36.01869937277803" lon="-107.06973346247115"><ele>2180.2</ele><time>2026-05-02T18:07:07Z</time></trkpt><trkpt lat="36.01877928004018" lon="-107.06963065133911"><ele>2179.3999999999996</ele><time>2026-05-02T18:07:08Z</time></trkpt><trkpt lat="36.0188558818922" lon="-107.06952702794247"><ele>2178.6</ele><time>2026-05-02T18:07:09Z</time></trkpt><trkpt lat="36.01893935461246" lon="-107.06942133111006"><ele>2177.7999999999997</ele><time>2026-05-02T18:07:10Z</time></trkpt><trkpt lat="36.01900013858708" lon="-107.06935312608466"><ele>2177.0</ele><time>2026-05-02T18:07:11Z</time></trkpt><trkpt lat="36.01905742706014" lon="-107.06931194211913"><ele>2177.0</ele><time>2026-05-02T18:07:12Z</time></trkpt><trkpt lat="36.01912413210282" lon="-107.06928329170778"><ele>2177.0</ele><time>2026-05-02T18:07:13Z</time></trkpt><trkpt lat="36.01922424165751" lon="-107.06930653986898"><ele>2177.0</ele><time>2026-05-02T18:07:14Z</time></trkpt><trkpt lat="36.01936475742397" lon="-107.06937796730682"><ele>2177.0</ele><time>2026-05-02T18:07:15Z</time></trkpt><trkpt lat="36.01951762461726" lon="-107.0694249148494"><ele>2176.333333333333</ele><time>2026-05-02T18:07:16Z</time></trkpt><trkpt lat="36.019665441824216" lon="-107.0694762933128"><ele>2175.6666666666665</ele><time>2026-05-02T18:07:17Z</time></trkpt><trkpt lat="36.019832698749184" lon="-107.06954803153492"><ele>2175.0</ele><time>2026-05-02T18:07:18Z</time></trkpt><trkpt lat="36.019973751449555" lon="-107.06963955163984"><ele>2174.4</ele><time>2026-05-02T18:07:19Z</time></trkpt><trkpt lat="36.0200718648941" lon="-107.06971048249409"><ele>2173.8</ele><time>2026-05-02T18:07:20Z</time></trkpt><trkpt lat="36.02012160277449" lon="-107.0697610720649"><ele>2173.2</ele><time>2026-05-02T18:07:21Z</time></trkpt><trkpt lat="36.02013696297262" lon="-107.06988597812968"><ele>2172.6</ele><time>2026-05-02T18:07:23Z</time></trkpt><trkpt lat="36.02010761277683" lon="-107.0700049707872"><ele>2172.0</ele><time>2026-05-02T18:07:24Z</time></trkpt><trkpt lat="36.02008589261095" lon="-107.07019676593607"><ele>2171.75</ele><time>2026-05-02T18:07:25Z</time></trkpt><trkpt lat="36.020082611792546" lon="-107.07040873685598"><ele>2171.5</ele><time>2026-05-02T18:07:26Z</time></trkpt><trkpt lat="36.02004412668678" lon="-107.07054050518441"><ele>2171.25</ele><time>2026-05-02T18:07:27Z</time></trkpt><trkpt lat="36.01999708207383" lon="-107.07064050434833"><ele>2171.0</ele><time>2026-05-02T18:07:28Z</time></trkpt><trkpt lat="36.01993149300547" lon="-107.07071180529732"><ele>2171.6</ele><time>2026-05-02T18:07:29Z</time></trkpt><trkpt lat="36.01983298321034" lon="-107.07079442776329"><ele>2172.2</ele><time>2026-05-02T18:07:30Z</time></trkpt><trkpt lat="36.01976960424807" lon="-107.07086667897315"><ele>2172.8</ele><time>2026-05-02T18:07:31Z</time></trkpt><trkpt lat="36.0197460058751" lon="-107.07098613487251"><ele>2173.4</ele><time>2026-05-02T18:07:32Z</time></trkpt><trkpt lat="36.01971012028085" lon="-107.07113281617436"><ele>2174.0</ele><time>2026-05-02T18:07:33Z</time></trkpt><trkpt lat="36.01964526531491" lon="-107.07126584919062"><ele>2174.0</ele><time>2026-05-02T18:07:34Z</time></trkpt><trkpt lat="36.01956547957296" lon="-107.07135744033816"><ele>2174.0</ele><time>2026-05-02T18:07:35Z</time></trkpt><trkpt lat="36.0195091535197" lon="-107.07147829420978"><ele>2174.0</ele><time>2026-05-02T18:07:36Z</time></trkpt><trkpt lat="36.01950545343224" lon="-107.07155685935658"><ele>2174.0</ele><time>2026-05-02T18:07:37Z</time></trkpt><trkpt lat="36.01954302594588" lon="-107.07166146086678"><ele>2174.0</ele><time>2026-05-02T18:07:38Z</time></trkpt><trkpt lat="36.01962286273537" lon="-107.07180241984763"><ele>2173.75</ele><time>2026-05-02T18:07:39Z</time></trkpt><trkpt lat="36.01968766407163" lon="-107.07194360627142"><ele>2173.5</ele><time>2026-05-02T18:07:40Z</time></trkpt><trkpt lat="36.019688913308585" lon="-107.07204624063682"><ele>2173.25</ele><time>2026-05-02T18:07:41Z</time></trkpt><trkpt lat="36.019637736996984" lon="-107.07217227104064"><ele>2173.0</ele><time>2026-05-02T18:07:42Z</time></trkpt><trkpt lat="36.01955220255988" lon="-107.07231608848504"><ele>2173.0</ele><time>2026-05-02T18:07:43Z</time></trkpt><trkpt lat="36.01950531343788" lon="-107.07241962514968"><ele>2173.0</ele><time>2026-05-02T18:07:44Z</time></trkpt><trkpt lat="36.019400303751716" lon="-107.07253830728739"><ele>2173.0</ele><time>2026-05-02T18:07:45Z</time></trkpt><trkpt lat="36.01929331824617" lon="-107.0726746455799"><ele>2173.0</ele><time>2026-05-02T18:07:46Z</time></trkpt><trkpt lat="36.01925555344853" lon="-107.07283571898486"><ele>2172.0</ele><time>2026-05-02T18:07:47Z</time></trkpt><trkpt lat="36.01920691161239" lon="-107.0730098163453"><ele>2171.0</ele><time>2026-05-02T18:07:48Z</time></trkpt><trkpt lat="36.019164706096056" lon="-107.07319674516057"><ele>2170.0</ele><time>2026-05-02T18:07:49Z</time></trkpt><trkpt lat="36.01913134228917" lon="-107.07337065866616"><ele>2173.25</ele><time>2026-05-02T18:07:50Z</time></trkpt><trkpt lat="36.01910477420553" lon="-107.07354262706508"><ele>2176.5</ele><time>2026-05-02T18:07:51Z</time></trkpt><trkpt lat="36.01906288237984" lon="-107.07368242721336"><ele>2179.75</ele><time>2026-05-02T18:07:52Z</time></trkpt><trkpt lat="36.01901178184616" lon="-107.073831560398"><ele>2183.0</ele><time>2026-05-02T18:07:53Z</time></trkpt><trkpt lat="36.01893524483858" lon="-107.07394917293348"><ele>2183.0</ele><time>2026-05-02T18:07:54Z</time></trkpt><trkpt lat="36.01886991857668" lon="-107.07405030418211"><ele>2183.0</ele><time>2026-05-02T18:07:55Z</time></trkpt><trkpt lat="36.01886104996761" lon="-107.07415137572724"><ele>2183.0</ele><time>2026-05-02T18:07:56Z</time></trkpt><trkpt lat="36.0188758352545" lon="-107.07425926168075"><ele>2183.0</ele><time>2026-05-02T18:07:57Z</time></trkpt><trkpt lat="36.01889783447094" lon="-107.07437585617862"><ele>2183.0</ele><time>2026-05-02T18:07:58Z</time></trkpt><trkpt lat="36.01890365775168" lon="-107.07455214771393"><ele>2181.4</ele><time>2026-05-02T18:07:59Z</time></trkpt><trkpt lat="36.01892197820269" lon="-107.07466560092041"><ele>2179.8</ele><time>2026-05-02T18:08:00Z</time></trkpt><trkpt lat="36.01899103283434" lon="-107.07471188283242"><ele>2178.2</ele><time>2026-05-02T18:08:01Z</time></trkpt><trkpt lat="36.019111225528135" lon="-107.07477783451952"><ele>2176.6</ele><time>2026-05-02T18:08:02Z</time></trkpt><trkpt lat="36.01923312083186" lon="-107.07486059475484"><ele>2175.0</ele><time>2026-05-02T18:08:03Z</time></trkpt><trkpt lat="36.01932430927646" lon="-107.07498288820553"><ele>2170.5</ele><time>2026-05-02T18:08:04Z</time></trkpt><trkpt lat="36.0193815042315" lon="-107.07507086641083"><ele>2166.0</ele><time>2026-05-02T18:08:05Z</time></trkpt><trkpt lat="36.01948831726947" lon="-107.07511299173377"><ele>2161.5</ele><time>2026-05-02T18:08:06Z</time></trkpt><trkpt lat="36.01963488706259" lon="-107.07519027672605"><ele>2157.0</ele><time>2026-05-02T18:08:07Z</time></trkpt><trkpt lat="36.019733438023344" lon="-107.07530572284935"><ele>2157.0</ele><time>2026-05-02T18:08:08Z</time></trkpt><trkpt lat="36.019824128560565" lon="-107.07540232933307"><ele>2157.0</ele><time>2026-05-02T18:08:09Z</time></trkpt><trkpt lat="36.019911947512625" lon="-107.07549195763369"><ele>2157.0</ele><time>2026-05-02T18:08:10Z</time></trkpt><trkpt lat="36.020015465286185" lon="-107.07554289581712"><ele>2157.0</ele><time>2026-05-02T18:08:11Z</time></trkpt><trkpt lat="36.02016286947984" lon="-107.07556442796783"><ele>2154.6666666666665</ele><time>2026-05-02T18:08:12Z</time></trkpt><trkpt lat="36.02033663776756" lon="-107.0756004461072"><ele>2152.333333333333</ele><time>2026-05-02T18:08:13Z</time></trkpt><trkpt lat="36.02051237214116" lon="-107.07562314656764"><ele>2150.0</ele><time>2026-05-02T18:08:14Z</time></trkpt><trkpt lat="36.02070633703136" lon="-107.07565981409647"><ele>2150.0</ele><time>2026-05-02T18:08:15Z</time></trkpt><trkpt lat="36.02089760120663" lon="-107.07571048928453"><ele>2150.0</ele><time>2026-05-02T18:08:16Z</time></trkpt><trkpt lat="36.02105364226182" lon="-107.07575112645307"><ele>2150.0</ele><time>2026-05-02T18:08:17Z</time></trkpt><trkpt lat="36.02121485480682" lon="-107.07579047347853"><ele>2150.6666666666665</ele><time>2026-05-02T18:08:18Z</time></trkpt><trkpt lat="36.02139902336098" lon="-107.07582998867724"><ele>2151.3333333333335</ele><time>2026-05-02T18:08:19Z</time></trkpt><trkpt lat="36.02154672673919" lon="-107.0758610416305"><ele>2152.0</ele><time>2026-05-02T18:08:20Z</time></trkpt><trkpt lat="36.021668549474526" lon="-107.07591273943434"><ele>2153.2</ele><time>2026-05-02T18:08:21Z</time></trkpt><trkpt lat="36.02179161698651" lon="-107.0759592455657"><ele>2154.3999999999996</ele><time>2026-05-02T18:08:22Z</time></trkpt><trkpt lat="36.02190233463439" lon="-107.07599257222938"><ele>2155.6000000000004</ele><time>2026-05-02T18:08:23Z</time></trkpt><trkpt lat="36.02196741797107" lon="-107.07597942174885"><ele>2156.8</ele><time>2026-05-02T18:08:24Z</time></trkpt><trkpt lat="36.02197652027381" lon="-107.075901565918"><ele>2158.0</ele><time>2026-05-02T18:08:25Z</time></trkpt><trkpt lat="36.02199789759499" lon="-107.07577877691187"><ele>2158.0</ele><time>2026-05-02T18:08:26Z</time></trkpt><trkpt lat="36.02203118046576" lon="-107.0756216984993"><ele>2158.0</ele><time>2026-05-02T18:08:27Z</time></trkpt><trkpt lat="36.02205862571491" lon="-107.07545916931012"><ele>2158.0</ele><time>2026-05-02T18:08:28Z</time></trkpt><trkpt lat="36.02208700864226" lon="-107.07531148633927"><ele>2158.0</ele><time>2026-05-02T18:08:29Z</time></trkpt><trkpt lat="36.022100453881286" lon="-107.07517863993279"><ele>2158.0</ele><time>2026-05-02T18:08:31Z</time></trkpt><trkpt lat="36.022085605895946" lon="-107.07498231670493"><ele>2158.0</ele><time>2026-05-02T18:08:33Z</time></trkpt><trkpt lat="36.022094378164795" lon="-107.07481088352482"><ele>2158.0</ele><time>2026-05-02T18:08:34Z</time></trkpt><trkpt lat="36.02209052808727" lon="-107.07466375243283"><ele>2158.0</ele><time>2026-05-02T18:08:35Z</time></trkpt><trkpt lat="36.022073352767585" lon="-107.07452596010312"><ele>2158.2000000000003</ele><time>2026-05-02T18:08:36Z</time></trkpt><trkpt lat="36.02204177027663" lon="-107.0744015866378"><ele>2158.4</ele><time>2026-05-02T18:08:37Z</time></trkpt><trkpt lat="36.02202765742521" lon="-107.07430386349549"><ele>2158.6000000000004</ele><time>2026-05-02T18:08:38Z</time></trkpt><trkpt lat="36.02202256638962" lon="-107.07417174203712"><ele>2158.8</ele><time>2026-05-02T18:08:39Z</time></trkpt><trkpt lat="36.02204270841681" lon="-107.07398439129913"><ele>2159.0</ele><time>2026-05-02T18:08:40Z</time></trkpt><trkpt lat="36.022086358438756" lon="-107.07381302243326"><ele>2157.5</ele><time>2026-05-02T18:08:41Z</time></trkpt><trkpt lat="36.02212280816114" lon="-107.0737081153719"><ele>2156.0</ele><time>2026-05-02T18:08:42Z</time></trkpt><trkpt lat="36.02226774865649" lon="-107.07356586911233"><ele>2154.5</ele><time>2026-05-02T18:08:44Z</time></trkpt><trkpt lat="36.02236965830897" lon="-107.07346289087421"><ele>2153.0</ele><time>2026-05-02T18:08:45Z</time></trkpt><trkpt lat="36.02247864366523" lon="-107.07335253771008"><ele>2153.75</ele><time>2026-05-02T18:08:46Z</time></trkpt><trkpt lat="36.022574264847734" lon="-107.07330404349216"><ele>2154.5</ele><time>2026-05-02T18:08:47Z</time></trkpt><trkpt lat="36.022702307800365" lon="-107.07325447162953"><ele>2155.25</ele><time>2026-05-02T18:08:48Z</time></trkpt><trkpt lat="36.0228321941266" lon="-107.07323471738383"><ele>2156.0</ele><time>2026-05-02T18:08:49Z</time></trkpt><trkpt lat="36.02295324286964" lon="-107.07326241796693"><ele>2157.4</ele><time>2026-05-02T18:08:50Z</time></trkpt><trkpt lat="36.023043752765545" lon="-107.07328668928065"><ele>2158.8</ele><time>2026-05-02T18:08:51Z</time></trkpt><trkpt lat="36.02313948444147" lon="-107.0732886221623"><ele>2160.2000000000003</ele><time>2026-05-02T18:08:52Z</time></trkpt><trkpt lat="36.023256110384764" lon="-107.07334855257903"><ele>2161.6</ele><time>2026-05-02T18:08:53Z</time></trkpt><trkpt lat="36.02335983076447" lon="-107.0734160179495"><ele>2163.0</ele><time>2026-05-02T18:08:54Z</time></trkpt><trkpt lat="36.0234651998549" lon="-107.073455395514"><ele>2163.0</ele><time>2026-05-02T18:08:55Z</time></trkpt><trkpt lat="36.02356194912725" lon="-107.0734580548505"><ele>2163.0</ele><time>2026-05-02T18:08:56Z</time></trkpt><trkpt lat="36.023636745718754" lon="-107.07342840933488"><ele>2163.0</ele><time>2026-05-02T18:08:57Z</time></trkpt><trkpt lat="36.02371705514876" lon="-107.07330742355255"><ele>2163.0</ele><time>2026-05-02T18:08:58Z</time></trkpt><trkpt lat="36.02379005651098" lon="-107.073236270784"><ele>2163.0</ele><time>2026-05-02T18:08:59Z</time></trkpt><trkpt lat="36.02389015271062" lon="-107.07317683778354"><ele>2161.6</ele><time>2026-05-02T18:09:00Z</time></trkpt><trkpt lat="36.023940346728125" lon="-107.07311342621045"><ele>2160.2000000000003</ele><time>2026-05-02T18:09:01Z</time></trkpt><trkpt lat="36.023986525786974" lon="-107.073021033968"><ele>2158.8</ele><time>2026-05-02T18:09:02Z</time></trkpt><trkpt lat="36.02404046837081" lon="-107.07285627195584"><ele>2157.4</ele><time>2026-05-02T18:09:03Z</time></trkpt><trkpt lat="36.024081477271835" lon="-107.07269684084808"><ele>2156.0</ele><time>2026-05-02T18:09:04Z</time></trkpt><trkpt lat="36.024119550104146" lon="-107.07251657595944"><ele>2156.5</ele><time>2026-05-02T18:09:05Z</time></trkpt><trkpt lat="36.024171217532135" lon="-107.07234508300395"><ele>2157.0</ele><time>2026-05-02T18:09:06Z</time></trkpt><trkpt lat="36.02421245460361" lon="-107.07217439019965"><ele>2157.5</ele><time>2026-05-02T18:09:07Z</time></trkpt><trkpt lat="36.02426444485837" lon="-107.0720133429011"><ele>2158.0</ele><time>2026-05-02T18:09:08Z</time></trkpt><trkpt lat="36.02432374688609" lon="-107.07187670167986"><ele>2158.0</ele><time>2026-05-02T18:09:09Z</time></trkpt><trkpt lat="36.024401406678564" lon="-107.0717337630978"><ele>2158.0</ele><time>2026-05-02T18:09:10Z</time></trkpt><trkpt lat="36.024455236757134" lon="-107.07158363389753"><ele>2158.0</ele><time>2026-05-02T18:09:11Z</time></trkpt><trkpt lat="36.02449208571985" lon="-107.071427614109"><ele>2158.0</ele><time>2026-05-02T18:09:12Z</time></trkpt><trkpt lat="36.02453016889456" lon="-107.07131138927572"><ele>2157.25</ele><time>2026-05-02T18:09:13Z</time></trkpt><trkpt lat="36.02459746412866" lon="-107.07122846235198"><ele>2156.5</ele><time>2026-05-02T18:09:14Z</time></trkpt><trkpt lat="36.02469080984471" lon="-107.07114553409502"><ele>2155.75</ele><time>2026-05-02T18:09:15Z</time></trkpt><trkpt lat="36.02478589144353" lon="-107.0710034043456"><ele>2155.0</ele><time>2026-05-02T18:09:16Z</time></trkpt><trkpt lat="36.0248632781537" lon="-107.07082944634922"><ele>2156.3333333333335</ele><time>2026-05-02T18:09:17Z</time></trkpt><trkpt lat="36.02494894844541" lon="-107.07062338679947"><ele>2157.6666666666665</ele><time>2026-05-02T18:09:18Z</time></trkpt><trkpt lat="36.02502701583878" lon="-107.07041564363735"><ele>2159.0</ele><time>2026-05-02T18:09:19Z</time></trkpt><trkpt lat="36.02509250836121" lon="-107.07026365027077"><ele>2159.0</ele><time>2026-05-02T18:09:20Z</time></trkpt><trkpt lat="36.025172034350675" lon="-107.0701188971401"><ele>2159.0</ele><time>2026-05-02T18:09:21Z</time></trkpt><trkpt lat="36.0252507141118" lon="-107.06995345716133"><ele>2159.0</ele><time>2026-05-02T18:09:22Z</time></trkpt><trkpt lat="36.02531377866264" lon="-107.06982644524572"><ele>2159.0</ele><time>2026-05-02T18:09:23Z</time></trkpt><trkpt lat="36.0253883966032" lon="-107.06968377067591"><ele>2156.5</ele><time>2026-05-02T18:09:24Z</time></trkpt><trkpt lat="36.02547762391381" lon="-107.06956684379654"><ele>2154.0</ele><time>2026-05-02T18:09:25Z</time></trkpt><trkpt lat="36.025580179344516" lon="-107.0694597901893"><ele>2151.5</ele><time>2026-05-02T18:09:26Z</time></trkpt><trkpt lat="36.025644837374415" lon="-107.06933154656829"><ele>2149.0</ele><time>2026-05-02T18:09:27Z</time></trkpt><trkpt lat="36.02570300646067" lon="-107.06922808121048"><ele>2149.0</ele><time>2026-05-02T18:09:28Z</time></trkpt><trkpt lat="36.02579179720828" lon="-107.06911535418558"><ele>2149.0</ele><time>2026-05-02T18:09:30Z</time></trkpt><trkpt lat="36.025894204165425" lon="-107.06903936209899"><ele>2149.0</ele><time>2026-05-02T18:09:31Z</time></trkpt><trkpt lat="36.02599857385644" lon="-107.06895333420447"><ele>2149.0</ele><time>2026-05-02T18:09:32Z</time></trkpt><trkpt lat="36.02609441399365" lon="-107.06884513612783"><ele>2151.0</ele><time>2026-05-02T18:09:33Z</time></trkpt><trkpt lat="36.02616137024863" lon="-107.06872442993907"><ele>2153.0</ele><time>2026-05-02T18:09:34Z</time></trkpt><trkpt lat="36.026218819411085" lon="-107.06859034597306"><ele>2155.0</ele><time>2026-05-02T18:09:35Z</time></trkpt><trkpt lat="36.02623786736321" lon="-107.06843795858377"><ele>2157.0</ele><time>2026-05-02T18:09:36Z</time></trkpt><trkpt lat="36.02622172761985" lon="-107.06828440058702"><ele>2157.7999999999997</ele><time>2026-05-02T18:09:37Z</time></trkpt><trkpt lat="36.02619775738858" lon="-107.06815754400172"><ele>2158.6</ele><time>2026-05-02T18:09:38Z</time></trkpt><trkpt lat="36.02619460623179" lon="-107.06801295641179"><ele>2159.3999999999996</ele><time>2026-05-02T18:09:39Z</time></trkpt><trkpt lat="36.02620650004782" lon="-107.06786445941081"><ele>2160.2</ele><time>2026-05-02T18:09:40Z</time></trkpt><trkpt lat="36.026153914994865" lon="-107.06779693122485"><ele>2161.0</ele><time>2026-05-02T18:09:41Z</time></trkpt><trkpt lat="36.02610616423916" lon="-107.06770633891797"><ele>2161.0</ele><time>2026-05-02T18:09:42Z</time></trkpt><trkpt lat="36.02603695515482" lon="-107.06764550320165"><ele>2161.0</ele><time>2026-05-02T18:09:43Z</time></trkpt><trkpt lat="36.025965584800765" lon="-107.0675769056204"><ele>2161.0</ele><time>2026-05-02T18:09:44Z</time></trkpt><trkpt lat="36.02589495470953" lon="-107.06745355059468"><ele>2161.0</ele><time>2026-05-02T18:09:45Z</time></trkpt><trkpt lat="36.02585342959902" lon="-107.06727714499709"><ele>2161.0</ele><time>2026-05-02T18:09:46Z</time></trkpt><trkpt lat="36.025794945083476" lon="-107.06708235353786"><ele>2160.4</ele><time>2026-05-02T18:09:47Z</time></trkpt><trkpt lat="36.02573354872266" lon="-107.06692348939214"><ele>2159.8</ele><time>2026-05-02T18:09:48Z</time></trkpt><trkpt lat="36.025700328888675" lon="-107.06680884604309"><ele>2159.2000000000003</ele><time>2026-05-02T18:09:49Z</time></trkpt><trkpt lat="36.02567093451341" lon="-107.06669494833858"><ele>2158.6</ele><time>2026-05-02T18:09:50Z</time></trkpt><trkpt lat="36.02561751657974" lon="-107.0665817695471"><ele>2158.0</ele><time>2026-05-02T18:09:51Z</time></trkpt><trkpt lat="36.02556982599066" lon="-107.06647634240845"><ele>2157.75</ele><time>2026-05-02T18:09:52Z</time></trkpt><trkpt lat="36.02551308758292" lon="-107.06633587606763"><ele>2157.5</ele><time>2026-05-02T18:09:53Z</time></trkpt><trkpt lat="36.02545294874758" lon="-107.06622248405509"><ele>2157.25</ele><time>2026-05-02T18:09:54Z</time></trkpt><trkpt lat="36.02542955153339" lon="-107.06608050140983"><ele>2157.0</ele><time>2026-05-02T18:09:55Z</time></trkpt><trkpt lat="36.025449968260965" lon="-107.0659482747605"><ele>2157.0</ele><time>2026-05-02T18:09:56Z</time></trkpt><trkpt lat="36.025475168405265" lon="-107.06580102574058"><ele>2157.0</ele><time>2026-05-02T18:09:57Z</time></trkpt><trkpt lat="36.025496306817914" lon="-107.06564950441597"><ele>2157.0</ele><time>2026-05-02T18:09:58Z</time></trkpt><trkpt lat="36.025514550973874" lon="-107.06548449411547"><ele>2157.0</ele><time>2026-05-02T18:09:59Z</time></trkpt><trkpt lat="36.02552354161361" lon="-107.06531404695832"><ele>2154.75</ele><time>2026-05-02T18:10:00Z</time></trkpt><trkpt lat="36.02554764717273" lon="-107.06516509353412"><ele>2152.5</ele><time>2026-05-02T18:10:01Z</time></trkpt><trkpt lat="36.02558738988394" lon="-107.06503496715207"><ele>2150.25</ele><time>2026-05-02T18:10:02Z</time></trkpt><trkpt lat="36.02565117512885" lon="-107.06490321686903"><ele>2148.0</ele><time>2026-05-02T18:10:03Z</time></trkpt><trkpt lat="36.02570854911883" lon="-107.06474759674398"><ele>2149.2000000000003</ele><time>2026-05-02T18:10:04Z</time></trkpt><trkpt lat="36.02575086702774" lon="-107.06461077697003"><ele>2150.4</ele><time>2026-05-02T18:10:05Z</time></trkpt><trkpt lat="36.02579153109593" lon="-107.06453735311975"><ele>2151.6000000000004</ele><time>2026-05-02T18:10:06Z</time></trkpt><trkpt lat="36.02588672175021" lon="-107.06448705090133"><ele>2152.8</ele><time>2026-05-02T18:10:07Z</time></trkpt><trkpt lat="36.026011912269375" lon="-107.06442702573086"><ele>2154.0</ele><time>2026-05-02T18:10:08Z</time></trkpt><trkpt lat="36.02609802565915" lon="-107.06434082971312"><ele>2154.0</ele><time>2026-05-02T18:10:09Z</time></trkpt><trkpt lat="36.02618889510443" lon="-107.06425197154394"><ele>2154.0</ele><time>2026-05-02T18:10:10Z</time></trkpt><trkpt lat="36.02628202790072" lon="-107.06417738619457"><ele>2154.0</ele><time>2026-05-02T18:10:11Z</time></trkpt><trkpt lat="36.02636207975876" lon="-107.06408226879763"><ele>2154.0</ele><time>2026-05-02T18:10:12Z</time></trkpt><trkpt lat="36.02644017299385" lon="-107.0640052644907"><ele>2154.0</ele><time>2026-05-02T18:10:13Z</time></trkpt><trkpt lat="36.02656875041529" lon="-107.06397241496872"><ele>2155.6</ele><time>2026-05-02T18:10:14Z</time></trkpt><trkpt lat="36.02670766856085" lon="-107.0639700755167"><ele>2157.2</ele><time>2026-05-02T18:10:15Z</time></trkpt><trkpt lat="36.02683307293802" lon="-107.06398508423024"><ele>2158.7999999999997</ele><time>2026-05-02T18:10:16Z</time></trkpt><trkpt lat="36.02692460024249" lon="-107.06398132737833"><ele>2160.4</ele><time>2026-05-02T18:10:17Z</time></trkpt><trkpt lat="36.0270129056202" lon="-107.06399153288665"><ele>2162.0</ele><time>2026-05-02T18:10:18Z</time></trkpt><trkpt lat="36.02707930199872" lon="-107.06404807918489"><ele>2162.0</ele><time>2026-05-02T18:10:19Z</time></trkpt><trkpt lat="36.027137783826156" lon="-107.06411806290706"><ele>2162.0</ele><time>2026-05-02T18:10:20Z</time></trkpt><trkpt lat="36.027246561814096" lon="-107.0641336141404"><ele>2162.0</ele><time>2026-05-02T18:10:21Z</time></trkpt><trkpt lat="36.02732564641227" lon="-107.0641040259325"><ele>2162.0</ele><time>2026-05-02T18:10:22Z</time></trkpt><trkpt lat="36.02737547526355" lon="-107.0641647192126"><ele>2162.0</ele><time>2026-05-02T18:10:25Z</time></trkpt><trkpt lat="36.027460977710966" lon="-107.06422037942754"><ele>2162.0</ele><time>2026-05-02T18:10:26Z</time></trkpt><trkpt lat="36.02751196262602" lon="-107.06428631422114"><ele>2163.7999999999997</ele><time>2026-05-02T18:10:27Z</time></trkpt><trkpt lat="36.02755228000943" lon="-107.06437761203948"><ele>2165.6</ele><time>2026-05-02T18:10:28Z</time></trkpt><trkpt lat="36.02757173398291" lon="-107.06449411951576"><ele>2167.3999999999996</ele><time>2026-05-02T18:10:29Z</time></trkpt><trkpt lat="36.02756223815152" lon="-107.0646568369818"><ele>2169.2</ele><time>2026-05-02T18:10:30Z</time></trkpt><trkpt lat="36.02759124990628" lon="-107.06472594130933"><ele>2171.0</ele><time>2026-05-02T18:10:31Z</time></trkpt><trkpt lat="36.027694727791335" lon="-107.06473942774541"><ele>2171.0</ele><time>2026-05-02T18:10:32Z</time></trkpt><trkpt lat="36.02778663022077" lon="-107.06471093605018"><ele>2171.0</ele><time>2026-05-02T18:10:33Z</time></trkpt><trkpt lat="36.02796989819523" lon="-107.06479423766334"><ele>2171.0</ele><time>2026-05-02T18:10:35Z</time></trkpt><trkpt lat="36.02808116351256" lon="-107.06482491787618"><ele>2171.0</ele><time>2026-05-02T18:10:36Z</time></trkpt><trkpt lat="36.02816736475505" lon="-107.06483017137218"><ele>2171.0</ele><time>2026-05-02T18:10:37Z</time></trkpt><trkpt lat="36.02824776905094" lon="-107.06474460860694"><ele>2171.0</ele><time>2026-05-02T18:10:39Z</time></trkpt><trkpt lat="36.02823125154044" lon="-107.06463528529308"><ele>2171.0</ele><time>2026-05-02T18:10:40Z</time></trkpt><trkpt lat="36.028175989127355" lon="-107.0644957576154"><ele>2171.0</ele><time>2026-05-02T18:10:41Z</time></trkpt><trkpt lat="36.02810457680677" lon="-107.06434803764533"><ele>2171.0</ele><time>2026-05-02T18:10:42Z</time></trkpt><trkpt lat="36.028045459837664" lon="-107.06419342241742"><ele>2171.0</ele><time>2026-05-02T18:10:43Z</time></trkpt><trkpt lat="36.02798954244724" lon="-107.0640631949479"><ele>2171.0</ele><time>2026-05-02T18:10:44Z</time></trkpt><trkpt lat="36.02794827403756" lon="-107.06399003788249"><ele>2171.0</ele><time>2026-05-02T18:10:45Z</time></trkpt><trkpt lat="36.02793970821063" lon="-107.06391043542851"><ele>2171.0</ele><time>2026-05-02T18:10:46Z</time></trkpt><trkpt lat="36.02793870105963" lon="-107.06378926066874"><ele>2169.6</ele><time>2026-05-02T18:10:47Z</time></trkpt><trkpt lat="36.027953720384815" lon="-107.06364733794781"><ele>2168.2</ele><time>2026-05-02T18:10:48Z</time></trkpt><trkpt lat="36.02798618257617" lon="-107.06355004123442"><ele>2166.8</ele><time>2026-05-02T18:10:49Z</time></trkpt><trkpt lat="36.028000613996944" lon="-107.06345071872488"><ele>2165.4</ele><time>2026-05-02T18:10:50Z</time></trkpt><trkpt lat="36.028000699366686" lon="-107.06335242947931"><ele>2164.0</ele><time>2026-05-02T18:10:51Z</time></trkpt><trkpt lat="36.02801132146158" lon="-107.06324294452807"><ele>2163.666666666667</ele><time>2026-05-02T18:10:52Z</time></trkpt><trkpt lat="36.02808058319042" lon="-107.06313534647175"><ele>2163.3333333333335</ele><time>2026-05-02T18:10:53Z</time></trkpt><trkpt lat="36.028136937245336" lon="-107.0630655177757"><ele>2163.0</ele><time>2026-05-02T18:10:54Z</time></trkpt><trkpt lat="36.02819012023144" lon="-107.06299335694511"><ele>2162.6666666666665</ele><time>2026-05-02T18:13:05Z</time></trkpt><trkpt lat="36.028243746920104" lon="-107.0629280636454"><ele>2162.333333333333</ele><time>2026-05-02T18:13:06Z</time></trkpt><trkpt lat="36.0283094133636" lon="-107.06284224155502"><ele>2162.0</ele><time>2026-05-02T18:13:07Z</time></trkpt><trkpt lat="36.02837947456452" lon="-107.06274457925697"><ele>2162.0</ele><time>2026-05-02T18:13:08Z</time></trkpt><trkpt lat="36.02845543726106" lon="-107.06261788548595"><ele>2162.0</ele><time>2026-05-02T18:13:09Z</time></trkpt><trkpt lat="36.02851228027718" lon="-107.06252058402248"><ele>2162.0</ele><time>2026-05-02T18:13:10Z</time></trkpt><trkpt lat="36.02856885262902" lon="-107.06242851741705"><ele>2162.0</ele><time>2026-05-02T18:13:11Z</time></trkpt><trkpt lat="36.02865691532013" lon="-107.06234494867076"><ele>2162.0</ele><time>2026-05-02T18:13:12Z</time></trkpt><trkpt lat="36.02876361364633" lon="-107.06232469710238"><ele>2160.2</ele><time>2026-05-02T18:13:13Z</time></trkpt><trkpt lat="36.02887990039759" lon="-107.06230296470041"><ele>2158.3999999999996</ele><time>2026-05-02T18:13:14Z</time></trkpt><trkpt lat="36.028954869372136" lon="-107.06227149674999"><ele>2156.6000000000004</ele><time>2026-05-02T18:13:15Z</time></trkpt><trkpt lat="36.02903550496092" lon="-107.06224313958644"><ele>2154.8</ele><time>2026-05-02T18:13:16Z</time></trkpt><trkpt lat="36.029125059653175" lon="-107.06222580417696"><ele>2153.0</ele><time>2026-05-02T18:13:17Z</time></trkpt><trkpt lat="36.02922319401584" lon="-107.06219300675635"><ele>2152.333333333333</ele><time>2026-05-02T18:13:18Z</time></trkpt><trkpt lat="36.02930052257977" lon="-107.06217362697251"><ele>2151.6666666666665</ele><time>2026-05-02T18:13:19Z</time></trkpt><trkpt lat="36.02937126116582" lon="-107.06213517069742"><ele>2151.0</ele><time>2026-05-02T18:13:20Z</time></trkpt><trkpt lat="36.0294441695219" lon="-107.06208362492403"><ele>2150.3333333333335</ele><time>2026-05-02T18:13:22Z</time></trkpt><trkpt lat="36.029466150148245" lon="-107.06216066445137"><ele>2149.666666666667</ele><time>2026-05-02T18:13:24Z</time></trkpt><trkpt lat="36.029526427856716" lon="-107.06219693356799"><ele>2149.0</ele><time>2026-05-02T18:13:34Z</time></trkpt><trkpt lat="36.02965343801318" lon="-107.06223187884537"><ele>2149.0</ele><time>2026-05-02T18:13:36Z</time></trkpt><trkpt lat="36.029779520689765" lon="-107.06224598168157"><ele>2149.0</ele><time>2026-05-02T18:13:37Z</time></trkpt><trkpt lat="36.0298839482303" lon="-107.06225808485476"><ele>2149.0</ele><time>2026-05-02T18:13:38Z</time></trkpt><trkpt lat="36.02996400214259" lon="-107.06227100778268"><ele>2149.0</ele><time>2026-05-02T18:13:39Z</time></trkpt><trkpt lat="36.03001942517118" lon="-107.06232975769325"><ele>2149.0</ele><time>2026-05-02T18:13:40Z</time></trkpt><trkpt lat="36.03006693936775" lon="-107.06240893309395"><ele>2150.8</ele><time>2026-05-02T18:13:41Z</time></trkpt><trkpt lat="36.0301572078972" lon="-107.0625189026947"><ele>2152.6000000000004</ele><time>2026-05-02T18:13:42Z</time></trkpt><trkpt lat="36.03023548938276" lon="-107.06260371361392"><ele>2154.4</ele><time>2026-05-02T18:13:43Z</time></trkpt><trkpt lat="36.030315532385764" lon="-107.06266483428021"><ele>2156.2000000000003</ele><time>2026-05-02T18:13:44Z</time></trkpt><trkpt lat="36.03039378933051" lon="-107.06271203702707"><ele>2158.0</ele><time>2026-05-02T18:13:45Z</time></trkpt><trkpt lat="36.03045405790208" lon="-107.06274540326194"><ele>2158.0</ele><time>2026-05-02T18:13:46Z</time></trkpt><trkpt lat="36.03053821071463" lon="-107.06276623758096"><ele>2158.0</ele><time>2026-05-02T18:13:48Z</time></trkpt><trkpt lat="36.03063151316293" lon="-107.06278180607212"><ele>2158.0</ele><time>2026-05-02T18:13:50Z</time></trkpt><trkpt lat="36.03061061491711" lon="-107.06266208681555"><ele>2158.0</ele><time>2026-05-02T18:13:54Z</time></trkpt><trkpt lat="36.030298251968894" lon="-107.0618931264681"><ele>2155.4</ele><time>2026-05-02T18:13:55Z</time></trkpt><trkpt lat="36.030284561854224" lon="-107.06180133935993"><ele>2152.8</ele><time>2026-05-02T18:13:56Z</time></trkpt><trkpt lat="36.03029386398081" lon="-107.06165385663142"><ele>2150.2</ele><time>2026-05-02T18:13:57Z</time></trkpt><trkpt lat="36.03030768352467" lon="-107.06155337750268"><ele>2147.6</ele><time>2026-05-02T18:13:58Z</time></trkpt><trkpt lat="36.03033688996431" lon="-107.06143399317787"><ele>2145.0</ele><time>2026-05-02T18:13:59Z</time></trkpt><trkpt lat="36.03032835836091" lon="-107.06127147180597"><ele>2142.75</ele><time>2026-05-02T18:14:00Z</time></trkpt><trkpt lat="36.03028724238078" lon="-107.06110333250037"><ele>2140.5</ele><time>2026-05-02T18:14:01Z</time></trkpt><trkpt lat="36.030231277285964" lon="-107.06099209461661"><ele>2138.25</ele><time>2026-05-02T18:14:02Z</time></trkpt><trkpt lat="36.030151972967026" lon="-107.06089025363039"><ele>2136.0</ele><time>2026-05-02T18:14:03Z</time></trkpt><trkpt lat="36.03006763718533" lon="-107.0607806747596"><ele>2135.25</ele><time>2026-05-02T18:14:04Z</time></trkpt><trkpt lat="36.029990019621735" lon="-107.06067752205819"><ele>2134.5</ele><time>2026-05-02T18:14:05Z</time></trkpt><trkpt lat="36.02992992118129" lon="-107.06053840707433"><ele>2133.75</ele><time>2026-05-02T18:14:06Z</time></trkpt><trkpt lat="36.02989424130179" lon="-107.0603671073969"><ele>2133.0</ele><time>2026-05-02T18:14:07Z</time></trkpt><trkpt lat="36.0298360178441" lon="-107.06028633155789"><ele>2133.0</ele><time>2026-05-02T18:14:08Z</time></trkpt><trkpt lat="36.029750244375336" lon="-107.0601796725911"><ele>2133.0</ele><time>2026-05-02T18:14:09Z</time></trkpt><trkpt lat="36.0296298944066" lon="-107.06009399248414"><ele>2133.0</ele><time>2026-05-02T18:14:10Z</time></trkpt><trkpt lat="36.029505175490215" lon="-107.06002402203498"><ele>2133.0</ele><time>2026-05-02T18:14:11Z</time></trkpt><trkpt lat="36.02935378714468" lon="-107.05993253612097"><ele>2132.0</ele><time>2026-05-02T18:14:12Z</time></trkpt><trkpt lat="36.029205014084155" lon="-107.05983335468852"><ele>2131.0</ele><time>2026-05-02T18:14:13Z</time></trkpt><trkpt lat="36.02907355594981" lon="-107.05975552546583"><ele>2130.0</ele><time>2026-05-02T18:14:14Z</time></trkpt><trkpt lat="36.028940124152115" lon="-107.05968070962834"><ele>2130.0</ele><time>2026-05-02T18:14:15Z</time></trkpt><trkpt lat="36.028811810552256" lon="-107.05955620098626"><ele>2130.0</ele><time>2026-05-02T18:14:16Z</time></trkpt><trkpt lat="36.02870729396783" lon="-107.05938318702832"><ele>2130.0</ele><time>2026-05-02T18:14:17Z</time></trkpt><trkpt lat="36.02863590227193" lon="-107.05925791845205"><ele>2130.0</ele><time>2026-05-02T18:14:18Z</time></trkpt><trkpt lat="36.02859151121541" lon="-107.05916192000832"><ele>2130.0</ele><time>2026-05-02T18:14:19Z</time></trkpt><trkpt lat="36.028560224535326" lon="-107.05907611006344"><ele>2130.0</ele><time>2026-05-02T18:14:20Z</time></trkpt><trkpt lat="36.028548871652376" lon="-107.05898553741999"><ele>2130.0</ele><time>2026-05-02T18:14:21Z</time></trkpt><trkpt lat="36.028582950479056" lon="-107.05889988765719"><ele>2130.0</ele><time>2026-05-02T18:14:22Z</time></trkpt><trkpt lat="36.02862964980417" lon="-107.05879295784925"><ele>2130.0</ele><time>2026-05-02T18:14:23Z</time></trkpt><trkpt lat="36.02872027401648" lon="-107.0586725238733"><ele>2129.8333333333335</ele><time>2026-05-02T18:14:24Z</time></trkpt><trkpt lat="36.02879844798455" lon="-107.05861620837058"><ele>2129.6666666666665</ele><time>2026-05-02T18:14:25Z</time></trkpt><trkpt lat="36.02887307562803" lon="-107.05854360091656"><ele>2129.5</ele><time>2026-05-02T18:14:27Z</time></trkpt><trkpt lat="36.02894127059624" lon="-107.05850970141982"><ele>2129.333333333333</ele><time>2026-05-02T18:14:28Z</time></trkpt><trkpt lat="36.02900611180835" lon="-107.05849062465877"><ele>2129.1666666666665</ele><time>2026-05-02T18:14:29Z</time></trkpt><trkpt lat="36.02906236465961" lon="-107.05856956204619"><ele>2129.0</ele><time>2026-05-02T18:14:30Z</time></trkpt><trkpt lat="36.02912377387108" lon="-107.05865634162592"><ele>2129.0</ele><time>2026-05-02T18:14:31Z</time></trkpt><trkpt lat="36.02916297998625" lon="-107.05874517907434"><ele>2129.0</ele><time>2026-05-02T18:14:32Z</time></trkpt><trkpt lat="36.02926259931647" lon="-107.05885356275571"><ele>2129.0</ele><time>2026-05-02T18:14:33Z</time></trkpt><trkpt lat="36.02936857498213" lon="-107.05894167363095"><ele>2129.0</ele><time>2026-05-02T18:14:34Z</time></trkpt><trkpt lat="36.029500924527866" lon="-107.05904330631262"><ele>2129.25</ele><time>2026-05-02T18:14:35Z</time></trkpt><trkpt lat="36.02964664491627" lon="-107.05912560574038"><ele>2129.5</ele><time>2026-05-02T18:14:36Z</time></trkpt><trkpt lat="36.02978912659273" lon="-107.05918114775261"><ele>2129.75</ele><time>2026-05-02T18:14:37Z</time></trkpt><trkpt lat="36.029916026060285" lon="-107.05923836566548"><ele>2130.0</ele><time>2026-05-02T18:14:38Z</time></trkpt><trkpt lat="36.03002082175096" lon="-107.05931211287522"><ele>2130.2</ele><time>2026-05-02T18:14:39Z</time></trkpt><trkpt lat="36.030098519774214" lon="-107.05934910702658"><ele>2130.4</ele><time>2026-05-02T18:14:40Z</time></trkpt><trkpt lat="36.03021041190017" lon="-107.05933591171392"><ele>2130.6</ele><time>2026-05-02T18:14:42Z</time></trkpt><trkpt lat="36.030253629216006" lon="-107.05926393478322"><ele>2130.8</ele><time>2026-05-02T18:14:43Z</time></trkpt><trkpt lat="36.03031383713031" lon="-107.0591377243984"><ele>2131.0</ele><time>2026-05-02T18:14:44Z</time></trkpt><trkpt lat="36.03036073151438" lon="-107.05905127476865"><ele>2131.0</ele><time>2026-05-02T18:14:45Z</time></trkpt><trkpt lat="36.03042161139731" lon="-107.05896303186967"><ele>2131.0</ele><time>2026-05-02T18:14:46Z</time></trkpt><trkpt lat="36.03050481519681" lon="-107.0588491106091"><ele>2131.0</ele><time>2026-05-02T18:14:48Z</time></trkpt><trkpt lat="36.030583945753676" lon="-107.05882451613948"><ele>2131.0</ele><time>2026-05-02T18:14:50Z</time></trkpt><trkpt lat="36.03070306074725" lon="-107.05889251100682"><ele>2131.0</ele><time>2026-05-02T18:14:52Z</time></trkpt><trkpt lat="36.03075866714773" lon="-107.05893278811322"><ele>2131.0</ele><time>2026-05-02T18:14:53Z</time></trkpt><trkpt lat="36.03076970712751" lon="-107.05903137508383"><ele>2131.0</ele><time>2026-05-02T18:14:54Z</time></trkpt><trkpt lat="36.03075680016026" lon="-107.05916636842974"><ele>2131.0</ele><time>2026-05-02T18:14:55Z</time></trkpt><trkpt lat="36.03073956707207" lon="-107.05929158173957"><ele>2131.0</ele><time>2026-05-02T18:14:56Z</time></trkpt><trkpt lat="36.03072799066554" lon="-107.0593980261878"><ele>2131.0</ele><time>2026-05-02T18:14:57Z</time></trkpt><trkpt lat="36.03069507680105" lon="-107.05947847405231"><ele>2131.0</ele><time>2026-05-02T18:14:58Z</time></trkpt><trkpt lat="36.030674867771374" lon="-107.05955412825404"><ele>2131.0</ele><time>2026-05-02T18:15:01Z</time></trkpt><trkpt lat="36.030735341633026" lon="-107.05963332549861"><ele>2131.0</ele><time>2026-05-02T18:15:03Z</time></trkpt><trkpt lat="36.030852272749556" lon="-107.05969021286049"><ele>2131.0</ele><time>2026-05-02T18:15:06Z</time></trkpt><trkpt lat="36.0307691432172" lon="-107.05974086641446"><ele>2131.0</ele><time>2026-05-02T18:15:07Z</time></trkpt><trkpt lat="36.03083655354621" lon="-107.05969541415962"><ele>2131.0</ele><time>2026-05-02T18:15:08Z</time></trkpt><trkpt lat="36.03089257527196" lon="-107.05965685685827"><ele>2131.0</ele><time>2026-05-02T18:15:09Z</time></trkpt><trkpt lat="36.030993698436745" lon="-107.05957185687936"><ele>2131.0</ele><time>2026-05-02T18:15:10Z</time></trkpt><trkpt lat="36.031153206347014" lon="-107.05945606935163"><ele>2131.0</ele><time>2026-05-02T18:15:12Z</time></trkpt><trkpt lat="36.031250580877476" lon="-107.05936664802934"><ele>2131.0</ele><time>2026-05-02T18:15:13Z</time></trkpt><trkpt lat="36.031356850441576" lon="-107.05929883078633"><ele>2131.0</ele><time>2026-05-02T18:15:14Z</time></trkpt><trkpt lat="36.031446369551944" lon="-107.059230307851"><ele>2131.0</ele><time>2026-05-02T18:15:15Z</time></trkpt><trkpt lat="36.03154786339886" lon="-107.05915506960793"><ele>2131.0</ele><time>2026-05-02T18:15:16Z</time></trkpt><trkpt lat="36.03165706612881" lon="-107.05907043886594"><ele>2131.0</ele><time>2026-05-02T18:15:17Z</time></trkpt><trkpt lat="36.031733944736615" lon="-107.05901397181958"><ele>2131.0</ele><time>2026-05-02T18:15:18Z</time></trkpt><trkpt lat="36.03180490414762" lon="-107.0589489870316"><ele>2131.166666666667</ele><time>2026-05-02T18:15:19Z</time></trkpt><trkpt lat="36.031873763931756" lon="-107.05891502872717"><ele>2131.3333333333335</ele><time>2026-05-02T18:15:20Z</time></trkpt><trkpt lat="36.031965327683224" lon="-107.0589058895863"><ele>2131.5</ele><time>2026-05-02T18:15:21Z</time></trkpt><trkpt lat="36.03205541243291" lon="-107.05890055521861"><ele>2131.6666666666665</ele><time>2026-05-02T18:15:22Z</time></trkpt><trkpt lat="36.032141745741484" lon="-107.05893153774325"><ele>2131.833333333333</ele><time>2026-05-02T18:15:23Z</time></trkpt><trkpt lat="36.0322205956074" lon="-107.058932904392"><ele>2132.0</ele><time>2026-05-02T18:15:24Z</time></trkpt><trkpt lat="36.03228941883643" lon="-107.05893827722937"><ele>2132.0</ele><time>2026-05-02T18:15:25Z</time></trkpt><trkpt lat="36.03234432395192" lon="-107.05898045027847"><ele>2132.0</ele><time>2026-05-02T18:15:26Z</time></trkpt><trkpt lat="36.03261592584293" lon="-107.05929228613348"><ele>2132.0</ele><time>2026-05-02T18:15:27Z</time></trkpt><trkpt lat="36.03275439312181" lon="-107.05938325449688"><ele>2132.25</ele><time>2026-05-02T18:15:28Z</time></trkpt><trkpt lat="36.03287203657334" lon="-107.05945785642776"><ele>2132.5</ele><time>2026-05-02T18:15:29Z</time></trkpt><trkpt lat="36.03294651492095" lon="-107.05952542866241"><ele>2132.75</ele><time>2026-05-02T18:15:30Z</time></trkpt><trkpt lat="36.03303608063259" lon="-107.05957646840183"><ele>2133.0</ele><time>2026-05-02T18:15:32Z</time></trkpt><trkpt lat="36.03314725713302" lon="-107.05949704171368"><ele>2133.0</ele><time>2026-05-02T18:15:34Z</time></trkpt><trkpt lat="36.033206613009696" lon="-107.05941582573911"><ele>2133.0</ele><time>2026-05-02T18:15:35Z</time></trkpt><trkpt lat="36.03330678440886" lon="-107.05934068844215"><ele>2133.0</ele><time>2026-05-02T18:15:36Z</time></trkpt><trkpt lat="36.03341769368633" lon="-107.0592764402603"><ele>2133.0</ele><time>2026-05-02T18:15:37Z</time></trkpt><trkpt lat="36.03353151153764" lon="-107.05921203149393"><ele>2133.0</ele><time>2026-05-02T18:15:38Z</time></trkpt><trkpt lat="36.03363240587754" lon="-107.059156470184"><ele>2133.0</ele><time>2026-05-02T18:15:39Z</time></trkpt><trkpt lat="36.03372543374333" lon="-107.0591152847565"><ele>2133.0</ele><time>2026-05-02T18:15:40Z</time></trkpt><trkpt lat="36.03382413863632" lon="-107.05909466161742"><ele>2133.0</ele><time>2026-05-02T18:15:41Z</time></trkpt><trkpt lat="36.03393023570905" lon="-107.0591507517152"><ele>2133.0</ele><time>2026-05-02T18:15:42Z</time></trkpt><trkpt lat="36.0340555800183" lon="-107.05919527392147"><ele>2133.2000000000003</ele><time>2026-05-02T18:15:43Z</time></trkpt><trkpt lat="36.034150999133495" lon="-107.05925744839516"><ele>2133.4</ele><time>2026-05-02T18:15:44Z</time></trkpt><trkpt lat="36.03421690021679" lon="-107.059301604515"><ele>2133.6000000000004</ele><time>2026-05-02T18:15:45Z</time></trkpt><trkpt lat="36.03425981840649" lon="-107.05936792303487"><ele>2133.8</ele><time>2026-05-02T18:15:46Z</time></trkpt><trkpt lat="36.03431172461956" lon="-107.05947342186509"><ele>2134.0</ele><time>2026-05-02T18:15:47Z</time></trkpt><trkpt lat="36.034374445526275" lon="-107.0595986259673"><ele>2134.0</ele><time>2026-05-02T18:15:48Z</time></trkpt><trkpt lat="36.03441005187154" lon="-107.05971057480764"><ele>2134.0</ele><time>2026-05-02T18:15:49Z</time></trkpt><trkpt lat="36.03442043940016" lon="-107.05981668844738"><ele>2134.0</ele><time>2026-05-02T18:15:50Z</time></trkpt><trkpt lat="36.03444561272426" lon="-107.05993821755274"><ele>2134.0</ele><time>2026-05-02T18:15:51Z</time></trkpt><trkpt lat="36.03448928882242" lon="-107.06005643281483"><ele>2134.0</ele><time>2026-05-02T18:15:52Z</time></trkpt><trkpt lat="36.034561598116426" lon="-107.06015927048108"><ele>2133.8</ele><time>2026-05-02T18:15:53Z</time></trkpt><trkpt lat="36.03465857876385" lon="-107.06026101523501"><ele>2133.6000000000004</ele><time>2026-05-02T18:15:54Z</time></trkpt><trkpt lat="36.034750835579935" lon="-107.06038175405148"><ele>2133.4</ele><time>2026-05-02T18:15:55Z</time></trkpt><trkpt lat="36.03482525142672" lon="-107.06046691333631"><ele>2133.2000000000003</ele><time>2026-05-02T18:15:56Z</time></trkpt><trkpt lat="36.03486644075774" lon="-107.06052835784602"><ele>2133.0</ele><time>2026-05-02T18:15:57Z</time></trkpt><trkpt lat="36.034968573243404" lon="-107.06063553943906"><ele>2133.0</ele><time>2026-05-02T18:15:59Z</time></trkpt><trkpt lat="36.035069505312514" lon="-107.06064440206636"><ele>2133.0</ele><time>2026-05-02T18:16:00Z</time></trkpt><trkpt lat="36.03519678362407" lon="-107.06061305299419"><ele>2133.0</ele><time>2026-05-02T18:16:01Z</time></trkpt><trkpt lat="36.03532351502433" lon="-107.06052055843156"><ele>2133.0</ele><time>2026-05-02T18:16:02Z</time></trkpt><trkpt lat="36.035453153452615" lon="-107.06043998452509"><ele>2133.0</ele><time>2026-05-02T18:16:03Z</time></trkpt><trkpt lat="36.03555373081781" lon="-107.06037686186568"><ele>2133.0</ele><time>2026-05-02T18:16:04Z</time></trkpt><trkpt lat="36.03562392776109" lon="-107.06033257723732"><ele>2133.0</ele><time>2026-05-02T18:16:05Z</time></trkpt><trkpt lat="36.0356939689082" lon="-107.06030070257687"><ele>2133.0</ele><time>2026-05-02T18:16:06Z</time></trkpt><trkpt lat="36.03578507146274" lon="-107.06027489770425"><ele>2133.0</ele><time>2026-05-02T18:16:07Z</time></trkpt><trkpt lat="36.035900136138835" lon="-107.0602618729036"><ele>2133.2000000000003</ele><time>2026-05-02T18:16:08Z</time></trkpt><trkpt lat="36.03600495007903" lon="-107.06024489508077"><ele>2133.4</ele><time>2026-05-02T18:16:09Z</time></trkpt><trkpt lat="36.03608859511316" lon="-107.06023529191012"><ele>2133.6000000000004</ele><time>2026-05-02T18:16:10Z</time></trkpt><trkpt lat="36.03615103128022" lon="-107.0602229232709"><ele>2133.8</ele><time>2026-05-02T18:16:11Z</time></trkpt><trkpt lat="36.03620000155644" lon="-107.06004512667556"><ele>2134.0</ele><time>2026-05-02T18:16:13Z</time></trkpt><trkpt lat="36.036187757629435" lon="-107.05996194153072"><ele>2134.0</ele><time>2026-05-02T18:16:14Z</time></trkpt><trkpt lat="36.03625702018535" lon="-107.05990360148105"><ele>2134.0</ele><time>2026-05-02T18:16:16Z</time></trkpt><trkpt lat="36.03632098240491" lon="-107.05992048194926"><ele>2134.0</ele><time>2026-05-02T18:16:17Z</time></trkpt><trkpt lat="36.03638065986927" lon="-107.05995165199377"><ele>2134.0</ele><time>2026-05-02T18:16:18Z</time></trkpt><trkpt lat="36.03645962875184" lon="-107.0600301321565"><ele>2134.0</ele><time>2026-05-02T18:16:19Z</time></trkpt><trkpt lat="36.036554523447194" lon="-107.060140224262"><ele>2134.0</ele><time>2026-05-02T18:16:20Z</time></trkpt><trkpt lat="36.036641686966234" lon="-107.06023731829596"><ele>2134.4</ele><time>2026-05-02T18:16:21Z</time></trkpt><trkpt lat="36.03671893874267" lon="-107.06029211585356"><ele>2134.8</ele><time>2026-05-02T18:16:22Z</time></trkpt><trkpt lat="36.036804300303984" lon="-107.06035672413229"><ele>2135.2</ele><time>2026-05-02T18:16:23Z</time></trkpt><trkpt lat="36.036877822657765" lon="-107.06038361724887"><ele>2135.6</ele><time>2026-05-02T18:16:24Z</time></trkpt><trkpt lat="36.03696319041446" lon="-107.06040424357984"><ele>2136.0</ele><time>2026-05-02T18:16:25Z</time></trkpt><trkpt lat="36.037058991072946" lon="-107.06045709942134"><ele>2136.0</ele><time>2026-05-02T18:16:26Z</time></trkpt><trkpt lat="36.03717349219422" lon="-107.06043771887356"><ele>2136.0</ele><time>2026-05-02T18:16:27Z</time></trkpt><trkpt lat="36.03729563172122" lon="-107.06039088157635"><ele>2136.0</ele><time>2026-05-02T18:16:28Z</time></trkpt><trkpt lat="36.03735998081035" lon="-107.06033200619524"><ele>2136.0</ele><time>2026-05-02T18:16:29Z</time></trkpt><trkpt lat="36.03744324660996" lon="-107.06022179726126"><ele>2136.0</ele><time>2026-05-02T18:16:31Z</time></trkpt><trkpt lat="36.03744379097275" lon="-107.06012157633158"><ele>2136.0</ele><time>2026-05-02T18:16:33Z</time></trkpt><trkpt lat="36.037455123984714" lon="-107.0600267173759"><ele>2136.0</ele><time>2026-05-02T18:16:35Z</time></trkpt><trkpt lat="36.037514549473535" lon="-107.05999485574374"><ele>2136.0</ele><time>2026-05-02T18:16:36Z</time></trkpt><trkpt lat="36.037693354087" lon="-107.05997788916721"><ele>2136.0</ele><time>2026-05-02T18:16:38Z</time></trkpt><trkpt lat="36.037778796600264" lon="-107.05996750143426"><ele>2136.0</ele><time>2026-05-02T18:16:39Z</time></trkpt><trkpt lat="36.03786198944398" lon="-107.05997588174374"><ele>2136.0</ele><time>2026-05-02T18:16:40Z</time></trkpt><trkpt lat="36.03793952806267" lon="-107.06001126680185"><ele>2136.0</ele><time>2026-05-02T18:16:41Z</time></trkpt><trkpt lat="36.03803208575585" lon="-107.06004912463713"><ele>2136.0</ele><time>2026-05-02T18:16:42Z</time></trkpt><trkpt lat="36.03814325468239" lon="-107.06009793790172"><ele>2136.0</ele><time>2026-05-02T18:16:43Z</time></trkpt><trkpt lat="36.038253444240056" lon="-107.06016045792306"><ele>2136.0</ele><time>2026-05-02T18:16:44Z</time></trkpt><trkpt lat="36.03836175849558" lon="-107.06022330992397"><ele>2136.0</ele><time>2026-05-02T18:16:45Z</time></trkpt><trkpt lat="36.03847528781456" lon="-107.06027393769591"><ele>2136.0</ele><time>2026-05-02T18:16:46Z</time></trkpt><trkpt lat="36.03860103240321" lon="-107.0603186239567"><ele>2136.0</ele><time>2026-05-02T18:16:47Z</time></trkpt><trkpt lat="36.03873297339576" lon="-107.06034758413495"><ele>2136.0</ele><time>2026-05-02T18:16:48Z</time></trkpt><trkpt lat="36.03887119802683" lon="-107.06036066850173"><ele>2136.0</ele><time>2026-05-02T18:16:49Z</time></trkpt><trkpt lat="36.03899406391574" lon="-107.06037350871371"><ele>2136.0</ele><time>2026-05-02T18:16:50Z</time></trkpt><trkpt lat="36.03910059599908" lon="-107.06036563812688"><ele>2136.0</ele><time>2026-05-02T18:16:51Z</time></trkpt><trkpt lat="36.03919482063328" lon="-107.06036282529486"><ele>2136.0</ele><time>2026-05-02T18:16:52Z</time></trkpt><trkpt lat="36.03929418324979" lon="-107.06035219028836"><ele>2136.0</ele><time>2026-05-02T18:16:54Z</time></trkpt><trkpt lat="36.03935781808814" lon="-107.06038369153637"><ele>2136.3333333333335</ele><time>2026-05-02T18:16:55Z</time></trkpt><trkpt lat="36.039452386889074" lon="-107.06049577118348"><ele>2136.666666666667</ele><time>2026-05-02T18:16:57Z</time></trkpt><trkpt lat="36.03947192410582" lon="-107.06060015307435"><ele>2137.0</ele><time>2026-05-02T18:16:58Z</time></trkpt><trkpt lat="36.039467990896654" lon="-107.0610214615063"><ele>2137.166666666667</ele><time>2026-05-02T18:16:59Z</time></trkpt><trkpt lat="36.03953181556213" lon="-107.06109761572272"><ele>2137.3333333333335</ele><time>2026-05-02T18:17:01Z</time></trkpt><trkpt lat="36.03961728850893" lon="-107.06113933438104"><ele>2137.5</ele><time>2026-05-02T18:17:02Z</time></trkpt><trkpt lat="36.039703730082394" lon="-107.06118175737838"><ele>2137.6666666666665</ele><time>2026-05-02T18:17:03Z</time></trkpt><trkpt lat="36.03977942370165" lon="-107.06121711743504"><ele>2137.833333333333</ele><time>2026-05-02T18:17:04Z</time></trkpt><trkpt lat="36.039861667188845" lon="-107.06121505479358"><ele>2138.0</ele><time>2026-05-02T18:17:05Z</time></trkpt><trkpt lat="36.03994047722896" lon="-107.06126105606054"><ele>2138.1666666666665</ele><time>2026-05-02T18:17:06Z</time></trkpt><trkpt lat="36.040011592644376" lon="-107.06130913947362"><ele>2138.333333333333</ele><time>2026-05-02T18:17:08Z</time></trkpt><trkpt lat="36.0400363107635" lon="-107.06138880851334"><ele>2138.5</ele><time>2026-05-02T18:17:10Z</time></trkpt><trkpt lat="36.040028236784075" lon="-107.06146749911679"><ele>2138.6666666666665</ele><time>2026-05-02T18:17:11Z</time></trkpt><trkpt lat="36.040078127286975" lon="-107.06157463246181"><ele>2138.8333333333335</ele><time>2026-05-02T18:17:12Z</time></trkpt><trkpt lat="36.040101006664756" lon="-107.06165273409582"><ele>2139.0</ele><time>2026-05-02T18:17:13Z</time></trkpt><trkpt lat="36.04011863814144" lon="-107.06176299835593"><ele>2138.6</ele><time>2026-05-02T18:17:14Z</time></trkpt><trkpt lat="36.0401280190285" lon="-107.06188397115663"><ele>2138.2</ele><time>2026-05-02T18:17:15Z</time></trkpt><trkpt lat="36.04013362404199" lon="-107.06201868390183"><ele>2137.7999999999997</ele><time>2026-05-02T18:17:16Z</time></trkpt><trkpt lat="36.04011854199118" lon="-107.06215954875809"><ele>2137.4</ele><time>2026-05-02T18:17:17Z</time></trkpt><trkpt lat="36.04012419639951" lon="-107.06228704381822"><ele>2137.0</ele><time>2026-05-02T18:17:18Z</time></trkpt><trkpt lat="36.0401350713692" lon="-107.0623957486553"><ele>2137.3333333333335</ele><time>2026-05-02T18:17:19Z</time></trkpt><trkpt lat="36.040157076772815" lon="-107.06250599132628"><ele>2137.666666666667</ele><time>2026-05-02T18:17:20Z</time></trkpt><trkpt lat="36.04021644114991" lon="-107.06257925387958"><ele>2138.0</ele><time>2026-05-02T18:17:21Z</time></trkpt><trkpt lat="36.04024365178815" lon="-107.06265279131354"><ele>2138.3333333333335</ele><time>2026-05-02T18:17:22Z</time></trkpt><trkpt lat="36.04026867758751" lon="-107.0627468461426"><ele>2138.6666666666665</ele><time>2026-05-02T18:17:23Z</time></trkpt><trkpt lat="36.040291883281284" lon="-107.06284915452505"><ele>2139.0</ele><time>2026-05-02T18:17:24Z</time></trkpt><trkpt lat="36.040323980744034" lon="-107.06296548706315"><ele>2139.0</ele><time>2026-05-02T18:17:25Z</time></trkpt><trkpt lat="36.04036580394609" lon="-107.06307634010132"><ele>2139.0</ele><time>2026-05-02T18:17:26Z</time></trkpt><trkpt lat="36.0404063879206" lon="-107.06317955775297"><ele>2139.0</ele><time>2026-05-02T18:17:27Z</time></trkpt><trkpt lat="36.04045351753989" lon="-107.0632770155043"><ele>2139.0</ele><time>2026-05-02T18:17:28Z</time></trkpt><trkpt lat="36.04050513813111" lon="-107.06336862800272"><ele>2139.0</ele><time>2026-05-02T18:17:29Z</time></trkpt><trkpt lat="36.040560807638066" lon="-107.06345315394339"><ele>2139.3333333333335</ele><time>2026-05-02T18:17:30Z</time></trkpt><trkpt lat="36.04063837963245" lon="-107.06354862993294"><ele>2139.666666666667</ele><time>2026-05-02T18:17:31Z</time></trkpt><trkpt lat="36.040747759549426" lon="-107.06366867161836"><ele>2140.0</ele><time>2026-05-02T18:17:32Z</time></trkpt><trkpt lat="36.0410477955311" lon="-107.06382136657777"><ele>2140.25</ele><time>2026-05-02T18:17:33Z</time></trkpt><trkpt lat="36.04112892704838" lon="-107.06390522901415"><ele>2140.5</ele><time>2026-05-02T18:17:34Z</time></trkpt><trkpt lat="36.04122068310562" lon="-107.06393576832843"><ele>2140.75</ele><time>2026-05-02T18:17:35Z</time></trkpt><trkpt lat="36.04133718492489" lon="-107.06390946965587"><ele>2141.0</ele><time>2026-05-02T18:17:36Z</time></trkpt><trkpt lat="36.04147631225887" lon="-107.06387347680655"><ele>2141.0</ele><time>2026-05-02T18:17:37Z</time></trkpt><trkpt lat="36.04156269613864" lon="-107.06385333849903"><ele>2141.0</ele><time>2026-05-02T18:17:38Z</time></trkpt><trkpt lat="36.04163169223426" lon="-107.06383955914036"><ele>2141.0</ele><time>2026-05-02T18:17:39Z</time></trkpt><trkpt lat="36.04171976437911" lon="-107.06385119947375"><ele>2141.0</ele><time>2026-05-02T18:17:40Z</time></trkpt><trkpt lat="36.041868659478645" lon="-107.06386377430054"><ele>2141.0</ele><time>2026-05-02T18:17:41Z</time></trkpt><trkpt lat="36.04201184464923" lon="-107.06387195121016"><ele>2141.0</ele><time>2026-05-02T18:17:42Z</time></trkpt><trkpt lat="36.04217238866565" lon="-107.06385473375201"><ele>2141.0</ele><time>2026-05-02T18:17:43Z</time></trkpt><trkpt lat="36.04235033601568" lon="-107.06384031922774"><ele>2141.0</ele><time>2026-05-02T18:17:44Z</time></trkpt><trkpt lat="36.04250674882919" lon="-107.06382717837828"><ele>2142.0</ele><time>2026-05-02T18:17:45Z</time></trkpt><trkpt lat="36.0426342376758" lon="-107.06382246863147"><ele>2143.0</ele><time>2026-05-02T18:17:46Z</time></trkpt><trkpt lat="36.0427757384206" lon="-107.06382514749426"><ele>2144.0</ele><time>2026-05-02T18:17:47Z</time></trkpt><trkpt lat="36.042933773264686" lon="-107.0638253727043"><ele>2145.0</ele><time>2026-05-02T18:17:48Z</time></trkpt><trkpt lat="36.04309610878649" lon="-107.06381469743008"><ele>2145.0</ele><time>2026-05-02T18:17:49Z</time></trkpt><trkpt lat="36.043240920926685" lon="-107.06381020743223"><ele>2145.0</ele><time>2026-05-02T18:17:50Z</time></trkpt><trkpt lat="36.04337100166328" lon="-107.0638292159995"><ele>2145.0</ele><time>2026-05-02T18:17:51Z</time></trkpt><trkpt lat="36.04351550104536" lon="-107.06384564633011"><ele>2145.0</ele><time>2026-05-02T18:17:52Z</time></trkpt><trkpt lat="36.04367150086055" lon="-107.0638467058705"><ele>2145.75</ele><time>2026-05-02T18:17:53Z</time></trkpt><trkpt lat="36.0438111101218" lon="-107.06384763321584"><ele>2146.5</ele><time>2026-05-02T18:17:54Z</time></trkpt><trkpt lat="36.043942856417324" lon="-107.06385943110081"><ele>2147.25</ele><time>2026-05-02T18:17:55Z</time></trkpt><trkpt lat="36.04405729354964" lon="-107.06386909399598"><ele>2148.0</ele><time>2026-05-02T18:17:56Z</time></trkpt><trkpt lat="36.044176255060336" lon="-107.06387226033306"><ele>2149.5</ele><time>2026-05-02T18:17:57Z</time></trkpt><trkpt lat="36.04429980039937" lon="-107.06386387886118"><ele>2151.0</ele><time>2026-05-02T18:17:58Z</time></trkpt><trkpt lat="36.0444167960327" lon="-107.06389282040965"><ele>2152.5</ele><time>2026-05-02T18:17:59Z</time></trkpt><trkpt lat="36.044538295343386" lon="-107.06389412636942"><ele>2154.0</ele><time>2026-05-02T18:18:00Z</time></trkpt><trkpt lat="36.04468426494294" lon="-107.06386625442376"><ele>2154.0</ele><time>2026-05-02T18:18:01Z</time></trkpt><trkpt lat="36.04485259746395" lon="-107.06383116183795"><ele>2154.0</ele><time>2026-05-02T18:18:02Z</time></trkpt><trkpt lat="36.045017983351045" lon="-107.06382922838735"><ele>2154.0</ele><time>2026-05-02T18:18:03Z</time></trkpt><trkpt lat="36.04515299545012" lon="-107.06386916264846"><ele>2154.4</ele><time>2026-05-02T18:18:04Z</time></trkpt><trkpt lat="36.04527735533142" lon="-107.06388455592105"><ele>2154.8</ele><time>2026-05-02T18:18:05Z</time></trkpt><trkpt lat="36.04539303229658" lon="-107.06386300089652"><ele>2155.2</ele><time>2026-05-02T18:18:06Z</time></trkpt><trkpt lat="36.04548905824372" lon="-107.06383612245114"><ele>2155.6</ele><time>2026-05-02T18:18:07Z</time></trkpt><trkpt lat="36.045569492452664" lon="-107.06383007420318"><ele>2156.0</ele><time>2026-05-02T18:18:08Z</time></trkpt><trkpt lat="36.04565861437642" lon="-107.06384915614554"><ele>2156.0</ele><time>2026-05-02T18:18:09Z</time></trkpt><trkpt lat="36.04577835416034" lon="-107.0638738992963"><ele>2156.0</ele><time>2026-05-02T18:18:10Z</time></trkpt><trkpt lat="36.045930907251446" lon="-107.06383241605128"><ele>2156.0</ele><time>2026-05-02T18:18:11Z</time></trkpt><trkpt lat="36.046092082070984" lon="-107.06378351292271"><ele>2156.0</ele><time>2026-05-02T18:18:12Z</time></trkpt><trkpt lat="36.04624941851656" lon="-107.06378901199079"><ele>2156.4</ele><time>2026-05-02T18:18:13Z</time></trkpt><trkpt lat="36.04636915714724" lon="-107.06381928925798"><ele>2156.8</ele><time>2026-05-02T18:18:14Z</time></trkpt><trkpt lat="36.04645330137078" lon="-107.06385114151936"><ele>2157.2000000000003</ele><time>2026-05-02T18:18:15Z</time></trkpt><trkpt lat="36.04653288201672" lon="-107.06383957978201"><ele>2157.6</ele><time>2026-05-02T18:18:16Z</time></trkpt><trkpt lat="36.046625223776054" lon="-107.0638458435019"><ele>2158.0</ele><time>2026-05-02T18:18:17Z</time></trkpt><trkpt lat="36.04673122577395" lon="-107.06381609050213"><ele>2158.4</ele><time>2026-05-02T18:18:18Z</time></trkpt><trkpt lat="36.04682479100825" lon="-107.0637415616838"><ele>2158.8</ele><time>2026-05-02T18:18:19Z</time></trkpt><trkpt lat="36.046925554055" lon="-107.06362151585095"><ele>2159.2</ele><time>2026-05-02T18:18:20Z</time></trkpt><trkpt lat="36.046996569078296" lon="-107.06354059132643"><ele>2159.6</ele><time>2026-05-02T18:18:21Z</time></trkpt><trkpt lat="36.04705559516647" lon="-107.06346885945426"><ele>2160.0</ele><time>2026-05-02T18:18:22Z</time></trkpt><trkpt lat="36.04713622873594" lon="-107.06343162757854"><ele>2160.0</ele><time>2026-05-02T18:18:23Z</time></trkpt><trkpt lat="36.04723063053034" lon="-107.0633854941854"><ele>2160.0</ele><time>2026-05-02T18:18:24Z</time></trkpt><trkpt lat="36.047313557179706" lon="-107.06328918883236"><ele>2160.0</ele><time>2026-05-02T18:18:25Z</time></trkpt><trkpt lat="36.04740743271178" lon="-107.06321210983897"><ele>2160.0</ele><time>2026-05-02T18:18:26Z</time></trkpt><trkpt lat="36.047508813078366" lon="-107.06315034703"><ele>2160.0</ele><time>2026-05-02T18:18:27Z</time></trkpt><trkpt lat="36.04758981968115" lon="-107.0630742313414"><ele>2160.8333333333335</ele><time>2026-05-02T18:18:28Z</time></trkpt><trkpt lat="36.047667947578645" lon="-107.06300403609339"><ele>2161.6666666666665</ele><time>2026-05-02T18:18:29Z</time></trkpt><trkpt lat="36.04773799219369" lon="-107.0629265284868"><ele>2162.5</ele><time>2026-05-02T18:18:30Z</time></trkpt><trkpt lat="36.04778144699886" lon="-107.06284016307595"><ele>2163.333333333333</ele><time>2026-05-02T18:18:31Z</time></trkpt><trkpt lat="36.047808298555815" lon="-107.06276418924382"><ele>2164.1666666666665</ele><time>2026-05-02T18:18:32Z</time></trkpt><trkpt lat="36.047881755469255" lon="-107.06271925533115"><ele>2165.0</ele><time>2026-05-02T18:18:33Z</time></trkpt><trkpt lat="36.04798951637816" lon="-107.06268190884214"><ele>2165.0</ele><time>2026-05-02T18:18:34Z</time></trkpt><trkpt lat="36.04809005749627" lon="-107.06264240247492"><ele>2165.0</ele><time>2026-05-02T18:18:35Z</time></trkpt><trkpt lat="36.04817971687535" lon="-107.06245564079074"><ele>2165.0</ele><time>2026-05-02T18:18:37Z</time></trkpt><trkpt lat="36.048250557393445" lon="-107.0623611743945"><ele>2165.0</ele><time>2026-05-02T18:18:38Z</time></trkpt><trkpt lat="36.048329243609246" lon="-107.06230893147135"><ele>2165.4</ele><time>2026-05-02T18:18:39Z</time></trkpt><trkpt lat="36.048405719005984" lon="-107.06223648414364"><ele>2165.8</ele><time>2026-05-02T18:18:40Z</time></trkpt><trkpt lat="36.048505940804944" lon="-107.06213907886773"><ele>2166.2</ele><time>2026-05-02T18:18:42Z</time></trkpt><trkpt lat="36.0485669328419" lon="-107.06205980639918"><ele>2166.6</ele><time>2026-05-02T18:18:43Z</time></trkpt><trkpt lat="36.04864627511059" lon="-107.06199105165254"><ele>2167.0</ele><time>2026-05-02T18:18:44Z</time></trkpt><trkpt lat="36.048729117875865" lon="-107.06191797783276"><ele>2167.0</ele><time>2026-05-02T18:18:45Z</time></trkpt><trkpt lat="36.04880666751012" lon="-107.06184515685524"><ele>2167.0</ele><time>2026-05-02T18:18:46Z</time></trkpt><trkpt lat="36.048888393861596" lon="-107.06178536717542"><ele>2167.0</ele><time>2026-05-02T18:18:47Z</time></trkpt><trkpt lat="36.04895850303834" lon="-107.06174671600515"><ele>2167.0</ele><time>2026-05-02T18:18:48Z</time></trkpt><trkpt lat="36.04903406887024" lon="-107.06174857168699"><ele>2167.0</ele><time>2026-05-02T18:18:49Z</time></trkpt><trkpt lat="36.04914037308072" lon="-107.06174433206094"><ele>2167.0</ele><time>2026-05-02T18:18:50Z</time></trkpt><trkpt lat="36.04920028088011" lon="-107.06167119276141"><ele>2167.0</ele><time>2026-05-02T18:18:51Z</time></trkpt><trkpt lat="36.04927937302371" lon="-107.06157246862448"><ele>2167.0</ele><time>2026-05-02T18:18:52Z</time></trkpt><trkpt lat="36.0493805472695" lon="-107.06147825779831"><ele>2167.0</ele><time>2026-05-02T18:18:53Z</time></trkpt><trkpt lat="36.049463338044696" lon="-107.06138163960442"><ele>2167.0</ele><time>2026-05-02T18:18:54Z</time></trkpt><trkpt lat="36.04949841616956" lon="-107.06126854869653"><ele>2167.3333333333335</ele><time>2026-05-02T18:18:55Z</time></trkpt><trkpt lat="36.04955046132255" lon="-107.06114197778705"><ele>2167.666666666667</ele><time>2026-05-02T18:18:56Z</time></trkpt><trkpt lat="36.04959754061056" lon="-107.0610852219044"><ele>2168.0</ele><time>2026-05-02T18:18:57Z</time></trkpt><trkpt lat="36.04968052255801" lon="-107.06104412713967"><ele>2168.3333333333335</ele><time>2026-05-02T18:18:58Z</time></trkpt><trkpt lat="36.049703738293914" lon="-107.06097063669232"><ele>2168.6666666666665</ele><time>2026-05-02T18:18:59Z</time></trkpt><trkpt lat="36.04966545831745" lon="-107.06083624973266"><ele>2169.0</ele><time>2026-05-02T18:19:00Z</time></trkpt><trkpt lat="36.04962762544314" lon="-107.06072321010485"><ele>2170.0</ele><time>2026-05-02T18:19:01Z</time></trkpt><trkpt lat="36.04966035683242" lon="-107.0605959353288"><ele>2171.0</ele><time>2026-05-02T18:19:03Z</time></trkpt><trkpt lat="36.04971264856926" lon="-107.06048067843972"><ele>2172.0</ele><time>2026-05-02T18:19:04Z</time></trkpt><trkpt lat="36.04974111048271" lon="-107.0603635867306"><ele>2173.0</ele><time>2026-05-02T18:19:05Z</time></trkpt><trkpt lat="36.04976694980828" lon="-107.06027431882632"><ele>2174.0</ele><time>2026-05-02T18:19:06Z</time></trkpt><trkpt lat="36.04982722258873" lon="-107.06022853258723"><ele>2174.0</ele><time>2026-05-02T18:19:07Z</time></trkpt><trkpt lat="36.04991263795523" lon="-107.06018149695889"><ele>2174.0</ele><time>2026-05-02T18:19:08Z</time></trkpt><trkpt lat="36.04994982692686" lon="-107.06010926109691"><ele>2174.0</ele><time>2026-05-02T18:19:09Z</time></trkpt><trkpt lat="36.049978090500666" lon="-107.06002405200933"><ele>2174.0</ele><time>2026-05-02T18:19:10Z</time></trkpt><trkpt lat="36.050051238066914" lon="-107.05997565669762"><ele>2174.0</ele><time>2026-05-02T18:19:11Z</time></trkpt><trkpt lat="36.0501102224758" lon="-107.0599290418182"><ele>2174.0</ele><time>2026-05-02T18:19:12Z</time></trkpt><trkpt lat="36.05015161711522" lon="-107.05981493569462"><ele>2174.4</ele><time>2026-05-02T18:19:13Z</time></trkpt><trkpt lat="36.05015728063019" lon="-107.05967448092643"><ele>2174.8</ele><time>2026-05-02T18:19:14Z</time></trkpt><trkpt lat="36.05020377469793" lon="-107.05958396344825"><ele>2175.2</ele><time>2026-05-02T18:19:15Z</time></trkpt><trkpt lat="36.05032172008539" lon="-107.0595231437081"><ele>2175.6</ele><time>2026-05-02T18:19:16Z</time></trkpt><trkpt lat="36.05040773382828" lon="-107.0594842739899"><ele>2176.0</ele><time>2026-05-02T18:19:17Z</time></trkpt><trkpt lat="36.05044022278096" lon="-107.0593945126808"><ele>2176.0</ele><time>2026-05-02T18:19:18Z</time></trkpt><trkpt lat="36.05048513917444" lon="-107.05928952799601"><ele>2176.0</ele><time>2026-05-02T18:19:19Z</time></trkpt><trkpt lat="36.050560115323115" lon="-107.059203394451"><ele>2176.0</ele><time>2026-05-02T18:19:20Z</time></trkpt><trkpt lat="36.05062685999676" lon="-107.05911749812591"><ele>2176.0</ele><time>2026-05-02T18:19:21Z</time></trkpt><trkpt lat="36.050681986226984" lon="-107.05899094424394"><ele>2176.0</ele><time>2026-05-02T18:19:22Z</time></trkpt><trkpt lat="36.05071601592916" lon="-107.05883565319371"><ele>2176.8</ele><time>2026-05-02T18:19:23Z</time></trkpt><trkpt lat="36.050762265959904" lon="-107.05869913104647"><ele>2177.6</ele><time>2026-05-02T18:19:24Z</time></trkpt><trkpt lat="36.05081371166627" lon="-107.05857495320691"><ele>2178.4</ele><time>2026-05-02T18:19:25Z</time></trkpt><trkpt lat="36.05086060691837" lon="-107.05848137033433"><ele>2179.2</ele><time>2026-05-02T18:19:26Z</time></trkpt><trkpt lat="36.05093322395564" lon="-107.05841426676642"><ele>2180.0</ele><time>2026-05-02T18:19:27Z</time></trkpt><trkpt lat="36.051020430879724" lon="-107.05835056131528"><ele>2181.2</ele><time>2026-05-02T18:19:28Z</time></trkpt><trkpt lat="36.05108446874504" lon="-107.05825505934891"><ele>2182.4</ele><time>2026-05-02T18:19:29Z</time></trkpt><trkpt lat="36.05117427926183" lon="-107.05815836680502"><ele>2183.6</ele><time>2026-05-02T18:19:30Z</time></trkpt><trkpt lat="36.051243880817076" lon="-107.05806587783465"><ele>2184.8</ele><time>2026-05-02T18:19:31Z</time></trkpt><trkpt lat="36.05131059322395" lon="-107.05797029570158"><ele>2186.0</ele><time>2026-05-02T18:19:32Z</time></trkpt><trkpt lat="36.05139184675449" lon="-107.05786216425096"><ele>2186.0</ele><time>2026-05-02T18:19:33Z</time></trkpt><trkpt lat="36.05146188271118" lon="-107.05774974604161"><ele>2186.0</ele><time>2026-05-02T18:19:34Z</time></trkpt><trkpt lat="36.05150989946027" lon="-107.05765863212953"><ele>2186.0</ele><time>2026-05-02T18:19:35Z</time></trkpt><trkpt lat="36.05154975118492" lon="-107.05753833977472"><ele>2186.0</ele><time>2026-05-02T18:19:36Z</time></trkpt><trkpt lat="36.05157820104393" lon="-107.05740694432009"><ele>2186.0</ele><time>2026-05-02T18:19:37Z</time></trkpt><trkpt lat="36.05161124665253" lon="-107.05729521426942"><ele>2187.2</ele><time>2026-05-02T18:19:38Z</time></trkpt><trkpt lat="36.05162300419021" lon="-107.05720125745563"><ele>2188.3999999999996</ele><time>2026-05-02T18:19:39Z</time></trkpt><trkpt lat="36.05157585182018" lon="-107.05709798076383"><ele>2189.6</ele><time>2026-05-02T18:19:40Z</time></trkpt><trkpt lat="36.051489305528726" lon="-107.05700068477657"><ele>2190.7999999999997</ele><time>2026-05-02T18:19:41Z</time></trkpt><trkpt lat="36.05139969269146" lon="-107.05689297709719"><ele>2192.0</ele><time>2026-05-02T18:19:42Z</time></trkpt><trkpt lat="36.05136075501719" lon="-107.05682808698766"><ele>2192.0</ele><time>2026-05-02T18:19:43Z</time></trkpt><trkpt lat="36.051402470145646" lon="-107.05688764779329"><ele>2192.0</ele><time>2026-05-02T18:19:46.999Z</time></trkpt><trkpt lat="36.05147734698956" lon="-107.05682650372228"><ele>2192.0</ele><time>2026-05-02T18:19:59.999Z</time></trkpt><trkpt lat="36.05155483967757" lon="-107.05680210082501"><ele>2192.0</ele><time>2026-05-02T18:20:00.999Z</time></trkpt><trkpt lat="36.05167512326752" lon="-107.05679337454023"><ele>2192.0</ele><time>2026-05-02T18:20:01.999Z</time></trkpt><trkpt lat="36.051812278501316" lon="-107.05674608226025"><ele>2192.0</ele><time>2026-05-02T18:20:02.999Z</time></trkpt><trkpt lat="36.051908592679325" lon="-107.05670068082732"><ele>2192.0</ele><time>2026-05-02T18:20:03.999Z</time></trkpt><trkpt lat="36.051928143780195" lon="-107.05658350193853"><ele>2192.0</ele><time>2026-05-02T18:20:04.999Z</time></trkpt><trkpt lat="36.05198896913046" lon="-107.05642723150774"><ele>2192.0</ele><time>2026-05-02T18:20:05.999Z</time></trkpt><trkpt lat="36.05198415952784" lon="-107.05631386234153"><ele>2192.0</ele><time>2026-05-02T18:20:06.999Z</time></trkpt><trkpt lat="36.05194179552444" lon="-107.05617858457863"><ele>2193.0</ele><time>2026-05-02T18:20:07.999Z</time></trkpt><trkpt lat="36.051960316886635" lon="-107.05599401171789"><ele>2194.0</ele><time>2026-05-02T18:20:08.999Z</time></trkpt><trkpt lat="36.05201228095397" lon="-107.05590340027206"><ele>2195.0</ele><time>2026-05-02T18:20:09.999Z</time></trkpt><trkpt lat="36.05208267427729" lon="-107.05581102680674"><ele>2196.0</ele><time>2026-05-02T18:20:10.999Z</time></trkpt><trkpt lat="36.05214428692411" lon="-107.05571817179023"><ele>2197.0</ele><time>2026-05-02T18:20:11.999Z</time></trkpt><trkpt lat="36.05223082683047" lon="-107.05563482714173"><ele>2198.4</ele><time>2026-05-02T18:20:12.999Z</time></trkpt><trkpt lat="36.05229202793833" lon="-107.055545648977"><ele>2199.7999999999997</ele><time>2026-05-02T18:20:13.999Z</time></trkpt><trkpt lat="36.0522769510047" lon="-107.05543423124719"><ele>2201.2</ele><time>2026-05-02T18:20:14.999Z</time></trkpt><trkpt lat="36.05221823928526" lon="-107.05527793204232"><ele>2202.6</ele><time>2026-05-02T18:20:15.999Z</time></trkpt><trkpt lat="36.05218157839053" lon="-107.05515682250926"><ele>2204.0</ele><time>2026-05-02T18:20:16.999Z</time></trkpt><trkpt lat="36.052034437732885" lon="-107.05516522883455"><ele>2204.0</ele><time>2026-05-02T18:20:18.999Z</time></trkpt><trkpt lat="36.05194575480701" lon="-107.0551713957808"><ele>2204.0</ele><time>2026-05-02T18:20:19.999Z</time></trkpt><trkpt lat="36.05191622798581" lon="-107.05503175432305"><ele>2204.0</ele><time>2026-05-02T18:20:21.999Z</time></trkpt><trkpt lat="36.051921835025176" lon="-107.0549191722962"><ele>2204.0</ele><time>2026-05-02T18:20:22.999Z</time></trkpt><trkpt lat="36.0520053948806" lon="-107.05479147004881"><ele>2204.0</ele><time>2026-05-02T18:20:24.999Z</time></trkpt><trkpt lat="36.05211280675001" lon="-107.05468718177707"><ele>2205.5</ele><time>2026-05-02T18:20:25.999Z</time></trkpt><trkpt lat="36.052191003173" lon="-107.054521867072"><ele>2207.0</ele><time>2026-05-02T18:20:26.999Z</time></trkpt><trkpt lat="36.05225235729006" lon="-107.05437163418124"><ele>2208.5</ele><time>2026-05-02T18:20:27.999Z</time></trkpt><trkpt lat="36.05232125117812" lon="-107.05425885542424"><ele>2210.0</ele><time>2026-05-02T18:20:28.999Z</time></trkpt><trkpt lat="36.05240676336011" lon="-107.05416530046286"><ele>2211.0</ele><time>2026-05-02T18:20:29.999Z</time></trkpt><trkpt lat="36.05251290168634" lon="-107.05408018406888"><ele>2212.0</ele><time>2026-05-02T18:20:30.999Z</time></trkpt><trkpt lat="36.052589638209035" lon="-107.05400705624879"><ele>2213.0</ele><time>2026-05-02T18:20:31.999Z</time></trkpt><trkpt lat="36.052636118223916" lon="-107.05389042787222"><ele>2214.0</ele><time>2026-05-02T18:20:32.999Z</time></trkpt><trkpt lat="36.05269427716657" lon="-107.05378598279268"><ele>2215.0</ele><time>2026-05-02T18:20:33.999Z</time></trkpt><trkpt lat="36.05275009020016" lon="-107.05371859813886"><ele>2215.0</ele><time>2026-05-02T18:20:34.999Z</time></trkpt><trkpt lat="36.05275209184788" lon="-107.05360708906208"><ele>2215.0</ele><time>2026-05-02T18:20:35.999Z</time></trkpt><trkpt lat="36.05275647872828" lon="-107.053453546124"><ele>2215.0</ele><time>2026-05-02T18:20:36.999Z</time></trkpt><trkpt lat="36.052799597064414" lon="-107.05335680775794"><ele>2215.0</ele><time>2026-05-02T18:20:37.999Z</time></trkpt><trkpt lat="36.052813036049415" lon="-107.05326067099685"><ele>2215.0</ele><time>2026-05-02T18:20:38.999Z</time></trkpt><trkpt lat="36.0528306745466" lon="-107.05316348854909"><ele>2216.2</ele><time>2026-05-02T18:20:39.999Z</time></trkpt><trkpt lat="36.052879400641245" lon="-107.0530750126329"><ele>2217.4</ele><time>2026-05-02T18:20:40.999Z</time></trkpt><trkpt lat="36.0529123405977" lon="-107.0529606505488"><ele>2218.6</ele><time>2026-05-02T18:20:41.999Z</time></trkpt><trkpt lat="36.05291286013663" lon="-107.0528357487631"><ele>2219.8</ele><time>2026-05-02T18:20:42.999Z</time></trkpt><trkpt lat="36.05291000953901" lon="-107.05271747781981"><ele>2221.0</ele><time>2026-05-02T18:20:43.999Z</time></trkpt><trkpt lat="36.05290225123719" lon="-107.05261171057916"><ele>2221.0</ele><time>2026-05-02T18:20:44.999Z</time></trkpt><trkpt lat="36.052901180142925" lon="-107.05251146242394"><ele>2221.0</ele><time>2026-05-02T18:20:45.999Z</time></trkpt><trkpt lat="36.05288630297653" lon="-107.05241061070998"><ele>2221.0</ele><time>2026-05-02T18:20:46.999Z</time></trkpt><trkpt lat="36.05281636820326" lon="-107.05229101633662"><ele>2221.0</ele><time>2026-05-02T18:20:47.999Z</time></trkpt><trkpt lat="36.05276377401285" lon="-107.05217705570588"><ele>2221.0</ele><time>2026-05-02T18:20:48.999Z</time></trkpt><trkpt lat="36.0527205496433" lon="-107.05208029977022"><ele>2221.6</ele><time>2026-05-02T18:20:49.999Z</time></trkpt><trkpt lat="36.05269310740243" lon="-107.05198700062205"><ele>2222.2</ele><time>2026-05-02T18:20:50.999Z</time></trkpt><trkpt lat="36.05259403580233" lon="-107.05185882997387"><ele>2222.8</ele><time>2026-05-02T18:20:52.999Z</time></trkpt><trkpt lat="36.05254226590561" lon="-107.05173440018595"><ele>2223.4</ele><time>2026-05-02T18:20:53.999Z</time></trkpt><trkpt lat="36.0524841009258" lon="-107.05166450463118"><ele>2224.0</ele><time>2026-05-02T18:20:54.999Z</time></trkpt><trkpt lat="36.052412483722364" lon="-107.05166580105218"><ele>2222.0</ele><time>2026-05-02T18:20:55.999Z</time></trkpt><trkpt lat="36.05232014518689" lon="-107.05168900460662"><ele>2220.0</ele><time>2026-05-02T18:20:56.999Z</time></trkpt><trkpt lat="36.052231268556866" lon="-107.05178559471537"><ele>2218.0</ele><time>2026-05-02T18:20:57.999Z</time></trkpt><trkpt lat="36.05213500089791" lon="-107.05186832899942"><ele>2216.0</ele><time>2026-05-02T18:20:58.999Z</time></trkpt><trkpt lat="36.05205528454781" lon="-107.05185871015591"><ele>2214.0</ele><time>2026-05-02T18:20:59.999Z</time></trkpt><trkpt lat="36.05194092292984" lon="-107.05179440983792"><ele>2214.0</ele><time>2026-05-02T18:21:00.999Z</time></trkpt><trkpt lat="36.05181622544128" lon="-107.05171756832769"><ele>2214.0</ele><time>2026-05-02T18:21:01.999Z</time></trkpt><trkpt lat="36.051689253970416" lon="-107.0516962084284"><ele>2214.0</ele><time>2026-05-02T18:21:02.999Z</time></trkpt><trkpt lat="36.05158720200401" lon="-107.05172061227312"><ele>2214.0</ele><time>2026-05-02T18:21:03.999Z</time></trkpt><trkpt lat="36.05143666350745" lon="-107.05169728718452"><ele>2213.5</ele><time>2026-05-02T18:21:04.999Z</time></trkpt><trkpt lat="36.05132824081786" lon="-107.05162834994732"><ele>2213.0</ele><time>2026-05-02T18:21:05.999Z</time></trkpt><trkpt lat="36.051225852660124" lon="-107.05150867208424"><ele>2212.5</ele><time>2026-05-02T18:21:06.999Z</time></trkpt><trkpt lat="36.05112494079164" lon="-107.0513682657842"><ele>2212.0</ele><time>2026-05-02T18:21:07.999Z</time></trkpt><trkpt lat="36.0510456849225" lon="-107.05122407457122"><ele>2211.6</ele><time>2026-05-02T18:21:08.999Z</time></trkpt><trkpt lat="36.05095980609366" lon="-107.05112061166068"><ele>2211.2</ele><time>2026-05-02T18:21:09.999Z</time></trkpt><trkpt lat="36.050889206441425" lon="-107.05103415329292"><ele>2210.8</ele><time>2026-05-02T18:21:10.999Z</time></trkpt><trkpt lat="36.05082648110794" lon="-107.05095242903478"><ele>2210.4</ele><time>2026-05-02T18:21:11.999Z</time></trkpt><trkpt lat="36.050805137882385" lon="-107.05086712586049"><ele>2210.0</ele><time>2026-05-02T18:21:12.999Z</time></trkpt><trkpt lat="36.05084148279676" lon="-107.05074858811467"><ele>2210.0</ele><time>2026-05-02T18:21:13.999Z</time></trkpt><trkpt lat="36.05089982175108" lon="-107.05062422908132"><ele>2210.0</ele><time>2026-05-02T18:21:14.999Z</time></trkpt><trkpt lat="36.05096633383015" lon="-107.05050491962083"><ele>2210.0</ele><time>2026-05-02T18:21:15.999Z</time></trkpt><trkpt lat="36.05112818061626" lon="-107.05040934273968"><ele>2210.0</ele><time>2026-05-02T18:21:16.999Z</time></trkpt><trkpt lat="36.05127254048035" lon="-107.05035316524857"><ele>2210.0</ele><time>2026-05-02T18:21:17.999Z</time></trkpt><trkpt lat="36.05145319199631" lon="-107.05028277485843"><ele>2210.0</ele><time>2026-05-02T18:21:18.999Z</time></trkpt><trkpt lat="36.05163185449459" lon="-107.05022027390201"><ele>2210.0</ele><time>2026-05-02T18:21:19.999Z</time></trkpt><trkpt lat="36.05178972493944" lon="-107.0501667063389"><ele>2211.25</ele><time>2026-05-02T18:21:20.999Z</time></trkpt><trkpt lat="36.0519532625645" lon="-107.05016958170991"><ele>2212.5</ele><time>2026-05-02T18:21:21.999Z</time></trkpt><trkpt lat="36.052081498906325" lon="-107.05018386003255"><ele>2213.75</ele><time>2026-05-02T18:21:22.999Z</time></trkpt><trkpt lat="36.05220188980975" lon="-107.05024368045692"><ele>2215.0</ele><time>2026-05-02T18:21:23.999Z</time></trkpt><trkpt lat="36.0523046858166" lon="-107.0503064089933"><ele>2215.0</ele><time>2026-05-02T18:21:25Z</time></trkpt><trkpt lat="36.05237897225313" lon="-107.05031042360213"><ele>2215.0</ele><time>2026-05-02T18:21:26Z</time></trkpt><trkpt lat="36.052491135162576" lon="-107.05025540055418"><ele>2215.0</ele><time>2026-05-02T18:21:27Z</time></trkpt><trkpt lat="36.052620631475335" lon="-107.0501804694718"><ele>2215.0</ele><time>2026-05-02T18:21:28Z</time></trkpt><trkpt lat="36.05273955550006" lon="-107.05013827596821"><ele>2216.0</ele><time>2026-05-02T18:21:29Z</time></trkpt><trkpt lat="36.0528778289453" lon="-107.050140193917"><ele>2217.0</ele><time>2026-05-02T18:21:30Z</time></trkpt><trkpt lat="36.05304048515912" lon="-107.0501810240106"><ele>2218.0</ele><time>2026-05-02T18:21:31Z</time></trkpt><trkpt lat="36.053172699344515" lon="-107.05020237405516"><ele>2219.0</ele><time>2026-05-02T18:21:32Z</time></trkpt><trkpt lat="36.053289824269385" lon="-107.05020106261766"><ele>2221.0</ele><time>2026-05-02T18:21:33Z</time></trkpt><trkpt lat="36.05340228615182" lon="-107.05026119227603"><ele>2223.0</ele><time>2026-05-02T18:21:34Z</time></trkpt><trkpt lat="36.05353517463108" lon="-107.05042017458554"><ele>2225.0</ele><time>2026-05-02T18:21:35Z</time></trkpt><trkpt lat="36.05366243217819" lon="-107.05054220693953"><ele>2225.0</ele><time>2026-05-02T18:21:36Z</time></trkpt><trkpt lat="36.053782629269556" lon="-107.05056828477167"><ele>2225.0</ele><time>2026-05-02T18:21:37Z</time></trkpt><trkpt lat="36.053909210348465" lon="-107.05055946198262"><ele>2225.0</ele><time>2026-05-02T18:21:38Z</time></trkpt><trkpt lat="36.05404204677852" lon="-107.05058056767376"><ele>2225.0</ele><time>2026-05-02T18:21:39Z</time></trkpt><trkpt lat="36.054139935504416" lon="-107.05066645069904"><ele>2226.5</ele><time>2026-05-02T18:21:40Z</time></trkpt><trkpt lat="36.054240232126794" lon="-107.05078487695506"><ele>2228.0</ele><time>2026-05-02T18:21:41Z</time></trkpt><trkpt lat="36.05434857700943" lon="-107.05090581442505"><ele>2229.5</ele><time>2026-05-02T18:21:42Z</time></trkpt><trkpt lat="36.05443594938649" lon="-107.0510246869404"><ele>2231.0</ele><time>2026-05-02T18:21:43Z</time></trkpt><trkpt lat="36.054510892894605" lon="-107.05114401228278"><ele>2231.0</ele><time>2026-05-02T18:21:44Z</time></trkpt><trkpt lat="36.05454576642275" lon="-107.05121774252548"><ele>2231.0</ele><time>2026-05-02T18:21:45Z</time></trkpt><trkpt lat="36.0545455136324" lon="-107.05130702303818"><ele>2231.0</ele><time>2026-05-02T18:21:49Z</time></trkpt><trkpt lat="36.054602036770525" lon="-107.05137845342792"><ele>2231.0</ele><time>2026-05-02T18:21:51Z</time></trkpt><trkpt lat="36.054677572960635" lon="-107.05144299876277"><ele>2231.0</ele><time>2026-05-02T18:21:52Z</time></trkpt><trkpt lat="36.05478237888637" lon="-107.05149781304435"><ele>2231.0</ele><time>2026-05-02T18:21:53Z</time></trkpt><trkpt lat="36.05486383829061" lon="-107.05149350717403"><ele>2232.0</ele><time>2026-05-02T18:21:53.999Z</time></trkpt><trkpt lat="36.05497306209803" lon="-107.05143781813004"><ele>2233.0</ele><time>2026-05-02T18:21:54.999Z</time></trkpt><trkpt lat="36.05507598850571" lon="-107.05137151294461"><ele>2234.0</ele><time>2026-05-02T18:21:55.999Z</time></trkpt><trkpt lat="36.05518194118217" lon="-107.05141851262394"><ele>2235.0</ele><time>2026-05-02T18:21:57.999Z</time></trkpt><trkpt lat="36.05529676460617" lon="-107.05146367530342"><ele>2235.0</ele><time>2026-05-02T18:21:58.999Z</time></trkpt><trkpt lat="36.055411544148896" lon="-107.05148065270923"><ele>2235.0</ele><time>2026-05-02T18:21:59.999Z</time></trkpt><trkpt lat="36.05550358530564" lon="-107.05143186056905"><ele>2235.0</ele><time>2026-05-02T18:22:00.999Z</time></trkpt><trkpt lat="36.05559435399147" lon="-107.05137198324825"><ele>2235.0</ele><time>2026-05-02T18:22:01.999Z</time></trkpt><trkpt lat="36.05568162133929" lon="-107.05134150214984"><ele>2235.0</ele><time>2026-05-02T18:22:02.999Z</time></trkpt><trkpt lat="36.05574345787311" lon="-107.05128626230214"><ele>2236.0</ele><time>2026-05-02T18:22:03.999Z</time></trkpt><trkpt lat="36.05579680767384" lon="-107.0511349263468"><ele>2237.0</ele><time>2026-05-02T18:22:04.999Z</time></trkpt><trkpt lat="36.05586453999832" lon="-107.05097954611462"><ele>2238.0</ele><time>2026-05-02T18:22:05.999Z</time></trkpt><trkpt lat="36.05594987088454" lon="-107.0508690153461"><ele>2239.0</ele><time>2026-05-02T18:22:06.999Z</time></trkpt><trkpt lat="36.056028728363835" lon="-107.0507613081257"><ele>2239.25</ele><time>2026-05-02T18:22:07.999Z</time></trkpt><trkpt lat="36.05615478389791" lon="-107.05065726916668"><ele>2239.5</ele><time>2026-05-02T18:22:08.999Z</time></trkpt><trkpt lat="36.05626329598023" lon="-107.05053896146329"><ele>2239.75</ele><time>2026-05-02T18:22:09.999Z</time></trkpt><trkpt lat="36.05635261706764" lon="-107.05043903646714"><ele>2240.0</ele><time>2026-05-02T18:22:10.999Z</time></trkpt><trkpt lat="36.05646240595538" lon="-107.0503071567255"><ele>2240.0</ele><time>2026-05-02T18:22:11.999Z</time></trkpt><trkpt lat="36.05652877180995" lon="-107.05021890757425"><ele>2240.0</ele><time>2026-05-02T18:22:12.999Z</time></trkpt><trkpt lat="36.05659057413666" lon="-107.05014514510799"><ele>2240.0</ele><time>2026-05-02T18:22:13.999Z</time></trkpt><trkpt lat="36.05663725264232" lon="-107.050062668374"><ele>2240.0</ele><time>2026-05-02T18:22:14.999Z</time></trkpt><trkpt lat="36.056678298335285" lon="-107.04996037085047"><ele>2240.0</ele><time>2026-05-02T18:22:15.999Z</time></trkpt><trkpt lat="36.05670587325744" lon="-107.04984731266866"><ele>2239.2</ele><time>2026-05-02T18:22:16.999Z</time></trkpt><trkpt lat="36.056736315425525" lon="-107.04973688919684"><ele>2238.4</ele><time>2026-05-02T18:22:17.999Z</time></trkpt><trkpt lat="36.05673744858041" lon="-107.04962533820267"><ele>2237.6</ele><time>2026-05-02T18:22:18.999Z</time></trkpt><trkpt lat="36.056717002235985" lon="-107.04949447826104"><ele>2236.8</ele><time>2026-05-02T18:22:19.999Z</time></trkpt><trkpt lat="36.05675802150159" lon="-107.04935642492852"><ele>2236.0</ele><time>2026-05-02T18:22:20.999Z</time></trkpt><trkpt lat="36.05679783009941" lon="-107.04918628155485"><ele>2235.5</ele><time>2026-05-02T18:22:21.999Z</time></trkpt><trkpt lat="36.056826065306005" lon="-107.04905651107153"><ele>2235.0</ele><time>2026-05-02T18:22:22.999Z</time></trkpt><trkpt lat="36.05684651844876" lon="-107.04890540562072"><ele>2234.5</ele><time>2026-05-02T18:22:23.999Z</time></trkpt><trkpt lat="36.05685037514506" lon="-107.04871971060571"><ele>2234.0</ele><time>2026-05-02T18:22:24.999Z</time></trkpt><trkpt lat="36.0568556650572" lon="-107.04855725259951"><ele>2234.0</ele><time>2026-05-02T18:22:25.999Z</time></trkpt><trkpt lat="36.05685645233657" lon="-107.04843074456093"><ele>2234.0</ele><time>2026-05-02T18:22:26.999Z</time></trkpt><trkpt lat="36.056858622500485" lon="-107.04829630299636"><ele>2234.0</ele><time>2026-05-02T18:22:27.999Z</time></trkpt><trkpt lat="36.056876041704754" lon="-107.04815255908363"><ele>2234.0</ele><time>2026-05-02T18:22:28.999Z</time></trkpt><trkpt lat="36.05689330047873" lon="-107.04799431227252"><ele>2233.2</ele><time>2026-05-02T18:22:29.999Z</time></trkpt><trkpt lat="36.0568836161935" lon="-107.04787815192596"><ele>2232.4</ele><time>2026-05-02T18:22:30.999Z</time></trkpt><trkpt lat="36.05688189178794" lon="-107.04777731386243"><ele>2231.6</ele><time>2026-05-02T18:22:31.999Z</time></trkpt><trkpt lat="36.056912514998245" lon="-107.04768801981511"><ele>2230.8</ele><time>2026-05-02T18:22:32.999Z</time></trkpt><trkpt lat="36.05694526255143" lon="-107.04755389628295"><ele>2230.0</ele><time>2026-05-02T18:22:33.999Z</time></trkpt><trkpt lat="36.05696513299768" lon="-107.0474021233104"><ele>2228.75</ele><time>2026-05-02T18:22:34.999Z</time></trkpt><trkpt lat="36.05694888404887" lon="-107.04726426347567"><ele>2227.5</ele><time>2026-05-02T18:22:35.999Z</time></trkpt><trkpt lat="36.05691363913348" lon="-107.04710524792304"><ele>2226.25</ele><time>2026-05-02T18:22:36.999Z</time></trkpt><trkpt lat="36.05688680168488" lon="-107.04693118716017"><ele>2225.0</ele><time>2026-05-02T18:22:37.999Z</time></trkpt><trkpt lat="36.056876536745975" lon="-107.04677828471594"><ele>2225.0</ele><time>2026-05-02T18:22:38.999Z</time></trkpt><trkpt lat="36.05686867256006" lon="-107.04662729317317"><ele>2225.0</ele><time>2026-05-02T18:22:39.999Z</time></trkpt><trkpt lat="36.056862879191186" lon="-107.04648965480708"><ele>2225.0</ele><time>2026-05-02T18:22:40.999Z</time></trkpt><trkpt lat="36.056863052255835" lon="-107.04636071632302"><ele>2225.0</ele><time>2026-05-02T18:22:41.999Z</time></trkpt><trkpt lat="36.056871959562415" lon="-107.04624252107034"><ele>2225.0</ele><time>2026-05-02T18:22:42.999Z</time></trkpt><trkpt lat="36.05688377901191" lon="-107.04613646680532"><ele>2225.0</ele><time>2026-05-02T18:22:43.999Z</time></trkpt><trkpt lat="36.056908776362356" lon="-107.04605486118157"><ele>2225.0</ele><time>2026-05-02T18:22:44.999Z</time></trkpt><trkpt lat="36.05696435143362" lon="-107.04600109191699"><ele>2225.0</ele><time>2026-05-02T18:22:46.999Z</time></trkpt><trkpt lat="36.056857540579664" lon="-107.0459852279743"><ele>2225.0</ele><time>2026-05-02T18:22:48.999Z</time></trkpt><trkpt lat="36.056780140773846" lon="-107.04600537397255"><ele>2225.0</ele><time>2026-05-02T18:22:49.999Z</time></trkpt><trkpt lat="36.05667324347506" lon="-107.04602393603679"><ele>2225.0</ele><time>2026-05-02T18:22:50.999Z</time></trkpt><trkpt lat="36.05656054419195" lon="-107.04605593121437"><ele>2227.25</ele><time>2026-05-02T18:22:51.999Z</time></trkpt><trkpt lat="36.05643639980316" lon="-107.04608209724263"><ele>2229.5</ele><time>2026-05-02T18:22:52.999Z</time></trkpt><trkpt lat="36.05632216949757" lon="-107.04609885476235"><ele>2231.75</ele><time>2026-05-02T18:22:53.999Z</time></trkpt><trkpt lat="36.05619146115419" lon="-107.04609015024256"><ele>2234.0</ele><time>2026-05-02T18:22:54.999Z</time></trkpt><trkpt lat="36.05610979809725" lon="-107.04611085336684"><ele>2234.0</ele><time>2026-05-02T18:22:55.999Z</time></trkpt><trkpt lat="36.056046713193226" lon="-107.04609595668724"><ele>2234.0</ele><time>2026-05-02T18:22:56.999Z</time></trkpt><trkpt lat="36.056009762925044" lon="-107.04602046106925"><ele>2234.0</ele><time>2026-05-02T18:22:57.999Z</time></trkpt><trkpt lat="36.055959191305696" lon="-107.0459522853337"><ele>2234.0</ele><time>2026-05-02T18:22:58.999Z</time></trkpt><trkpt lat="36.05592698437697" lon="-107.04584527769941"><ele>2234.0</ele><time>2026-05-02T18:22:59.999Z</time></trkpt><trkpt lat="36.055917012520126" lon="-107.04576231872821"><ele>2234.0</ele><time>2026-05-02T18:23:00.999Z</time></trkpt><trkpt lat="36.0558376252066" lon="-107.04574981778454"><ele>2235.2</ele><time>2026-05-02T18:23:02.999Z</time></trkpt><trkpt lat="36.0557349930462" lon="-107.04576136678808"><ele>2236.4</ele><time>2026-05-02T18:23:03.999Z</time></trkpt><trkpt lat="36.05564318368671" lon="-107.04574342755284"><ele>2237.6</ele><time>2026-05-02T18:23:04.999Z</time></trkpt><trkpt lat="36.05557416116983" lon="-107.04567077936271"><ele>2238.8</ele><time>2026-05-02T18:23:05.999Z</time></trkpt><trkpt lat="36.055498034733766" lon="-107.04559200807437"><ele>2240.0</ele><time>2026-05-02T18:23:06.999Z</time></trkpt><trkpt lat="36.05542179097309" lon="-107.04548448783393"><ele>2240.0</ele><time>2026-05-02T18:23:07.999Z</time></trkpt><trkpt lat="36.05533509406822" lon="-107.04539660476598"><ele>2240.0</ele><time>2026-05-02T18:23:08.999Z</time></trkpt><trkpt lat="36.05521125428197" lon="-107.04531715670419"><ele>2240.0</ele><time>2026-05-02T18:23:09.999Z</time></trkpt><trkpt lat="36.05509599455402" lon="-107.0453028552992"><ele>2240.0</ele><time>2026-05-02T18:23:10.999Z</time></trkpt><trkpt lat="36.054947362505075" lon="-107.04527832497773"><ele>2239.833333333333</ele><time>2026-05-02T18:23:11.999Z</time></trkpt><trkpt lat="36.054888747349935" lon="-107.04522370824563"><ele>2239.6666666666665</ele><time>2026-05-02T18:23:12.999Z</time></trkpt><trkpt lat="36.05485155468149" lon="-107.04510798609427"><ele>2239.5</ele><time>2026-05-02T18:23:13.999Z</time></trkpt><trkpt lat="36.054864744218975" lon="-107.04498975799348"><ele>2239.3333333333335</ele><time>2026-05-02T18:23:14.999Z</time></trkpt><trkpt lat="36.05490356153279" lon="-107.04489411910724"><ele>2239.166666666667</ele><time>2026-05-02T18:23:15.999Z</time></trkpt><trkpt lat="36.054982138046206" lon="-107.04483435464623"><ele>2239.0</ele><time>2026-05-02T18:23:16.999Z</time></trkpt><trkpt lat="36.05505868644525" lon="-107.04482252753981"><ele>2239.0</ele><time>2026-05-02T18:23:17.999Z</time></trkpt><trkpt lat="36.05513177488529" lon="-107.04473756315161"><ele>2239.0</ele><time>2026-05-02T18:23:19.999Z</time></trkpt><trkpt lat="36.05518929737445" lon="-107.04465427751167"><ele>2239.0</ele><time>2026-05-02T18:23:20.999Z</time></trkpt><trkpt lat="36.055277283209314" lon="-107.04457231451788"><ele>2239.0</ele><time>2026-05-02T18:23:21.999Z</time></trkpt><trkpt lat="36.05533198928847" lon="-107.04447626786482"><ele>2239.0</ele><time>2026-05-02T18:23:22.999Z</time></trkpt><trkpt lat="36.05535348985921" lon="-107.04439857250331"><ele>2239.0</ele><time>2026-05-02T18:23:23.999Z</time></trkpt><trkpt lat="36.05533571590463" lon="-107.0442846146788"><ele>2239.0</ele><time>2026-05-02T18:23:25.999Z</time></trkpt><trkpt lat="36.05522899333302" lon="-107.0442174996302"><ele>2239.0</ele><time>2026-05-02T18:23:28Z</time></trkpt><trkpt lat="36.05516577530088" lon="-107.04415027522533"><ele>2239.0</ele><time>2026-05-02T18:23:29Z</time></trkpt><trkpt lat="36.055098164870515" lon="-107.04402260556859"><ele>2239.0</ele><time>2026-05-02T18:23:31Z</time></trkpt><trkpt lat="36.05506483809246" lon="-107.04388246939578"><ele>2237.25</ele><time>2026-05-02T18:23:32Z</time></trkpt><trkpt lat="36.05497942410256" lon="-107.04378873817582"><ele>2235.5</ele><time>2026-05-02T18:23:33Z</time></trkpt><trkpt lat="36.05487974515426" lon="-107.04370699559786"><ele>2233.75</ele><time>2026-05-02T18:23:34Z</time></trkpt><trkpt lat="36.05478253601467" lon="-107.04358897452543"><ele>2232.0</ele><time>2026-05-02T18:23:35Z</time></trkpt><trkpt lat="36.05470660930167" lon="-107.04345880646532"><ele>2231.4</ele><time>2026-05-02T18:23:36Z</time></trkpt><trkpt lat="36.054683581275654" lon="-107.04337388483495"><ele>2230.7999999999997</ele><time>2026-05-02T18:23:37Z</time></trkpt><trkpt lat="36.05461509328006" lon="-107.04328194838382"><ele>2230.2</ele><time>2026-05-02T18:23:39Z</time></trkpt><trkpt lat="36.05466444320981" lon="-107.04313049395381"><ele>2229.6</ele><time>2026-05-02T18:23:42Z</time></trkpt><trkpt lat="36.05469561932136" lon="-107.04302455658285"><ele>2229.0</ele><time>2026-05-02T18:23:43Z</time></trkpt><trkpt lat="36.05468407602715" lon="-107.04294313860565"><ele>2228.5</ele><time>2026-05-02T18:23:44Z</time></trkpt><trkpt lat="36.054636335698326" lon="-107.0428917132549"><ele>2228.0</ele><time>2026-05-02T18:23:45Z</time></trkpt><trkpt lat="36.054553791322626" lon="-107.04282448872826"><ele>2227.5</ele><time>2026-05-02T18:23:46Z</time></trkpt><trkpt lat="36.05450015660215" lon="-107.04272840594734"><ele>2227.0</ele><time>2026-05-02T18:23:47Z</time></trkpt><trkpt lat="36.05448469826514" lon="-107.04262780170653"><ele>2226.5</ele><time>2026-05-02T18:23:48Z</time></trkpt><trkpt lat="36.054444803606415" lon="-107.04250563932492"><ele>2226.0</ele><time>2026-05-02T18:23:49Z</time></trkpt><trkpt lat="36.054395615241475" lon="-107.04241182734762"><ele>2225.0</ele><time>2026-05-02T18:23:50Z</time></trkpt><trkpt lat="36.054337301717865" lon="-107.04230813211801"><ele>2224.0</ele><time>2026-05-02T18:23:51Z</time></trkpt><trkpt lat="36.054283371639826" lon="-107.04222951067426"><ele>2223.0</ele><time>2026-05-02T18:23:52Z</time></trkpt><trkpt lat="36.0542257319911" lon="-107.04215959226248"><ele>2222.0</ele><time>2026-05-02T18:23:53Z</time></trkpt><trkpt lat="36.054138655892224" lon="-107.04209873500913"><ele>2221.0</ele><time>2026-05-02T18:23:55Z</time></trkpt><trkpt lat="36.05409531737318" lon="-107.04202163355819"><ele>2220.0</ele><time>2026-05-02T18:23:57Z</time></trkpt><trkpt lat="36.0540877423204" lon="-107.04193264093806"><ele>2219.4</ele><time>2026-05-02T18:23:58Z</time></trkpt><trkpt lat="36.05406685188088" lon="-107.04182160926221"><ele>2218.8</ele><time>2026-05-02T18:23:59Z</time></trkpt><trkpt lat="36.054022956143434" lon="-107.04171387831263"><ele>2218.2</ele><time>2026-05-02T18:24:00Z</time></trkpt><trkpt lat="36.05396920320672" lon="-107.04159887170269"><ele>2217.6</ele><time>2026-05-02T18:24:01Z</time></trkpt><trkpt lat="36.05391489166362" lon="-107.04148572972952"><ele>2217.0</ele><time>2026-05-02T18:24:02Z</time></trkpt><trkpt lat="36.053872651405136" lon="-107.04136171585145"><ele>2216.6</ele><time>2026-05-02T18:24:03Z</time></trkpt><trkpt lat="36.053842715459446" lon="-107.04123199201445"><ele>2216.2</ele><time>2026-05-02T18:24:04Z</time></trkpt><trkpt lat="36.05380476082988" lon="-107.04112675412728"><ele>2215.8</ele><time>2026-05-02T18:24:05Z</time></trkpt><trkpt lat="36.05372475657816" lon="-107.04106047069449"><ele>2215.4</ele><time>2026-05-02T18:24:06Z</time></trkpt><trkpt lat="36.053601063994854" lon="-107.04099262570877"><ele>2215.0</ele><time>2026-05-02T18:24:07Z</time></trkpt><trkpt lat="36.05347097313202" lon="-107.04092389748415"><ele>2215.0</ele><time>2026-05-02T18:24:08Z</time></trkpt><trkpt lat="36.05337639301858" lon="-107.04082208687679"><ele>2215.0</ele><time>2026-05-02T18:24:09Z</time></trkpt><trkpt lat="36.05330059202385" lon="-107.04076145396002"><ele>2215.0</ele><time>2026-05-02T18:24:10Z</time></trkpt><trkpt lat="36.053211742706246" lon="-107.04071817544126"><ele>2215.0</ele><time>2026-05-02T18:24:11Z</time></trkpt><trkpt lat="36.053113115061805" lon="-107.04068607301443"><ele>2215.0</ele><time>2026-05-02T18:24:12Z</time></trkpt><trkpt lat="36.05304183202668" lon="-107.04069548896555"><ele>2214.0</ele><time>2026-05-02T18:24:13Z</time></trkpt><trkpt lat="36.05297240254218" lon="-107.0407490864336"><ele>2213.0</ele><time>2026-05-02T18:24:14Z</time></trkpt><trkpt lat="36.05288176902888" lon="-107.04078728389713"><ele>2212.0</ele><time>2026-05-02T18:24:15Z</time></trkpt><trkpt lat="36.052770740616914" lon="-107.04072217290008"><ele>2211.0</ele><time>2026-05-02T18:24:17Z</time></trkpt><trkpt lat="36.0528053074309" lon="-107.04065428768935"><ele>2210.0</ele><time>2026-05-02T18:24:19Z</time></trkpt><trkpt lat="36.052786840340225" lon="-107.04055927638395"><ele>2209.0</ele><time>2026-05-02T18:24:22Z</time></trkpt><trkpt lat="36.05281410889978" lon="-107.04047061182514"><ele>2209.0</ele><time>2026-05-02T18:24:25Z</time></trkpt><trkpt lat="36.05262922870473" lon="-107.04016715999907"><ele>2209.0</ele><time>2026-05-02T18:24:28Z</time></trkpt><trkpt lat="36.052647018613264" lon="-107.04006840551868"><ele>2209.0</ele><time>2026-05-02T18:24:29Z</time></trkpt><trkpt lat="36.05264279575712" lon="-107.03998454869456"><ele>2207.8333333333335</ele><time>2026-05-02T18:24:30Z</time></trkpt><trkpt lat="36.05268341610698" lon="-107.03982528277696"><ele>2206.666666666667</ele><time>2026-05-02T18:24:32Z</time></trkpt><trkpt lat="36.05274364790658" lon="-107.03976430310487"><ele>2205.5</ele><time>2026-05-02T18:24:33Z</time></trkpt><trkpt lat="36.052784199805764" lon="-107.03970471470102"><ele>2204.3333333333335</ele><time>2026-05-02T18:24:34Z</time></trkpt><trkpt lat="36.052832736333556" lon="-107.03964419491527"><ele>2203.1666666666665</ele><time>2026-05-02T18:24:35Z</time></trkpt><trkpt lat="36.05289333895511" lon="-107.03957923465217"><ele>2202.0</ele><time>2026-05-02T18:24:36Z</time></trkpt><trkpt lat="36.0529759349511" lon="-107.03952397243256"><ele>2202.0</ele><time>2026-05-02T18:24:37Z</time></trkpt><trkpt lat="36.0530560518301" lon="-107.03947695814821"><ele>2202.0</ele><time>2026-05-02T18:24:38Z</time></trkpt><trkpt lat="36.05312234009649" lon="-107.03938041607151"><ele>2202.0</ele><time>2026-05-02T18:24:39Z</time></trkpt><trkpt lat="36.05323501924744" lon="-107.03933278599428"><ele>2202.0</ele><time>2026-05-02T18:24:40Z</time></trkpt><trkpt lat="36.05331538221848" lon="-107.0392938904189"><ele>2202.0</ele><time>2026-05-02T18:24:41Z</time></trkpt><trkpt lat="36.05338750085849" lon="-107.0392582473232"><ele>2203.0</ele><time>2026-05-02T18:24:42Z</time></trkpt><trkpt lat="36.05345780442074" lon="-107.03922330793549"><ele>2204.0</ele><time>2026-05-02T18:24:43Z</time></trkpt><trkpt lat="36.05351266571652" lon="-107.03916899738647"><ele>2205.0</ele><time>2026-05-02T18:24:44Z</time></trkpt><trkpt lat="36.05359171178245" lon="-107.03903620995705"><ele>2206.0</ele><time>2026-05-02T18:24:46Z</time></trkpt><trkpt lat="36.05364076648153" lon="-107.03885810445473"><ele>2207.0</ele><time>2026-05-02T18:24:47Z</time></trkpt><trkpt lat="36.05361798182486" lon="-107.03873476528902"><ele>2205.0</ele><time>2026-05-02T18:24:48Z</time></trkpt><trkpt lat="36.05358219469637" lon="-107.03861197497201"><ele>2203.0</ele><time>2026-05-02T18:24:49Z</time></trkpt><trkpt lat="36.05353601152191" lon="-107.03847663753753"><ele>2201.0</ele><time>2026-05-02T18:24:50Z</time></trkpt><trkpt lat="36.053495028941924" lon="-107.03839941227093"><ele>2199.0</ele><time>2026-05-02T18:24:51Z</time></trkpt><trkpt lat="36.053414166874326" lon="-107.03833333021572"><ele>2197.0</ele><time>2026-05-02T18:24:52Z</time></trkpt><trkpt lat="36.05329199771641" lon="-107.03830382551358"><ele>2195.0</ele><time>2026-05-02T18:24:53Z</time></trkpt><trkpt lat="36.05317880534593" lon="-107.03826959984475"><ele>2193.0</ele><time>2026-05-02T18:24:54Z</time></trkpt><trkpt lat="36.053046664803794" lon="-107.03817013104393"><ele>2191.0</ele><time>2026-05-02T18:24:55Z</time></trkpt><trkpt lat="36.05292965768166" lon="-107.03807331327414"><ele>2189.0</ele><time>2026-05-02T18:24:56Z</time></trkpt><trkpt lat="36.05286640268824" lon="-107.03802601699938"><ele>2189.0</ele><time>2026-05-02T18:24:56.999Z</time></trkpt><trkpt lat="36.052791936742636" lon="-107.03797985096352"><ele>2189.0</ele><time>2026-05-02T18:24:57.999Z</time></trkpt><trkpt lat="36.05272462342035" lon="-107.03794251183987"><ele>2189.0</ele><time>2026-05-02T18:24:58.999Z</time></trkpt><trkpt lat="36.052648122193716" lon="-107.03791043252333"><ele>2189.0</ele><time>2026-05-02T18:24:59.999Z</time></trkpt><trkpt lat="36.0525415520555" lon="-107.03787702314598"><ele>2189.0</ele><time>2026-05-02T18:25:00.999Z</time></trkpt><trkpt lat="36.05240491964888" lon="-107.03784014629692"><ele>2189.25</ele><time>2026-05-02T18:25:01.999Z</time></trkpt><trkpt lat="36.0522603799054" lon="-107.03780768826294"><ele>2189.5</ele><time>2026-05-02T18:25:02.999Z</time></trkpt><trkpt lat="36.05213455781974" lon="-107.0377586504084"><ele>2189.75</ele><time>2026-05-02T18:25:03.999Z</time></trkpt><trkpt lat="36.0519903780971" lon="-107.0376876540503"><ele>2190.0</ele><time>2026-05-02T18:25:04.999Z</time></trkpt><trkpt lat="36.051835790125175" lon="-107.03763778811236"><ele>2190.0</ele><time>2026-05-02T18:25:05.999Z</time></trkpt><trkpt lat="36.05165332223035" lon="-107.03759089557137"><ele>2190.0</ele><time>2026-05-02T18:25:06.999Z</time></trkpt><trkpt lat="36.05147316350696" lon="-107.0375329514554"><ele>2190.0</ele><time>2026-05-02T18:25:07.999Z</time></trkpt><trkpt lat="36.05131204815986" lon="-107.037481642069"><ele>2189.75</ele><time>2026-05-02T18:25:08.999Z</time></trkpt><trkpt lat="36.051191395885255" lon="-107.03742573719134"><ele>2189.5</ele><time>2026-05-02T18:25:09.999Z</time></trkpt><trkpt lat="36.05108720661122" lon="-107.03733340967776"><ele>2189.25</ele><time>2026-05-02T18:25:10.999Z</time></trkpt><trkpt lat="36.05098241481834" lon="-107.03720301219913"><ele>2189.0</ele><time>2026-05-02T18:25:11.999Z</time></trkpt><trkpt lat="36.05087238248615" lon="-107.03706043457566"><ele>2189.6666666666665</ele><time>2026-05-02T18:25:12.999Z</time></trkpt><trkpt lat="36.050742139515606" lon="-107.03697983819177"><ele>2190.3333333333335</ele><time>2026-05-02T18:25:13.999Z</time></trkpt><trkpt lat="36.050598143615254" lon="-107.03692759007362"><ele>2191.0</ele><time>2026-05-02T18:25:14.999Z</time></trkpt><trkpt lat="36.050442277563256" lon="-107.03688623433753"><ele>2191.0</ele><time>2026-05-02T18:25:15.999Z</time></trkpt><trkpt lat="36.050303773817284" lon="-107.0368435408439"><ele>2191.0</ele><time>2026-05-02T18:25:16.999Z</time></trkpt><trkpt lat="36.050149430403415" lon="-107.03678126899747"><ele>2191.0</ele><time>2026-05-02T18:25:17.999Z</time></trkpt><trkpt lat="36.04998904297932" lon="-107.03671110590781"><ele>2191.75</ele><time>2026-05-02T18:25:18.999Z</time></trkpt><trkpt lat="36.04985498553507" lon="-107.03667725228732"><ele>2192.5</ele><time>2026-05-02T18:25:19.999Z</time></trkpt><trkpt lat="36.0497392660288" lon="-107.03666002355948"><ele>2193.25</ele><time>2026-05-02T18:25:20.999Z</time></trkpt><trkpt lat="36.049629694186336" lon="-107.03664430609135"><ele>2194.0</ele><time>2026-05-02T18:25:21.999Z</time></trkpt><trkpt lat="36.04952998258427" lon="-107.0366635253606"><ele>2194.0</ele><time>2026-05-02T18:25:22.999Z</time></trkpt><trkpt lat="36.04943430660712" lon="-107.03669343992968"><ele>2194.0</ele><time>2026-05-02T18:25:23.999Z</time></trkpt><trkpt lat="36.049348313419365" lon="-107.03665254080248"><ele>2194.0</ele><time>2026-05-02T18:25:24.999Z</time></trkpt><trkpt lat="36.049275456369536" lon="-107.03658780419937"><ele>2194.0</ele><time>2026-05-02T18:25:25.999Z</time></trkpt><trkpt lat="36.04921765504891" lon="-107.03654887614296"><ele>2194.0</ele><time>2026-05-02T18:25:26.999Z</time></trkpt><trkpt lat="36.04914682608686" lon="-107.03655762271714"><ele>2194.0</ele><time>2026-05-02T18:25:27.999Z</time></trkpt><trkpt lat="36.04903751477572" lon="-107.03654192321456"><ele>2191.75</ele><time>2026-05-02T18:25:28.999Z</time></trkpt><trkpt lat="36.048904831325245" lon="-107.03650984115481"><ele>2189.5</ele><time>2026-05-02T18:25:29.999Z</time></trkpt><trkpt lat="36.04877766924347" lon="-107.03642285753988"><ele>2187.25</ele><time>2026-05-02T18:25:30.999Z</time></trkpt><trkpt lat="36.04864932888789" lon="-107.036343337771"><ele>2185.0</ele><time>2026-05-02T18:25:31.999Z</time></trkpt><trkpt lat="36.04850791109076" lon="-107.03628729823095"><ele>2185.0</ele><time>2026-05-02T18:25:32.999Z</time></trkpt><trkpt lat="36.04835353253027" lon="-107.0362546594664"><ele>2185.0</ele><time>2026-05-02T18:25:34Z</time></trkpt><trkpt lat="36.048201665813366" lon="-107.0362425826517"><ele>2185.0</ele><time>2026-05-02T18:25:35Z</time></trkpt><trkpt lat="36.04807024207888" lon="-107.03620701161611"><ele>2185.0</ele><time>2026-05-02T18:25:36Z</time></trkpt><trkpt lat="36.04796155794962" lon="-107.03611634403994"><ele>2186.0</ele><time>2026-05-02T18:25:37Z</time></trkpt><trkpt lat="36.047824148868365" lon="-107.03602489165822"><ele>2187.0</ele><time>2026-05-02T18:25:38Z</time></trkpt><trkpt lat="36.047675764458546" lon="-107.0359771884416"><ele>2188.0</ele><time>2026-05-02T18:25:39Z</time></trkpt><trkpt lat="36.04751900520351" lon="-107.0359451790318"><ele>2188.0</ele><time>2026-05-02T18:25:40Z</time></trkpt><trkpt lat="36.04734872514716" lon="-107.03592450939192"><ele>2188.0</ele><time>2026-05-02T18:25:41Z</time></trkpt><trkpt lat="36.04718845248717" lon="-107.03588487200939"><ele>2188.0</ele><time>2026-05-02T18:25:42Z</time></trkpt><trkpt lat="36.047023843486826" lon="-107.03583950760982"><ele>2188.0</ele><time>2026-05-02T18:25:43Z</time></trkpt><trkpt lat="36.046891044807346" lon="-107.03581574664511"><ele>2188.0</ele><time>2026-05-02T18:25:44Z</time></trkpt><trkpt lat="36.04678672692609" lon="-107.03580598676822"><ele>2188.0</ele><time>2026-05-02T18:25:45Z</time></trkpt><trkpt lat="36.046696815728374" lon="-107.03578097544977"><ele>2188.0</ele><time>2026-05-02T18:25:46Z</time></trkpt><trkpt lat="36.04658562197805" lon="-107.03572406665684"><ele>2187.0</ele><time>2026-05-02T18:25:47Z</time></trkpt><trkpt lat="36.046465347473976" lon="-107.03563040582829"><ele>2186.0</ele><time>2026-05-02T18:25:48Z</time></trkpt><trkpt lat="36.04632628220917" lon="-107.03559477977029"><ele>2185.0</ele><time>2026-05-02T18:25:49Z</time></trkpt><trkpt lat="36.04618943927184" lon="-107.0355578610971"><ele>2184.0</ele><time>2026-05-02T18:25:50Z</time></trkpt><trkpt lat="36.04605035443437" lon="-107.03551436822386"><ele>2184.0</ele><time>2026-05-02T18:25:51Z</time></trkpt><trkpt lat="36.04591040892514" lon="-107.0354631476649"><ele>2184.0</ele><time>2026-05-02T18:25:52Z</time></trkpt><trkpt lat="36.04576938555248" lon="-107.03540738281225"><ele>2184.0</ele><time>2026-05-02T18:25:53Z</time></trkpt><trkpt lat="36.04566018427409" lon="-107.0353751850834"><ele>2184.0</ele><time>2026-05-02T18:25:54Z</time></trkpt><trkpt lat="36.045565659599404" lon="-107.03535031999425"><ele>2185.25</ele><time>2026-05-02T18:25:55Z</time></trkpt><trkpt lat="36.04546924972497" lon="-107.03538774702284"><ele>2186.5</ele><time>2026-05-02T18:25:56Z</time></trkpt><trkpt lat="36.04537128891051" lon="-107.03546278464061"><ele>2187.75</ele><time>2026-05-02T18:25:57Z</time></trkpt><trkpt lat="36.045210827403395" lon="-107.03545271200213"><ele>2189.0</ele><time>2026-05-02T18:25:59Z</time></trkpt><trkpt lat="36.045088748246755" lon="-107.03542287820069"><ele>2188.5</ele><time>2026-05-02T18:26:00Z</time></trkpt><trkpt lat="36.0449573545109" lon="-107.03543851219732"><ele>2188.0</ele><time>2026-05-02T18:26:01Z</time></trkpt><trkpt lat="36.044818049503135" lon="-107.03546231902752"><ele>2187.5</ele><time>2026-05-02T18:26:02Z</time></trkpt><trkpt lat="36.04469207605066" lon="-107.03543328376001"><ele>2187.0</ele><time>2026-05-02T18:26:03Z</time></trkpt><trkpt lat="36.04455206414514" lon="-107.03538232299654"><ele>2187.0</ele><time>2026-05-02T18:26:04Z</time></trkpt><trkpt lat="36.04441639646008" lon="-107.03539310202252"><ele>2187.0</ele><time>2026-05-02T18:26:05Z</time></trkpt><trkpt lat="36.044309897182046" lon="-107.03540273155683"><ele>2187.0</ele><time>2026-05-02T18:26:06Z</time></trkpt><trkpt lat="36.044179673296405" lon="-107.03534054205191"><ele>2187.0</ele><time>2026-05-02T18:26:07Z</time></trkpt><trkpt lat="36.044049310743176" lon="-107.03525139518568"><ele>2186.75</ele><time>2026-05-02T18:26:08Z</time></trkpt><trkpt lat="36.04391341429637" lon="-107.03522852242162"><ele>2186.5</ele><time>2026-05-02T18:26:09Z</time></trkpt><trkpt lat="36.04377232933909" lon="-107.03524448400563"><ele>2186.25</ele><time>2026-05-02T18:26:10Z</time></trkpt><trkpt lat="36.043620534467465" lon="-107.0352385024942"><ele>2186.0</ele><time>2026-05-02T18:26:11Z</time></trkpt><trkpt lat="36.04346250150084" lon="-107.03518815667714"><ele>2186.0</ele><time>2026-05-02T18:26:12Z</time></trkpt><trkpt lat="36.04330720010142" lon="-107.0351494015629"><ele>2186.0</ele><time>2026-05-02T18:26:13Z</time></trkpt><trkpt lat="36.043165575240074" lon="-107.03512794123753"><ele>2186.0</ele><time>2026-05-02T18:26:14Z</time></trkpt><trkpt lat="36.043002827526024" lon="-107.03508089268824"><ele>2186.6666666666665</ele><time>2026-05-02T18:26:15Z</time></trkpt><trkpt lat="36.042842744830544" lon="-107.03505305224145"><ele>2187.3333333333335</ele><time>2026-05-02T18:26:16Z</time></trkpt><trkpt lat="36.04268678757779" lon="-107.03500388511434"><ele>2188.0</ele><time>2026-05-02T18:26:17Z</time></trkpt><trkpt lat="36.04255479992469" lon="-107.03496021007412"><ele>2188.8</ele><time>2026-05-02T18:26:18Z</time></trkpt><trkpt lat="36.04245122698452" lon="-107.03493992069842"><ele>2189.6000000000004</ele><time>2026-05-02T18:26:19Z</time></trkpt><trkpt lat="36.042374137282465" lon="-107.03494360478848"><ele>2190.3999999999996</ele><time>2026-05-02T18:26:20Z</time></trkpt><trkpt lat="36.04230162426966" lon="-107.03498924345786"><ele>2191.2</ele><time>2026-05-02T18:26:21Z</time></trkpt><trkpt lat="36.04221592004024" lon="-107.0350767325303"><ele>2192.0</ele><time>2026-05-02T18:26:22Z</time></trkpt><trkpt lat="36.042139129586495" lon="-107.0349825343736"><ele>2189.5</ele><time>2026-05-02T18:26:24Z</time></trkpt><trkpt lat="36.042063745348415" lon="-107.03487805111993"><ele>2187.0</ele><time>2026-05-02T18:26:25Z</time></trkpt><trkpt lat="36.04198522328459" lon="-107.03484602023592"><ele>2184.5</ele><time>2026-05-02T18:26:26Z</time></trkpt><trkpt lat="36.04182371854907" lon="-107.03482482089764"><ele>2182.0</ele><time>2026-05-02T18:26:27Z</time></trkpt><trkpt lat="36.04166950266706" lon="-107.03478850949496"><ele>2182.5</ele><time>2026-05-02T18:26:28Z</time></trkpt><trkpt lat="36.04152794403476" lon="-107.03473967081788"><ele>2183.0</ele><time>2026-05-02T18:26:29Z</time></trkpt><trkpt lat="36.04138303840716" lon="-107.03469370285352"><ele>2183.5</ele><time>2026-05-02T18:26:30Z</time></trkpt><trkpt lat="36.041278913328554" lon="-107.03466306025041"><ele>2184.0</ele><time>2026-05-02T18:26:31Z</time></trkpt><trkpt lat="36.041183454494956" lon="-107.03461662823307"><ele>2184.0</ele><time>2026-05-02T18:26:32Z</time></trkpt><trkpt lat="36.04111642277577" lon="-107.03455319010835"><ele>2184.0</ele><time>2026-05-02T18:26:33Z</time></trkpt><trkpt lat="36.04102227984697" lon="-107.03442193772216"><ele>2184.0</ele><time>2026-05-02T18:26:34Z</time></trkpt><trkpt lat="36.04091648406147" lon="-107.03433219203416"><ele>2184.0</ele><time>2026-05-02T18:26:35Z</time></trkpt><trkpt lat="36.04083339688592" lon="-107.03426590706327"><ele>2183.4</ele><time>2026-05-02T18:26:36Z</time></trkpt><trkpt lat="36.04072966348425" lon="-107.0342396284155"><ele>2182.8</ele><time>2026-05-02T18:26:37Z</time></trkpt><trkpt lat="36.040593721711716" lon="-107.03417717211224"><ele>2182.2</ele><time>2026-05-02T18:26:38Z</time></trkpt><trkpt lat="36.04051394640284" lon="-107.03410145454511"><ele>2181.6</ele><time>2026-05-02T18:26:39Z</time></trkpt><trkpt lat="36.04044828508573" lon="-107.03408256646564"><ele>2181.0</ele><time>2026-05-02T18:26:40Z</time></trkpt><trkpt lat="36.04034642444421" lon="-107.03411341985363"><ele>2180.5</ele><time>2026-05-02T18:26:41Z</time></trkpt><trkpt lat="36.040215094093256" lon="-107.03412820893425"><ele>2180.0</ele><time>2026-05-02T18:26:42Z</time></trkpt><trkpt lat="36.040092705702506" lon="-107.03410583034358"><ele>2179.5</ele><time>2026-05-02T18:26:43Z</time></trkpt><trkpt lat="36.03999059940629" lon="-107.03409230230699"><ele>2179.0</ele><time>2026-05-02T18:26:44Z</time></trkpt><trkpt lat="36.03987342968518" lon="-107.03407690152851"><ele>2178.75</ele><time>2026-05-02T18:26:45Z</time></trkpt><trkpt lat="36.03974413366827" lon="-107.0340608584395"><ele>2178.5</ele><time>2026-05-02T18:26:46Z</time></trkpt><trkpt lat="36.039623868489855" lon="-107.03403364584155"><ele>2178.25</ele><time>2026-05-02T18:26:47Z</time></trkpt><trkpt lat="36.039489089401954" lon="-107.03403849147024"><ele>2178.0</ele><time>2026-05-02T18:26:48Z</time></trkpt><trkpt lat="36.03937443671604" lon="-107.03403368549063"><ele>2178.0</ele><time>2026-05-02T18:26:49Z</time></trkpt><trkpt lat="36.03925175308177" lon="-107.03399124780758"><ele>2178.0</ele><time>2026-05-02T18:26:50Z</time></trkpt><trkpt lat="36.03912912056951" lon="-107.03400835903747"><ele>2178.0</ele><time>2026-05-02T18:26:51Z</time></trkpt><trkpt lat="36.038987643204116" lon="-107.03401077825617"><ele>2178.0</ele><time>2026-05-02T18:26:52Z</time></trkpt><trkpt lat="36.03887057100967" lon="-107.0339983893381"><ele>2178.5</ele><time>2026-05-02T18:26:53Z</time></trkpt><trkpt lat="36.03875712948278" lon="-107.03400277537615"><ele>2179.0</ele><time>2026-05-02T18:26:54Z</time></trkpt><trkpt lat="36.038672789457465" lon="-107.03397135646058"><ele>2179.5</ele><time>2026-05-02T18:26:55Z</time></trkpt><trkpt lat="36.03858132127051" lon="-107.03387113491277"><ele>2180.0</ele><time>2026-05-02T18:26:56Z</time></trkpt><trkpt lat="36.03848747459793" lon="-107.03375756613079"><ele>2180.0</ele><time>2026-05-02T18:26:57Z</time></trkpt><trkpt lat="36.03836763715287" lon="-107.03367133966513"><ele>2180.0</ele><time>2026-05-02T18:26:58Z</time></trkpt><trkpt lat="36.03824446148932" lon="-107.03359408088117"><ele>2180.0</ele><time>2026-05-02T18:26:59Z</time></trkpt><trkpt lat="36.03816058573891" lon="-107.03352300947941"><ele>2180.0</ele><time>2026-05-02T18:27:00Z</time></trkpt><trkpt lat="36.038067924622254" lon="-107.03345298407373"><ele>2179.5</ele><time>2026-05-02T18:27:01Z</time></trkpt><trkpt lat="36.037953919454324" lon="-107.03341257162027"><ele>2179.0</ele><time>2026-05-02T18:27:02Z</time></trkpt><trkpt lat="36.037816947719264" lon="-107.03336450461455"><ele>2178.5</ele><time>2026-05-02T18:27:03Z</time></trkpt><trkpt lat="36.037694745331514" lon="-107.0332913038314"><ele>2178.0</ele><time>2026-05-02T18:27:04Z</time></trkpt><trkpt lat="36.03757108768059" lon="-107.03324411608513"><ele>2178.0</ele><time>2026-05-02T18:27:05Z</time></trkpt><trkpt lat="36.037436333422995" lon="-107.03322509895008"><ele>2178.0</ele><time>2026-05-02T18:27:06Z</time></trkpt><trkpt lat="36.03728615859817" lon="-107.03321684551125"><ele>2178.0</ele><time>2026-05-02T18:27:07Z</time></trkpt><trkpt lat="36.03709502457881" lon="-107.03317275310027"><ele>2178.0</ele><time>2026-05-02T18:27:08Z</time></trkpt><trkpt lat="36.03691050730385" lon="-107.03308185382132"><ele>2178.0</ele><time>2026-05-02T18:27:09Z</time></trkpt><trkpt lat="36.036714817544386" lon="-107.03300054247384"><ele>2178.0</ele><time>2026-05-02T18:27:10Z</time></trkpt><trkpt lat="36.03657701926181" lon="-107.03295584106868"><ele>2178.25</ele><time>2026-05-02T18:27:11Z</time></trkpt><trkpt lat="36.03645194837416" lon="-107.03294488588548"><ele>2178.5</ele><time>2026-05-02T18:27:12Z</time></trkpt><trkpt lat="36.03630725359767" lon="-107.0329851518665"><ele>2178.75</ele><time>2026-05-02T18:27:13Z</time></trkpt><trkpt lat="36.036175519408076" lon="-107.03305737418559"><ele>2179.0</ele><time>2026-05-02T18:27:14Z</time></trkpt><trkpt lat="36.036015640577745" lon="-107.0331502016163"><ele>2179.0</ele><time>2026-05-02T18:27:15Z</time></trkpt><trkpt lat="36.03585527069218" lon="-107.03322718519087"><ele>2179.0</ele><time>2026-05-02T18:27:16Z</time></trkpt><trkpt lat="36.035749005114326" lon="-107.03327050316949"><ele>2179.0</ele><time>2026-05-02T18:27:17Z</time></trkpt><trkpt lat="36.03569464473303" lon="-107.03332051438227"><ele>2179.0</ele><time>2026-05-02T18:27:18Z</time></trkpt><trkpt lat="36.035594396606854" lon="-107.03333981204102"><ele>2179.6</ele><time>2026-05-02T18:27:20Z</time></trkpt><trkpt lat="36.035542980293535" lon="-107.03325707745624"><ele>2180.2</ele><time>2026-05-02T18:27:21Z</time></trkpt><trkpt lat="36.03548960656712" lon="-107.03312793231167"><ele>2180.7999999999997</ele><time>2026-05-02T18:27:22Z</time></trkpt><trkpt lat="36.035427026449916" lon="-107.03302143363625"><ele>2181.4</ele><time>2026-05-02T18:27:23Z</time></trkpt><trkpt lat="36.035304497673536" lon="-107.03297362741043"><ele>2182.0</ele><time>2026-05-02T18:27:24Z</time></trkpt><trkpt lat="36.035180021727264" lon="-107.0329065092855"><ele>2182.0</ele><time>2026-05-02T18:27:25Z</time></trkpt><trkpt lat="36.035034408651725" lon="-107.03282173342703"><ele>2182.0</ele><time>2026-05-02T18:27:26Z</time></trkpt><trkpt lat="36.03485210886024" lon="-107.03274623990357"><ele>2182.0</ele><time>2026-05-02T18:27:27Z</time></trkpt><trkpt lat="36.03472477273" lon="-107.03267693942793"><ele>2183.0</ele><time>2026-05-02T18:27:28Z</time></trkpt><trkpt lat="36.03457200505376" lon="-107.03261527450469"><ele>2184.0</ele><time>2026-05-02T18:27:29Z</time></trkpt><trkpt lat="36.03441869688394" lon="-107.03256913633055"><ele>2185.0</ele><time>2026-05-02T18:27:30Z</time></trkpt><trkpt lat="36.03427869122577" lon="-107.03252632157869"><ele>2183.0</ele><time>2026-05-02T18:27:31Z</time></trkpt><trkpt lat="36.0341325325521" lon="-107.03245315124724"><ele>2181.0</ele><time>2026-05-02T18:27:32Z</time></trkpt><trkpt lat="36.03397995106088" lon="-107.03235062809568"><ele>2179.0</ele><time>2026-05-02T18:27:33Z</time></trkpt><trkpt lat="36.0338232567084" lon="-107.03223402369173"><ele>2179.0</ele><time>2026-05-02T18:27:34Z</time></trkpt><trkpt lat="36.03366511736227" lon="-107.0321102506378"><ele>2179.0</ele><time>2026-05-02T18:27:34.999Z</time></trkpt><trkpt lat="36.03355095092606" lon="-107.03200671865599"><ele>2179.0</ele><time>2026-05-02T18:27:35.999Z</time></trkpt><trkpt lat="36.03345914482365" lon="-107.03193480436586"><ele>2179.0</ele><time>2026-05-02T18:27:36.999Z</time></trkpt><trkpt lat="36.033360231369315" lon="-107.03191637769864"><ele>2179.2</ele><time>2026-05-02T18:27:37.999Z</time></trkpt><trkpt lat="36.03324982969487" lon="-107.03194877259337"><ele>2179.4</ele><time>2026-05-02T18:27:38.999Z</time></trkpt><trkpt lat="36.03316439064817" lon="-107.03200789128545"><ele>2179.6</ele><time>2026-05-02T18:27:40Z</time></trkpt><trkpt lat="36.03310462242907" lon="-107.03211471370156"><ele>2179.8</ele><time>2026-05-02T18:27:42Z</time></trkpt><trkpt lat="36.03301944001668" lon="-107.03220110315671"><ele>2180.0</ele><time>2026-05-02T18:27:43Z</time></trkpt><trkpt lat="36.032911238910174" lon="-107.03226026730313"><ele>2180.0</ele><time>2026-05-02T18:27:44Z</time></trkpt><trkpt lat="36.0327863352694" lon="-107.03225927350168"><ele>2180.0</ele><time>2026-05-02T18:27:45Z</time></trkpt><trkpt lat="36.03271921904783" lon="-107.03228241921498"><ele>2180.0</ele><time>2026-05-02T18:27:46Z</time></trkpt><trkpt lat="36.03264235208633" lon="-107.03235252548593"><ele>2180.0</ele><time>2026-05-02T18:27:47Z</time></trkpt><trkpt lat="36.03256975000633" lon="-107.0324205646898"><ele>2180.0</ele><time>2026-05-02T18:27:48Z</time></trkpt><trkpt lat="36.03247568767595" lon="-107.03240107602645"><ele>2182.5</ele><time>2026-05-02T18:27:49Z</time></trkpt><trkpt lat="36.03234466592792" lon="-107.03235531367748"><ele>2185.0</ele><time>2026-05-02T18:27:50Z</time></trkpt><trkpt lat="36.03224333741648" lon="-107.03238624283621"><ele>2187.5</ele><time>2026-05-02T18:27:51Z</time></trkpt><trkpt lat="36.03213509800818" lon="-107.03248585214867"><ele>2190.0</ele><time>2026-05-02T18:27:52Z</time></trkpt><trkpt lat="36.031971343409815" lon="-107.0325262637061"><ele>2190.0</ele><time>2026-05-02T18:27:53Z</time></trkpt><trkpt lat="36.031834535131765" lon="-107.03256508442338"><ele>2190.0</ele><time>2026-05-02T18:27:54Z</time></trkpt><trkpt lat="36.03172753300415" lon="-107.03259369493173"><ele>2190.0</ele><time>2026-05-02T18:27:55Z</time></trkpt><trkpt lat="36.031643199720875" lon="-107.03260003649153"><ele>2190.0</ele><time>2026-05-02T18:27:56Z</time></trkpt><trkpt lat="36.03156359930521" lon="-107.03261100435385"><ele>2190.0</ele><time>2026-05-02T18:27:57Z</time></trkpt><trkpt lat="36.03148371076487" lon="-107.03262689028816"><ele>2192.0</ele><time>2026-05-02T18:27:58Z</time></trkpt><trkpt lat="36.03144492392077" lon="-107.0325611519815"><ele>2194.0</ele><time>2026-05-02T18:27:59Z</time></trkpt><trkpt lat="36.03145424260513" lon="-107.03245947262434"><ele>2196.0</ele><time>2026-05-02T18:28:00Z</time></trkpt><trkpt lat="36.03148167613688" lon="-107.03236321797476"><ele>2198.0</ele><time>2026-05-02T18:28:01Z</time></trkpt><trkpt lat="36.03154876021625" lon="-107.03221025768583"><ele>2200.0</ele><time>2026-05-02T18:28:02Z</time></trkpt><trkpt lat="36.0316241735791" lon="-107.0320733383226"><ele>2198.5</ele><time>2026-05-02T18:28:03Z</time></trkpt><trkpt lat="36.03166658566223" lon="-107.03190530575054"><ele>2197.0</ele><time>2026-05-02T18:28:04Z</time></trkpt><trkpt lat="36.03170558519542" lon="-107.03175923037286"><ele>2195.5</ele><time>2026-05-02T18:28:05Z</time></trkpt><trkpt lat="36.03161402233026" lon="-107.03157464997459"><ele>2194.0</ele><time>2026-05-02T18:28:07Z</time></trkpt><trkpt lat="36.03159828256586" lon="-107.03147163344808"><ele>2194.5</ele><time>2026-05-02T18:28:08Z</time></trkpt><trkpt lat="36.031612861492285" lon="-107.03131301617185"><ele>2195.0</ele><time>2026-05-02T18:28:09Z</time></trkpt><trkpt lat="36.031653460685654" lon="-107.03116957547554"><ele>2195.5</ele><time>2026-05-02T18:28:10Z</time></trkpt><trkpt lat="36.03171312429135" lon="-107.03103895893183"><ele>2196.0</ele><time>2026-05-02T18:28:11Z</time></trkpt><trkpt lat="36.031772984282895" lon="-107.03090642564882"><ele>2195.25</ele><time>2026-05-02T18:28:12Z</time></trkpt><trkpt lat="36.03179947894705" lon="-107.03077922731806"><ele>2194.5</ele><time>2026-05-02T18:28:13Z</time></trkpt><trkpt lat="36.03177237703573" lon="-107.0306732311404"><ele>2193.75</ele><time>2026-05-02T18:28:14Z</time></trkpt><trkpt lat="36.03169335002904" lon="-107.03055474259848"><ele>2193.0</ele><time>2026-05-02T18:28:15Z</time></trkpt><trkpt lat="36.03160674243074" lon="-107.03040934249782"><ele>2193.0</ele><time>2026-05-02T18:28:16Z</time></trkpt><trkpt lat="36.03153645158692" lon="-107.03028379085917"><ele>2193.0</ele><time>2026-05-02T18:28:17Z</time></trkpt><trkpt lat="36.03144063855593" lon="-107.03018252441369"><ele>2193.0</ele><time>2026-05-02T18:28:18Z</time></trkpt><trkpt lat="36.031316271980884" lon="-107.0300986966329"><ele>2193.0</ele><time>2026-05-02T18:28:19Z</time></trkpt><trkpt lat="36.031181858298574" lon="-107.03005168151029"><ele>2193.0</ele><time>2026-05-02T18:28:20Z</time></trkpt><trkpt lat="36.03104967224452" lon="-107.03000001694836"><ele>2193.0</ele><time>2026-05-02T18:28:21Z</time></trkpt><trkpt lat="36.030912179641746" lon="-107.02996343218939"><ele>2193.0</ele><time>2026-05-02T18:28:22Z</time></trkpt><trkpt lat="36.03078090919941" lon="-107.02995442761356"><ele>2193.0</ele><time>2026-05-02T18:28:23Z</time></trkpt><trkpt lat="36.03065233626834" lon="-107.02991793514519"><ele>2191.6</ele><time>2026-05-02T18:28:24Z</time></trkpt><trkpt lat="36.03050784228188" lon="-107.02990274559403"><ele>2190.2000000000003</ele><time>2026-05-02T18:28:25Z</time></trkpt><trkpt lat="36.0303834536509" lon="-107.02991003531791"><ele>2188.8</ele><time>2026-05-02T18:28:26Z</time></trkpt><trkpt lat="36.030302237104216" lon="-107.02992133843415"><ele>2187.4</ele><time>2026-05-02T18:28:27Z</time></trkpt><trkpt lat="36.03021002437012" lon="-107.02991476811972"><ele>2186.0</ele><time>2026-05-02T18:28:28Z</time></trkpt><trkpt lat="36.03007412251628" lon="-107.02989064046118"><ele>2187.25</ele><time>2026-05-02T18:28:29Z</time></trkpt><trkpt lat="36.029949701146045" lon="-107.0298270407383"><ele>2188.5</ele><time>2026-05-02T18:28:30Z</time></trkpt><trkpt lat="36.029802702404915" lon="-107.02974935865014"><ele>2189.75</ele><time>2026-05-02T18:28:31Z</time></trkpt><trkpt lat="36.029677721074464" lon="-107.02967487487062"><ele>2191.0</ele><time>2026-05-02T18:28:32Z</time></trkpt><trkpt lat="36.02955179516741" lon="-107.02964353399473"><ele>2191.0</ele><time>2026-05-02T18:28:33Z</time></trkpt><trkpt lat="36.029402987233674" lon="-107.02961006874348"><ele>2191.0</ele><time>2026-05-02T18:28:34Z</time></trkpt><trkpt lat="36.02927691471562" lon="-107.02956169614356"><ele>2191.0</ele><time>2026-05-02T18:28:35Z</time></trkpt><trkpt lat="36.02914007032671" lon="-107.02950295794697"><ele>2191.0</ele><time>2026-05-02T18:28:36Z</time></trkpt><trkpt lat="36.02901023697514" lon="-107.02942912712498"><ele>2192.5</ele><time>2026-05-02T18:28:37Z</time></trkpt><trkpt lat="36.02887893177693" lon="-107.02942863734421"><ele>2194.0</ele><time>2026-05-02T18:28:38Z</time></trkpt><trkpt lat="36.028747846256806" lon="-107.02941721480018"><ele>2195.5</ele><time>2026-05-02T18:28:39Z</time></trkpt><trkpt lat="36.028639623676966" lon="-107.02938506448442"><ele>2197.0</ele><time>2026-05-02T18:28:40Z</time></trkpt><trkpt lat="36.02853607514583" lon="-107.02933694515359"><ele>2197.0</ele><time>2026-05-02T18:28:41Z</time></trkpt><trkpt lat="36.02842475127204" lon="-107.02927091345825"><ele>2197.0</ele><time>2026-05-02T18:28:42Z</time></trkpt><trkpt lat="36.02834571146626" lon="-107.02921907554702"><ele>2197.0</ele><time>2026-05-02T18:28:43Z</time></trkpt><trkpt lat="36.02827445590206" lon="-107.029240834677"><ele>2197.0</ele><time>2026-05-02T18:28:44Z</time></trkpt><trkpt lat="36.02815823474459" lon="-107.02932742245264"><ele>2197.0</ele><time>2026-05-02T18:28:45Z</time></trkpt><trkpt lat="36.0280471838064" lon="-107.02936038808387"><ele>2197.25</ele><time>2026-05-02T18:28:46Z</time></trkpt><trkpt lat="36.027955797180105" lon="-107.02939776422114"><ele>2197.5</ele><time>2026-05-02T18:28:47Z</time></trkpt><trkpt lat="36.02783684939623" lon="-107.02939390489907"><ele>2197.75</ele><time>2026-05-02T18:28:48Z</time></trkpt><trkpt lat="36.027704499942246" lon="-107.02943886980341"><ele>2198.0</ele><time>2026-05-02T18:28:49Z</time></trkpt><trkpt lat="36.02760745980144" lon="-107.02949294389018"><ele>2198.0</ele><time>2026-05-02T18:28:50Z</time></trkpt><trkpt lat="36.02752244399963" lon="-107.02948999189753"><ele>2198.0</ele><time>2026-05-02T18:28:51Z</time></trkpt><trkpt lat="36.02741701491234" lon="-107.02945919522178"><ele>2198.0</ele><time>2026-05-02T18:28:52Z</time></trkpt><trkpt lat="36.027309878920825" lon="-107.02941878888716"><ele>2198.0</ele><time>2026-05-02T18:28:53Z</time></trkpt><trkpt lat="36.02723869451883" lon="-107.02938528978133"><ele>2198.0</ele><time>2026-05-02T18:28:54Z</time></trkpt><trkpt lat="36.02716474650538" lon="-107.02938427083274"><ele>2198.25</ele><time>2026-05-02T18:28:55Z</time></trkpt><trkpt lat="36.02704924552186" lon="-107.02942124262391"><ele>2198.5</ele><time>2026-05-02T18:28:56Z</time></trkpt><trkpt lat="36.02693495455304" lon="-107.02944289604959"><ele>2198.75</ele><time>2026-05-02T18:28:57Z</time></trkpt><trkpt lat="36.02682809887904" lon="-107.02938729512232"><ele>2199.0</ele><time>2026-05-02T18:28:58Z</time></trkpt><trkpt lat="36.02669884265394" lon="-107.02936792241022"><ele>2198.0</ele><time>2026-05-02T18:28:59Z</time></trkpt><trkpt lat="36.02656563224883" lon="-107.02940354887748"><ele>2197.0</ele><time>2026-05-02T18:29:00Z</time></trkpt><trkpt lat="36.02645411642105" lon="-107.02942865219637"><ele>2196.0</ele><time>2026-05-02T18:29:01Z</time></trkpt><trkpt lat="36.0263290407126" lon="-107.02940518154908"><ele>2195.0</ele><time>2026-05-02T18:29:02Z</time></trkpt><trkpt lat="36.02624210903723" lon="-107.029338724688"><ele>2195.0</ele><time>2026-05-02T18:29:03Z</time></trkpt><trkpt lat="36.02616573551695" lon="-107.02924345724172"><ele>2195.0</ele><time>2026-05-02T18:29:04Z</time></trkpt><trkpt lat="36.02609023950172" lon="-107.02914005944672"><ele>2195.0</ele><time>2026-05-02T18:29:05Z</time></trkpt><trkpt lat="36.02603074877268" lon="-107.0289960874109"><ele>2195.0</ele><time>2026-05-02T18:29:06Z</time></trkpt><trkpt lat="36.025961369969835" lon="-107.02890024578396"><ele>2193.2</ele><time>2026-05-02T18:29:07Z</time></trkpt><trkpt lat="36.02589448107001" lon="-107.02883035696047"><ele>2191.4</ele><time>2026-05-02T18:29:08Z</time></trkpt><trkpt lat="36.02581275079983" lon="-107.02873733100465"><ele>2189.6</ele><time>2026-05-02T18:29:09Z</time></trkpt><trkpt lat="36.025751294711874" lon="-107.02868512252469"><ele>2187.8</ele><time>2026-05-02T18:29:10Z</time></trkpt><trkpt lat="36.02568615463117" lon="-107.02870300560491"><ele>2186.0</ele><time>2026-05-02T18:29:11Z</time></trkpt><trkpt lat="36.025588696231495" lon="-107.02878585297451"><ele>2186.25</ele><time>2026-05-02T18:29:12Z</time></trkpt><trkpt lat="36.02550419029135" lon="-107.02890509512011"><ele>2186.5</ele><time>2026-05-02T18:29:13Z</time></trkpt><trkpt lat="36.025421347157014" lon="-107.02906159776045"><ele>2186.75</ele><time>2026-05-02T18:29:14Z</time></trkpt><trkpt lat="36.02536617452129" lon="-107.02920921853669"><ele>2187.0</ele><time>2026-05-02T18:29:15Z</time></trkpt><trkpt lat="36.02529408781393" lon="-107.029272595187"><ele>2187.0</ele><time>2026-05-02T18:29:16Z</time></trkpt><trkpt lat="36.02520555437457" lon="-107.02934296594614"><ele>2187.0</ele><time>2026-05-02T18:29:17Z</time></trkpt><trkpt lat="36.025112744394924" lon="-107.0293873527808"><ele>2187.0</ele><time>2026-05-02T18:29:18Z</time></trkpt><trkpt lat="36.025024734688415" lon="-107.02941522864245"><ele>2187.0</ele><time>2026-05-02T18:29:19Z</time></trkpt><trkpt lat="36.02493000411307" lon="-107.029403343973"><ele>2187.0</ele><time>2026-05-02T18:29:20Z</time></trkpt><trkpt lat="36.02483289986103" lon="-107.02939700897618"><ele>2186.1666666666665</ele><time>2026-05-02T18:29:21Z</time></trkpt><trkpt lat="36.0247367869241" lon="-107.0293982631086"><ele>2185.3333333333335</ele><time>2026-05-02T18:29:22Z</time></trkpt><trkpt lat="36.02463145539884" lon="-107.02933204937692"><ele>2184.5</ele><time>2026-05-02T18:29:24Z</time></trkpt><trkpt lat="36.02457141950746" lon="-107.02925716142819"><ele>2183.666666666667</ele><time>2026-05-02T18:29:25Z</time></trkpt><trkpt lat="36.024537411592874" lon="-107.02917429799835"><ele>2182.8333333333335</ele><time>2026-05-02T18:29:26Z</time></trkpt><trkpt lat="36.024579999618275" lon="-107.029102104823"><ele>2182.0</ele><time>2026-05-02T18:29:29Z</time></trkpt><trkpt lat="36.02468555158992" lon="-107.02906300951948"><ele>2181.7999999999997</ele><time>2026-05-02T18:29:30Z</time></trkpt><trkpt lat="36.024801727873786" lon="-107.02899985527935"><ele>2181.6</ele><time>2026-05-02T18:29:31Z</time></trkpt><trkpt lat="36.02489647021686" lon="-107.02893333760417"><ele>2181.3999999999996</ele><time>2026-05-02T18:29:32Z</time></trkpt><trkpt lat="36.024961971196475" lon="-107.02887103535706"><ele>2181.2</ele><time>2026-05-02T18:29:33Z</time></trkpt><trkpt lat="36.02501334966162" lon="-107.0287619405331"><ele>2181.0</ele><time>2026-05-02T18:29:34Z</time></trkpt><trkpt lat="36.02507243430713" lon="-107.02862327751072"><ele>2181.0</ele><time>2026-05-02T18:29:35Z</time></trkpt><trkpt lat="36.0251088785778" lon="-107.02846660095787"><ele>2181.0</ele><time>2026-05-02T18:29:36Z</time></trkpt><trkpt lat="36.025171772385384" lon="-107.02835726456873"><ele>2181.0</ele><time>2026-05-02T18:29:37Z</time></trkpt><trkpt lat="36.02522105771319" lon="-107.02824410521991"><ele>2181.0</ele><time>2026-05-02T18:29:39Z</time></trkpt><trkpt lat="36.02532214840562" lon="-107.02824370860256"><ele>2181.0</ele><time>2026-05-02T18:29:41Z</time></trkpt><trkpt lat="36.02539325406147" lon="-107.02825455071171"><ele>2179.75</ele><time>2026-05-02T18:29:42Z</time></trkpt><trkpt lat="36.02550069027594" lon="-107.02822075081336"><ele>2178.5</ele><time>2026-05-02T18:29:43Z</time></trkpt><trkpt lat="36.025608883295746" lon="-107.02818002430423"><ele>2177.25</ele><time>2026-05-02T18:29:44Z</time></trkpt><trkpt lat="36.02573717265713" lon="-107.02815869677096"><ele>2176.0</ele><time>2026-05-02T18:29:45Z</time></trkpt><trkpt lat="36.02587014474891" lon="-107.028164798489"><ele>2176.0</ele><time>2026-05-02T18:29:46Z</time></trkpt><trkpt lat="36.02596699318102" lon="-107.02817492432952"><ele>2176.0</ele><time>2026-05-02T18:29:47Z</time></trkpt><trkpt lat="36.0260863211048" lon="-107.02817729284851"><ele>2176.0</ele><time>2026-05-02T18:29:48Z</time></trkpt><trkpt lat="36.02615297184198" lon="-107.02818901036935"><ele>2176.0</ele><time>2026-05-02T18:29:49Z</time></trkpt><trkpt lat="36.026206349866854" lon="-107.0281424090588"><ele>2176.0</ele><time>2026-05-02T18:29:51Z</time></trkpt><trkpt lat="36.02620948311742" lon="-107.02799829305643"><ele>2176.0</ele><time>2026-05-02T18:29:52Z</time></trkpt><trkpt lat="36.02625950518188" lon="-107.02785186866062"><ele>2176.0</ele><time>2026-05-02T18:29:53Z</time></trkpt><trkpt lat="36.02630310004633" lon="-107.02773569363247"><ele>2176.0</ele><time>2026-05-02T18:29:54Z</time></trkpt><trkpt lat="36.026340425614656" lon="-107.02762707696381"><ele>2176.0</ele><time>2026-05-02T18:29:56Z</time></trkpt><trkpt lat="36.02629573520904" lon="-107.02747127289288"><ele>2173.4</ele><time>2026-05-02T18:29:58Z</time></trkpt><trkpt lat="36.026236079895256" lon="-107.02743009297309"><ele>2170.8</ele><time>2026-05-02T18:29:59Z</time></trkpt><trkpt lat="36.02613687062757" lon="-107.02741144459424"><ele>2168.2000000000003</ele><time>2026-05-02T18:30:00Z</time></trkpt><trkpt lat="36.02606047216795" lon="-107.02732297190298"><ele>2165.6</ele><time>2026-05-02T18:30:02Z</time></trkpt><trkpt lat="36.025995554017115" lon="-107.02723293958385"><ele>2163.0</ele><time>2026-05-02T18:30:03Z</time></trkpt><trkpt lat="36.02591449156121" lon="-107.02713617164967"><ele>2163.0</ele><time>2026-05-02T18:30:04Z</time></trkpt><trkpt lat="36.02584727985134" lon="-107.027091819655"><ele>2163.0</ele><time>2026-05-02T18:30:05Z</time></trkpt><trkpt lat="36.025804236294086" lon="-107.02700244294138"><ele>2163.0</ele><time>2026-05-02T18:30:07Z</time></trkpt><trkpt lat="36.025754483751044" lon="-107.02691802155246"><ele>2163.0</ele><time>2026-05-02T18:30:10Z</time></trkpt><trkpt lat="36.02571985844015" lon="-107.02679146182878"><ele>2163.0</ele><time>2026-05-02T18:30:13Z</time></trkpt><trkpt lat="36.02566031373639" lon="-107.0267095079305"><ele>2163.0</ele><time>2026-05-02T18:30:14Z</time></trkpt><trkpt lat="36.02556825801183" lon="-107.02673008270133"><ele>2162.5</ele><time>2026-05-02T18:30:17Z</time></trkpt><trkpt lat="36.025450911445866" lon="-107.02676816405533"><ele>2162.0</ele><time>2026-05-02T18:30:20Z</time></trkpt><trkpt lat="36.025285929712965" lon="-107.02679247867843"><ele>2161.5</ele><time>2026-05-02T18:30:21Z</time></trkpt><trkpt lat="36.025152866150435" lon="-107.02678495353132"><ele>2161.0</ele><time>2026-05-02T18:30:22Z</time></trkpt><trkpt lat="36.025055056977365" lon="-107.02679404510845"><ele>2160.25</ele><time>2026-05-02T18:30:23Z</time></trkpt><trkpt lat="36.02496512157994" lon="-107.02684101561935"><ele>2159.5</ele><time>2026-05-02T18:30:24Z</time></trkpt><trkpt lat="36.02484147889909" lon="-107.02688707386599"><ele>2158.75</ele><time>2026-05-02T18:30:25Z</time></trkpt><trkpt lat="36.024727839309016" lon="-107.02693151711308"><ele>2158.0</ele><time>2026-05-02T18:30:26Z</time></trkpt><trkpt lat="36.02462632997016" lon="-107.02700803203228"><ele>2158.0</ele><time>2026-05-02T18:30:27Z</time></trkpt><trkpt lat="36.024565485693344" lon="-107.02707879694361"><ele>2158.0</ele><time>2026-05-02T18:30:28Z</time></trkpt><trkpt lat="36.024524116647406" lon="-107.02716674515709"><ele>2158.0</ele><time>2026-05-02T18:30:29Z</time></trkpt><trkpt lat="36.02442002301214" lon="-107.02724352618182"><ele>2158.0</ele><time>2026-05-02T18:30:31Z</time></trkpt><trkpt lat="36.024309023519564" lon="-107.02721111172436"><ele>2158.0</ele><time>2026-05-02T18:30:32Z</time></trkpt><trkpt lat="36.02419116811932" lon="-107.02723788519639"><ele>2158.0</ele><time>2026-05-02T18:30:33Z</time></trkpt><trkpt lat="36.02405385777033" lon="-107.02724111610841"><ele>2158.0</ele><time>2026-05-02T18:30:34Z</time></trkpt><trkpt lat="36.02393222220685" lon="-107.02727397801469"><ele>2158.0</ele><time>2026-05-02T18:30:35Z</time></trkpt><trkpt lat="36.02380863241781" lon="-107.02730265539722"><ele>2158.0</ele><time>2026-05-02T18:30:36Z</time></trkpt><trkpt lat="36.023699768717314" lon="-107.02733260141785"><ele>2158.0</ele><time>2026-05-02T18:30:37Z</time></trkpt><trkpt lat="36.02360726795116" lon="-107.02736517749726"><ele>2158.0</ele><time>2026-05-02T18:30:38Z</time></trkpt><trkpt lat="36.02354929426935" lon="-107.02740948484447"><ele>2158.0</ele><time>2026-05-02T18:30:39Z</time></trkpt><trkpt lat="36.02347609331126" lon="-107.02748300665087"><ele>2158.0</ele><time>2026-05-02T18:30:40Z</time></trkpt><trkpt lat="36.023374804336086" lon="-107.02756259121658"><ele>2158.0</ele><time>2026-05-02T18:30:41Z</time></trkpt><trkpt lat="36.02326401698506" lon="-107.02764275455885"><ele>2158.0</ele><time>2026-05-02T18:30:42Z</time></trkpt><trkpt lat="36.02314318395135" lon="-107.02774850150102"><ele>2158.0</ele><time>2026-05-02T18:30:43Z</time></trkpt><trkpt lat="36.02302865575267" lon="-107.02784251617373"><ele>2158.0</ele><time>2026-05-02T18:30:44Z</time></trkpt><trkpt lat="36.022925007571885" lon="-107.02795305157377"><ele>2158.0</ele><time>2026-05-02T18:30:45Z</time></trkpt><trkpt lat="36.02281641257156" lon="-107.02805247305746"><ele>2158.0</ele><time>2026-05-02T18:30:46Z</time></trkpt><trkpt lat="36.02269125216472" lon="-107.02810674242063"><ele>2158.0</ele><time>2026-05-02T18:30:47Z</time></trkpt><trkpt lat="36.02254996014847" lon="-107.02815689985628"><ele>2158.0</ele><time>2026-05-02T18:30:48Z</time></trkpt><trkpt lat="36.02241364211901" lon="-107.02819833192592"><ele>2158.0</ele><time>2026-05-02T18:30:49Z</time></trkpt><trkpt lat="36.02228993432256" lon="-107.02822401749313"><ele>2158.3333333333335</ele><time>2026-05-02T18:30:50Z</time></trkpt><trkpt lat="36.02214799211367" lon="-107.02825378135559"><ele>2158.6666666666665</ele><time>2026-05-02T18:30:51Z</time></trkpt><trkpt lat="36.02200359393474" lon="-107.02829790263304"><ele>2159.0</ele><time>2026-05-02T18:30:52Z</time></trkpt><trkpt lat="36.02183479427468" lon="-107.02835469153939"><ele>2156.333333333333</ele><time>2026-05-02T18:30:53Z</time></trkpt><trkpt lat="36.021642835772326" lon="-107.02839443025023"><ele>2153.6666666666665</ele><time>2026-05-02T18:30:54Z</time></trkpt><trkpt lat="36.0214490156595" lon="-107.02842483267004"><ele>2151.0</ele><time>2026-05-02T18:30:55Z</time></trkpt><trkpt lat="36.02127505878974" lon="-107.02845602243875"><ele>2151.0</ele><time>2026-05-02T18:30:56Z</time></trkpt><trkpt lat="36.021122624945036" lon="-107.02848999475616"><ele>2151.0</ele><time>2026-05-02T18:30:57Z</time></trkpt><trkpt lat="36.020988189302365" lon="-107.02852222662041"><ele>2151.0</ele><time>2026-05-02T18:30:58Z</time></trkpt><trkpt lat="36.020859735315575" lon="-107.02854320705188"><ele>2151.0</ele><time>2026-05-02T18:30:59Z</time></trkpt><trkpt lat="36.02075085251303" lon="-107.0285535389085"><ele>2150.6</ele><time>2026-05-02T18:31:00Z</time></trkpt><trkpt lat="36.02067530292442" lon="-107.02856649866496"><ele>2150.2</ele><time>2026-05-02T18:31:01Z</time></trkpt><trkpt lat="36.0205854645764" lon="-107.02856877467065"><ele>2149.8</ele><time>2026-05-02T18:31:02Z</time></trkpt><trkpt lat="36.02051391491104" lon="-107.02864059072412"><ele>2149.4</ele><time>2026-05-02T18:31:03Z</time></trkpt><trkpt lat="36.02045242057442" lon="-107.02877387652691"><ele>2149.0</ele><time>2026-05-02T18:31:04Z</time></trkpt><trkpt lat="36.020398790706366" lon="-107.02884709682388"><ele>2149.0</ele><time>2026-05-02T18:31:05Z</time></trkpt><trkpt lat="36.02035995814657" lon="-107.02891400991979"><ele>2149.0</ele><time>2026-05-02T18:31:06Z</time></trkpt><trkpt lat="36.02029103138644" lon="-107.02902505375448"><ele>2149.0</ele><time>2026-05-02T18:31:08Z</time></trkpt><trkpt lat="36.02024928604768" lon="-107.02910034036042"><ele>2149.0</ele><time>2026-05-02T18:31:09Z</time></trkpt><trkpt lat="36.020171154524625" lon="-107.02917553060368"><ele>2149.0</ele><time>2026-05-02T18:31:10Z</time></trkpt><trkpt lat="36.02005656897303" lon="-107.02928529537176"><ele>2149.25</ele><time>2026-05-02T18:31:12Z</time></trkpt><trkpt lat="36.01997364098311" lon="-107.02939927273306"><ele>2149.5</ele><time>2026-05-02T18:31:13Z</time></trkpt><trkpt lat="36.019859756250696" lon="-107.02947966944124"><ele>2149.75</ele><time>2026-05-02T18:31:14Z</time></trkpt><trkpt lat="36.01977375123491" lon="-107.02955511965322"><ele>2150.0</ele><time>2026-05-02T18:31:15Z</time></trkpt><trkpt lat="36.01968339555074" lon="-107.02961556483883"><ele>2150.0</ele><time>2026-05-02T18:31:16Z</time></trkpt><trkpt lat="36.019588444849006" lon="-107.02963296821233"><ele>2150.0</ele><time>2026-05-02T18:31:17Z</time></trkpt><trkpt lat="36.01950290187477" lon="-107.02963704928901"><ele>2150.0</ele><time>2026-05-02T18:31:18Z</time></trkpt><trkpt lat="36.019394113652226" lon="-107.02975457643333"><ele>2150.0</ele><time>2026-05-02T18:31:20Z</time></trkpt><trkpt lat="36.01931760815221" lon="-107.0298734918601"><ele>2150.0</ele><time>2026-05-02T18:31:21Z</time></trkpt><trkpt lat="36.01924773412552" lon="-107.02991494407361"><ele>2150.0</ele><time>2026-05-02T18:31:22Z</time></trkpt><trkpt lat="36.01917346447946" lon="-107.02987233452201"><ele>2150.0</ele><time>2026-05-02T18:31:24Z</time></trkpt><trkpt lat="36.01904615274984" lon="-107.02992438901627"><ele>2150.0</ele><time>2026-05-02T18:31:26Z</time></trkpt><trkpt lat="36.01896007027825" lon="-107.0299007643537"><ele>2150.0</ele><time>2026-05-02T18:31:27Z</time></trkpt><trkpt lat="36.01884687024724" lon="-107.02985842231419"><ele>2150.0</ele><time>2026-05-02T18:31:28Z</time></trkpt><trkpt lat="36.01874000803893" lon="-107.02981687387572"><ele>2149.5</ele><time>2026-05-02T18:31:29Z</time></trkpt><trkpt lat="36.01866009949798" lon="-107.0298253981163"><ele>2149.0</ele><time>2026-05-02T18:31:30Z</time></trkpt><trkpt lat="36.01860602456227" lon="-107.02987842457954"><ele>2148.5</ele><time>2026-05-02T18:31:31Z</time></trkpt><trkpt lat="36.01852482906721" lon="-107.02989507895312"><ele>2148.0</ele><time>2026-05-02T18:31:32Z</time></trkpt><trkpt lat="36.018447782283374" lon="-107.02989254961669"><ele>2147.5</ele><time>2026-05-02T18:31:33Z</time></trkpt><trkpt lat="36.01837826842516" lon="-107.02988560237445"><ele>2147.0</ele><time>2026-05-02T18:31:34Z</time></trkpt><trkpt lat="36.01829718026464" lon="-107.02990120170513"><ele>2146.4</ele><time>2026-05-02T18:31:35Z</time></trkpt><trkpt lat="36.018194193355974" lon="-107.02984534401182"><ele>2145.7999999999997</ele><time>2026-05-02T18:31:36Z</time></trkpt><trkpt lat="36.018083770626454" lon="-107.02981725128146"><ele>2145.2</ele><time>2026-05-02T18:31:37Z</time></trkpt><trkpt lat="36.017998889148366" lon="-107.0298350015008"><ele>2144.6</ele><time>2026-05-02T18:31:38Z</time></trkpt><trkpt lat="36.017913939314035" lon="-107.02988722480075"><ele>2144.0</ele><time>2026-05-02T18:31:39Z</time></trkpt><trkpt lat="36.017837866532524" lon="-107.0299239409644"><ele>2144.0</ele><time>2026-05-02T18:31:40Z</time></trkpt><trkpt lat="36.01776466594021" lon="-107.02991690725659"><ele>2144.0</ele><time>2026-05-02T18:31:41Z</time></trkpt><trkpt lat="36.017692240271884" lon="-107.0298609130507"><ele>2144.0</ele><time>2026-05-02T18:31:42Z</time></trkpt><trkpt lat="36.01761223947658" lon="-107.02978887603074"><ele>2144.0</ele><time>2026-05-02T18:31:43Z</time></trkpt><trkpt lat="36.0175623607666" lon="-107.02970360511978"><ele>2144.0</ele><time>2026-05-02T18:31:44Z</time></trkpt><trkpt lat="36.01753943822265" lon="-107.02961221084428"><ele>2144.0</ele><time>2026-05-02T18:31:45Z</time></trkpt><trkpt lat="36.01757427100584" lon="-107.02945786823383"><ele>2144.0</ele><time>2026-05-02T18:31:47Z</time></trkpt><trkpt lat="36.017524395238006" lon="-107.02939574083587"><ele>2144.0</ele><time>2026-05-02T18:31:48Z</time></trkpt><trkpt lat="36.01741062809743" lon="-107.02934712195301"><ele>2144.0</ele><time>2026-05-02T18:31:49Z</time></trkpt><trkpt lat="36.01734749548967" lon="-107.02932105852383"><ele>2144.0</ele><time>2026-05-02T18:31:50Z</time></trkpt><trkpt lat="36.017271427739594" lon="-107.02934895656443"><ele>2144.0</ele><time>2026-05-02T18:31:51Z</time></trkpt><trkpt lat="36.0171949915226" lon="-107.02941773723408"><ele>2144.0</ele><time>2026-05-02T18:31:52Z</time></trkpt><trkpt lat="36.01712970218973" lon="-107.02953384117504"><ele>2144.25</ele><time>2026-05-02T18:31:53Z</time></trkpt><trkpt lat="36.01705063703839" lon="-107.02965019328833"><ele>2144.5</ele><time>2026-05-02T18:31:54Z</time></trkpt><trkpt lat="36.016976880801536" lon="-107.02977977432005"><ele>2144.75</ele><time>2026-05-02T18:31:55Z</time></trkpt><trkpt lat="36.016892448473186" lon="-107.02991215865543"><ele>2145.0</ele><time>2026-05-02T18:31:56Z</time></trkpt><trkpt lat="36.01679162271221" lon="-107.03004053101891"><ele>2145.0</ele><time>2026-05-02T18:31:57Z</time></trkpt><trkpt lat="36.016712208944384" lon="-107.03012254261122"><ele>2145.0</ele><time>2026-05-02T18:31:58Z</time></trkpt><trkpt lat="36.01664849721011" lon="-107.03018517244962"><ele>2145.0</ele><time>2026-05-02T18:31:59Z</time></trkpt><trkpt lat="36.01659142208046" lon="-107.03022496241519"><ele>2145.0</ele><time>2026-05-02T18:32:00Z</time></trkpt><trkpt lat="36.016475290962696" lon="-107.0302226945966"><ele>2145.0</ele><time>2026-05-02T18:32:02Z</time></trkpt><trkpt lat="36.016396763378665" lon="-107.03015245825816"><ele>2144.5</ele><time>2026-05-02T18:32:03Z</time></trkpt><trkpt lat="36.01631864370227" lon="-107.0300686120971"><ele>2144.0</ele><time>2026-05-02T18:32:04Z</time></trkpt><trkpt lat="36.01621192431641" lon="-107.02999362008939"><ele>2143.5</ele><time>2026-05-02T18:32:05Z</time></trkpt><trkpt lat="36.01607553374783" lon="-107.02994760537861"><ele>2143.0</ele><time>2026-05-02T18:32:06Z</time></trkpt><trkpt lat="36.01593992388538" lon="-107.02993428356778"><ele>2142.5</ele><time>2026-05-02T18:32:07Z</time></trkpt><trkpt lat="36.015775605399384" lon="-107.02991687064683"><ele>2142.0</ele><time>2026-05-02T18:32:08Z</time></trkpt><trkpt lat="36.01562850934501" lon="-107.02992216766012"><ele>2141.5</ele><time>2026-05-02T18:32:09Z</time></trkpt><trkpt lat="36.015515313216156" lon="-107.02982762546362"><ele>2141.0</ele><time>2026-05-02T18:32:11Z</time></trkpt><trkpt lat="36.01544058806808" lon="-107.02976117828707"><ele>2141.0</ele><time>2026-05-02T18:32:12Z</time></trkpt><trkpt lat="36.01535360264125" lon="-107.02966484270691"><ele>2141.0</ele><time>2026-05-02T18:32:13Z</time></trkpt><trkpt lat="36.015264324899455" lon="-107.0295519135076"><ele>2141.0</ele><time>2026-05-02T18:32:14Z</time></trkpt><trkpt lat="36.01517200691351" lon="-107.02941188924977"><ele>2141.0</ele><time>2026-05-02T18:32:15Z</time></trkpt><trkpt lat="36.01510086921316" lon="-107.02929018959037"><ele>2141.0</ele><time>2026-05-02T18:32:16Z</time></trkpt><trkpt lat="36.01505310399959" lon="-107.02919216472328"><ele>2141.0</ele><time>2026-05-02T18:32:17Z</time></trkpt><trkpt lat="36.014976253437986" lon="-107.02911374409095"><ele>2141.0</ele><time>2026-05-02T18:32:18Z</time></trkpt><trkpt lat="36.014842458525735" lon="-107.02904703036006"><ele>2141.0</ele><time>2026-05-02T18:32:19Z</time></trkpt><trkpt lat="36.01472605021445" lon="-107.0289870252915"><ele>2141.5</ele><time>2026-05-02T18:32:20Z</time></trkpt><trkpt lat="36.01462297772062" lon="-107.02898901399037"><ele>2142.0</ele><time>2026-05-02T18:32:21Z</time></trkpt><trkpt lat="36.014489754752184" lon="-107.0290417256984"><ele>2142.5</ele><time>2026-05-02T18:32:22Z</time></trkpt><trkpt lat="36.014360470585665" lon="-107.02910940687431"><ele>2143.0</ele><time>2026-05-02T18:32:23Z</time></trkpt><trkpt lat="36.01425690620374" lon="-107.02920847844904"><ele>2142.0</ele><time>2026-05-02T18:32:24Z</time></trkpt><trkpt lat="36.0141859071918" lon="-107.02936774308748"><ele>2141.0</ele><time>2026-05-02T18:32:25Z</time></trkpt><trkpt lat="36.01416338271506" lon="-107.02952848822996"><ele>2140.0</ele><time>2026-05-02T18:32:26Z</time></trkpt><trkpt lat="36.01418202433825" lon="-107.02966505605603"><ele>2139.0</ele><time>2026-05-02T18:32:27Z</time></trkpt><trkpt lat="36.01416768280461" lon="-107.02976773667613"><ele>2139.0</ele><time>2026-05-02T18:32:28Z</time></trkpt><trkpt lat="36.0141651202885" lon="-107.02986711093973"><ele>2139.0</ele><time>2026-05-02T18:32:29Z</time></trkpt><trkpt lat="36.01414568125759" lon="-107.02999727998976"><ele>2139.0</ele><time>2026-05-02T18:32:30Z</time></trkpt><trkpt lat="36.01408639828342" lon="-107.03008128415033"><ele>2139.0</ele><time>2026-05-02T18:32:31Z</time></trkpt><trkpt lat="36.01399126977551" lon="-107.03013595452782"><ele>2139.0</ele><time>2026-05-02T18:32:32Z</time></trkpt><trkpt lat="36.013873494897496" lon="-107.03013224844314"><ele>2139.0</ele><time>2026-05-02T18:32:33Z</time></trkpt><trkpt lat="36.01376921627674" lon="-107.03011882920644"><ele>2139.0</ele><time>2026-05-02T18:32:34Z</time></trkpt><trkpt lat="36.013650570866496" lon="-107.0300528302505"><ele>2139.0</ele><time>2026-05-02T18:32:35Z</time></trkpt><trkpt lat="36.01354000579884" lon="-107.02996415904467"><ele>2139.0</ele><time>2026-05-02T18:32:36Z</time></trkpt><trkpt lat="36.013450102098794" lon="-107.02986277822713"><ele>2139.0</ele><time>2026-05-02T18:32:37Z</time></trkpt><trkpt lat="36.01335459886171" lon="-107.02975187158523"><ele>2139.0</ele><time>2026-05-02T18:32:38Z</time></trkpt><trkpt lat="36.01327159196319" lon="-107.02961993862205"><ele>2139.0</ele><time>2026-05-02T18:32:39Z</time></trkpt><trkpt lat="36.013193324344755" lon="-107.02951546713706"><ele>2139.0</ele><time>2026-05-02T18:32:40Z</time></trkpt><trkpt lat="36.01305593252737" lon="-107.02957506361564"><ele>2139.0</ele><time>2026-05-02T18:32:42Z</time></trkpt><trkpt lat="36.01295088799241" lon="-107.0296506824226"><ele>2139.0</ele><time>2026-05-02T18:32:43Z</time></trkpt><trkpt lat="36.01284081969237" lon="-107.0297284325974"><ele>2139.0</ele><time>2026-05-02T18:32:44Z</time></trkpt><trkpt lat="36.01268835097512" lon="-107.02977084418961"><ele>2139.0</ele><time>2026-05-02T18:32:45Z</time></trkpt><trkpt lat="36.01252335972779" lon="-107.02976861375416"><ele>2139.0</ele><time>2026-05-02T18:32:46Z</time></trkpt><trkpt lat="36.012379821138175" lon="-107.02972657304541"><ele>2139.0</ele><time>2026-05-02T18:32:47Z</time></trkpt><trkpt lat="36.012236589481105" lon="-107.02969015430581"><ele>2139.0</ele><time>2026-05-02T18:32:48Z</time></trkpt><trkpt lat="36.0121002372584" lon="-107.02962574070162"><ele>2139.0</ele><time>2026-05-02T18:32:49Z</time></trkpt><trkpt lat="36.01198309045812" lon="-107.0295723205971"><ele>2139.0</ele><time>2026-05-02T18:32:50Z</time></trkpt><trkpt lat="36.0118534111867" lon="-107.02955064777143"><ele>2139.0</ele><time>2026-05-02T18:32:51Z</time></trkpt><trkpt lat="36.011689203152365" lon="-107.02955237708335"><ele>2139.0</ele><time>2026-05-02T18:32:52Z</time></trkpt><trkpt lat="36.011542670309" lon="-107.0295951451997"><ele>2139.0</ele><time>2026-05-02T18:32:53Z</time></trkpt><trkpt lat="36.011372918164575" lon="-107.02965695744795"><ele>2138.6666666666665</ele><time>2026-05-02T18:32:54Z</time></trkpt><trkpt lat="36.01122348097289" lon="-107.02977906694572"><ele>2138.333333333333</ele><time>2026-05-02T18:32:55Z</time></trkpt><trkpt lat="36.01107603136225" lon="-107.02993575782077"><ele>2138.0</ele><time>2026-05-02T18:32:56Z</time></trkpt><trkpt lat="36.010921786415764" lon="-107.03009980842414"><ele>2137.333333333333</ele><time>2026-05-02T18:32:57Z</time></trkpt><trkpt lat="36.01077440408771" lon="-107.03029809387016"><ele>2136.6666666666665</ele><time>2026-05-02T18:32:58Z</time></trkpt><trkpt lat="36.0106615481916" lon="-107.03050447645356"><ele>2136.0</ele><time>2026-05-02T18:32:59Z</time></trkpt><trkpt lat="36.01058809767806" lon="-107.0307212497463"><ele>2135.0</ele><time>2026-05-02T18:33:00Z</time></trkpt><trkpt lat="36.010543342733776" lon="-107.03096478041692"><ele>2134.0</ele><time>2026-05-02T18:33:01Z</time></trkpt><trkpt lat="36.01050062857957" lon="-107.03121526757727"><ele>2133.0</ele><time>2026-05-02T18:33:02Z</time></trkpt><trkpt lat="36.010447658640054" lon="-107.03139217525413"><ele>2133.0</ele><time>2026-05-02T18:33:03Z</time></trkpt><trkpt lat="36.0103869508987" lon="-107.0315370458847"><ele>2133.0</ele><time>2026-05-02T18:33:04Z</time></trkpt><trkpt lat="36.01031295199214" lon="-107.03164967256353"><ele>2133.0</ele><time>2026-05-02T18:33:05Z</time></trkpt><trkpt lat="36.01023493243842" lon="-107.03175083875497"><ele>2133.0</ele><time>2026-05-02T18:33:06Z</time></trkpt><trkpt lat="36.01013286989522" lon="-107.03181716967755"><ele>2132.8</ele><time>2026-05-02T18:33:07Z</time></trkpt><trkpt lat="36.01000193375993" lon="-107.03183212574875"><ele>2132.6000000000004</ele><time>2026-05-02T18:33:08Z</time></trkpt><trkpt lat="36.00989049559605" lon="-107.03181809163466"><ele>2132.3999999999996</ele><time>2026-05-02T18:33:09Z</time></trkpt><trkpt lat="36.00980522758281" lon="-107.03176075110973"><ele>2132.2</ele><time>2026-05-02T18:33:10Z</time></trkpt><trkpt lat="36.009753433647695" lon="-107.03169964987052"><ele>2132.0</ele><time>2026-05-02T18:33:11Z</time></trkpt><trkpt lat="36.00970423230258" lon="-107.03160045046455"><ele>2132.0</ele><time>2026-05-02T18:33:12Z</time></trkpt><trkpt lat="36.00966899138976" lon="-107.03150700204787"><ele>2132.0</ele><time>2026-05-02T18:33:13Z</time></trkpt><trkpt lat="36.00962092879691" lon="-107.0314448785814"><ele>2132.0</ele><time>2026-05-02T18:33:14Z</time></trkpt><trkpt lat="36.00952930096005" lon="-107.03140004744873"><ele>2132.0</ele><time>2026-05-02T18:33:15Z</time></trkpt><trkpt lat="36.00939665555762" lon="-107.03139824720246"><ele>2132.0</ele><time>2026-05-02T18:33:16Z</time></trkpt><trkpt lat="36.009267592599215" lon="-107.03146346154523"><ele>2132.0</ele><time>2026-05-02T18:33:17Z</time></trkpt><trkpt lat="36.0091598732836" lon="-107.0315823663096"><ele>2132.0</ele><time>2026-05-02T18:33:18Z</time></trkpt><trkpt lat="36.009069205266606" lon="-107.03171641391975"><ele>2132.0</ele><time>2026-05-02T18:33:19Z</time></trkpt><trkpt lat="36.00903510442442" lon="-107.03179633338897"><ele>2132.0</ele><time>2026-05-02T18:33:20Z</time></trkpt><trkpt lat="36.00910313915334" lon="-107.03190175861324"><ele>2131.75</ele><time>2026-05-02T18:33:22Z</time></trkpt><trkpt lat="36.00918036084187" lon="-107.03193653694484"><ele>2131.5</ele><time>2026-05-02T18:33:23Z</time></trkpt><trkpt lat="36.00927782821825" lon="-107.03205930102651"><ele>2131.25</ele><time>2026-05-02T18:33:24Z</time></trkpt><trkpt lat="36.00935682913018" lon="-107.03217985572398"><ele>2131.0</ele><time>2026-05-02T18:33:25Z</time></trkpt><trkpt lat="36.009413981414426" lon="-107.03228707779411"><ele>2131.0</ele><time>2026-05-02T18:33:26Z</time></trkpt><trkpt lat="36.00943409893465" lon="-107.03236326175568"><ele>2131.0</ele><time>2026-05-02T18:33:27Z</time></trkpt><trkpt lat="36.009363913196836" lon="-107.03255728464771"><ele>2131.0</ele><time>2026-05-02T18:33:29Z</time></trkpt><trkpt lat="36.009313426003885" lon="-107.03268412208455"><ele>2131.0</ele><time>2026-05-02T18:33:30Z</time></trkpt><trkpt lat="36.00925097879074" lon="-107.03282114042979"><ele>2131.0</ele><time>2026-05-02T18:33:31Z</time></trkpt><trkpt lat="36.0091606952637" lon="-107.03295776129714"><ele>2131.0</ele><time>2026-05-02T18:33:32Z</time></trkpt><trkpt lat="36.009060264447385" lon="-107.0330852394438"><ele>2131.0</ele><time>2026-05-02T18:33:33Z</time></trkpt><trkpt lat="36.00894233605561" lon="-107.03325724206952"><ele>2130.666666666667</ele><time>2026-05-02T18:33:34Z</time></trkpt><trkpt lat="36.00882570951358" lon="-107.0334361091156"><ele>2130.3333333333335</ele><time>2026-05-02T18:33:35Z</time></trkpt><trkpt lat="36.00869557166534" lon="-107.0336137394192"><ele>2130.0</ele><time>2026-05-02T18:33:36Z</time></trkpt><trkpt lat="36.00857054459316" lon="-107.03379096221637"><ele>2130.0</ele><time>2026-05-02T18:33:37Z</time></trkpt><trkpt lat="36.0084511419837" lon="-107.03398899763218"><ele>2130.0</ele><time>2026-05-02T18:33:38Z</time></trkpt><trkpt lat="36.00835101164251" lon="-107.03419050929068"><ele>2130.0</ele><time>2026-05-02T18:33:39Z</time></trkpt><trkpt lat="36.008257419378246" lon="-107.03439941323964"><ele>2129.0</ele><time>2026-05-02T18:33:40Z</time></trkpt><trkpt lat="36.008188064214096" lon="-107.03463876935977"><ele>2128.0</ele><time>2026-05-02T18:33:41Z</time></trkpt><trkpt lat="36.00812309064175" lon="-107.03483012637552"><ele>2127.0</ele><time>2026-05-02T18:33:42Z</time></trkpt><trkpt lat="36.008037854346725" lon="-107.03498481684505"><ele>2127.0</ele><time>2026-05-02T18:33:43Z</time></trkpt><trkpt lat="36.007940777152676" lon="-107.03510845409434"><ele>2127.0</ele><time>2026-05-02T18:33:44Z</time></trkpt><trkpt lat="36.00781972314344" lon="-107.0352058605003"><ele>2127.0</ele><time>2026-05-02T18:33:45Z</time></trkpt><trkpt lat="36.00765924523493" lon="-107.0352695794227"><ele>2127.0</ele><time>2026-05-02T18:33:46Z</time></trkpt><trkpt lat="36.00752200054111" lon="-107.03530247358526"><ele>2127.0</ele><time>2026-05-02T18:33:47Z</time></trkpt><trkpt lat="36.0074166465802" lon="-107.03536241131202"><ele>2127.0</ele><time>2026-05-02T18:33:48Z</time></trkpt><trkpt lat="36.00733265099101" lon="-107.03544138625793"><ele>2127.0</ele><time>2026-05-02T18:33:49Z</time></trkpt><trkpt lat="36.0072749331619" lon="-107.03556581586048"><ele>2127.0</ele><time>2026-05-02T18:33:50Z</time></trkpt><trkpt lat="36.00725824705711" lon="-107.03573855123307"><ele>2127.0</ele><time>2026-05-02T18:33:51Z</time></trkpt><trkpt lat="36.00724789566845" lon="-107.03593462937222"><ele>2127.0</ele><time>2026-05-02T18:33:52Z</time></trkpt><trkpt lat="36.00725539597748" lon="-107.03613186141122"><ele>2126.3333333333335</ele><time>2026-05-02T18:33:53Z</time></trkpt><trkpt lat="36.007279422139234" lon="-107.03633332529738"><ele>2125.666666666667</ele><time>2026-05-02T18:33:54Z</time></trkpt><trkpt lat="36.00729202073776" lon="-107.03654029807593"><ele>2125.0</ele><time>2026-05-02T18:33:55Z</time></trkpt><trkpt lat="36.00729424938189" lon="-107.036718771965"><ele>2124.6</ele><time>2026-05-02T18:33:56Z</time></trkpt><trkpt lat="36.007282822556846" lon="-107.03686457282745"><ele>2124.2</ele><time>2026-05-02T18:33:57Z</time></trkpt><trkpt lat="36.007263499638555" lon="-107.03698379916901"><ele>2123.8</ele><time>2026-05-02T18:33:58Z</time></trkpt><trkpt lat="36.00720283241255" lon="-107.03707378957334"><ele>2123.4</ele><time>2026-05-02T18:34:00Z</time></trkpt><trkpt lat="36.00709706016042" lon="-107.0370255535568"><ele>2123.0</ele><time>2026-05-02T18:34:02Z</time></trkpt><trkpt lat="36.007021613845836" lon="-107.03696685010911"><ele>2123.0</ele><time>2026-05-02T18:34:03Z</time></trkpt><trkpt lat="36.00696237337547" lon="-107.03692688348231"><ele>2123.0</ele><time>2026-05-02T18:34:04Z</time></trkpt><trkpt lat="36.00685181090474" lon="-107.03690664681767"><ele>2123.0</ele><time>2026-05-02T18:34:05Z</time></trkpt><trkpt lat="36.00671275820372" lon="-107.03689842892159"><ele>2123.0</ele><time>2026-05-02T18:34:06Z</time></trkpt><trkpt lat="36.006636904204804" lon="-107.03688066421452"><ele>2123.0</ele><time>2026-05-02T18:34:07Z</time></trkpt><trkpt lat="36.00656110224676" lon="-107.03678539867772"><ele>2123.25</ele><time>2026-05-02T18:34:09Z</time></trkpt><trkpt lat="36.00656876685114" lon="-107.03662124497893"><ele>2123.5</ele><time>2026-05-02T18:34:11Z</time></trkpt><trkpt lat="36.006584347012044" lon="-107.03649243194886"><ele>2123.75</ele><time>2026-05-02T18:34:12Z</time></trkpt><trkpt lat="36.00659488723485" lon="-107.03632841827951"><ele>2124.0</ele><time>2026-05-02T18:34:13Z</time></trkpt><trkpt lat="36.0066085822323" lon="-107.03617793138133"><ele>2124.0</ele><time>2026-05-02T18:34:14Z</time></trkpt><trkpt lat="36.006614004136" lon="-107.03606607740294"><ele>2124.0</ele><time>2026-05-02T18:34:15Z</time></trkpt><trkpt lat="36.00656184736563" lon="-107.0359840615351"><ele>2124.0</ele><time>2026-05-02T18:34:16Z</time></trkpt><trkpt lat="36.006482692651964" lon="-107.03592525424769"><ele>2124.0</ele><time>2026-05-02T18:34:17Z</time></trkpt><trkpt lat="36.00638378693439" lon="-107.03589625229365"><ele>2124.0</ele><time>2026-05-02T18:34:18Z</time></trkpt><trkpt lat="36.00633885127239" lon="-107.03596319474238"><ele>2124.0</ele><time>2026-05-02T18:34:20Z</time></trkpt><trkpt lat="36.00636788452671" lon="-107.03605149786375"><ele>2124.0</ele><time>2026-05-02T18:34:21Z</time></trkpt><trkpt lat="36.00628692260785" lon="-107.03622787428223"><ele>2124.0</ele><time>2026-05-02T18:34:23Z</time></trkpt><trkpt lat="36.00623813968986" lon="-107.03630389850659"><ele>2124.0</ele><time>2026-05-02T18:34:24Z</time></trkpt><trkpt lat="36.006154357090445" lon="-107.0363757109792"><ele>2124.0</ele><time>2026-05-02T18:34:25Z</time></trkpt><trkpt lat="36.0060482542945" lon="-107.03644966170572"><ele>2124.0</ele><time>2026-05-02T18:34:26Z</time></trkpt><trkpt lat="36.00594017377622" lon="-107.03657329203959"><ele>2124.0</ele><time>2026-05-02T18:34:27Z</time></trkpt><trkpt lat="36.00585648706371" lon="-107.0366875892764"><ele>2124.0</ele><time>2026-05-02T18:34:28Z</time></trkpt><trkpt lat="36.005784230636664" lon="-107.03680554002636"><ele>2124.0</ele><time>2026-05-02T18:34:29Z</time></trkpt><trkpt lat="36.00569863244145" lon="-107.03700363724026"><ele>2123.4</ele><time>2026-05-02T18:34:30Z</time></trkpt><trkpt lat="36.0055845544656" lon="-107.03715144197159"><ele>2122.8</ele><time>2026-05-02T18:34:31Z</time></trkpt><trkpt lat="36.00553507710112" lon="-107.03725853614864"><ele>2122.2</ele><time>2026-05-02T18:34:33Z</time></trkpt><trkpt lat="36.00555096569148" lon="-107.03735942787395"><ele>2121.6</ele><time>2026-05-02T18:34:35Z</time></trkpt><trkpt lat="36.005611338088364" lon="-107.03739208754995"><ele>2121.0</ele><time>2026-05-02T18:34:36Z</time></trkpt><trkpt lat="36.005677492061714" lon="-107.03742413053311"><ele>2121.0</ele><time>2026-05-02T18:34:37Z</time></trkpt><trkpt lat="36.005719294673284" lon="-107.03748457413283"><ele>2121.0</ele><time>2026-05-02T18:34:38Z</time></trkpt><trkpt lat="36.005778018189005" lon="-107.03755756258357"><ele>2121.0</ele><time>2026-05-02T18:34:39Z</time></trkpt><trkpt lat="36.005835599237265" lon="-107.03766406927446"><ele>2121.0</ele><time>2026-05-02T18:34:40Z</time></trkpt><trkpt lat="36.00587009359649" lon="-107.0377881755368"><ele>2121.0</ele><time>2026-05-02T18:34:41Z</time></trkpt><trkpt lat="36.00585991558742" lon="-107.03793309878866"><ele>2121.0</ele><time>2026-05-02T18:34:42Z</time></trkpt><trkpt lat="36.005816660275606" lon="-107.03807963702499"><ele>2121.0</ele><time>2026-05-02T18:34:43Z</time></trkpt><trkpt lat="36.00575732010108" lon="-107.03823576772392"><ele>2121.0</ele><time>2026-05-02T18:34:44Z</time></trkpt><trkpt lat="36.005650643737674" lon="-107.03840706943991"><ele>2121.0</ele><time>2026-05-02T18:34:45Z</time></trkpt><trkpt lat="36.005553183245986" lon="-107.0385674416821"><ele>2120.3333333333335</ele><time>2026-05-02T18:34:46Z</time></trkpt><trkpt lat="36.005447935322664" lon="-107.0387306531176"><ele>2119.666666666667</ele><time>2026-05-02T18:34:47Z</time></trkpt><trkpt lat="36.005327303196495" lon="-107.03889207772495"><ele>2119.0</ele><time>2026-05-02T18:34:48Z</time></trkpt><trkpt lat="36.00519845178876" lon="-107.03904556166762"><ele>2118.3333333333335</ele><time>2026-05-02T18:34:49Z</time></trkpt><trkpt lat="36.005052787433826" lon="-107.03919785303417"><ele>2117.6666666666665</ele><time>2026-05-02T18:34:50Z</time></trkpt><trkpt lat="36.00488216285252" lon="-107.03932358087239"><ele>2117.0</ele><time>2026-05-02T18:34:51Z</time></trkpt><trkpt lat="36.00470865235841" lon="-107.03944020153145"><ele>2116.6666666666665</ele><time>2026-05-02T18:34:52Z</time></trkpt><trkpt lat="36.004524436789545" lon="-107.03956372414369"><ele>2116.3333333333335</ele><time>2026-05-02T18:34:53Z</time></trkpt><trkpt lat="36.0043287451211" lon="-107.03967358974232"><ele>2116.0</ele><time>2026-05-02T18:34:54Z</time></trkpt><trkpt lat="36.00412073594723" lon="-107.0397799757713"><ele>2116.0</ele><time>2026-05-02T18:34:55Z</time></trkpt><trkpt lat="36.003916410383916" lon="-107.0398980625072"><ele>2116.0</ele><time>2026-05-02T18:34:56Z</time></trkpt><trkpt lat="36.003726907600004" lon="-107.0400124709407"><ele>2116.0</ele><time>2026-05-02T18:34:57Z</time></trkpt><trkpt lat="36.0035432698567" lon="-107.04012567057354"><ele>2116.0</ele><time>2026-05-02T18:34:58Z</time></trkpt><trkpt lat="36.003380841413815" lon="-107.04025415774429"><ele>2116.0</ele><time>2026-05-02T18:34:59Z</time></trkpt><trkpt lat="36.00325379327119" lon="-107.04035896473845"><ele>2116.0</ele><time>2026-05-02T18:35:00Z</time></trkpt><trkpt lat="36.00314476338863" lon="-107.04048102115532"><ele>2115.666666666667</ele><time>2026-05-02T18:35:01Z</time></trkpt><trkpt lat="36.00303260459552" lon="-107.04062643039956"><ele>2115.3333333333335</ele><time>2026-05-02T18:35:02Z</time></trkpt><trkpt lat="36.00294693293385" lon="-107.04079807537263"><ele>2115.0</ele><time>2026-05-02T18:35:03Z</time></trkpt><trkpt lat="36.00287106321655" lon="-107.04099278150174"><ele>2114.6666666666665</ele><time>2026-05-02T18:35:04Z</time></trkpt><trkpt lat="36.0027967739585" lon="-107.04119004102212"><ele>2114.333333333333</ele><time>2026-05-02T18:35:05Z</time></trkpt><trkpt lat="36.002728511647646" lon="-107.0414133195748"><ele>2114.0</ele><time>2026-05-02T18:35:06Z</time></trkpt><trkpt lat="36.00264510006667" lon="-107.0416117324503"><ele>2114.0</ele><time>2026-05-02T18:35:07Z</time></trkpt><trkpt lat="36.00258219600829" lon="-107.04174252803796"><ele>2114.0</ele><time>2026-05-02T18:35:08Z</time></trkpt><trkpt lat="36.00251764569852" lon="-107.04184450985143"><ele>2114.0</ele><time>2026-05-02T18:35:09Z</time></trkpt><trkpt lat="36.00245154024491" lon="-107.04191474463893"><ele>2114.0</ele><time>2026-05-02T18:35:10Z</time></trkpt><trkpt lat="36.00239139668583" lon="-107.04195937289583"><ele>2114.0</ele><time>2026-05-02T18:35:11Z</time></trkpt><trkpt lat="36.00233705324688" lon="-107.04202065651477"><ele>2113.75</ele><time>2026-05-02T18:35:12Z</time></trkpt><trkpt lat="36.00228570488912" lon="-107.0421233127254"><ele>2113.5</ele><time>2026-05-02T18:35:13Z</time></trkpt><trkpt lat="36.002225151777544" lon="-107.04223373472414"><ele>2113.25</ele><time>2026-05-02T18:35:14Z</time></trkpt><trkpt lat="36.00229264103353" lon="-107.04239847320869"><ele>2113.0</ele><time>2026-05-02T18:35:16Z</time></trkpt><trkpt lat="36.002328543427986" lon="-107.04254021787231"><ele>2113.0</ele><time>2026-05-02T18:35:17Z</time></trkpt><trkpt lat="36.00236941122102" lon="-107.04270706726123"><ele>2113.0</ele><time>2026-05-02T18:35:18Z</time></trkpt><trkpt lat="36.002415610346944" lon="-107.04287449112772"><ele>2113.0</ele><time>2026-05-02T18:35:19Z</time></trkpt><trkpt lat="36.00246249332424" lon="-107.04301112123662"><ele>2113.0</ele><time>2026-05-02T18:35:20Z</time></trkpt><trkpt lat="36.00248897589224" lon="-107.04309393354035"><ele>2113.0</ele><time>2026-05-02T18:35:21Z</time></trkpt><trkpt lat="36.002492347785925" lon="-107.04317304780031"><ele>2113.0</ele><time>2026-05-02T18:35:22Z</time></trkpt><trkpt lat="36.002456362421555" lon="-107.04325974994858"><ele>2113.0</ele><time>2026-05-02T18:35:23Z</time></trkpt><trkpt lat="36.002391698254414" lon="-107.04332099127319"><ele>2113.0</ele><time>2026-05-02T18:35:24Z</time></trkpt><trkpt lat="36.00231243331399" lon="-107.04335276587351"><ele>2113.0</ele><time>2026-05-02T18:35:25Z</time></trkpt><trkpt lat="36.00222131923539" lon="-107.0433928268031"><ele>2113.0</ele><time>2026-05-02T18:35:26Z</time></trkpt><trkpt lat="36.002138739910215" lon="-107.0434727617745"><ele>2112.5</ele><time>2026-05-02T18:35:27Z</time></trkpt><trkpt lat="36.002084428709566" lon="-107.04359300354594"><ele>2112.0</ele><time>2026-05-02T18:35:28Z</time></trkpt><trkpt lat="36.002032226091636" lon="-107.04378343987668"><ele>2111.5</ele><time>2026-05-02T18:35:30Z</time></trkpt><trkpt lat="36.002002772758246" lon="-107.04393739756155"><ele>2111.0</ele><time>2026-05-02T18:35:31Z</time></trkpt><trkpt lat="36.00198994904273" lon="-107.04410918622247"><ele>2110.333333333333</ele><time>2026-05-02T18:35:32Z</time></trkpt><trkpt lat="36.00199363496379" lon="-107.0442930770942"><ele>2109.6666666666665</ele><time>2026-05-02T18:35:33Z</time></trkpt><trkpt lat="36.002004672837074" lon="-107.04448458566115"><ele>2109.0</ele><time>2026-05-02T18:35:34Z</time></trkpt><trkpt lat="36.00200943506633" lon="-107.04468108170956"><ele>2109.0</ele><time>2026-05-02T18:35:35Z</time></trkpt><trkpt lat="36.00199868584936" lon="-107.04488690289699"><ele>2109.0</ele><time>2026-05-02T18:35:36Z</time></trkpt><trkpt lat="36.001973773674614" lon="-107.04509834488852"><ele>2109.0</ele><time>2026-05-02T18:35:37Z</time></trkpt><trkpt lat="36.00193906749779" lon="-107.04527783885014"><ele>2109.0</ele><time>2026-05-02T18:35:38Z</time></trkpt><trkpt lat="36.00188512901632" lon="-107.0454311752302"><ele>2109.0</ele><time>2026-05-02T18:35:39Z</time></trkpt><trkpt lat="36.00179673023365" lon="-107.04560262871199"><ele>2109.0</ele><time>2026-05-02T18:35:40Z</time></trkpt><trkpt lat="36.00172716900983" lon="-107.04577047878645"><ele>2108.75</ele><time>2026-05-02T18:35:41Z</time></trkpt><trkpt lat="36.00167153907123" lon="-107.04594381780367"><ele>2108.5</ele><time>2026-05-02T18:35:42Z</time></trkpt><trkpt lat="36.001639964011176" lon="-107.04609736270142"><ele>2108.25</ele><time>2026-05-02T18:35:43Z</time></trkpt><trkpt lat="36.00163851508796" lon="-107.04621186694462"><ele>2108.0</ele><time>2026-05-02T18:35:44Z</time></trkpt><trkpt lat="36.00168719197261" lon="-107.04629315027422"><ele>2108.0</ele><time>2026-05-02T18:35:45Z</time></trkpt><trkpt lat="36.00176179126185" lon="-107.0463778891242"><ele>2108.0</ele><time>2026-05-02T18:35:46Z</time></trkpt><trkpt lat="36.001840623671654" lon="-107.04647086209825"><ele>2108.0</ele><time>2026-05-02T18:35:47Z</time></trkpt><trkpt lat="36.00188009546403" lon="-107.04659909509098"><ele>2108.0</ele><time>2026-05-02T18:35:48Z</time></trkpt><trkpt lat="36.001875836506485" lon="-107.0467058410908"><ele>2108.0</ele><time>2026-05-02T18:35:49Z</time></trkpt><trkpt lat="36.00187216281811" lon="-107.04685991744151"><ele>2107.6</ele><time>2026-05-02T18:35:50Z</time></trkpt><trkpt lat="36.00184904423088" lon="-107.04700270637656"><ele>2107.2000000000003</ele><time>2026-05-02T18:35:51Z</time></trkpt><trkpt lat="36.00181659897526" lon="-107.0471040465877"><ele>2106.8</ele><time>2026-05-02T18:35:52Z</time></trkpt><trkpt lat="36.00173165943974" lon="-107.04720301322101"><ele>2106.4</ele><time>2026-05-02T18:35:53Z</time></trkpt><trkpt lat="36.00162072417151" lon="-107.04725625933618"><ele>2106.0</ele><time>2026-05-02T18:35:54Z</time></trkpt><trkpt lat="36.00149982742875" lon="-107.04726896335765"><ele>2105.5</ele><time>2026-05-02T18:35:55Z</time></trkpt><trkpt lat="36.001378246765704" lon="-107.04728295265232"><ele>2105.0</ele><time>2026-05-02T18:35:56Z</time></trkpt><trkpt lat="36.00123733187191" lon="-107.04732380126639"><ele>2104.5</ele><time>2026-05-02T18:35:57Z</time></trkpt><trkpt lat="36.001083882646" lon="-107.04737915936032"><ele>2104.0</ele><time>2026-05-02T18:35:58Z</time></trkpt><trkpt lat="36.00092332905206" lon="-107.0474588187964"><ele>2103.666666666667</ele><time>2026-05-02T18:35:59Z</time></trkpt><trkpt lat="36.000761284126774" lon="-107.04756512591612"><ele>2103.3333333333335</ele><time>2026-05-02T18:36:00Z</time></trkpt><trkpt lat="36.00059052255218" lon="-107.04769347208587"><ele>2103.0</ele><time>2026-05-02T18:36:01Z</time></trkpt><trkpt lat="36.000424009417706" lon="-107.04781724029546"><ele>2103.0</ele><time>2026-05-02T18:36:02Z</time></trkpt><trkpt lat="36.00025573757322" lon="-107.0479232487347"><ele>2103.0</ele><time>2026-05-02T18:36:03Z</time></trkpt><trkpt lat="36.000073973895496" lon="-107.04802934794797"><ele>2103.0</ele><time>2026-05-02T18:36:04Z</time></trkpt><trkpt lat="35.99991978236168" lon="-107.04810601071775"><ele>2103.0</ele><time>2026-05-02T18:36:05Z</time></trkpt><trkpt lat="35.999774239466916" lon="-107.04816264118928"><ele>2103.0</ele><time>2026-05-02T18:36:06Z</time></trkpt><trkpt lat="35.99959885211704" lon="-107.04817528044235"><ele>2103.0</ele><time>2026-05-02T18:36:07Z</time></trkpt><trkpt lat="35.999421617077346" lon="-107.04814330820875"><ele>2103.0</ele><time>2026-05-02T18:36:08Z</time></trkpt><trkpt lat="35.99923532596703" lon="-107.04813173005707"><ele>2103.0</ele><time>2026-05-02T18:36:09Z</time></trkpt><trkpt lat="35.99903923459488" lon="-107.04816977033354"><ele>2103.0</ele><time>2026-05-02T18:36:10Z</time></trkpt><trkpt lat="35.99884195731644" lon="-107.04817124301434"><ele>2103.3333333333335</ele><time>2026-05-02T18:36:11Z</time></trkpt><trkpt lat="35.99864488817208" lon="-107.04818579190217"><ele>2103.666666666667</ele><time>2026-05-02T18:36:12Z</time></trkpt><trkpt lat="35.998450119923696" lon="-107.04822096466822"><ele>2104.0</ele><time>2026-05-02T18:36:13Z</time></trkpt><trkpt lat="35.998239083178326" lon="-107.04827287543381"><ele>2103.3333333333335</ele><time>2026-05-02T18:36:14Z</time></trkpt><trkpt lat="35.99801505976787" lon="-107.04832557675685"><ele>2102.6666666666665</ele><time>2026-05-02T18:36:15Z</time></trkpt><trkpt lat="35.99781591971137" lon="-107.0483551010739"><ele>2102.0</ele><time>2026-05-02T18:36:16Z</time></trkpt><trkpt lat="35.99761929449853" lon="-107.04838070261974"><ele>2101.333333333333</ele><time>2026-05-02T18:36:17Z</time></trkpt><trkpt lat="35.99744378864861" lon="-107.04838993848038"><ele>2100.6666666666665</ele><time>2026-05-02T18:36:18Z</time></trkpt><trkpt lat="35.99726728562349" lon="-107.04837953592985"><ele>2100.0</ele><time>2026-05-02T18:36:19Z</time></trkpt><trkpt lat="35.99711495204464" lon="-107.04836637628756"><ele>2100.0</ele><time>2026-05-02T18:36:20Z</time></trkpt><trkpt lat="35.99698332103617" lon="-107.04831568191508"><ele>2100.0</ele><time>2026-05-02T18:36:21Z</time></trkpt><trkpt lat="35.99687161209627" lon="-107.04822132312952"><ele>2100.0</ele><time>2026-05-02T18:36:22Z</time></trkpt><trkpt lat="35.996763646210276" lon="-107.04812141375437"><ele>2100.0</ele><time>2026-05-02T18:36:23Z</time></trkpt><trkpt lat="35.99671488524342" lon="-107.04804732399566"><ele>2100.0</ele><time>2026-05-02T18:36:24Z</time></trkpt><trkpt lat="35.996639232350915" lon="-107.04790600834114"><ele>2100.0</ele><time>2026-05-02T18:36:26Z</time></trkpt><trkpt lat="35.99665561920186" lon="-107.047818041745"><ele>2100.0</ele><time>2026-05-02T18:36:27Z</time></trkpt><trkpt lat="35.99675148054518" lon="-107.04772050897873"><ele>2100.0</ele><time>2026-05-02T18:36:29Z</time></trkpt><trkpt lat="35.99681006714931" lon="-107.04766813615966"><ele>2100.0</ele><time>2026-05-02T18:36:31Z</time></trkpt><trkpt lat="35.996775080363534" lon="-107.0475989085008"><ele>2100.5</ele><time>2026-05-02T18:36:32Z</time></trkpt><trkpt lat="35.99671350948474" lon="-107.04754222095994"><ele>2101.0</ele><time>2026-05-02T18:36:33Z</time></trkpt><trkpt lat="35.99655904147335" lon="-107.04745853542987"><ele>2101.5</ele><time>2026-05-02T18:36:35Z</time></trkpt><trkpt lat="35.996430517223274" lon="-107.04736531008814"><ele>2102.0</ele><time>2026-05-02T18:36:36Z</time></trkpt><trkpt lat="35.99629473364633" lon="-107.04726809113863"><ele>2103.6666666666665</ele><time>2026-05-02T18:36:37Z</time></trkpt><trkpt lat="35.99615226710015" lon="-107.0471707526246"><ele>2105.3333333333335</ele><time>2026-05-02T18:36:38Z</time></trkpt><trkpt lat="35.99601350403147" lon="-107.04709099904754"><ele>2107.0</ele><time>2026-05-02T18:36:39Z</time></trkpt><trkpt lat="35.99585176213189" lon="-107.04703653331457"><ele>2106.6</ele><time>2026-05-02T18:36:40Z</time></trkpt><trkpt lat="35.99569674179473" lon="-107.04701197251464"><ele>2106.2</ele><time>2026-05-02T18:36:41Z</time></trkpt><trkpt lat="35.99558859588951" lon="-107.04699480956837"><ele>2105.8</ele><time>2026-05-02T18:36:42Z</time></trkpt><trkpt lat="35.99549013736487" lon="-107.04697657623495"><ele>2105.4</ele><time>2026-05-02T18:36:43Z</time></trkpt><trkpt lat="35.99541886287181" lon="-107.04699640153976"><ele>2105.0</ele><time>2026-05-02T18:36:44Z</time></trkpt><trkpt lat="35.99537624559927" lon="-107.04714679129111"><ele>2105.0</ele><time>2026-05-02T18:36:46Z</time></trkpt><trkpt lat="35.9953841670502" lon="-107.04727935429878"><ele>2105.0</ele><time>2026-05-02T18:36:47Z</time></trkpt><trkpt lat="35.99538384087809" lon="-107.047411722658"><ele>2105.0</ele><time>2026-05-02T18:36:48Z</time></trkpt><trkpt lat="35.99537810551783" lon="-107.04756884082131"><ele>2105.0</ele><time>2026-05-02T18:36:49Z</time></trkpt><trkpt lat="35.995361800187126" lon="-107.04772788941717"><ele>2103.75</ele><time>2026-05-02T18:36:50Z</time></trkpt><trkpt lat="35.99531677601432" lon="-107.04791495374347"><ele>2102.5</ele><time>2026-05-02T18:36:51Z</time></trkpt><trkpt lat="35.99527722878635" lon="-107.04806382827856"><ele>2101.25</ele><time>2026-05-02T18:36:52Z</time></trkpt><trkpt lat="35.995226625470686" lon="-107.04816823168863"><ele>2100.0</ele><time>2026-05-02T18:36:53Z</time></trkpt><trkpt lat="35.995143807968944" lon="-107.04824851475519"><ele>2100.0</ele><time>2026-05-02T18:36:54Z</time></trkpt><trkpt lat="35.995013822656375" lon="-107.04829858306611"><ele>2100.0</ele><time>2026-05-02T18:36:55Z</time></trkpt><trkpt lat="35.994869137828864" lon="-107.04833638404456"><ele>2100.0</ele><time>2026-05-02T18:36:56Z</time></trkpt><trkpt lat="35.994719011990355" lon="-107.0483576270847"><ele>2100.0</ele><time>2026-05-02T18:36:57Z</time></trkpt><trkpt lat="35.99457721014642" lon="-107.04835180973389"><ele>2100.0</ele><time>2026-05-02T18:36:58Z</time></trkpt><trkpt lat="35.99443243608249" lon="-107.04830209133148"><ele>2100.0</ele><time>2026-05-02T18:36:59Z</time></trkpt><trkpt lat="35.99426813776768" lon="-107.04826251722456"><ele>2100.0</ele><time>2026-05-02T18:37:00Z</time></trkpt><trkpt lat="35.99409294100049" lon="-107.0482167855476"><ele>2101.0</ele><time>2026-05-02T18:37:01Z</time></trkpt><trkpt lat="35.99391077022037" lon="-107.04816797551258"><ele>2102.0</ele><time>2026-05-02T18:37:02Z</time></trkpt><trkpt lat="35.993721903979825" lon="-107.04813001358305"><ele>2103.0</ele><time>2026-05-02T18:37:03Z</time></trkpt><trkpt lat="35.99351766561128" lon="-107.0480876513007"><ele>2103.0</ele><time>2026-05-02T18:37:04Z</time></trkpt><trkpt lat="35.9933403527692" lon="-107.04801883178312"><ele>2103.0</ele><time>2026-05-02T18:37:05Z</time></trkpt><trkpt lat="35.99321953231567" lon="-107.0479816381877"><ele>2103.0</ele><time>2026-05-02T18:37:06Z</time></trkpt><trkpt lat="35.993150483464234" lon="-107.0479652268405"><ele>2103.0</ele><time>2026-05-02T18:37:07Z</time></trkpt><trkpt lat="35.99308352758916" lon="-107.04793210058928"><ele>2103.0</ele><time>2026-05-02T18:37:08Z</time></trkpt><trkpt lat="35.99302107623289" lon="-107.04789419561561"><ele>2103.0</ele><time>2026-05-02T18:37:09Z</time></trkpt><trkpt lat="35.99291979672173" lon="-107.04781001819465"><ele>2103.0</ele><time>2026-05-02T18:37:11Z</time></trkpt><trkpt lat="35.99283712554475" lon="-107.04775126959441"><ele>2103.0</ele><time>2026-05-02T18:37:12Z</time></trkpt><trkpt lat="35.99273835451109" lon="-107.04770698534644"><ele>2103.0</ele><time>2026-05-02T18:37:13Z</time></trkpt><trkpt lat="35.9926145908341" lon="-107.04763670762014"><ele>2103.25</ele><time>2026-05-02T18:37:14Z</time></trkpt><trkpt lat="35.99247069233109" lon="-107.04758242857821"><ele>2103.5</ele><time>2026-05-02T18:37:15Z</time></trkpt><trkpt lat="35.99233240975986" lon="-107.04754002562213"><ele>2103.75</ele><time>2026-05-02T18:37:16Z</time></trkpt><trkpt lat="35.992233483219344" lon="-107.04750476026014"><ele>2104.0</ele><time>2026-05-02T18:37:17Z</time></trkpt><trkpt lat="35.992134357262614" lon="-107.04744453854751"><ele>2104.0</ele><time>2026-05-02T18:37:18Z</time></trkpt><trkpt lat="35.992034374235985" lon="-107.04738648582516"><ele>2104.0</ele><time>2026-05-02T18:37:19Z</time></trkpt><trkpt lat="35.99193203628262" lon="-107.04735681729056"><ele>2104.0</ele><time>2026-05-02T18:37:20Z</time></trkpt><trkpt lat="35.9918186780332" lon="-107.04732202277405"><ele>2104.0</ele><time>2026-05-02T18:37:21Z</time></trkpt><trkpt lat="35.99171599597029" lon="-107.04725903534154"><ele>2104.0</ele><time>2026-05-02T18:37:22Z</time></trkpt><trkpt lat="35.99161826473588" lon="-107.04716586624241"><ele>2103.0</ele><time>2026-05-02T18:37:23Z</time></trkpt><trkpt lat="35.991508768727826" lon="-107.0470607253912"><ele>2102.0</ele><time>2026-05-02T18:37:24Z</time></trkpt><trkpt lat="35.991414799918445" lon="-107.0469357270808"><ele>2101.0</ele><time>2026-05-02T18:37:25Z</time></trkpt><trkpt lat="35.991355332189265" lon="-107.04685069567513"><ele>2100.0</ele><time>2026-05-02T18:37:26Z</time></trkpt><trkpt lat="35.99129377911353" lon="-107.04679608460515"><ele>2099.0</ele><time>2026-05-02T18:37:27Z</time></trkpt><trkpt lat="35.991213917977646" lon="-107.04673717879943"><ele>2099.0</ele><time>2026-05-02T18:37:28Z</time></trkpt><trkpt lat="35.99113095660624" lon="-107.0466493295516"><ele>2099.0</ele><time>2026-05-02T18:37:29Z</time></trkpt><trkpt lat="35.991044689917935" lon="-107.04658162603457"><ele>2099.0</ele><time>2026-05-02T18:37:30Z</time></trkpt><trkpt lat="35.99097337972459" lon="-107.04652169108068"><ele>2099.0</ele><time>2026-05-02T18:37:31Z</time></trkpt><trkpt lat="35.99091044866677" lon="-107.04643780464136"><ele>2099.0</ele><time>2026-05-02T18:37:32Z</time></trkpt><trkpt lat="35.9908637998224" lon="-107.04632148844887"><ele>2099.25</ele><time>2026-05-02T18:37:33Z</time></trkpt><trkpt lat="35.990795422899794" lon="-107.04618964800919"><ele>2099.5</ele><time>2026-05-02T18:37:34Z</time></trkpt><trkpt lat="35.99072599605366" lon="-107.04604497865797"><ele>2099.75</ele><time>2026-05-02T18:37:35Z</time></trkpt><trkpt lat="35.990666887046594" lon="-107.04590915479318"><ele>2100.0</ele><time>2026-05-02T18:37:36Z</time></trkpt><trkpt lat="35.99061774094547" lon="-107.0458033352116"><ele>2100.0</ele><time>2026-05-02T18:37:37Z</time></trkpt><trkpt lat="35.990567794059885" lon="-107.04570773986275"><ele>2100.0</ele><time>2026-05-02T18:37:38Z</time></trkpt><trkpt lat="35.990527145950146" lon="-107.04561031079201"><ele>2100.0</ele><time>2026-05-02T18:37:39Z</time></trkpt><trkpt lat="35.990488712610386" lon="-107.04550649272937"><ele>2100.0</ele><time>2026-05-02T18:37:40Z</time></trkpt><trkpt lat="35.990456684434214" lon="-107.04541271016167"><ele>2100.0</ele><time>2026-05-02T18:37:41Z</time></trkpt><trkpt lat="35.99046150934967" lon="-107.04528853183324"><ele>2100.0</ele><time>2026-05-02T18:37:43Z</time></trkpt><trkpt lat="35.99047502900216" lon="-107.04516741736899"><ele>2100.0</ele><time>2026-05-02T18:37:44Z</time></trkpt><trkpt lat="35.99046706216223" lon="-107.04505209610728"><ele>2100.0</ele><time>2026-05-02T18:37:45Z</time></trkpt><trkpt lat="35.990458083360075" lon="-107.0449203489359"><ele>2100.0</ele><time>2026-05-02T18:37:46Z</time></trkpt><trkpt lat="35.99047926537453" lon="-107.04477328825328"><ele>2100.0</ele><time>2026-05-02T18:37:47Z</time></trkpt><trkpt lat="35.990504039171036" lon="-107.0446212691775"><ele>2099.75</ele><time>2026-05-02T18:37:48Z</time></trkpt><trkpt lat="35.990517768555144" lon="-107.04446262594323"><ele>2099.5</ele><time>2026-05-02T18:37:49Z</time></trkpt><trkpt lat="35.990560879080505" lon="-107.04430480287932"><ele>2099.25</ele><time>2026-05-02T18:37:50Z</time></trkpt><trkpt lat="35.990591341871955" lon="-107.04418487619816"><ele>2099.0</ele><time>2026-05-02T18:37:51Z</time></trkpt><trkpt lat="35.99061920605415" lon="-107.044068170341"><ele>2098.5</ele><time>2026-05-02T18:37:52Z</time></trkpt><trkpt lat="35.99063984527337" lon="-107.04390510117355"><ele>2098.0</ele><time>2026-05-02T18:37:54Z</time></trkpt><trkpt lat="35.99063960727036" lon="-107.04376497149512"><ele>2097.5</ele><time>2026-05-02T18:37:55Z</time></trkpt><trkpt lat="35.990647415784366" lon="-107.0436136990846"><ele>2097.0</ele><time>2026-05-02T18:37:56Z</time></trkpt><trkpt lat="35.990665868562616" lon="-107.04349158008259"><ele>2097.0</ele><time>2026-05-02T18:37:57Z</time></trkpt><trkpt lat="35.99066770712624" lon="-107.043407819841"><ele>2097.0</ele><time>2026-05-02T18:37:58Z</time></trkpt><trkpt lat="35.99065872069622" lon="-107.04332048842117"><ele>2097.0</ele><time>2026-05-02T18:37:59Z</time></trkpt><trkpt lat="35.990648884747685" lon="-107.04322861257995"><ele>2097.0</ele><time>2026-05-02T18:38:00Z</time></trkpt><trkpt lat="35.990661736445986" lon="-107.04311403032622"><ele>2097.0</ele><time>2026-05-02T18:38:01Z</time></trkpt><trkpt lat="35.99065312139802" lon="-107.04301348184258"><ele>2097.0</ele><time>2026-05-02T18:38:02Z</time></trkpt><trkpt lat="35.990634477408946" lon="-107.0429127066935"><ele>2097.0</ele><time>2026-05-02T18:38:03Z</time></trkpt><trkpt lat="35.99061303730469" lon="-107.04276106045113"><ele>2097.0</ele><time>2026-05-02T18:38:04Z</time></trkpt><trkpt lat="35.990607621345376" lon="-107.04262520761355"><ele>2097.0</ele><time>2026-05-02T18:38:05Z</time></trkpt><trkpt lat="35.99059826629753" lon="-107.04245564741584"><ele>2097.0</ele><time>2026-05-02T18:38:07Z</time></trkpt><trkpt lat="35.99057965678058" lon="-107.0423006876661"><ele>2097.0</ele><time>2026-05-02T18:38:08Z</time></trkpt><trkpt lat="35.99053674828524" lon="-107.04214617285474"><ele>2097.0</ele><time>2026-05-02T18:38:09Z</time></trkpt><trkpt lat="35.990502973744185" lon="-107.0419977767212"><ele>2097.0</ele><time>2026-05-02T18:38:10Z</time></trkpt><trkpt lat="35.9905155017729" lon="-107.04183350830543"><ele>2097.0</ele><time>2026-05-02T18:38:11Z</time></trkpt><trkpt lat="35.990515365609795" lon="-107.04173123591286"><ele>2097.0</ele><time>2026-05-02T18:38:12Z</time></trkpt><trkpt lat="35.99048672185414" lon="-107.04158995244887"><ele>2097.0</ele><time>2026-05-02T18:38:14Z</time></trkpt><trkpt lat="35.9904705374835" lon="-107.04150818038697"><ele>2097.0</ele><time>2026-05-02T18:38:15Z</time></trkpt><trkpt lat="35.99046066387672" lon="-107.04141259573684"><ele>2097.0</ele><time>2026-05-02T18:38:16Z</time></trkpt><trkpt lat="35.990497927063444" lon="-107.04130822381747"><ele>2097.0</ele><time>2026-05-02T18:38:17Z</time></trkpt><trkpt lat="35.990532970172254" lon="-107.0411996939097"><ele>2097.0</ele><time>2026-05-02T18:38:18Z</time></trkpt><trkpt lat="35.990518033386785" lon="-107.04107337857862"><ele>2097.0</ele><time>2026-05-02T18:38:19Z</time></trkpt><trkpt lat="35.990470253184284" lon="-107.04093785909694"><ele>2097.0</ele><time>2026-05-02T18:38:20Z</time></trkpt><trkpt lat="35.99045320688765" lon="-107.04083370138201"><ele>2097.0</ele><time>2026-05-02T18:38:21Z</time></trkpt><trkpt lat="35.99042877811894" lon="-107.04072327712113"><ele>2097.0</ele><time>2026-05-02T18:38:22Z</time></trkpt><trkpt lat="35.990422630331814" lon="-107.04063007641365"><ele>2098.5</ele><time>2026-05-02T18:38:23Z</time></trkpt><trkpt lat="35.990389005088375" lon="-107.04048836205777"><ele>2100.0</ele><time>2026-05-02T18:38:24Z</time></trkpt><trkpt lat="35.990362613867134" lon="-107.04035148452888"><ele>2101.5</ele><time>2026-05-02T18:38:25Z</time></trkpt><trkpt lat="35.990290337661115" lon="-107.04020085409404"><ele>2103.0</ele><time>2026-05-02T18:38:26Z</time></trkpt><trkpt lat="35.990211886809625" lon="-107.04006036287343"><ele>2103.0</ele><time>2026-05-02T18:38:27Z</time></trkpt><trkpt lat="35.99014862852286" lon="-107.03999015166262"><ele>2103.0</ele><time>2026-05-02T18:38:28Z</time></trkpt><trkpt lat="35.99006883446457" lon="-107.03995755689535"><ele>2103.0</ele><time>2026-05-02T18:38:29Z</time></trkpt><trkpt lat="35.98997008741417" lon="-107.03989509905144"><ele>2103.0</ele><time>2026-05-02T18:38:30Z</time></trkpt><trkpt lat="35.98984364490823" lon="-107.03984013364504"><ele>2103.0</ele><time>2026-05-02T18:38:31Z</time></trkpt><trkpt lat="35.98968184574167" lon="-107.03985624627188"><ele>2101.6666666666665</ele><time>2026-05-02T18:38:32Z</time></trkpt><trkpt lat="35.989490175231715" lon="-107.03985826818653"><ele>2100.333333333333</ele><time>2026-05-02T18:38:33Z</time></trkpt><trkpt lat="35.98930081367242" lon="-107.03982828294401"><ele>2099.0</ele><time>2026-05-02T18:38:34Z</time></trkpt><trkpt lat="35.98908966532075" lon="-107.0398100424467"><ele>2098.0</ele><time>2026-05-02T18:38:35Z</time></trkpt><trkpt lat="35.98886493469406" lon="-107.03979688291979"><ele>2097.0</ele><time>2026-05-02T18:38:36Z</time></trkpt><trkpt lat="35.98862542774019" lon="-107.03977167311625"><ele>2097.0</ele><time>2026-05-02T18:38:37Z</time></trkpt><trkpt lat="35.98837755575457" lon="-107.03973550160622"><ele>2097.0</ele><time>2026-05-02T18:38:38Z</time></trkpt><trkpt lat="35.98813928378579" lon="-107.0396912337481"><ele>2097.0</ele><time>2026-05-02T18:38:39Z</time></trkpt><trkpt lat="35.987947599730056" lon="-107.03965961902084"><ele>2097.0</ele><time>2026-05-02T18:38:40Z</time></trkpt><trkpt lat="35.98779353233815" lon="-107.03961522259327"><ele>2097.0</ele><time>2026-05-02T18:38:41Z</time></trkpt><trkpt lat="35.98764958675004" lon="-107.03955438661083"><ele>2097.0</ele><time>2026-05-02T18:38:42Z</time></trkpt><trkpt lat="35.98750617306493" lon="-107.03947706706668"><ele>2097.0</ele><time>2026-05-02T18:38:43Z</time></trkpt><trkpt lat="35.98737488093161" lon="-107.03933265067225"><ele>2097.0</ele><time>2026-05-02T18:38:44Z</time></trkpt><trkpt lat="35.987209818004395" lon="-107.03923228021138"><ele>2097.0</ele><time>2026-05-02T18:38:45Z</time></trkpt><trkpt lat="35.98708893899609" lon="-107.03916472350751"><ele>2097.0</ele><time>2026-05-02T18:38:46Z</time></trkpt><trkpt lat="35.98694850332552" lon="-107.03908430339276"><ele>2097.0</ele><time>2026-05-02T18:38:47Z</time></trkpt><trkpt lat="35.98678939544938" lon="-107.03893907974914"><ele>2096.6666666666665</ele><time>2026-05-02T18:38:48Z</time></trkpt><trkpt lat="35.986630304209015" lon="-107.0388274643214"><ele>2096.333333333333</ele><time>2026-05-02T18:38:49Z</time></trkpt><trkpt lat="35.98645926083091" lon="-107.03879517924955"><ele>2096.0</ele><time>2026-05-02T18:38:50Z</time></trkpt><trkpt lat="35.98626371177546" lon="-107.03873466794816"><ele>2096.0</ele><time>2026-05-02T18:38:51Z</time></trkpt><trkpt lat="35.986083736102316" lon="-107.03863790936849"><ele>2096.0</ele><time>2026-05-02T18:38:52Z</time></trkpt><trkpt lat="35.98591837614593" lon="-107.03851334362989"><ele>2096.0</ele><time>2026-05-02T18:38:53Z</time></trkpt><trkpt lat="35.98578166537886" lon="-107.03837871106293"><ele>2096.333333333333</ele><time>2026-05-02T18:38:54Z</time></trkpt><trkpt lat="35.98565370107474" lon="-107.03826833923421"><ele>2096.6666666666665</ele><time>2026-05-02T18:38:55Z</time></trkpt><trkpt lat="35.98551816337235" lon="-107.03817194473999"><ele>2097.0</ele><time>2026-05-02T18:38:56Z</time></trkpt><trkpt lat="35.98536519919641" lon="-107.03808724616488"><ele>2097.0</ele><time>2026-05-02T18:38:57Z</time></trkpt><trkpt lat="35.985220898064014" lon="-107.03802323184489"><ele>2097.0</ele><time>2026-05-02T18:38:58Z</time></trkpt><trkpt lat="35.98508113567963" lon="-107.03792071145953"><ele>2097.0</ele><time>2026-05-02T18:38:59Z</time></trkpt><trkpt lat="35.9849886601732" lon="-107.03783561801768"><ele>2097.0</ele><time>2026-05-02T18:39:00Z</time></trkpt><trkpt lat="35.98493887143046" lon="-107.03773833602942"><ele>2097.0</ele><time>2026-05-02T18:39:02Z</time></trkpt><trkpt lat="35.98491340489387" lon="-107.0376444170981"><ele>2097.0</ele><time>2026-05-02T18:39:03Z</time></trkpt><trkpt lat="35.984884184451126" lon="-107.03748893704045"><ele>2097.0</ele><time>2026-05-02T18:39:04Z</time></trkpt><trkpt lat="35.98485623128938" lon="-107.03735969786122"><ele>2097.0</ele><time>2026-05-02T18:39:05Z</time></trkpt><trkpt lat="35.98484001169636" lon="-107.03721376214276"><ele>2097.0</ele><time>2026-05-02T18:39:06Z</time></trkpt><trkpt lat="35.98489122939047" lon="-107.03702888300747"><ele>2097.0</ele><time>2026-05-02T18:39:07Z</time></trkpt><trkpt lat="35.984977532708704" lon="-107.03687806600226"><ele>2097.0</ele><time>2026-05-02T18:39:08Z</time></trkpt><trkpt lat="35.98511074279618" lon="-107.03675762192972"><ele>2097.0</ele><time>2026-05-02T18:39:09Z</time></trkpt><trkpt lat="35.98526859661172" lon="-107.03663042402876"><ele>2100.3333333333335</ele><time>2026-05-02T18:39:10Z</time></trkpt><trkpt lat="35.98540445375993" lon="-107.03648651881964"><ele>2103.666666666667</ele><time>2026-05-02T18:39:11Z</time></trkpt><trkpt lat="35.985510371288065" lon="-107.03633735486389"><ele>2107.0</ele><time>2026-05-02T18:39:12Z</time></trkpt><trkpt lat="35.98560525820863" lon="-107.03618663634612"><ele>2107.0</ele><time>2026-05-02T18:39:13Z</time></trkpt><trkpt lat="35.98568005610602" lon="-107.03606535065367"><ele>2107.0</ele><time>2026-05-02T18:39:14Z</time></trkpt><trkpt lat="35.98572084649178" lon="-107.03597526183441"><ele>2107.0</ele><time>2026-05-02T18:39:15Z</time></trkpt><trkpt lat="35.98573653974015" lon="-107.03583072078456"><ele>2107.0</ele><time>2026-05-02T18:39:17Z</time></trkpt><trkpt lat="35.98573372461512" lon="-107.03572758223515"><ele>2107.0</ele><time>2026-05-02T18:39:18Z</time></trkpt><trkpt lat="35.98572434268869" lon="-107.03557291658292"><ele>2106.2</ele><time>2026-05-02T18:39:19Z</time></trkpt><trkpt lat="35.985713509502396" lon="-107.03540243908027"><ele>2105.3999999999996</ele><time>2026-05-02T18:39:20Z</time></trkpt><trkpt lat="35.98572831842566" lon="-107.03527815690306"><ele>2104.6000000000004</ele><time>2026-05-02T18:39:21Z</time></trkpt><trkpt lat="35.98579092052164" lon="-107.03524561346819"><ele>2103.8</ele><time>2026-05-02T18:39:22Z</time></trkpt><trkpt lat="35.98587625830821" lon="-107.0352335168027"><ele>2103.0</ele><time>2026-05-02T18:39:23Z</time></trkpt><trkpt lat="35.985968218605244" lon="-107.03519585151578"><ele>2105.25</ele><time>2026-05-02T18:39:24Z</time></trkpt><trkpt lat="35.98601233571102" lon="-107.03508543849033"><ele>2107.5</ele><time>2026-05-02T18:39:25Z</time></trkpt><trkpt lat="35.9860305678759" lon="-107.03497041112641"><ele>2109.75</ele><time>2026-05-02T18:39:26Z</time></trkpt><trkpt lat="35.98597963630552" lon="-107.03479537647718"><ele>2112.0</ele><time>2026-05-02T18:39:28Z</time></trkpt><trkpt lat="35.98592964754627" lon="-107.03466415374362"><ele>2112.7999999999997</ele><time>2026-05-02T18:39:29Z</time></trkpt><trkpt lat="35.985885716084425" lon="-107.03454995070841"><ele>2113.6</ele><time>2026-05-02T18:39:30Z</time></trkpt><trkpt lat="35.9858298055116" lon="-107.03446175571639"><ele>2114.3999999999996</ele><time>2026-05-02T18:39:31Z</time></trkpt><trkpt lat="35.985791012880014" lon="-107.03438849505832"><ele>2115.2</ele><time>2026-05-02T18:39:32Z</time></trkpt><trkpt lat="35.98582216501543" lon="-107.0342340617749"><ele>2116.0</ele><time>2026-05-02T18:39:34Z</time></trkpt><trkpt lat="35.985797032211174" lon="-107.03416037530272"><ele>2114.0</ele><time>2026-05-02T18:39:35Z</time></trkpt><trkpt lat="35.98572151920326" lon="-107.03405825652122"><ele>2112.0</ele><time>2026-05-02T18:39:36Z</time></trkpt><trkpt lat="35.985705503903354" lon="-107.03394755284192"><ele>2110.0</ele><time>2026-05-02T18:39:37Z</time></trkpt><trkpt lat="35.985718538707296" lon="-107.03381141678369"><ele>2108.0</ele><time>2026-05-02T18:39:38Z</time></trkpt><trkpt lat="35.98570814874744" lon="-107.03371582150506"><ele>2106.0</ele><time>2026-05-02T18:39:39Z</time></trkpt><trkpt lat="35.985681707057644" lon="-107.03360644342612"><ele>2106.0</ele><time>2026-05-02T18:39:40Z</time></trkpt><trkpt lat="35.98564106961498" lon="-107.0334868013491"><ele>2106.0</ele><time>2026-05-02T18:39:41Z</time></trkpt><trkpt lat="35.98557953228082" lon="-107.03339597551035"><ele>2106.0</ele><time>2026-05-02T18:39:42Z</time></trkpt><trkpt lat="35.98550043152788" lon="-107.0333573426628"><ele>2106.0</ele><time>2026-05-02T18:39:43Z</time></trkpt><trkpt lat="35.985386938689714" lon="-107.03334767982047"><ele>2106.0</ele><time>2026-05-02T18:39:44Z</time></trkpt><trkpt lat="35.98527034679954" lon="-107.0333277301436"><ele>2106.0</ele><time>2026-05-02T18:39:45Z</time></trkpt><trkpt lat="35.98516070444405" lon="-107.03332887660505"><ele>2106.0</ele><time>2026-05-02T18:39:46Z</time></trkpt><trkpt lat="35.985052794775704" lon="-107.03334126408959"><ele>2106.0</ele><time>2026-05-02T18:39:47Z</time></trkpt><trkpt lat="35.98495598427706" lon="-107.03332050846207"><ele>2106.0</ele><time>2026-05-02T18:39:48Z</time></trkpt><trkpt lat="35.9849024841569" lon="-107.03325704574459"><ele>2106.0</ele><time>2026-05-02T18:39:49Z</time></trkpt><trkpt lat="35.98486647375789" lon="-107.03315041853233"><ele>2106.5</ele><time>2026-05-02T18:39:50Z</time></trkpt><trkpt lat="35.98481832007985" lon="-107.03301024002378"><ele>2107.0</ele><time>2026-05-02T18:39:51Z</time></trkpt><trkpt lat="35.98473025338518" lon="-107.03287152555869"><ele>2107.5</ele><time>2026-05-02T18:39:52Z</time></trkpt><trkpt lat="35.98463601572006" lon="-107.03271616496984"><ele>2108.0</ele><time>2026-05-02T18:39:53Z</time></trkpt><trkpt lat="35.98457188044549" lon="-107.03252708223009"><ele>2110.0</ele><time>2026-05-02T18:39:54Z</time></trkpt><trkpt lat="35.9844921375586" lon="-107.032330254788"><ele>2112.0</ele><time>2026-05-02T18:39:55Z</time></trkpt><trkpt lat="35.98439412119575" lon="-107.03219212854384"><ele>2114.0</ele><time>2026-05-02T18:39:56Z</time></trkpt><trkpt lat="35.98429357457113" lon="-107.03210962541529"><ele>2116.0</ele><time>2026-05-02T18:39:57Z</time></trkpt><trkpt lat="35.984223049281304" lon="-107.03202943952299"><ele>2116.0</ele><time>2026-05-02T18:39:58Z</time></trkpt><trkpt lat="35.984204690622356" lon="-107.03193631908094"><ele>2116.0</ele><time>2026-05-02T18:39:59Z</time></trkpt><trkpt lat="35.98423306740867" lon="-107.0318153663674"><ele>2116.0</ele><time>2026-05-02T18:40:00Z</time></trkpt><trkpt lat="35.98420707804624" lon="-107.03164726889747"><ele>2116.0</ele><time>2026-05-02T18:40:01Z</time></trkpt><trkpt lat="35.98417871207093" lon="-107.03151621108704"><ele>2116.0</ele><time>2026-05-02T18:40:02Z</time></trkpt><trkpt lat="35.98420077784974" lon="-107.03142162276464"><ele>2115.0</ele><time>2026-05-02T18:40:03Z</time></trkpt><trkpt lat="35.984251957010194" lon="-107.0312888557938"><ele>2114.0</ele><time>2026-05-02T18:40:04Z</time></trkpt><trkpt lat="35.984304264421205" lon="-107.03110985926878"><ele>2113.0</ele><time>2026-05-02T18:40:05Z</time></trkpt><trkpt lat="35.984309114158" lon="-107.03098724909346"><ele>2112.0</ele><time>2026-05-02T18:40:06Z</time></trkpt><trkpt lat="35.98419183100946" lon="-107.0309680466101"><ele>2110.0</ele><time>2026-05-02T18:40:08Z</time></trkpt><trkpt lat="35.984098729789395" lon="-107.03098850276734"><ele>2108.0</ele><time>2026-05-02T18:40:09Z</time></trkpt><trkpt lat="35.98398129595287" lon="-107.0310680963796"><ele>2106.0</ele><time>2026-05-02T18:40:10Z</time></trkpt><trkpt lat="35.98383929964097" lon="-107.03112240334336"><ele>2104.0</ele><time>2026-05-02T18:40:11Z</time></trkpt><trkpt lat="35.98370085379121" lon="-107.0311468858008"><ele>2104.0</ele><time>2026-05-02T18:40:12Z</time></trkpt><trkpt lat="35.98360884711352" lon="-107.03113427060488"><ele>2104.0</ele><time>2026-05-02T18:40:13Z</time></trkpt><trkpt lat="35.98354318642105" lon="-107.03099722149581"><ele>2104.0</ele><time>2026-05-02T18:40:15Z</time></trkpt><trkpt lat="35.983565954598944" lon="-107.03084919569616"><ele>2104.0</ele><time>2026-05-02T18:40:17Z</time></trkpt><trkpt lat="35.98366966733845" lon="-107.03077249266639"><ele>2103.5</ele><time>2026-05-02T18:40:19Z</time></trkpt><trkpt lat="35.9837195922869" lon="-107.03068206673453"><ele>2103.0</ele><time>2026-05-02T18:40:20Z</time></trkpt><trkpt lat="35.98382028969339" lon="-107.03055652378947"><ele>2102.5</ele><time>2026-05-02T18:40:21Z</time></trkpt><trkpt lat="35.98391001720413" lon="-107.03043877674837"><ele>2102.0</ele><time>2026-05-02T18:40:22Z</time></trkpt><trkpt lat="35.9840045193366" lon="-107.03028462947613"><ele>2102.0</ele><time>2026-05-02T18:40:23Z</time></trkpt><trkpt lat="35.98407762539362" lon="-107.03016909404177"><ele>2102.0</ele><time>2026-05-02T18:40:24Z</time></trkpt><trkpt lat="35.98413914420388" lon="-107.03010382444108"><ele>2102.0</ele><time>2026-05-02T18:40:25Z</time></trkpt><trkpt lat="35.9842118000712" lon="-107.03004437052071"><ele>2102.0</ele><time>2026-05-02T18:40:26Z</time></trkpt><trkpt lat="35.98437765719108" lon="-107.03000465631138"><ele>2102.6</ele><time>2026-05-02T18:40:28Z</time></trkpt><trkpt lat="35.98446307679936" lon="-107.03008942822086"><ele>2103.2</ele><time>2026-05-02T18:40:29Z</time></trkpt><trkpt lat="35.98458259833884" lon="-107.03012213890166"><ele>2103.8</ele><time>2026-05-02T18:40:30Z</time></trkpt><trkpt lat="35.98465085263721" lon="-107.03010091682057"><ele>2104.4</ele><time>2026-05-02T18:40:31Z</time></trkpt><trkpt lat="35.98471545607829" lon="-107.03005366067949"><ele>2105.0</ele><time>2026-05-02T18:40:32Z</time></trkpt><trkpt lat="35.98480079274813" lon="-107.02998591191331"><ele>2104.5</ele><time>2026-05-02T18:40:33Z</time></trkpt><trkpt lat="35.984890820974876" lon="-107.02985490782514"><ele>2104.0</ele><time>2026-05-02T18:40:34Z</time></trkpt><trkpt lat="35.98498638578927" lon="-107.02978358828229"><ele>2103.5</ele><time>2026-05-02T18:40:35Z</time></trkpt><trkpt lat="35.98509634834705" lon="-107.02970627023164"><ele>2103.0</ele><time>2026-05-02T18:40:36Z</time></trkpt><trkpt lat="35.98515651368056" lon="-107.02956992295852"><ele>2103.2000000000003</ele><time>2026-05-02T18:40:37Z</time></trkpt><trkpt lat="35.985201044519926" lon="-107.02946901172803"><ele>2103.4</ele><time>2026-05-02T18:40:38Z</time></trkpt><trkpt lat="35.985229660965736" lon="-107.02938056961106"><ele>2103.6000000000004</ele><time>2026-05-02T18:40:39Z</time></trkpt><trkpt lat="35.98521640519288" lon="-107.02924058151865"><ele>2103.8</ele><time>2026-05-02T18:40:40Z</time></trkpt><trkpt lat="35.98518252533457" lon="-107.02904584302294"><ele>2104.0</ele><time>2026-05-02T18:40:41Z</time></trkpt><trkpt lat="35.985156411038645" lon="-107.02889467110035"><ele>2104.0</ele><time>2026-05-02T18:40:42Z</time></trkpt><trkpt lat="35.98514408744692" lon="-107.02877972508412"><ele>2104.0</ele><time>2026-05-02T18:40:43Z</time></trkpt><trkpt lat="35.98515513074625" lon="-107.02861979372392"><ele>2104.0</ele><time>2026-05-02T18:40:44Z</time></trkpt><trkpt lat="35.98520047125688" lon="-107.02851354703547"><ele>2104.0</ele><time>2026-05-02T18:40:45Z</time></trkpt><trkpt lat="35.98520556434367" lon="-107.02839518913888"><ele>2104.0</ele><time>2026-05-02T18:40:46Z</time></trkpt><trkpt lat="35.9851556844341" lon="-107.02823890795662"><ele>2104.0</ele><time>2026-05-02T18:40:47Z</time></trkpt><trkpt lat="35.98510342023746" lon="-107.02807050496176"><ele>2104.0</ele><time>2026-05-02T18:40:48Z</time></trkpt><trkpt lat="35.98508540081108" lon="-107.02788277806557"><ele>2104.0</ele><time>2026-05-02T18:40:49Z</time></trkpt><trkpt lat="35.98506861808154" lon="-107.02772127013755"><ele>2104.0</ele><time>2026-05-02T18:40:50Z</time></trkpt><trkpt lat="35.98507248389777" lon="-107.02758869960523"><ele>2104.0</ele><time>2026-05-02T18:40:51Z</time></trkpt><trkpt lat="35.98511116604615" lon="-107.02752710096424"><ele>2104.0</ele><time>2026-05-02T18:40:52Z</time></trkpt><trkpt lat="35.98515387916711" lon="-107.027403247829"><ele>2104.0</ele><time>2026-05-02T18:40:53Z</time></trkpt><trkpt lat="35.98517509495105" lon="-107.02723778589107"><ele>2104.0</ele><time>2026-05-02T18:40:54Z</time></trkpt><trkpt lat="35.985179599884944" lon="-107.0270658391471"><ele>2104.0</ele><time>2026-05-02T18:40:55Z</time></trkpt><trkpt lat="35.985189408962846" lon="-107.02692380071427"><ele>2104.5</ele><time>2026-05-02T18:40:56Z</time></trkpt><trkpt lat="35.98520642586832" lon="-107.0267883630139"><ele>2105.0</ele><time>2026-05-02T18:40:57Z</time></trkpt><trkpt lat="35.98522122514791" lon="-107.02666473147376"><ele>2105.5</ele><time>2026-05-02T18:40:58Z</time></trkpt><trkpt lat="35.98522164471663" lon="-107.02647921688103"><ele>2106.0</ele><time>2026-05-02T18:40:59Z</time></trkpt><trkpt lat="35.98523474513093" lon="-107.02632782348584"><ele>2107.2</ele><time>2026-05-02T18:41:00Z</time></trkpt><trkpt lat="35.98525954015373" lon="-107.02622898700129"><ele>2108.3999999999996</ele><time>2026-05-02T18:41:01Z</time></trkpt><trkpt lat="35.985273045247496" lon="-107.02610372447589"><ele>2109.6</ele><time>2026-05-02T18:41:03Z</time></trkpt><trkpt lat="35.98520302371908" lon="-107.02603351956354"><ele>2110.7999999999997</ele><time>2026-05-02T18:41:04Z</time></trkpt><trkpt lat="35.98514099001564" lon="-107.02591783896902"><ele>2112.0</ele><time>2026-05-02T18:41:05Z</time></trkpt><trkpt lat="35.98513424180735" lon="-107.02581308554099"><ele>2112.0</ele><time>2026-05-02T18:41:06Z</time></trkpt><trkpt lat="35.98515782218358" lon="-107.02572393248589"><ele>2112.0</ele><time>2026-05-02T18:41:07Z</time></trkpt><trkpt lat="35.985210109339086" lon="-107.02563355022542"><ele>2112.0</ele><time>2026-05-02T18:41:08Z</time></trkpt><trkpt lat="35.985289353044315" lon="-107.0255411421765"><ele>2112.0</ele><time>2026-05-02T18:41:09Z</time></trkpt><trkpt lat="35.985406714924025" lon="-107.02547003760495"><ele>2112.0</ele><time>2026-05-02T18:41:10Z</time></trkpt><trkpt lat="35.98552465338078" lon="-107.02540636274334"><ele>2112.0</ele><time>2026-05-02T18:41:11Z</time></trkpt><trkpt lat="35.98563016039111" lon="-107.02530875639206"><ele>2112.0</ele><time>2026-05-02T18:41:12Z</time></trkpt><trkpt lat="35.985708399551186" lon="-107.02519901488822"><ele>2112.0</ele><time>2026-05-02T18:41:13Z</time></trkpt><trkpt lat="35.9857646041672" lon="-107.02507824539403"><ele>2112.0</ele><time>2026-05-02T18:41:14Z</time></trkpt><trkpt lat="35.98582474038662" lon="-107.02501211705098"><ele>2112.0</ele><time>2026-05-02T18:41:15Z</time></trkpt><trkpt lat="35.98593532771068" lon="-107.02499965783178"><ele>2112.5</ele><time>2026-05-02T18:41:17Z</time></trkpt><trkpt lat="35.986020885651456" lon="-107.02494396188916"><ele>2113.0</ele><time>2026-05-02T18:41:18Z</time></trkpt><trkpt lat="35.98609390560562" lon="-107.02483952527233"><ele>2113.5</ele><time>2026-05-02T18:41:19Z</time></trkpt><trkpt lat="35.98614026261207" lon="-107.0246882464023"><ele>2114.0</ele><time>2026-05-02T18:41:20Z</time></trkpt><trkpt lat="35.98617321051339" lon="-107.02452056901721"><ele>2114.0</ele><time>2026-05-02T18:41:21Z</time></trkpt><trkpt lat="35.98622617203943" lon="-107.0243781124714"><ele>2114.0</ele><time>2026-05-02T18:41:22Z</time></trkpt><trkpt lat="35.986268208995604" lon="-107.02429805163725"><ele>2114.0</ele><time>2026-05-02T18:41:23Z</time></trkpt><trkpt lat="35.98635037580889" lon="-107.02421990481808"><ele>2114.0</ele><time>2026-05-02T18:41:25Z</time></trkpt><trkpt lat="35.98643085912843" lon="-107.02419627894135"><ele>2114.0</ele><time>2026-05-02T18:41:26Z</time></trkpt><trkpt lat="35.98649992808916" lon="-107.02420226642984"><ele>2114.0</ele><time>2026-05-02T18:41:27Z</time></trkpt><trkpt lat="35.98656087879848" lon="-107.02424361827133"><ele>2114.0</ele><time>2026-05-02T18:41:28Z</time></trkpt><trkpt lat="35.98662506729077" lon="-107.02425153163873"><ele>2114.0</ele><time>2026-05-02T18:41:30Z</time></trkpt><trkpt lat="35.986676097387196" lon="-107.02420596367747"><ele>2114.0</ele><time>2026-05-02T18:41:31Z</time></trkpt><trkpt lat="35.98666423889372" lon="-107.0240248346061"><ele>2114.0</ele><time>2026-05-02T18:41:33Z</time></trkpt><trkpt lat="35.98664185790503" lon="-107.02390711448915"><ele>2114.0</ele><time>2026-05-02T18:41:34Z</time></trkpt><trkpt lat="35.98664906328364" lon="-107.02379203626924"><ele>2114.333333333333</ele><time>2026-05-02T18:41:35Z</time></trkpt><trkpt lat="35.98665956043979" lon="-107.02370237592405"><ele>2114.6666666666665</ele><time>2026-05-02T18:41:36Z</time></trkpt><trkpt lat="35.98659381916921" lon="-107.02359124888403"><ele>2115.0</ele><time>2026-05-02T18:41:38Z</time></trkpt><trkpt lat="35.98655682074528" lon="-107.02350524204172"><ele>2115.3333333333335</ele><time>2026-05-02T18:41:39Z</time></trkpt><trkpt lat="35.98660471683586" lon="-107.02342354975454"><ele>2115.666666666667</ele><time>2026-05-02T18:41:40Z</time></trkpt><trkpt lat="35.98666288486357" lon="-107.0233262042054"><ele>2116.0</ele><time>2026-05-02T18:41:41Z</time></trkpt><trkpt lat="35.986693981852966" lon="-107.02324848698564"><ele>2116.3333333333335</ele><time>2026-05-02T18:41:42Z</time></trkpt><trkpt lat="35.98667833150892" lon="-107.02316919366726"><ele>2116.666666666667</ele><time>2026-05-02T18:41:43Z</time></trkpt><trkpt lat="35.98662156668378" lon="-107.02308252853666"><ele>2117.0</ele><time>2026-05-02T18:41:44Z</time></trkpt><trkpt lat="35.98655667627576" lon="-107.02300640330397"><ele>2117.3333333333335</ele><time>2026-05-02T18:41:45Z</time></trkpt><trkpt lat="35.986571602162236" lon="-107.02289182930191"><ele>2117.6666666666665</ele><time>2026-05-02T18:41:47Z</time></trkpt><trkpt lat="35.98661278183955" lon="-107.02277148431111"><ele>2118.0</ele><time>2026-05-02T18:41:48Z</time></trkpt><trkpt lat="35.98661173258362" lon="-107.02266974184042"><ele>2118.0</ele><time>2026-05-02T18:41:49Z</time></trkpt><trkpt lat="35.98659791377894" lon="-107.02259116262714"><ele>2118.0</ele><time>2026-05-02T18:41:50Z</time></trkpt><trkpt lat="35.98653861641599" lon="-107.02255925613308"><ele>2118.0</ele><time>2026-05-02T18:41:52Z</time></trkpt><trkpt lat="35.98654479669278" lon="-107.02247487463606"><ele>2118.0</ele><time>2026-05-02T18:41:54Z</time></trkpt><trkpt lat="35.986527576978375" lon="-107.02227922343857"><ele>2118.0</ele><time>2026-05-02T18:41:56Z</time></trkpt><trkpt lat="35.98648671572088" lon="-107.02219767103747"><ele>2118.0</ele><time>2026-05-02T18:41:57Z</time></trkpt><trkpt lat="35.98647013071688" lon="-107.02211793595615"><ele>2118.5</ele><time>2026-05-02T18:41:58Z</time></trkpt><trkpt lat="35.98648117218953" lon="-107.02200268452678"><ele>2119.0</ele><time>2026-05-02T18:42:02Z</time></trkpt><trkpt lat="35.98643934814717" lon="-107.02188648681702"><ele>2119.5</ele><time>2026-05-02T18:42:03Z</time></trkpt><trkpt lat="35.986394529931374" lon="-107.02181263595043"><ele>2120.0</ele><time>2026-05-02T18:42:04Z</time></trkpt><trkpt lat="35.98634539283043" lon="-107.02172910161208"><ele>2120.5</ele><time>2026-05-02T18:42:05Z</time></trkpt><trkpt lat="35.986314248146655" lon="-107.02165823789748"><ele>2121.0</ele><time>2026-05-02T18:42:06Z</time></trkpt><trkpt lat="35.986233973528556" lon="-107.02157374276649"><ele>2121.4</ele><time>2026-05-02T18:42:08Z</time></trkpt><trkpt lat="35.98621360733529" lon="-107.02145344179175"><ele>2121.8</ele><time>2026-05-02T18:42:10Z</time></trkpt><trkpt lat="35.986210576364385" lon="-107.02133894225706"><ele>2122.2000000000003</ele><time>2026-05-02T18:42:12Z</time></trkpt><trkpt lat="35.98611803099382" lon="-107.02123401801312"><ele>2122.6</ele><time>2026-05-02T18:42:14Z</time></trkpt><trkpt lat="35.98606144743044" lon="-107.02119742723379"><ele>2123.0</ele><time>2026-05-02T18:42:15Z</time></trkpt><trkpt lat="35.985891036644574" lon="-107.0213317860489"><ele>2122.833333333333</ele><time>2026-05-02T18:42:16Z</time></trkpt><trkpt lat="35.985806015108956" lon="-107.0213486373011"><ele>2122.6666666666665</ele><time>2026-05-02T18:42:17Z</time></trkpt><trkpt lat="35.98573561874166" lon="-107.02145403521183"><ele>2122.5</ele><time>2026-05-02T18:42:19Z</time></trkpt><trkpt lat="35.98568308770503" lon="-107.02149754490365"><ele>2122.3333333333335</ele><time>2026-05-02T18:42:20Z</time></trkpt><trkpt lat="35.98562933102292" lon="-107.02154747965214"><ele>2122.166666666667</ele><time>2026-05-02T18:42:21Z</time></trkpt><trkpt lat="35.98562237908383" lon="-107.02163321768961"><ele>2122.0</ele><time>2026-05-02T18:42:22Z</time></trkpt><trkpt lat="35.98566783236833" lon="-107.02175502007242"><ele>2122.0</ele><time>2026-05-02T18:42:23Z</time></trkpt><trkpt lat="35.98573503247769" lon="-107.02186294743065"><ele>2122.0</ele><time>2026-05-02T18:42:24Z</time></trkpt><trkpt lat="35.9858344119849" lon="-107.02192392076138"><ele>2122.0</ele><time>2026-05-02T18:42:25Z</time></trkpt><trkpt lat="35.985969505714046" lon="-107.02191653387425"><ele>2122.0</ele><time>2026-05-02T18:42:26Z</time></trkpt><trkpt lat="35.98608469687895" lon="-107.02192565217901"><ele>2121.7999999999997</ele><time>2026-05-02T18:42:27Z</time></trkpt><trkpt lat="35.986139479284496" lon="-107.0219935106167"><ele>2121.6</ele><time>2026-05-02T18:42:28Z</time></trkpt><trkpt lat="35.986188642340174" lon="-107.02206191946202"><ele>2121.3999999999996</ele><time>2026-05-02T18:42:29Z</time></trkpt><trkpt lat="35.98619407846965" lon="-107.02220672318103"><ele>2121.2</ele><time>2026-05-02T18:42:30Z</time></trkpt><trkpt lat="35.98617695429068" lon="-107.02239211978804"><ele>2121.0</ele><time>2026-05-02T18:42:31Z</time></trkpt><trkpt lat="35.98611529068476" lon="-107.02260874704105"><ele>2120.0</ele><time>2026-05-02T18:42:32Z</time></trkpt><trkpt lat="35.98608017773508" lon="-107.02280652182883"><ele>2119.0</ele><time>2026-05-02T18:42:33Z</time></trkpt><trkpt lat="35.98606238067678" lon="-107.02302694963522"><ele>2118.0</ele><time>2026-05-02T18:42:34Z</time></trkpt><trkpt lat="35.986038457168185" lon="-107.02322586746361"><ele>2117.3333333333335</ele><time>2026-05-02T18:42:35Z</time></trkpt><trkpt lat="35.98599942471603" lon="-107.02342558021913"><ele>2116.666666666667</ele><time>2026-05-02T18:42:36Z</time></trkpt><trkpt lat="35.985980580870404" lon="-107.02363458024752"><ele>2116.0</ele><time>2026-05-02T18:42:37Z</time></trkpt><trkpt lat="35.98591219376399" lon="-107.02382744936261"><ele>2115.5</ele><time>2026-05-02T18:42:38Z</time></trkpt><trkpt lat="35.985825850262984" lon="-107.02400684955789"><ele>2115.0</ele><time>2026-05-02T18:42:39Z</time></trkpt><trkpt lat="35.985758906468924" lon="-107.02416708337992"><ele>2114.5</ele><time>2026-05-02T18:42:40Z</time></trkpt><trkpt lat="35.98571814022006" lon="-107.02429066431658"><ele>2114.0</ele><time>2026-05-02T18:42:41Z</time></trkpt><trkpt lat="35.985605899858385" lon="-107.02434435266458"><ele>2114.0</ele><time>2026-05-02T18:42:43Z</time></trkpt><trkpt lat="35.98553994750999" lon="-107.02434683736865"><ele>2114.0</ele><time>2026-05-02T18:42:44Z</time></trkpt><trkpt lat="35.985448205881134" lon="-107.02434801726073"><ele>2114.0</ele><time>2026-05-02T18:42:45Z</time></trkpt><trkpt lat="35.98536365483739" lon="-107.02439596422768"><ele>2114.0</ele><time>2026-05-02T18:42:46Z</time></trkpt><trkpt lat="35.98526697990185" lon="-107.02454958394324"><ele>2114.0</ele><time>2026-05-02T18:42:48Z</time></trkpt><trkpt lat="35.98517346638175" lon="-107.02465598552023"><ele>2114.0</ele><time>2026-05-02T18:42:49Z</time></trkpt><trkpt lat="35.9850801050334" lon="-107.02472900154234"><ele>2114.0</ele><time>2026-05-02T18:42:50Z</time></trkpt><trkpt lat="35.98505231579372" lon="-107.0248082008443"><ele>2114.0</ele><time>2026-05-02T18:42:51Z</time></trkpt><trkpt lat="35.98503695040301" lon="-107.0249487774994"><ele>2114.0</ele><time>2026-05-02T18:42:52Z</time></trkpt><trkpt lat="35.98502338004081" lon="-107.02508234356291"><ele>2114.0</ele><time>2026-05-02T18:42:53Z</time></trkpt><trkpt lat="35.984982611794635" lon="-107.02519221657396"><ele>2113.4</ele><time>2026-05-02T18:42:54Z</time></trkpt><trkpt lat="35.98488336614574" lon="-107.0253034856092"><ele>2112.8</ele><time>2026-05-02T18:42:55Z</time></trkpt><trkpt lat="35.98478764182658" lon="-107.02537993254084"><ele>2112.2</ele><time>2026-05-02T18:42:56Z</time></trkpt><trkpt lat="35.98470356819596" lon="-107.02540411142587"><ele>2111.6</ele><time>2026-05-02T18:42:57Z</time></trkpt><trkpt lat="35.98462998331976" lon="-107.02539772899569"><ele>2111.0</ele><time>2026-05-02T18:42:58Z</time></trkpt><trkpt lat="35.984547412580774" lon="-107.02537651834733"><ele>2111.0</ele><time>2026-05-02T18:42:59Z</time></trkpt><trkpt lat="35.98441586721457" lon="-107.02535236480861"><ele>2111.0</ele><time>2026-05-02T18:43:00Z</time></trkpt><trkpt lat="35.98429582487582" lon="-107.02533539976109"><ele>2111.0</ele><time>2026-05-02T18:43:01Z</time></trkpt><trkpt lat="35.98419622915243" lon="-107.02534252378913"><ele>2111.0</ele><time>2026-05-02T18:43:02Z</time></trkpt><trkpt lat="35.98410694558182" lon="-107.02536841231661"><ele>2111.0</ele><time>2026-05-02T18:43:03Z</time></trkpt><trkpt lat="35.98401131803951" lon="-107.02540670846976"><ele>2112.25</ele><time>2026-05-02T18:43:04Z</time></trkpt><trkpt lat="35.98392829698777" lon="-107.02543267086872"><ele>2113.5</ele><time>2026-05-02T18:43:05Z</time></trkpt><trkpt lat="35.98385429217976" lon="-107.02553590478924"><ele>2114.75</ele><time>2026-05-02T18:43:06Z</time></trkpt><trkpt lat="35.98373902027579" lon="-107.02565608189204"><ele>2116.0</ele><time>2026-05-02T18:43:07Z</time></trkpt><trkpt lat="35.98363213142778" lon="-107.02569206881414"><ele>2116.0</ele><time>2026-05-02T18:43:08Z</time></trkpt><trkpt lat="35.98350501771581" lon="-107.02571323728435"><ele>2116.0</ele><time>2026-05-02T18:43:09Z</time></trkpt><trkpt lat="35.983399339392854" lon="-107.02570833486625"><ele>2116.0</ele><time>2026-05-02T18:43:10Z</time></trkpt><trkpt lat="35.983328959950796" lon="-107.02567002895125"><ele>2116.0</ele><time>2026-05-02T18:43:11Z</time></trkpt><trkpt lat="35.98330588356171" lon="-107.0255475800108"><ele>2116.0</ele><time>2026-05-02T18:43:13Z</time></trkpt><trkpt lat="35.98335393998155" lon="-107.02539345110178"><ele>2116.0</ele><time>2026-05-02T18:43:15Z</time></trkpt><trkpt lat="35.98342262549972" lon="-107.02526953115316"><ele>2116.0</ele><time>2026-05-02T18:43:16Z</time></trkpt><trkpt lat="35.983460791944154" lon="-107.02513307720623"><ele>2116.0</ele><time>2026-05-02T18:43:17Z</time></trkpt><trkpt lat="35.98341983741811" lon="-107.02500288253633"><ele>2116.0</ele><time>2026-05-02T18:43:19Z</time></trkpt><trkpt lat="35.98332758976826" lon="-107.02499847370039"><ele>2116.0</ele><time>2026-05-02T18:43:20Z</time></trkpt><trkpt lat="35.98322565817953" lon="-107.02496922709679"><ele>2114.8</ele><time>2026-05-02T18:43:21Z</time></trkpt><trkpt lat="35.9830961106825" lon="-107.02506273430892"><ele>2113.6</ele><time>2026-05-02T18:43:44Z</time></trkpt><trkpt lat="35.98303325720879" lon="-107.02514604248172"><ele>2112.4</ele><time>2026-05-02T18:43:45Z</time></trkpt><trkpt lat="35.98295909751364" lon="-107.02523115715799"><ele>2111.2</ele><time>2026-05-02T18:43:46Z</time></trkpt><trkpt lat="35.98287774111226" lon="-107.02531047703839"><ele>2110.0</ele><time>2026-05-02T18:43:47Z</time></trkpt><trkpt lat="35.98281975141416" lon="-107.02539195052641"><ele>2110.0</ele><time>2026-05-02T18:43:48Z</time></trkpt><trkpt lat="35.98278349394772" lon="-107.02547031077442"><ele>2110.0</ele><time>2026-05-02T18:43:49Z</time></trkpt><trkpt lat="35.98275862502961" lon="-107.02554189457925"><ele>2110.0</ele><time>2026-05-02T18:43:50Z</time></trkpt><trkpt lat="35.982700873921615" lon="-107.02559245072288"><ele>2110.0</ele><time>2026-05-02T18:43:51Z</time></trkpt><trkpt lat="35.982616286825014" lon="-107.02562576657539"><ele>2110.0</ele><time>2026-05-02T18:43:52Z</time></trkpt><trkpt lat="35.98252031742039" lon="-107.02563072342845"><ele>2110.0</ele><time>2026-05-02T18:43:53Z</time></trkpt><trkpt lat="35.98241808660495" lon="-107.02559648640003"><ele>2109.8333333333335</ele><time>2026-05-02T18:43:54Z</time></trkpt><trkpt lat="35.98232046727396" lon="-107.02558455636806"><ele>2109.666666666667</ele><time>2026-05-02T18:43:55Z</time></trkpt><trkpt lat="35.98223322672195" lon="-107.02559640094074"><ele>2109.5</ele><time>2026-05-02T18:43:56Z</time></trkpt><trkpt lat="35.98216651968597" lon="-107.02559577563702"><ele>2109.3333333333335</ele><time>2026-05-02T18:43:57Z</time></trkpt><trkpt lat="35.982134484033615" lon="-107.02549823222573"><ele>2109.1666666666665</ele><time>2026-05-02T18:43:58Z</time></trkpt><trkpt lat="35.982115870674505" lon="-107.02537487252575"><ele>2109.0</ele><time>2026-05-02T18:43:59Z</time></trkpt><trkpt lat="35.98208666841784" lon="-107.02526308802629"><ele>2109.0</ele><time>2026-05-02T18:44:00Z</time></trkpt><trkpt lat="35.98203106818771" lon="-107.02519957558978"><ele>2109.0</ele><time>2026-05-02T18:44:01Z</time></trkpt><trkpt lat="35.981950782792" lon="-107.0252375137936"><ele>2109.0</ele><time>2026-05-02T18:44:02Z</time></trkpt><trkpt lat="35.98185850228636" lon="-107.0253339402733"><ele>2109.0</ele><time>2026-05-02T18:44:03Z</time></trkpt><trkpt lat="35.981757926773255" lon="-107.02544736044618"><ele>2109.0</ele><time>2026-05-02T18:44:04Z</time></trkpt><trkpt lat="35.98168225762904" lon="-107.02556413222096"><ele>2108.8</ele><time>2026-05-02T18:44:05Z</time></trkpt><trkpt lat="35.98160152418788" lon="-107.0256653560628"><ele>2108.6000000000004</ele><time>2026-05-02T18:44:06Z</time></trkpt><trkpt lat="35.98153385009691" lon="-107.02576056065664"><ele>2108.4</ele><time>2026-05-02T18:44:07Z</time></trkpt><trkpt lat="35.981455246133415" lon="-107.02586204845227"><ele>2108.2000000000003</ele><time>2026-05-02T18:44:08Z</time></trkpt><trkpt lat="35.981403241226005" lon="-107.02596842317139"><ele>2108.0</ele><time>2026-05-02T18:44:10Z</time></trkpt><trkpt lat="35.98137818704771" lon="-107.02606719252643"><ele>2107.4</ele><time>2026-05-02T18:44:11Z</time></trkpt><trkpt lat="35.981331094766176" lon="-107.02613575842767"><ele>2106.8</ele><time>2026-05-02T18:44:12Z</time></trkpt><trkpt lat="35.98120626102628" lon="-107.02621038898731"><ele>2106.2</ele><time>2026-05-02T18:44:14Z</time></trkpt><trkpt lat="35.981130527689224" lon="-107.02632048532341"><ele>2105.6</ele><time>2026-05-02T18:44:15Z</time></trkpt><trkpt lat="35.981065375845006" lon="-107.02640733635123"><ele>2105.0</ele><time>2026-05-02T18:44:16Z</time></trkpt><trkpt lat="35.981004198398956" lon="-107.02638476282823"><ele>2105.0</ele><time>2026-05-02T18:44:18Z</time></trkpt><trkpt lat="35.98096184379923" lon="-107.02628863726234"><ele>2105.0</ele><time>2026-05-02T18:44:19Z</time></trkpt><trkpt lat="35.98091354218001" lon="-107.02619372860804"><ele>2105.0</ele><time>2026-05-02T18:44:20Z</time></trkpt><trkpt lat="35.980881192784764" lon="-107.02608716575695"><ele>2105.0</ele><time>2026-05-02T18:44:21Z</time></trkpt><trkpt lat="35.980887541018575" lon="-107.02599460185924"><ele>2105.0</ele><time>2026-05-02T18:44:22Z</time></trkpt><trkpt lat="35.980970060871265" lon="-107.02589650965066"><ele>2105.75</ele><time>2026-05-02T18:44:23Z</time></trkpt><trkpt lat="35.98104557777998" lon="-107.02580748555481"><ele>2106.5</ele><time>2026-05-02T18:44:24Z</time></trkpt><trkpt lat="35.98107471052986" lon="-107.02571006647119"><ele>2107.25</ele><time>2026-05-02T18:44:25Z</time></trkpt><trkpt lat="35.98103150124401" lon="-107.02556005200387"><ele>2108.0</ele><time>2026-05-02T18:44:26Z</time></trkpt><trkpt lat="35.98094808422982" lon="-107.02535781390968"><ele>2108.0</ele><time>2026-05-02T18:44:27Z</time></trkpt><trkpt lat="35.98087990640173" lon="-107.0251808824582"><ele>2108.0</ele><time>2026-05-02T18:44:28Z</time></trkpt><trkpt lat="35.9808275219796" lon="-107.02498129689556"><ele>2108.0</ele><time>2026-05-02T18:44:29Z</time></trkpt><trkpt lat="35.980840324359164" lon="-107.02489440407645"><ele>2108.0</ele><time>2026-05-02T18:44:30Z</time></trkpt><trkpt lat="35.98089978329201" lon="-107.02476493234762"><ele>2108.2000000000003</ele><time>2026-05-02T18:44:31Z</time></trkpt><trkpt lat="35.980995932005" lon="-107.02461418196631"><ele>2108.4</ele><time>2026-05-02T18:44:32Z</time></trkpt><trkpt lat="35.98101846059883" lon="-107.0244992436115"><ele>2108.6000000000004</ele><time>2026-05-02T18:44:33Z</time></trkpt><trkpt lat="35.98102136073737" lon="-107.02440179833482"><ele>2108.8</ele><time>2026-05-02T18:44:34Z</time></trkpt><trkpt lat="35.98097805184929" lon="-107.02434441380706"><ele>2109.0</ele><time>2026-05-02T18:44:35Z</time></trkpt><trkpt lat="35.980901981535006" lon="-107.02428923021768"><ele>2107.75</ele><time>2026-05-02T18:44:36Z</time></trkpt><trkpt lat="35.980800555841924" lon="-107.02425150902131"><ele>2106.5</ele><time>2026-05-02T18:44:37Z</time></trkpt><trkpt lat="35.98066899192574" lon="-107.02415663034371"><ele>2105.25</ele><time>2026-05-02T18:44:38Z</time></trkpt><trkpt lat="35.980591834271316" lon="-107.02406971704359"><ele>2104.0</ele><time>2026-05-02T18:44:39Z</time></trkpt><trkpt lat="35.980644965592525" lon="-107.02393705847177"><ele>2104.0</ele><time>2026-05-02T18:44:41Z</time></trkpt><trkpt lat="35.98069393111156" lon="-107.02382194804144"><ele>2104.0</ele><time>2026-05-02T18:44:42Z</time></trkpt><trkpt lat="35.980723567954406" lon="-107.02371917208598"><ele>2104.0</ele><time>2026-05-02T18:44:43Z</time></trkpt><trkpt lat="35.98077446771988" lon="-107.02358999221607"><ele>2104.0</ele><time>2026-05-02T18:44:44Z</time></trkpt><trkpt lat="35.98084454300034" lon="-107.02346437284774"><ele>2104.0</ele><time>2026-05-02T18:44:45Z</time></trkpt><trkpt lat="35.98091100670675" lon="-107.0233694757339"><ele>2104.4</ele><time>2026-05-02T18:44:46Z</time></trkpt><trkpt lat="35.98098425556375" lon="-107.02334892660832"><ele>2104.8</ele><time>2026-05-02T18:44:47Z</time></trkpt><trkpt lat="35.981091179818094" lon="-107.02337606308657"><ele>2105.2</ele><time>2026-05-02T18:44:48Z</time></trkpt><trkpt lat="35.98123431406614" lon="-107.02336732012198"><ele>2105.6</ele><time>2026-05-02T18:44:49Z</time></trkpt><trkpt lat="35.98134151041234" lon="-107.02329716826779"><ele>2106.0</ele><time>2026-05-02T18:44:50Z</time></trkpt><trkpt lat="35.981419863218555" lon="-107.0232848650834"><ele>2106.5</ele><time>2026-05-02T18:44:51Z</time></trkpt><trkpt lat="35.98149042971306" lon="-107.02324524701838"><ele>2107.0</ele><time>2026-05-02T18:44:52Z</time></trkpt><trkpt lat="35.98154449402182" lon="-107.0231619175024"><ele>2107.5</ele><time>2026-05-02T18:44:53Z</time></trkpt><trkpt lat="35.981622751604185" lon="-107.02308704120823"><ele>2108.0</ele><time>2026-05-02T18:44:54Z</time></trkpt><trkpt lat="35.98170740836317" lon="-107.02302207986948"><ele>2108.5</ele><time>2026-05-02T18:44:55Z</time></trkpt><trkpt lat="35.98175990243147" lon="-107.02296955834025"><ele>2109.0</ele><time>2026-05-02T18:44:56Z</time></trkpt><trkpt lat="35.981822194251535" lon="-107.02291069732411"><ele>2109.0</ele><time>2026-05-02T18:44:57Z</time></trkpt><trkpt lat="35.98187706825027" lon="-107.02285384615145"><ele>2109.0</ele><time>2026-05-02T18:44:58Z</time></trkpt><trkpt lat="35.98182958306559" lon="-107.02278817627244"><ele>2109.0</ele><time>2026-05-02T18:44:59Z</time></trkpt><trkpt lat="35.98176042189223" lon="-107.02264626261348"><ele>2109.0</ele><time>2026-05-02T18:45:00Z</time></trkpt><trkpt lat="35.98172097725025" lon="-107.02251814866563"><ele>2109.0</ele><time>2026-05-02T18:45:01Z</time></trkpt><trkpt lat="35.981697213447774" lon="-107.02241538147327"><ele>2109.0</ele><time>2026-05-02T18:45:02Z</time></trkpt><trkpt lat="35.9816492449501" lon="-107.02234620849438"><ele>2109.0</ele><time>2026-05-02T18:45:04Z</time></trkpt><trkpt lat="35.98157736491319" lon="-107.02247993189309"><ele>2109.0</ele><time>2026-05-02T18:45:06Z</time></trkpt><trkpt lat="35.98152367246072" lon="-107.02256585168858"><ele>2109.0</ele><time>2026-05-02T18:45:07Z</time></trkpt><trkpt lat="35.98145094768957" lon="-107.02264954978213"><ele>2109.0</ele><time>2026-05-02T18:45:08Z</time></trkpt><trkpt lat="35.98135382754124" lon="-107.02273257766855"><ele>2109.0</ele><time>2026-05-02T18:45:09Z</time></trkpt><trkpt lat="35.98126450448769" lon="-107.02281269841191"><ele>2109.0</ele><time>2026-05-02T18:45:10Z</time></trkpt><trkpt lat="35.98113162846569" lon="-107.02289451471336"><ele>2109.0</ele><time>2026-05-02T18:45:11Z</time></trkpt><trkpt lat="35.9810323835076" lon="-107.02298150758222"><ele>2109.0</ele><time>2026-05-02T18:45:12Z</time></trkpt><trkpt lat="35.98093982632536" lon="-107.02305091215628"><ele>2109.0</ele><time>2026-05-02T18:45:13Z</time></trkpt><trkpt lat="35.980866409239155" lon="-107.02314219991284"><ele>2109.0</ele><time>2026-05-02T18:45:14Z</time></trkpt><trkpt lat="35.980757146300945" lon="-107.02323596865352"><ele>2109.0</ele><time>2026-05-02T18:45:15Z</time></trkpt><trkpt lat="35.98065652281362" lon="-107.0232862738228"><ele>2109.0</ele><time>2026-05-02T18:45:16Z</time></trkpt><trkpt lat="35.98055838013367" lon="-107.02328272336189"><ele>2109.0</ele><time>2026-05-02T18:45:17Z</time></trkpt><trkpt lat="35.980419999589344" lon="-107.02328327548751"><ele>2107.75</ele><time>2026-05-02T18:45:18Z</time></trkpt><trkpt lat="35.980312849005195" lon="-107.02332182447002"><ele>2106.5</ele><time>2026-05-02T18:45:19Z</time></trkpt><trkpt lat="35.98022092984695" lon="-107.02340533077135"><ele>2105.25</ele><time>2026-05-02T18:45:20Z</time></trkpt><trkpt lat="35.98012809969912" lon="-107.02351362895251"><ele>2104.0</ele><time>2026-05-02T18:45:21Z</time></trkpt><trkpt lat="35.98009002942703" lon="-107.0236360946076"><ele>2104.0</ele><time>2026-05-02T18:45:22Z</time></trkpt><trkpt lat="35.98010142744921" lon="-107.02374744510236"><ele>2104.0</ele><time>2026-05-02T18:45:23Z</time></trkpt><trkpt lat="35.98009816506362" lon="-107.02384058609569"><ele>2104.0</ele><time>2026-05-02T18:45:24Z</time></trkpt><trkpt lat="35.98007078090956" lon="-107.02395757372683"><ele>2104.0</ele><time>2026-05-02T18:45:25Z</time></trkpt><trkpt lat="35.980059178511624" lon="-107.02408536683635"><ele>2104.0</ele><time>2026-05-02T18:45:26Z</time></trkpt><trkpt lat="35.980063310455535" lon="-107.02421122866376"><ele>2104.0</ele><time>2026-05-02T18:45:27Z</time></trkpt><trkpt lat="35.980055732495764" lon="-107.02434622578832"><ele>2104.0</ele><time>2026-05-02T18:45:28Z</time></trkpt><trkpt lat="35.9800423810705" lon="-107.02446815215674"><ele>2104.0</ele><time>2026-05-02T18:45:29Z</time></trkpt><trkpt lat="35.98002833070433" lon="-107.02460119681808"><ele>2104.0</ele><time>2026-05-02T18:45:30Z</time></trkpt><trkpt lat="35.980035267668086" lon="-107.02469723527064"><ele>2104.0</ele><time>2026-05-02T18:45:31Z</time></trkpt><trkpt lat="35.98001275933182" lon="-107.02478962149065"><ele>2103.0</ele><time>2026-05-02T18:45:32Z</time></trkpt><trkpt lat="35.97994574690044" lon="-107.02485254921181"><ele>2102.0</ele><time>2026-05-02T18:45:33Z</time></trkpt><trkpt lat="35.97982816851291" lon="-107.02488976162478"><ele>2101.0</ele><time>2026-05-02T18:45:34Z</time></trkpt><trkpt lat="35.979754208119836" lon="-107.02494775459313"><ele>2100.0</ele><time>2026-05-02T18:45:35Z</time></trkpt><trkpt lat="35.97967595849627" lon="-107.02506193868864"><ele>2099.0</ele><time>2026-05-02T18:45:37Z</time></trkpt><trkpt lat="35.9795825802952" lon="-107.02504567171387"><ele>2099.0</ele><time>2026-05-02T18:45:39Z</time></trkpt><trkpt lat="35.979510245570204" lon="-107.02504970143745"><ele>2099.0</ele><time>2026-05-02T18:45:41Z</time></trkpt><trkpt lat="35.97952144646484" lon="-107.02516509744946"><ele>2099.0</ele><time>2026-05-02T18:45:43Z</time></trkpt><trkpt lat="35.9794656102667" lon="-107.02523882341312"><ele>2099.0</ele><time>2026-05-02T18:45:46Z</time></trkpt><trkpt lat="35.979421498827364" lon="-107.02530302074096"><ele>2099.0</ele><time>2026-05-02T18:45:48Z</time></trkpt><trkpt lat="35.979230371590596" lon="-107.02539710069752"><ele>2099.333333333333</ele><time>2026-05-02T18:45:49Z</time></trkpt><trkpt lat="35.97916896872992" lon="-107.02543342652795"><ele>2099.6666666666665</ele><time>2026-05-02T18:45:50Z</time></trkpt><trkpt lat="35.97910566018704" lon="-107.02545461309228"><ele>2100.0</ele><time>2026-05-02T18:45:51Z</time></trkpt><trkpt lat="35.97904221235905" lon="-107.02547685815212"><ele>2100.3333333333335</ele><time>2026-05-02T18:45:52Z</time></trkpt><trkpt lat="35.97893161340836" lon="-107.02554432110213"><ele>2100.666666666667</ele><time>2026-05-02T18:45:54Z</time></trkpt><trkpt lat="35.97888177162772" lon="-107.02561929458919"><ele>2101.0</ele><time>2026-05-02T18:45:55Z</time></trkpt><trkpt lat="35.978842412780104" lon="-107.02572920215982"><ele>2100.571428571429</ele><time>2026-05-02T18:45:56Z</time></trkpt><trkpt lat="35.97881035817956" lon="-107.0258141245041"><ele>2100.1428571428573</ele><time>2026-05-02T18:45:57Z</time></trkpt><trkpt lat="35.978786337892366" lon="-107.02589265971396"><ele>2099.714285714286</ele><time>2026-05-02T18:45:58Z</time></trkpt><trkpt lat="35.97875586665707" lon="-107.0259730155186"><ele>2099.2857142857147</ele><time>2026-05-02T18:45:59Z</time></trkpt><trkpt lat="35.97871573689743" lon="-107.02604158864722"><ele>2098.857142857143</ele><time>2026-05-02T18:46:00Z</time></trkpt><trkpt lat="35.97866002308862" lon="-107.02609191782764"><ele>2098.4285714285716</ele><time>2026-05-02T18:46:01Z</time></trkpt><trkpt lat="35.97860591581324" lon="-107.02615762740643"><ele>2098.0</ele><time>2026-05-02T18:46:02Z</time></trkpt><trkpt lat="35.97854812761307" lon="-107.02623772633453"><ele>2098.0</ele><time>2026-05-02T18:46:03Z</time></trkpt><trkpt lat="35.97849591470092" lon="-107.02631873596475"><ele>2098.0</ele><time>2026-05-02T18:46:04Z</time></trkpt><trkpt lat="35.978426724257034" lon="-107.02638372059229"><ele>2098.0</ele><time>2026-05-02T18:46:05Z</time></trkpt><trkpt lat="35.97835370332689" lon="-107.02645232682774"><ele>2098.0</ele><time>2026-05-02T18:46:06Z</time></trkpt><trkpt lat="35.97828522015162" lon="-107.02650622562356"><ele>2098.0</ele><time>2026-05-02T18:46:07Z</time></trkpt><trkpt lat="35.97822271020962" lon="-107.02653509768096"><ele>2098.0</ele><time>2026-05-02T18:46:08Z</time></trkpt><trkpt lat="35.97815964111644" lon="-107.02661297636836"><ele>2097.8333333333335</ele><time>2026-05-02T18:46:09Z</time></trkpt><trkpt lat="35.978080486098776" lon="-107.026648405594"><ele>2097.666666666667</ele><time>2026-05-02T18:46:10Z</time></trkpt><trkpt lat="35.977990176596165" lon="-107.02667913577639"><ele>2097.5</ele><time>2026-05-02T18:46:11Z</time></trkpt><trkpt lat="35.97793490863633" lon="-107.02672960441609"><ele>2097.3333333333335</ele><time>2026-05-02T18:46:12Z</time></trkpt><trkpt lat="35.97800328671874" lon="-107.02681248798804"><ele>2097.1666666666665</ele><time>2026-05-02T18:46:15Z</time></trkpt><trkpt lat="35.97808181001919" lon="-107.0268512873574"><ele>2097.0</ele><time>2026-05-02T18:46:16Z</time></trkpt><trkpt lat="35.9781017381351" lon="-107.0269362527308"><ele>2097.0</ele><time>2026-05-02T18:46:17Z</time></trkpt><trkpt lat="35.97809027196229" lon="-107.02705174825168"><ele>2097.0</ele><time>2026-05-02T18:46:19Z</time></trkpt><trkpt lat="35.97802576634065" lon="-107.02712544514364"><ele>2097.0</ele><time>2026-05-02T18:46:21Z</time></trkpt><trkpt lat="35.97796030445209" lon="-107.02722872322326"><ele>2097.0</ele><time>2026-05-02T18:46:22Z</time></trkpt><trkpt lat="35.9779024905953" lon="-107.02729527965577"><ele>2097.0</ele><time>2026-05-02T18:46:23Z</time></trkpt><trkpt lat="35.97782553709264" lon="-107.02732152032235"><ele>2097.0</ele><time>2026-05-02T18:46:24Z</time></trkpt><trkpt lat="35.97775527223178" lon="-107.02737700017137"><ele>2097.0</ele><time>2026-05-02T18:46:25Z</time></trkpt><trkpt lat="35.97767543901778" lon="-107.02744009585534"><ele>2097.0</ele><time>2026-05-02T18:46:26Z</time></trkpt><trkpt lat="35.977588472576144" lon="-107.02743821423562"><ele>2097.0</ele><time>2026-05-02T18:46:27Z</time></trkpt><trkpt lat="35.97752997489847" lon="-107.02736653192515"><ele>2097.0</ele><time>2026-05-02T18:46:29Z</time></trkpt><trkpt lat="35.97752749215499" lon="-107.0272869378653"><ele>2097.0</ele><time>2026-05-02T18:46:30Z</time></trkpt><trkpt lat="35.977416092296906" lon="-107.02729202433801"><ele>2097.0</ele><time>2026-05-02T18:46:32Z</time></trkpt><trkpt lat="35.977341068244804" lon="-107.02726922604876"><ele>2097.4</ele><time>2026-05-02T18:46:33Z</time></trkpt><trkpt lat="35.97723945143814" lon="-107.02722398807046"><ele>2097.7999999999997</ele><time>2026-05-02T18:46:35Z</time></trkpt><trkpt lat="35.97717421496729" lon="-107.02718722472315"><ele>2098.2</ele><time>2026-05-02T18:46:36Z</time></trkpt><trkpt lat="35.977104206524125" lon="-107.02715889474993"><ele>2098.6</ele><time>2026-05-02T18:46:37Z</time></trkpt><trkpt lat="35.976998171873184" lon="-107.02724869705682"><ele>2099.0</ele><time>2026-05-02T18:46:39Z</time></trkpt><trkpt lat="35.97691413242144" lon="-107.02726598802725"><ele>2099.0</ele><time>2026-05-02T18:46:41Z</time></trkpt><trkpt lat="35.97684820770788" lon="-107.02723799236328"><ele>2099.0</ele><time>2026-05-02T18:46:42Z</time></trkpt><trkpt lat="35.97678447104692" lon="-107.02718146906156"><ele>2099.0</ele><time>2026-05-02T18:46:43Z</time></trkpt><trkpt lat="35.976717762002586" lon="-107.02716870205592"><ele>2099.0</ele><time>2026-05-02T18:46:44Z</time></trkpt><trkpt lat="35.976634985698375" lon="-107.02717699827375"><ele>2099.0</ele><time>2026-05-02T18:46:45Z</time></trkpt><trkpt lat="35.976554815458535" lon="-107.02715452612559"><ele>2099.0</ele><time>2026-05-02T18:46:46Z</time></trkpt><trkpt lat="35.97648023936062" lon="-107.02717955392416"><ele>2098.2</ele><time>2026-05-02T18:46:47Z</time></trkpt><trkpt lat="35.976403492291475" lon="-107.02730054210822"><ele>2097.4</ele><time>2026-05-02T18:46:49Z</time></trkpt><trkpt lat="35.97641152779364" lon="-107.02741182974401"><ele>2096.6</ele><time>2026-05-02T18:46:50Z</time></trkpt><trkpt lat="35.9764130863232" lon="-107.02750217654531"><ele>2095.8</ele><time>2026-05-02T18:46:51Z</time></trkpt><trkpt lat="35.976352044669355" lon="-107.02760849446872"><ele>2095.0</ele><time>2026-05-02T18:46:52Z</time></trkpt><trkpt lat="35.97633452304487" lon="-107.02771595411213"><ele>2095.0</ele><time>2026-05-02T18:46:53Z</time></trkpt><trkpt lat="35.976326574337754" lon="-107.02779739610178"><ele>2095.0</ele><time>2026-05-02T18:46:54Z</time></trkpt><trkpt lat="35.97623246840667" lon="-107.0278449682319"><ele>2095.0</ele><time>2026-05-02T18:46:56Z</time></trkpt><trkpt lat="35.976134289357326" lon="-107.02787700544773"><ele>2095.0</ele><time>2026-05-02T18:46:57Z</time></trkpt><trkpt lat="35.976045737231914" lon="-107.02792403189038"><ele>2095.0</ele><time>2026-05-02T18:46:58Z</time></trkpt><trkpt lat="35.97598664309792" lon="-107.02795641991064"><ele>2095.0</ele><time>2026-05-02T18:46:59Z</time></trkpt><trkpt lat="35.97590430245735" lon="-107.0279533260881"><ele>2094.4</ele><time>2026-05-02T18:47:02Z</time></trkpt><trkpt lat="35.97584097354602" lon="-107.02792367871088"><ele>2093.8</ele><time>2026-05-02T18:47:04Z</time></trkpt><trkpt lat="35.97579469883562" lon="-107.02799101798517"><ele>2093.2</ele><time>2026-05-02T18:47:06Z</time></trkpt><trkpt lat="35.97568375777154" lon="-107.0280550863728"><ele>2092.6</ele><time>2026-05-02T18:47:08Z</time></trkpt><trkpt lat="35.97565473981845" lon="-107.02816067209459"><ele>2092.0</ele><time>2026-05-02T18:47:10Z</time></trkpt><trkpt lat="35.975616999193235" lon="-107.02829908733132"><ele>2091.666666666667</ele><time>2026-05-02T18:47:12Z</time></trkpt><trkpt lat="35.97557129287486" lon="-107.02835274379798"><ele>2091.3333333333335</ele><time>2026-05-02T18:47:13Z</time></trkpt><trkpt lat="35.97553318884278" lon="-107.02849033955681"><ele>2091.0</ele><time>2026-05-02T18:47:15Z</time></trkpt><trkpt lat="35.97552345206072" lon="-107.02857641822813"><ele>2090.6666666666665</ele><time>2026-05-02T18:47:16Z</time></trkpt><trkpt lat="35.9755145465781" lon="-107.0286673869448"><ele>2090.333333333333</ele><time>2026-05-02T18:47:17Z</time></trkpt><trkpt lat="35.975497649111155" lon="-107.02877171099166"><ele>2090.0</ele><time>2026-05-02T18:47:18Z</time></trkpt><trkpt lat="35.97547615919017" lon="-107.02885842825145"><ele>2090.0</ele><time>2026-05-02T18:47:19Z</time></trkpt><trkpt lat="35.97544431759359" lon="-107.0289332028399"><ele>2090.0</ele><time>2026-05-02T18:47:20Z</time></trkpt><trkpt lat="35.975404722197865" lon="-107.02900124203481"><ele>2090.0</ele><time>2026-05-02T18:47:21Z</time></trkpt><trkpt lat="35.97527022059645" lon="-107.02900606486675"><ele>2090.0</ele><time>2026-05-02T18:47:23Z</time></trkpt><trkpt lat="35.97520115745678" lon="-107.0290188942151"><ele>2090.0</ele><time>2026-05-02T18:47:24Z</time></trkpt><trkpt lat="35.97512432625216" lon="-107.0290236808919"><ele>2090.0</ele><time>2026-05-02T18:47:25Z</time></trkpt><trkpt lat="35.97505384949972" lon="-107.02900769690038"><ele>2089.75</ele><time>2026-05-02T18:47:26Z</time></trkpt><trkpt lat="35.9749218403843" lon="-107.02891326868736"><ele>2089.5</ele><time>2026-05-02T18:47:27Z</time></trkpt><trkpt lat="35.97482634054666" lon="-107.02891975793297"><ele>2089.25</ele><time>2026-05-02T18:47:28Z</time></trkpt><trkpt lat="35.97474432588372" lon="-107.02893365685374"><ele>2089.0</ele><time>2026-05-02T18:47:29Z</time></trkpt><trkpt lat="35.97462690095898" lon="-107.02889328868643"><ele>2089.0</ele><time>2026-05-02T18:47:31Z</time></trkpt><trkpt lat="35.974559314188234" lon="-107.02885950057163"><ele>2089.0</ele><time>2026-05-02T18:47:32Z</time></trkpt><trkpt lat="35.974478637834274" lon="-107.02881370489486"><ele>2089.0</ele><time>2026-05-02T18:47:33Z</time></trkpt><trkpt lat="35.97435111596021" lon="-107.0287553887703"><ele>2089.0</ele><time>2026-05-02T18:47:34Z</time></trkpt><trkpt lat="35.97423368046707" lon="-107.02869479461397"><ele>2089.0</ele><time>2026-05-02T18:47:35Z</time></trkpt><trkpt lat="35.97411249312131" lon="-107.02869700080745"><ele>2088.4</ele><time>2026-05-02T18:47:37Z</time></trkpt><trkpt lat="35.974004041088875" lon="-107.0287216162635"><ele>2087.8</ele><time>2026-05-02T18:47:38Z</time></trkpt><trkpt lat="35.97393357436599" lon="-107.02874935908741"><ele>2087.2</ele><time>2026-05-02T18:47:40Z</time></trkpt><trkpt lat="35.97382278814145" lon="-107.02876344524947"><ele>2086.6</ele><time>2026-05-02T18:47:42Z</time></trkpt><trkpt lat="35.973737436701086" lon="-107.02876289663776"><ele>2086.0</ele><time>2026-05-02T18:47:43Z</time></trkpt><trkpt lat="35.97363709561442" lon="-107.02874913675733"><ele>2086.0</ele><time>2026-05-02T18:47:44Z</time></trkpt><trkpt lat="35.9735387833962" lon="-107.02874435184182"><ele>2086.0</ele><time>2026-05-02T18:47:45Z</time></trkpt><trkpt lat="35.97346495600113" lon="-107.02876679908672"><ele>2086.0</ele><time>2026-05-02T18:47:47Z</time></trkpt><trkpt lat="35.973464173819636" lon="-107.02891998698863"><ele>2086.0</ele><time>2026-05-02T18:47:49Z</time></trkpt><trkpt lat="35.97348870834663" lon="-107.02912518484433"><ele>2086.6</ele><time>2026-05-02T18:47:51Z</time></trkpt><trkpt lat="35.973538505097636" lon="-107.02923951068733"><ele>2087.2</ele><time>2026-05-02T18:47:52Z</time></trkpt><trkpt lat="35.97360367973013" lon="-107.02935038228149"><ele>2087.8</ele><time>2026-05-02T18:47:53Z</time></trkpt><trkpt lat="35.973641522291715" lon="-107.02946781340019"><ele>2088.4</ele><time>2026-05-02T18:47:54Z</time></trkpt><trkpt lat="35.97367174309533" lon="-107.02962271855382"><ele>2089.0</ele><time>2026-05-02T18:47:55Z</time></trkpt><trkpt lat="35.97369153938334" lon="-107.02974733067374"><ele>2089.0</ele><time>2026-05-02T18:47:56Z</time></trkpt><trkpt lat="35.97372547686855" lon="-107.02989602498087"><ele>2089.0</ele><time>2026-05-02T18:47:57Z</time></trkpt><trkpt lat="35.97375611926112" lon="-107.03000534860374"><ele>2089.0</ele><time>2026-05-02T18:47:58Z</time></trkpt><trkpt lat="35.97379223374225" lon="-107.03006983741984"><ele>2089.0</ele><time>2026-05-02T18:47:59Z</time></trkpt><trkpt lat="35.97386428592989" lon="-107.0301072731912"><ele>2089.0</ele><time>2026-05-02T18:48:00Z</time></trkpt><trkpt lat="35.973959672747746" lon="-107.03015802523534"><ele>2089.4</ele><time>2026-05-02T18:48:01Z</time></trkpt><trkpt lat="35.97401031218365" lon="-107.03022236010263"><ele>2089.8</ele><time>2026-05-02T18:48:02Z</time></trkpt><trkpt lat="35.97401337843031" lon="-107.03037258491311"><ele>2090.2</ele><time>2026-05-02T18:48:04Z</time></trkpt><trkpt lat="35.974016184647205" lon="-107.0304558247827"><ele>2090.6</ele><time>2026-05-02T18:48:05Z</time></trkpt><trkpt lat="35.97406403466877" lon="-107.0305732827099"><ele>2091.0</ele><time>2026-05-02T18:48:07Z</time></trkpt><trkpt lat="35.97413873329255" lon="-107.03062900614167"><ele>2090.6666666666665</ele><time>2026-05-02T18:48:09Z</time></trkpt><trkpt lat="35.974202962427825" lon="-107.03069585969448"><ele>2090.3333333333335</ele><time>2026-05-02T18:48:11Z</time></trkpt><trkpt lat="35.97426273578311" lon="-107.03076523066022"><ele>2090.0</ele><time>2026-05-02T18:48:13Z</time></trkpt><trkpt lat="35.97434142426243" lon="-107.03080137011663"><ele>2089.666666666667</ele><time>2026-05-02T18:48:15Z</time></trkpt><trkpt lat="35.97439967141919" lon="-107.03083194002406"><ele>2089.3333333333335</ele><time>2026-05-02T18:48:16Z</time></trkpt><trkpt lat="35.97449822029981" lon="-107.0308793596918"><ele>2089.0</ele><time>2026-05-02T18:48:18Z</time></trkpt><trkpt lat="35.97459793887334" lon="-107.03092332151643"><ele>2089.0</ele><time>2026-05-02T18:48:20Z</time></trkpt><trkpt lat="35.974682192617" lon="-107.03094069749571"><ele>2089.0</ele><time>2026-05-02T18:48:22Z</time></trkpt><trkpt lat="35.97479123848848" lon="-107.03095868017496"><ele>2089.0</ele><time>2026-05-02T18:48:24Z</time></trkpt><trkpt lat="35.97487871711976" lon="-107.03098880793961"><ele>2089.0</ele><time>2026-05-02T18:48:26Z</time></trkpt><trkpt lat="35.974964669572486" lon="-107.03104468909667"><ele>2089.0</ele><time>2026-05-02T18:48:28Z</time></trkpt><trkpt lat="35.97504802332754" lon="-107.03110610054694"><ele>2089.3333333333335</ele><time>2026-05-02T18:48:30Z</time></trkpt><trkpt lat="35.97512500329513" lon="-107.03116144738615"><ele>2089.666666666667</ele><time>2026-05-02T18:48:32Z</time></trkpt><trkpt lat="35.975196642762796" lon="-107.03117734898483"><ele>2090.0</ele><time>2026-05-02T18:48:34Z</time></trkpt><trkpt lat="35.97530543269366" lon="-107.03118698349412"><ele>2090.3333333333335</ele><time>2026-05-02T18:48:36Z</time></trkpt><trkpt lat="35.975372841706246" lon="-107.03121982664914"><ele>2090.6666666666665</ele><time>2026-05-02T18:48:37Z</time></trkpt><trkpt lat="35.97546462275814" lon="-107.03124992163063"><ele>2091.0</ele><time>2026-05-02T18:48:39Z</time></trkpt><trkpt lat="35.9755441404048" lon="-107.03128320778782"><ele>2091.0</ele><time>2026-05-02T18:48:42Z</time></trkpt><trkpt lat="35.975601007307816" lon="-107.03137183081967"><ele>2091.0</ele><time>2026-05-02T18:48:44Z</time></trkpt><trkpt lat="35.97560061258268" lon="-107.03150484507172"><ele>2091.0</ele><time>2026-05-02T18:48:46Z</time></trkpt><trkpt lat="35.97558265107062" lon="-107.03163580571305"><ele>2091.0</ele><time>2026-05-02T18:48:48Z</time></trkpt><trkpt lat="35.97554674319368" lon="-107.03170689891401"><ele>2091.0</ele><time>2026-05-02T18:48:49Z</time></trkpt><trkpt lat="35.97548377426916" lon="-107.03181951097733"><ele>2091.0</ele><time>2026-05-02T18:48:51Z</time></trkpt><trkpt lat="35.97539157315135" lon="-107.03189433650897"><ele>2091.0</ele><time>2026-05-02T18:48:53Z</time></trkpt><trkpt lat="35.97532512326498" lon="-107.03190241955556"><ele>2091.0</ele><time>2026-05-02T18:48:55Z</time></trkpt><trkpt lat="35.975264365509894" lon="-107.03187993735625"><ele>2091.0</ele><time>2026-05-02T18:48:58Z</time></trkpt></trkseg></trk></gpx>